<?xml version="1.0" encoding="UTF-8" standalone="no" ?>
<gpx xmlns="http://www.topografix.com/GPX/1/1" xmlns:xsi="http://www.w3.org/2001/XMLSchema-instance" xsi:schemaLocation="http://www.topografix.com/GPX/1/1 http://www.topografix.com/GPX/1/1/gpx.xsd" version="1.1" creator="VisuGPX - https://www.visugpx.com">
  <metadata>
    <name>Haut Jura</name>
    <desc><![CDATA[
Randonnées ]]></desc>
  </metadata>
  <wpt lat="46.53494" lon="5.92031">
    <ele>877.0546875</ele>
    <name><![CDATA[Abbaye En Grandvaux]]></name>
    <desc><![CDATA[Abbaye En Grandvaux]]></desc>
    <cmt><![CDATA[Abbaye En Grandvaux]]></cmt>
    <type><![CDATA[user]]></type>
  </wpt>
  <wpt lat="46.51158" lon="5.83825">
    <ele>913.7890625</ele>
    <name><![CDATA[Cap France Le Duchet]]></name>
    <type><![CDATA[user]]></type>
  </wpt>
  <wpt lat="46.61466" lon="5.86872">
    <ele>710.71875</ele>
    <name><![CDATA[Cascade du hérisson]]></name>
    <type><![CDATA[user]]></type>
  </wpt>
  <wpt lat="46.5758" lon="5.75141">
    <ele>542.484375</ele>
    <name><![CDATA[Clairvaux-Les-Lacs]]></name>
    <type><![CDATA[user]]></type>
  </wpt>
  <wpt lat="46.61757" lon="5.88041">
    <ele>769.328125</ele>
    <name><![CDATA[La Fromagerie]]></name>
    <type><![CDATA[user]]></type>
  </wpt>
  <wpt lat="46.61364" lon="5.85054">
    <ele>534.63671875</ele>
    <name><![CDATA[Maison Des Cascades Du Hérisson]]></name>
    <desc><![CDATA[Maison Des Cascades Du Hérisson]]></desc>
    <cmt><![CDATA[Maison Des Cascades Du Hérisson]]></cmt>
    <type><![CDATA[user]]></type>
  </wpt>
  <wpt lat="46.6097" lon="5.9042">
    <ele>943</ele>
    <name><![CDATA[Parking du Pic de l'Aigle]]></name>
    <type><![CDATA[user]]></type>
  </wpt>
  <wpt lat="46.61803" lon="5.8822">
    <ele>770.25390625</ele>
    <name><![CDATA[Parking La Fromagerie]]></name>
    <desc><![CDATA[L'Éolienne]]></desc>
    <cmt><![CDATA[L'Éolienne]]></cmt>
    <type><![CDATA[user]]></type>
  </wpt>
  <wpt lat="46.61466" lon="5.90166">
    <ele>955.24609375</ele>
    <name><![CDATA[Pic de l'Aigle]]></name>
    <type><![CDATA[user]]></type>
  </wpt>
  <wpt lat="46.51203" lon="5.84005">
    <ele>906.57421875</ele>
    <name><![CDATA[Prénovel]]></name>
    <type><![CDATA[user]]></type>
  </wpt>
  <wpt lat="46.57526" lon="5.95631">
    <ele>911.5625</ele>
    <name><![CDATA[Saint-Laurent-En-Grandvaux]]></name>
    <type><![CDATA[user]]></type>
  </wpt>
  <trk>
    <name><![CDATA[J1 - La Tourbière de Prénovel_R]]></name>
    <trkseg>
      <trkpt lat="46.51192" lon="5.83859">
        <ele>906.87</ele>
        <time>2019-11-13T08:39:43Z</time>
      </trkpt>
      <trkpt lat="46.51189" lon="5.83867">
        <ele>903.66</ele>
        <time>2019-11-13T08:41:33Z</time>
      </trkpt>
      <trkpt lat="46.51187" lon="5.83873">
        <ele>903.7</ele>
        <time>2019-11-13T08:41:49Z</time>
      </trkpt>
      <trkpt lat="46.51183" lon="5.83885">
        <ele>906.16</ele>
        <time>2019-11-13T08:42:09Z</time>
      </trkpt>
      <trkpt lat="46.5118" lon="5.83896">
        <ele>906.03</ele>
        <time>2019-11-13T08:42:25Z</time>
      </trkpt>
      <trkpt lat="46.51171" lon="5.83915">
        <ele>905.04</ele>
        <time>2019-11-13T08:42:43Z</time>
      </trkpt>
      <trkpt lat="46.51165" lon="5.83937">
        <ele>904.39</ele>
        <time>2019-11-13T08:42:52Z</time>
      </trkpt>
      <trkpt lat="46.5116" lon="5.83961">
        <ele>903.59</ele>
        <time>2019-11-13T08:43:07Z</time>
      </trkpt>
      <trkpt lat="46.51158" lon="5.83965">
        <ele>902.76</ele>
        <time>2019-11-13T08:43:25Z</time>
      </trkpt>
      <trkpt lat="46.51155" lon="5.83967">
        <ele>902.64</ele>
        <time>2019-11-13T08:43:36Z</time>
      </trkpt>
      <trkpt lat="46.51149" lon="5.83961">
        <ele>902.29</ele>
        <time>2019-11-13T08:43:43Z</time>
      </trkpt>
      <trkpt lat="46.51141" lon="5.83963">
        <ele>902.26</ele>
        <time>2019-11-13T08:43:56Z</time>
      </trkpt>
      <trkpt lat="46.51139" lon="5.83969">
        <ele>902.47</ele>
        <time>2019-11-13T08:44:00Z</time>
      </trkpt>
      <trkpt lat="46.51128" lon="5.83989">
        <ele>902.55</ele>
        <time>2019-11-13T08:44:18Z</time>
      </trkpt>
      <trkpt lat="46.51122" lon="5.8399">
        <ele>902.99</ele>
        <time>2019-11-13T08:44:26Z</time>
      </trkpt>
      <trkpt lat="46.51121" lon="5.83992">
        <ele>903.43</ele>
        <time>2019-11-13T08:44:41Z</time>
      </trkpt>
      <trkpt lat="46.51124" lon="5.83994">
        <ele>902.89</ele>
        <time>2019-11-13T08:44:44Z</time>
      </trkpt>
      <trkpt lat="46.5113" lon="5.84005">
        <ele>903.53</ele>
        <time>2019-11-13T08:45:01Z</time>
      </trkpt>
      <trkpt lat="46.51123" lon="5.84014">
        <ele>903.54</ele>
        <time>2019-11-13T08:45:25Z</time>
      </trkpt>
      <trkpt lat="46.51122" lon="5.84022">
        <ele>903.63</ele>
        <time>2019-11-13T08:45:53Z</time>
      </trkpt>
      <trkpt lat="46.51119" lon="5.84027">
        <ele>903.59</ele>
        <time>2019-11-13T08:47:09Z</time>
      </trkpt>
      <trkpt lat="46.51122" lon="5.84023">
        <ele>903.58</ele>
        <time>2019-11-13T08:47:24Z</time>
      </trkpt>
      <trkpt lat="46.51126" lon="5.84017">
        <ele>903.59</ele>
        <time>2019-11-13T08:47:44Z</time>
      </trkpt>
      <trkpt lat="46.51132" lon="5.84006">
        <ele>903.23</ele>
        <time>2019-11-13T08:48:04Z</time>
      </trkpt>
      <trkpt lat="46.51139" lon="5.84004">
        <ele>902.97</ele>
        <time>2019-11-13T08:48:18Z</time>
      </trkpt>
      <trkpt lat="46.51143" lon="5.84003">
        <ele>904.71</ele>
        <time>2019-11-13T08:48:22Z</time>
      </trkpt>
      <trkpt lat="46.51147" lon="5.84">
        <ele>902.55</ele>
        <time>2019-11-13T08:48:27Z</time>
      </trkpt>
      <trkpt lat="46.51159" lon="5.84002">
        <ele>901.47</ele>
        <time>2019-11-13T08:48:43Z</time>
      </trkpt>
      <trkpt lat="46.51164" lon="5.84002">
        <ele>900.88</ele>
        <time>2019-11-13T08:48:56Z</time>
      </trkpt>
      <trkpt lat="46.51168" lon="5.84">
        <ele>899.75</ele>
        <time>2019-11-13T08:49:09Z</time>
      </trkpt>
      <trkpt lat="46.51185" lon="5.83991">
        <ele>897.89</ele>
        <time>2019-11-13T08:49:27Z</time>
      </trkpt>
      <trkpt lat="46.51199" lon="5.83981">
        <ele>896.62</ele>
        <time>2019-11-13T08:49:44Z</time>
      </trkpt>
      <trkpt lat="46.51218" lon="5.83976">
        <ele>896.02</ele>
        <time>2019-11-13T08:49:59Z</time>
      </trkpt>
      <trkpt lat="46.51226" lon="5.83964">
        <ele>896.69</ele>
        <time>2019-11-13T08:50:10Z</time>
      </trkpt>
      <trkpt lat="46.51236" lon="5.8396">
        <ele>897.53</ele>
        <time>2019-11-13T08:50:27Z</time>
      </trkpt>
      <trkpt lat="46.51238" lon="5.83962">
        <ele>897.48</ele>
        <time>2019-11-13T08:50:30Z</time>
      </trkpt>
      <trkpt lat="46.51242" lon="5.83969">
        <ele>897.28</ele>
        <time>2019-11-13T08:50:37Z</time>
      </trkpt>
      <trkpt lat="46.51248" lon="5.83977">
        <ele>896.47</ele>
        <time>2019-11-13T08:50:44Z</time>
      </trkpt>
      <trkpt lat="46.51263" lon="5.83988">
        <ele>895.36</ele>
        <time>2019-11-13T08:51:01Z</time>
      </trkpt>
      <trkpt lat="46.51275" lon="5.83996">
        <ele>895</ele>
        <time>2019-11-13T08:51:15Z</time>
      </trkpt>
      <trkpt lat="46.51295" lon="5.84011">
        <ele>894.04</ele>
        <time>2019-11-13T08:51:35Z</time>
      </trkpt>
      <trkpt lat="46.51306" lon="5.8404">
        <ele>892.8</ele>
        <time>2019-11-13T08:51:57Z</time>
      </trkpt>
      <trkpt lat="46.51304" lon="5.84062">
        <ele>891.84</ele>
        <time>2019-11-13T08:52:13Z</time>
      </trkpt>
      <trkpt lat="46.51301" lon="5.84076">
        <ele>891.46</ele>
        <time>2019-11-13T08:52:27Z</time>
      </trkpt>
      <trkpt lat="46.51301" lon="5.84079">
        <ele>891.38</ele>
        <time>2019-11-13T08:52:52Z</time>
      </trkpt>
      <trkpt lat="46.513" lon="5.84085">
        <ele>890.75</ele>
        <time>2019-11-13T08:52:56Z</time>
      </trkpt>
      <trkpt lat="46.51291" lon="5.84112">
        <ele>890.14</ele>
        <time>2019-11-13T08:53:13Z</time>
      </trkpt>
      <trkpt lat="46.51288" lon="5.84131">
        <ele>890.01</ele>
        <time>2019-11-13T08:53:27Z</time>
      </trkpt>
      <trkpt lat="46.51282" lon="5.84155">
        <ele>889.83</ele>
        <time>2019-11-13T08:53:43Z</time>
      </trkpt>
      <trkpt lat="46.51273" lon="5.84181">
        <ele>889.96</ele>
        <time>2019-11-13T08:54:01Z</time>
      </trkpt>
      <trkpt lat="46.51266" lon="5.84201">
        <ele>889.6</ele>
        <time>2019-11-13T08:54:15Z</time>
      </trkpt>
      <trkpt lat="46.51255" lon="5.84223">
        <ele>889.62</ele>
        <time>2019-11-13T08:54:31Z</time>
      </trkpt>
      <trkpt lat="46.51244" lon="5.8425">
        <ele>890.33</ele>
        <time>2019-11-13T08:54:50Z</time>
      </trkpt>
      <trkpt lat="46.5124" lon="5.84256">
        <ele>889.97</ele>
        <time>2019-11-13T08:54:55Z</time>
      </trkpt>
      <trkpt lat="46.51226" lon="5.84276">
        <ele>889.7</ele>
        <time>2019-11-13T08:55:14Z</time>
      </trkpt>
      <trkpt lat="46.51223" lon="5.84279">
        <ele>889.58</ele>
        <time>2019-11-13T08:55:18Z</time>
      </trkpt>
      <trkpt lat="46.51214" lon="5.84287">
        <ele>889.35</ele>
        <time>2019-11-13T08:55:30Z</time>
      </trkpt>
      <trkpt lat="46.512" lon="5.84304">
        <ele>888.35</ele>
        <time>2019-11-13T08:55:49Z</time>
      </trkpt>
      <trkpt lat="46.51191" lon="5.84321">
        <ele>887.85</ele>
        <time>2019-11-13T08:56:03Z</time>
      </trkpt>
      <trkpt lat="46.51182" lon="5.84348">
        <ele>888.3</ele>
        <time>2019-11-13T08:56:20Z</time>
      </trkpt>
      <trkpt lat="46.51182" lon="5.84357">
        <ele>888.36</ele>
        <time>2019-11-13T08:56:26Z</time>
      </trkpt>
      <trkpt lat="46.51184" lon="5.84385">
        <ele>889.45</ele>
        <time>2019-11-13T08:56:43Z</time>
      </trkpt>
      <trkpt lat="46.51186" lon="5.84408">
        <ele>888.6</ele>
        <time>2019-11-13T08:56:59Z</time>
      </trkpt>
      <trkpt lat="46.51181" lon="5.84422">
        <ele>886.81</ele>
        <time>2019-11-13T08:57:19Z</time>
      </trkpt>
      <trkpt lat="46.51179" lon="5.8443">
        <ele>886.51</ele>
        <time>2019-11-13T08:57:38Z</time>
      </trkpt>
      <trkpt lat="46.51179" lon="5.84431">
        <ele>886.99</ele>
        <time>2019-11-13T08:57:47Z</time>
      </trkpt>
      <trkpt lat="46.51174" lon="5.84441">
        <ele>885.49</ele>
        <time>2019-11-13T08:58:02Z</time>
      </trkpt>
      <trkpt lat="46.51173" lon="5.84445">
        <ele>885.25</ele>
        <time>2019-11-13T08:58:05Z</time>
      </trkpt>
      <trkpt lat="46.51168" lon="5.84461">
        <ele>883.55</ele>
        <time>2019-11-13T08:58:18Z</time>
      </trkpt>
      <trkpt lat="46.5116" lon="5.84487">
        <ele>881.67</ele>
        <time>2019-11-13T08:58:37Z</time>
      </trkpt>
      <trkpt lat="46.51155" lon="5.84503">
        <ele>878.67</ele>
        <time>2019-11-13T08:58:47Z</time>
      </trkpt>
      <trkpt lat="46.51143" lon="5.84532">
        <ele>875.66</ele>
        <time>2019-11-13T08:59:06Z</time>
      </trkpt>
      <trkpt lat="46.51133" lon="5.84558">
        <ele>874.25</ele>
        <time>2019-11-13T08:59:26Z</time>
      </trkpt>
      <trkpt lat="46.51118" lon="5.84583">
        <ele>872.36</ele>
        <time>2019-11-13T08:59:45Z</time>
      </trkpt>
      <trkpt lat="46.51116" lon="5.84588">
        <ele>872.69</ele>
        <time>2019-11-13T08:59:56Z</time>
      </trkpt>
      <trkpt lat="46.51116" lon="5.8459">
        <ele>872.64</ele>
        <time>2019-11-13T08:59:58Z</time>
      </trkpt>
      <trkpt lat="46.51106" lon="5.84619">
        <ele>871.34</ele>
        <time>2019-11-13T09:00:19Z</time>
      </trkpt>
      <trkpt lat="46.51098" lon="5.8464">
        <ele>871.32</ele>
        <time>2019-11-13T09:00:35Z</time>
      </trkpt>
      <trkpt lat="46.51098" lon="5.8464">
        <ele>871.05</ele>
        <time>2019-11-13T09:00:37Z</time>
      </trkpt>
      <trkpt lat="46.51099" lon="5.84648">
        <ele>871.01</ele>
        <time>2019-11-13T09:00:50Z</time>
      </trkpt>
      <trkpt lat="46.5111" lon="5.84669">
        <ele>870.79</ele>
        <time>2019-11-13T09:01:07Z</time>
      </trkpt>
      <trkpt lat="46.51125" lon="5.84684">
        <ele>870.67</ele>
        <time>2019-11-13T09:01:25Z</time>
      </trkpt>
      <trkpt lat="46.51144" lon="5.84699">
        <ele>870.44</ele>
        <time>2019-11-13T09:01:46Z</time>
      </trkpt>
      <trkpt lat="46.5115" lon="5.84703">
        <ele>870.96</ele>
        <time>2019-11-13T09:01:52Z</time>
      </trkpt>
      <trkpt lat="46.51173" lon="5.84709">
        <ele>870.61</ele>
        <time>2019-11-13T09:02:12Z</time>
      </trkpt>
      <trkpt lat="46.51194" lon="5.84708">
        <ele>871.04</ele>
        <time>2019-11-13T09:02:30Z</time>
      </trkpt>
      <trkpt lat="46.51214" lon="5.84709">
        <ele>871.68</ele>
        <time>2019-11-13T09:02:47Z</time>
      </trkpt>
      <trkpt lat="46.51221" lon="5.8471">
        <ele>871.55</ele>
        <time>2019-11-13T09:02:58Z</time>
      </trkpt>
      <trkpt lat="46.51226" lon="5.8471">
        <ele>871.33</ele>
        <time>2019-11-13T09:03:02Z</time>
      </trkpt>
      <trkpt lat="46.51231" lon="5.8471">
        <ele>870.24</ele>
        <time>2019-11-13T09:03:07Z</time>
      </trkpt>
      <trkpt lat="46.5124" lon="5.84711">
        <ele>871.87</ele>
        <time>2019-11-13T09:03:14Z</time>
      </trkpt>
      <trkpt lat="46.51266" lon="5.84714">
        <ele>872.62</ele>
        <time>2019-11-13T09:03:36Z</time>
      </trkpt>
      <trkpt lat="46.51271" lon="5.84716">
        <ele>872.94</ele>
        <time>2019-11-13T09:03:54Z</time>
      </trkpt>
      <trkpt lat="46.51279" lon="5.84722">
        <ele>873.12</ele>
        <time>2019-11-13T09:04:09Z</time>
      </trkpt>
      <trkpt lat="46.5128" lon="5.84723">
        <ele>872.76</ele>
        <time>2019-11-13T09:04:11Z</time>
      </trkpt>
      <trkpt lat="46.51295" lon="5.84726">
        <ele>874.11</ele>
        <time>2019-11-13T09:09:45Z</time>
      </trkpt>
      <trkpt lat="46.51333" lon="5.84743">
        <ele>874.98</ele>
        <time>2019-11-13T09:10:23Z</time>
      </trkpt>
      <trkpt lat="46.51355" lon="5.84751">
        <ele>874.59</ele>
        <time>2019-11-13T09:10:42Z</time>
      </trkpt>
      <trkpt lat="46.51368" lon="5.84758">
        <ele>874.47</ele>
        <time>2019-11-13T09:10:54Z</time>
      </trkpt>
      <trkpt lat="46.51389" lon="5.84768">
        <ele>874.13</ele>
        <time>2019-11-13T09:11:12Z</time>
      </trkpt>
      <trkpt lat="46.51401" lon="5.84776">
        <ele>875.19</ele>
        <time>2019-11-13T09:11:25Z</time>
      </trkpt>
      <trkpt lat="46.51409" lon="5.84781">
        <ele>876.05</ele>
        <time>2019-11-13T09:11:35Z</time>
      </trkpt>
      <trkpt lat="46.51424" lon="5.8479">
        <ele>877.17</ele>
        <time>2019-11-13T09:11:52Z</time>
      </trkpt>
      <trkpt lat="46.51434" lon="5.84793">
        <ele>878.11</ele>
        <time>2019-11-13T09:12:04Z</time>
      </trkpt>
      <trkpt lat="46.51453" lon="5.84804">
        <ele>878.36</ele>
        <time>2019-11-13T09:12:23Z</time>
      </trkpt>
      <trkpt lat="46.51467" lon="5.84813">
        <ele>878.75</ele>
        <time>2019-11-13T09:12:37Z</time>
      </trkpt>
      <trkpt lat="46.51483" lon="5.84821">
        <ele>878.34</ele>
        <time>2019-11-13T09:12:53Z</time>
      </trkpt>
      <trkpt lat="46.51501" lon="5.84833">
        <ele>878.2</ele>
        <time>2019-11-13T09:13:10Z</time>
      </trkpt>
      <trkpt lat="46.51521" lon="5.84848">
        <ele>878.18</ele>
        <time>2019-11-13T09:13:29Z</time>
      </trkpt>
      <trkpt lat="46.5154" lon="5.84862">
        <ele>878.38</ele>
        <time>2019-11-13T09:13:48Z</time>
      </trkpt>
      <trkpt lat="46.51559" lon="5.84874">
        <ele>878.5</ele>
        <time>2019-11-13T09:14:06Z</time>
      </trkpt>
      <trkpt lat="46.51577" lon="5.84887">
        <ele>878.68</ele>
        <time>2019-11-13T09:14:24Z</time>
      </trkpt>
      <trkpt lat="46.51602" lon="5.84902">
        <ele>877.44</ele>
        <time>2019-11-13T09:14:46Z</time>
      </trkpt>
      <trkpt lat="46.51623" lon="5.84915">
        <ele>876.29</ele>
        <time>2019-11-13T09:15:06Z</time>
      </trkpt>
      <trkpt lat="46.51643" lon="5.84923">
        <ele>876.73</ele>
        <time>2019-11-13T09:15:23Z</time>
      </trkpt>
      <trkpt lat="46.51644" lon="5.84924">
        <ele>876.27</ele>
        <time>2019-11-13T09:15:27Z</time>
      </trkpt>
      <trkpt lat="46.51661" lon="5.84939">
        <ele>876.46</ele>
        <time>2019-11-13T09:15:44Z</time>
      </trkpt>
      <trkpt lat="46.51675" lon="5.84951">
        <ele>876.19</ele>
        <time>2019-11-13T09:15:57Z</time>
      </trkpt>
      <trkpt lat="46.51692" lon="5.8497">
        <ele>876.87</ele>
        <time>2019-11-13T09:16:14Z</time>
      </trkpt>
      <trkpt lat="46.51701" lon="5.84981">
        <ele>876.79</ele>
        <time>2019-11-13T09:16:24Z</time>
      </trkpt>
      <trkpt lat="46.51705" lon="5.84985">
        <ele>876.44</ele>
        <time>2019-11-13T09:16:28Z</time>
      </trkpt>
      <trkpt lat="46.5172" lon="5.85003">
        <ele>876.31</ele>
        <time>2019-11-13T09:16:44Z</time>
      </trkpt>
      <trkpt lat="46.51738" lon="5.85024">
        <ele>875.63</ele>
        <time>2019-11-13T09:17:03Z</time>
      </trkpt>
      <trkpt lat="46.51757" lon="5.85043">
        <ele>875.59</ele>
        <time>2019-11-13T09:17:23Z</time>
      </trkpt>
      <trkpt lat="46.51774" lon="5.8506">
        <ele>875.31</ele>
        <time>2019-11-13T09:17:41Z</time>
      </trkpt>
      <trkpt lat="46.5179" lon="5.85075">
        <ele>876.06</ele>
        <time>2019-11-13T09:17:57Z</time>
      </trkpt>
      <trkpt lat="46.51807" lon="5.8509">
        <ele>876.37</ele>
        <time>2019-11-13T09:18:14Z</time>
      </trkpt>
      <trkpt lat="46.51809" lon="5.85091">
        <ele>876.2</ele>
        <time>2019-11-13T09:18:16Z</time>
      </trkpt>
      <trkpt lat="46.51828" lon="5.851">
        <ele>874.93</ele>
        <time>2019-11-13T09:18:33Z</time>
      </trkpt>
      <trkpt lat="46.51843" lon="5.85105">
        <ele>874.76</ele>
        <time>2019-11-13T09:18:49Z</time>
      </trkpt>
      <trkpt lat="46.51848" lon="5.8511">
        <ele>874.48</ele>
        <time>2019-11-13T09:18:57Z</time>
      </trkpt>
      <trkpt lat="46.51862" lon="5.85136">
        <ele>874.45</ele>
        <time>2019-11-13T09:19:15Z</time>
      </trkpt>
      <trkpt lat="46.51874" lon="5.85162">
        <ele>874.21</ele>
        <time>2019-11-13T09:19:33Z</time>
      </trkpt>
      <trkpt lat="46.51884" lon="5.85182">
        <ele>874.09</ele>
        <time>2019-11-13T09:19:48Z</time>
      </trkpt>
      <trkpt lat="46.51894" lon="5.85205">
        <ele>873.81</ele>
        <time>2019-11-13T09:20:04Z</time>
      </trkpt>
      <trkpt lat="46.51904" lon="5.85234">
        <ele>873.7</ele>
        <time>2019-11-13T09:20:23Z</time>
      </trkpt>
      <trkpt lat="46.51912" lon="5.85257">
        <ele>873.9</ele>
        <time>2019-11-13T09:20:38Z</time>
      </trkpt>
      <trkpt lat="46.51913" lon="5.85264">
        <ele>874</ele>
        <time>2019-11-13T09:20:42Z</time>
      </trkpt>
      <trkpt lat="46.51915" lon="5.85274">
        <ele>873.42</ele>
        <time>2019-11-13T09:20:48Z</time>
      </trkpt>
      <trkpt lat="46.51924" lon="5.85306">
        <ele>873.34</ele>
        <time>2019-11-13T09:21:07Z</time>
      </trkpt>
      <trkpt lat="46.51932" lon="5.85333">
        <ele>872.28</ele>
        <time>2019-11-13T09:21:25Z</time>
      </trkpt>
      <trkpt lat="46.51941" lon="5.85361">
        <ele>872.85</ele>
        <time>2019-11-13T09:21:43Z</time>
      </trkpt>
      <trkpt lat="46.51949" lon="5.85396">
        <ele>873.37</ele>
        <time>2019-11-13T09:22:03Z</time>
      </trkpt>
      <trkpt lat="46.51957" lon="5.85423">
        <ele>872.77</ele>
        <time>2019-11-13T09:22:21Z</time>
      </trkpt>
      <trkpt lat="46.51968" lon="5.85442">
        <ele>872.67</ele>
        <time>2019-11-13T09:22:38Z</time>
      </trkpt>
      <trkpt lat="46.51986" lon="5.8546">
        <ele>872.97</ele>
        <time>2019-11-13T09:22:55Z</time>
      </trkpt>
      <trkpt lat="46.5199" lon="5.85466">
        <ele>873.12</ele>
        <time>2019-11-13T09:23:00Z</time>
      </trkpt>
      <trkpt lat="46.52003" lon="5.8548">
        <ele>872.66</ele>
        <time>2019-11-13T09:23:13Z</time>
      </trkpt>
      <trkpt lat="46.5202" lon="5.855">
        <ele>872.27</ele>
        <time>2019-11-13T09:23:31Z</time>
      </trkpt>
      <trkpt lat="46.52025" lon="5.85507">
        <ele>872.31</ele>
        <time>2019-11-13T09:23:48Z</time>
      </trkpt>
      <trkpt lat="46.52028" lon="5.8551">
        <ele>871.89</ele>
        <time>2019-11-13T09:24:05Z</time>
      </trkpt>
      <trkpt lat="46.52029" lon="5.85512">
        <ele>871.83</ele>
        <time>2019-11-13T09:24:30Z</time>
      </trkpt>
      <trkpt lat="46.52028" lon="5.85526">
        <ele>871.59</ele>
        <time>2019-11-13T09:24:47Z</time>
      </trkpt>
      <trkpt lat="46.52024" lon="5.85537">
        <ele>871.71</ele>
        <time>2019-11-13T09:25:02Z</time>
      </trkpt>
      <trkpt lat="46.52022" lon="5.85549">
        <ele>872.07</ele>
        <time>2019-11-13T09:25:16Z</time>
      </trkpt>
      <trkpt lat="46.52019" lon="5.85561">
        <ele>871.21</ele>
        <time>2019-11-13T09:25:27Z</time>
      </trkpt>
      <trkpt lat="46.52017" lon="5.85577">
        <ele>871.75</ele>
        <time>2019-11-13T09:25:42Z</time>
      </trkpt>
      <trkpt lat="46.52016" lon="5.85586">
        <ele>871.47</ele>
        <time>2019-11-13T09:25:49Z</time>
      </trkpt>
      <trkpt lat="46.5202" lon="5.85611">
        <ele>873.11</ele>
        <time>2019-11-13T09:26:06Z</time>
      </trkpt>
      <trkpt lat="46.52027" lon="5.85626">
        <ele>874.37</ele>
        <time>2019-11-13T09:26:19Z</time>
      </trkpt>
      <trkpt lat="46.52038" lon="5.85639">
        <ele>874.27</ele>
        <time>2019-11-13T09:26:35Z</time>
      </trkpt>
      <trkpt lat="46.52038" lon="5.85637">
        <ele>874.2</ele>
        <time>2019-11-13T09:26:50Z</time>
      </trkpt>
      <trkpt lat="46.52039" lon="5.85636">
        <ele>874.36</ele>
        <time>2019-11-13T09:27:09Z</time>
      </trkpt>
      <trkpt lat="46.5204" lon="5.85637">
        <ele>873.65</ele>
        <time>2019-11-13T09:27:28Z</time>
      </trkpt>
      <trkpt lat="46.52042" lon="5.85639">
        <ele>873.49</ele>
        <time>2019-11-13T09:27:46Z</time>
      </trkpt>
      <trkpt lat="46.5204" lon="5.8565">
        <ele>872.97</ele>
        <time>2019-11-13T09:28:00Z</time>
      </trkpt>
      <trkpt lat="46.52038" lon="5.85653">
        <ele>872.33</ele>
        <time>2019-11-13T09:28:22Z</time>
      </trkpt>
      <trkpt lat="46.52037" lon="5.85653">
        <ele>873.32</ele>
        <time>2019-11-13T09:28:42Z</time>
      </trkpt>
      <trkpt lat="46.52037" lon="5.8565">
        <ele>873.68</ele>
        <time>2019-11-13T09:28:58Z</time>
      </trkpt>
      <trkpt lat="46.52037" lon="5.8565">
        <ele>872.89</ele>
        <time>2019-11-13T09:29:21Z</time>
      </trkpt>
      <trkpt lat="46.52038" lon="5.85653">
        <ele>872.5</ele>
        <time>2019-11-13T09:29:58Z</time>
      </trkpt>
      <trkpt lat="46.52037" lon="5.85653">
        <ele>872.63</ele>
        <time>2019-11-13T09:30:20Z</time>
      </trkpt>
      <trkpt lat="46.52039" lon="5.85651">
        <ele>873.46</ele>
        <time>2019-11-13T09:30:44Z</time>
      </trkpt>
      <trkpt lat="46.52039" lon="5.8565">
        <ele>873.48</ele>
        <time>2019-11-13T09:31:11Z</time>
      </trkpt>
      <trkpt lat="46.52039" lon="5.85652">
        <ele>873.06</ele>
        <time>2019-11-13T09:31:35Z</time>
      </trkpt>
      <trkpt lat="46.52039" lon="5.85651">
        <ele>872.79</ele>
        <time>2019-11-13T09:31:55Z</time>
      </trkpt>
      <trkpt lat="46.52042" lon="5.85652">
        <ele>873.28</ele>
        <time>2019-11-13T09:32:11Z</time>
      </trkpt>
      <trkpt lat="46.52052" lon="5.85658">
        <ele>873.47</ele>
        <time>2019-11-13T09:32:26Z</time>
      </trkpt>
      <trkpt lat="46.52055" lon="5.85661">
        <ele>873.23</ele>
        <time>2019-11-13T09:32:30Z</time>
      </trkpt>
      <trkpt lat="46.52064" lon="5.85665">
        <ele>872.31</ele>
        <time>2019-11-13T09:32:40Z</time>
      </trkpt>
      <trkpt lat="46.52068" lon="5.85668">
        <ele>872.76</ele>
        <time>2019-11-13T09:32:45Z</time>
      </trkpt>
      <trkpt lat="46.52077" lon="5.85674">
        <ele>873.01</ele>
        <time>2019-11-13T09:32:55Z</time>
      </trkpt>
      <trkpt lat="46.52083" lon="5.85679">
        <ele>872.75</ele>
        <time>2019-11-13T09:33:01Z</time>
      </trkpt>
      <trkpt lat="46.52102" lon="5.85692">
        <ele>871.45</ele>
        <time>2019-11-13T09:33:19Z</time>
      </trkpt>
      <trkpt lat="46.52118" lon="5.85702">
        <ele>871.19</ele>
        <time>2019-11-13T09:33:34Z</time>
      </trkpt>
      <trkpt lat="46.52134" lon="5.85717">
        <ele>870.84</ele>
        <time>2019-11-13T09:33:50Z</time>
      </trkpt>
      <trkpt lat="46.52138" lon="5.85722">
        <ele>871.13</ele>
        <time>2019-11-13T09:33:55Z</time>
      </trkpt>
      <trkpt lat="46.52152" lon="5.85735">
        <ele>870.44</ele>
        <time>2019-11-13T09:34:09Z</time>
      </trkpt>
      <trkpt lat="46.52164" lon="5.85741">
        <ele>870.55</ele>
        <time>2019-11-13T09:34:20Z</time>
      </trkpt>
      <trkpt lat="46.52175" lon="5.85748">
        <ele>870.73</ele>
        <time>2019-11-13T09:34:31Z</time>
      </trkpt>
      <trkpt lat="46.52189" lon="5.85762">
        <ele>871.04</ele>
        <time>2019-11-13T09:34:46Z</time>
      </trkpt>
      <trkpt lat="46.52191" lon="5.85764">
        <ele>870.93</ele>
        <time>2019-11-13T09:34:49Z</time>
      </trkpt>
      <trkpt lat="46.52199" lon="5.85767">
        <ele>871.1</ele>
        <time>2019-11-13T09:35:05Z</time>
      </trkpt>
      <trkpt lat="46.52205" lon="5.85772">
        <ele>870.93</ele>
        <time>2019-11-13T09:35:22Z</time>
      </trkpt>
      <trkpt lat="46.52212" lon="5.85786">
        <ele>871.31</ele>
        <time>2019-11-13T09:35:42Z</time>
      </trkpt>
      <trkpt lat="46.52215" lon="5.85794">
        <ele>870.85</ele>
        <time>2019-11-13T09:35:57Z</time>
      </trkpt>
      <trkpt lat="46.52219" lon="5.85816">
        <ele>871.23</ele>
        <time>2019-11-13T09:36:18Z</time>
      </trkpt>
      <trkpt lat="46.52222" lon="5.8583">
        <ele>871.24</ele>
        <time>2019-11-13T09:36:30Z</time>
      </trkpt>
      <trkpt lat="46.52224" lon="5.85834">
        <ele>871.28</ele>
        <time>2019-11-13T09:36:33Z</time>
      </trkpt>
      <trkpt lat="46.52242" lon="5.85856">
        <ele>870.96</ele>
        <time>2019-11-13T09:36:54Z</time>
      </trkpt>
      <trkpt lat="46.52258" lon="5.85864">
        <ele>870.79</ele>
        <time>2019-11-13T09:37:11Z</time>
      </trkpt>
      <trkpt lat="46.5227" lon="5.85867">
        <ele>871.52</ele>
        <time>2019-11-13T09:37:25Z</time>
      </trkpt>
      <trkpt lat="46.52288" lon="5.85869">
        <ele>870.97</ele>
        <time>2019-11-13T09:37:42Z</time>
      </trkpt>
      <trkpt lat="46.52302" lon="5.85869">
        <ele>873.09</ele>
        <time>2019-11-13T09:37:56Z</time>
      </trkpt>
      <trkpt lat="46.52313" lon="5.85875">
        <ele>874.22</ele>
        <time>2019-11-13T09:38:11Z</time>
      </trkpt>
      <trkpt lat="46.52321" lon="5.85881">
        <ele>874.92</ele>
        <time>2019-11-13T09:38:24Z</time>
      </trkpt>
      <trkpt lat="46.52326" lon="5.85882">
        <ele>875.51</ele>
        <time>2019-11-13T09:38:42Z</time>
      </trkpt>
      <trkpt lat="46.5233" lon="5.85884">
        <ele>875.48</ele>
        <time>2019-11-13T09:39:00Z</time>
      </trkpt>
      <trkpt lat="46.52327" lon="5.85881">
        <ele>875.5</ele>
        <time>2019-11-13T09:39:17Z</time>
      </trkpt>
      <trkpt lat="46.52328" lon="5.85882">
        <ele>875.56</ele>
        <time>2019-11-13T09:39:21Z</time>
      </trkpt>
      <trkpt lat="46.52342" lon="5.85893">
        <ele>875.14</ele>
        <time>2019-11-13T09:39:37Z</time>
      </trkpt>
      <trkpt lat="46.52355" lon="5.85902">
        <ele>875.96</ele>
        <time>2019-11-13T09:39:54Z</time>
      </trkpt>
      <trkpt lat="46.52359" lon="5.85905">
        <ele>875.78</ele>
        <time>2019-11-13T09:39:58Z</time>
      </trkpt>
      <trkpt lat="46.52377" lon="5.85917">
        <ele>876.02</ele>
        <time>2019-11-13T09:40:14Z</time>
      </trkpt>
      <trkpt lat="46.5239" lon="5.85933">
        <ele>875.57</ele>
        <time>2019-11-13T09:40:30Z</time>
      </trkpt>
      <trkpt lat="46.52393" lon="5.85936">
        <ele>875.58</ele>
        <time>2019-11-13T09:40:33Z</time>
      </trkpt>
      <trkpt lat="46.524" lon="5.85946">
        <ele>874.84</ele>
        <time>2019-11-13T09:40:49Z</time>
      </trkpt>
      <trkpt lat="46.524" lon="5.85949">
        <ele>874.79</ele>
        <time>2019-11-13T09:41:03Z</time>
      </trkpt>
      <trkpt lat="46.52387" lon="5.85962">
        <ele>874.47</ele>
        <time>2019-11-13T09:41:18Z</time>
      </trkpt>
      <trkpt lat="46.52382" lon="5.85976">
        <ele>873.19</ele>
        <time>2019-11-13T09:41:32Z</time>
      </trkpt>
      <trkpt lat="46.52375" lon="5.85985">
        <ele>873.39</ele>
        <time>2019-11-13T09:41:44Z</time>
      </trkpt>
      <trkpt lat="46.52364" lon="5.85998">
        <ele>872.96</ele>
        <time>2019-11-13T09:41:59Z</time>
      </trkpt>
      <trkpt lat="46.52349" lon="5.86018">
        <ele>873.6</ele>
        <time>2019-11-13T09:42:16Z</time>
      </trkpt>
      <trkpt lat="46.52348" lon="5.86019">
        <ele>873.4</ele>
        <time>2019-11-13T09:42:17Z</time>
      </trkpt>
      <trkpt lat="46.52344" lon="5.86024">
        <ele>873</ele>
        <time>2019-11-13T09:42:21Z</time>
      </trkpt>
      <trkpt lat="46.52338" lon="5.86032">
        <ele>873.58</ele>
        <time>2019-11-13T09:42:29Z</time>
      </trkpt>
      <trkpt lat="46.52319" lon="5.8605">
        <ele>873.73</ele>
        <time>2019-11-13T09:42:47Z</time>
      </trkpt>
      <trkpt lat="46.52305" lon="5.86066">
        <ele>873.32</ele>
        <time>2019-11-13T09:43:04Z</time>
      </trkpt>
      <trkpt lat="46.52301" lon="5.86079">
        <ele>875.5</ele>
        <time>2019-11-13T09:43:18Z</time>
      </trkpt>
      <trkpt lat="46.52292" lon="5.86088">
        <ele>878.57</ele>
        <time>2019-11-13T09:43:34Z</time>
      </trkpt>
      <trkpt lat="46.52281" lon="5.86094">
        <ele>880.35</ele>
        <time>2019-11-13T09:43:53Z</time>
      </trkpt>
      <trkpt lat="46.52277" lon="5.86097">
        <ele>881.75</ele>
        <time>2019-11-13T09:44:01Z</time>
      </trkpt>
      <trkpt lat="46.52271" lon="5.86113">
        <ele>885.16</ele>
        <time>2019-11-13T09:44:22Z</time>
      </trkpt>
      <trkpt lat="46.52267" lon="5.8613">
        <ele>888.02</ele>
        <time>2019-11-13T09:44:39Z</time>
      </trkpt>
      <trkpt lat="46.52261" lon="5.86139">
        <ele>888</ele>
        <time>2019-11-13T09:44:51Z</time>
      </trkpt>
      <trkpt lat="46.52253" lon="5.8615">
        <ele>889.81</ele>
        <time>2019-11-13T09:45:11Z</time>
      </trkpt>
      <trkpt lat="46.52245" lon="5.86162">
        <ele>893.24</ele>
        <time>2019-11-13T09:45:27Z</time>
      </trkpt>
      <trkpt lat="46.52233" lon="5.86175">
        <ele>896.37</ele>
        <time>2019-11-13T09:45:46Z</time>
      </trkpt>
      <trkpt lat="46.52225" lon="5.86184">
        <ele>898.86</ele>
        <time>2019-11-13T09:45:57Z</time>
      </trkpt>
      <trkpt lat="46.52216" lon="5.86193">
        <ele>902.15</ele>
        <time>2019-11-13T09:46:14Z</time>
      </trkpt>
      <trkpt lat="46.52216" lon="5.86194">
        <ele>902.32</ele>
        <time>2019-11-13T09:46:15Z</time>
      </trkpt>
      <trkpt lat="46.52216" lon="5.862">
        <ele>903.8</ele>
        <time>2019-11-13T09:46:20Z</time>
      </trkpt>
      <trkpt lat="46.52209" lon="5.86213">
        <ele>905.52</ele>
        <time>2019-11-13T09:46:40Z</time>
      </trkpt>
      <trkpt lat="46.52207" lon="5.86212">
        <ele>904.94</ele>
        <time>2019-11-13T09:46:43Z</time>
      </trkpt>
      <trkpt lat="46.52206" lon="5.86211">
        <ele>904.64</ele>
        <time>2019-11-13T09:46:45Z</time>
      </trkpt>
      <trkpt lat="46.52195" lon="5.86225">
        <ele>904.79</ele>
        <time>2019-11-13T09:47:10Z</time>
      </trkpt>
      <trkpt lat="46.52182" lon="5.86214">
        <ele>907.83</ele>
        <time>2019-11-13T09:47:25Z</time>
      </trkpt>
      <trkpt lat="46.52174" lon="5.86193">
        <ele>910.56</ele>
        <time>2019-11-13T09:47:42Z</time>
      </trkpt>
      <trkpt lat="46.52173" lon="5.86182">
        <ele>911.29</ele>
        <time>2019-11-13T09:48:00Z</time>
      </trkpt>
      <trkpt lat="46.52167" lon="5.86181">
        <ele>911.57</ele>
        <time>2019-11-13T09:48:19Z</time>
      </trkpt>
      <trkpt lat="46.52169" lon="5.86183">
        <ele>913.42</ele>
        <time>2019-11-13T09:48:46Z</time>
      </trkpt>
      <trkpt lat="46.52169" lon="5.86182">
        <ele>913.23</ele>
        <time>2019-11-13T09:49:33Z</time>
      </trkpt>
      <trkpt lat="46.52169" lon="5.86183">
        <ele>913.33</ele>
        <time>2019-11-13T09:50:10Z</time>
      </trkpt>
      <trkpt lat="46.5217" lon="5.86181">
        <ele>912.95</ele>
        <time>2019-11-13T09:50:51Z</time>
      </trkpt>
      <trkpt lat="46.52169" lon="5.86181">
        <ele>912.99</ele>
        <time>2019-11-13T09:51:14Z</time>
      </trkpt>
      <trkpt lat="46.52169" lon="5.8618">
        <ele>913.1</ele>
        <time>2019-11-13T09:51:38Z</time>
      </trkpt>
      <trkpt lat="46.52171" lon="5.86181">
        <ele>912.64</ele>
        <time>2019-11-13T09:52:04Z</time>
      </trkpt>
      <trkpt lat="46.52172" lon="5.86181">
        <ele>912.78</ele>
        <time>2019-11-13T09:52:28Z</time>
      </trkpt>
      <trkpt lat="46.52172" lon="5.86182">
        <ele>912.59</ele>
        <time>2019-11-13T09:52:47Z</time>
      </trkpt>
      <trkpt lat="46.52174" lon="5.86183">
        <ele>911.52</ele>
        <time>2019-11-13T09:53:04Z</time>
      </trkpt>
      <trkpt lat="46.52173" lon="5.86184">
        <ele>916.22</ele>
        <time>2019-11-13T09:53:06Z</time>
      </trkpt>
      <trkpt lat="46.52173" lon="5.86183">
        <ele>912.82</ele>
        <time>2019-11-13T09:53:08Z</time>
      </trkpt>
      <trkpt lat="46.52173" lon="5.86185">
        <ele>912.92</ele>
        <time>2019-11-13T09:53:26Z</time>
      </trkpt>
      <trkpt lat="46.52172" lon="5.86184">
        <ele>913.23</ele>
        <time>2019-11-13T09:53:43Z</time>
      </trkpt>
      <trkpt lat="46.52173" lon="5.86185">
        <ele>913.7</ele>
        <time>2019-11-13T09:53:59Z</time>
      </trkpt>
      <trkpt lat="46.52173" lon="5.86187">
        <ele>913.07</ele>
        <time>2019-11-13T09:54:16Z</time>
      </trkpt>
      <trkpt lat="46.52172" lon="5.86184">
        <ele>913.03</ele>
        <time>2019-11-13T09:54:32Z</time>
      </trkpt>
      <trkpt lat="46.52174" lon="5.86197">
        <ele>911.25</ele>
        <time>2019-11-13T09:54:51Z</time>
      </trkpt>
      <trkpt lat="46.52179" lon="5.86208">
        <ele>908.71</ele>
        <time>2019-11-13T09:55:05Z</time>
      </trkpt>
      <trkpt lat="46.52186" lon="5.86218">
        <ele>906.57</ele>
        <time>2019-11-13T09:55:15Z</time>
      </trkpt>
      <trkpt lat="46.52193" lon="5.86229">
        <ele>906.76</ele>
        <time>2019-11-13T09:55:37Z</time>
      </trkpt>
      <trkpt lat="46.52192" lon="5.8623">
        <ele>906.2</ele>
        <time>2019-11-13T09:56:06Z</time>
      </trkpt>
      <trkpt lat="46.52196" lon="5.86226">
        <ele>906.9</ele>
        <time>2019-11-13T09:56:27Z</time>
      </trkpt>
      <trkpt lat="46.52198" lon="5.86222">
        <ele>906.65</ele>
        <time>2019-11-13T09:56:47Z</time>
      </trkpt>
      <trkpt lat="46.52194" lon="5.86218">
        <ele>905.94</ele>
        <time>2019-11-13T09:57:12Z</time>
      </trkpt>
      <trkpt lat="46.52194" lon="5.86222">
        <ele>906.29</ele>
        <time>2019-11-13T09:57:36Z</time>
      </trkpt>
      <trkpt lat="46.52198" lon="5.86225">
        <ele>905.94</ele>
        <time>2019-11-13T09:58:04Z</time>
      </trkpt>
      <trkpt lat="46.52196" lon="5.86219">
        <ele>905.87</ele>
        <time>2019-11-13T09:58:29Z</time>
      </trkpt>
      <trkpt lat="46.52191" lon="5.86217">
        <ele>906.62</ele>
        <time>2019-11-13T09:59:10Z</time>
      </trkpt>
      <trkpt lat="46.52191" lon="5.86217">
        <ele>906.01</ele>
        <time>2019-11-13T09:59:38Z</time>
      </trkpt>
      <trkpt lat="46.52194" lon="5.8621">
        <ele>903.76</ele>
        <time>2019-11-13T09:59:54Z</time>
      </trkpt>
      <trkpt lat="46.52195" lon="5.86202">
        <ele>900.72</ele>
        <time>2019-11-13T10:00:09Z</time>
      </trkpt>
      <trkpt lat="46.52198" lon="5.86193">
        <ele>897.66</ele>
        <time>2019-11-13T10:00:23Z</time>
      </trkpt>
      <trkpt lat="46.52209" lon="5.86184">
        <ele>894.53</ele>
        <time>2019-11-13T10:00:38Z</time>
      </trkpt>
      <trkpt lat="46.52223" lon="5.86171">
        <ele>891.67</ele>
        <time>2019-11-13T10:00:55Z</time>
      </trkpt>
      <trkpt lat="46.52238" lon="5.86149">
        <ele>889.52</ele>
        <time>2019-11-13T10:01:15Z</time>
      </trkpt>
      <trkpt lat="46.52248" lon="5.86137">
        <ele>889.4</ele>
        <time>2019-11-13T10:01:34Z</time>
      </trkpt>
      <trkpt lat="46.52256" lon="5.86125">
        <ele>885.64</ele>
        <time>2019-11-13T10:01:46Z</time>
      </trkpt>
      <trkpt lat="46.52264" lon="5.86104">
        <ele>884.13</ele>
        <time>2019-11-13T10:02:06Z</time>
      </trkpt>
      <trkpt lat="46.52272" lon="5.86089">
        <ele>880.88</ele>
        <time>2019-11-13T10:02:22Z</time>
      </trkpt>
      <trkpt lat="46.5228" lon="5.86082">
        <ele>878.52</ele>
        <time>2019-11-13T10:02:40Z</time>
      </trkpt>
      <trkpt lat="46.52295" lon="5.86077">
        <ele>875.44</ele>
        <time>2019-11-13T10:02:54Z</time>
      </trkpt>
      <trkpt lat="46.52298" lon="5.86068">
        <ele>875.02</ele>
        <time>2019-11-13T10:03:00Z</time>
      </trkpt>
      <trkpt lat="46.52296" lon="5.86061">
        <ele>875.7</ele>
        <time>2019-11-13T10:03:05Z</time>
      </trkpt>
      <trkpt lat="46.52289" lon="5.86051">
        <ele>874.56</ele>
        <time>2019-11-13T10:03:23Z</time>
      </trkpt>
      <trkpt lat="46.52297" lon="5.86054">
        <ele>875.38</ele>
        <time>2019-11-13T10:03:38Z</time>
      </trkpt>
      <trkpt lat="46.52303" lon="5.86053">
        <ele>875.65</ele>
        <time>2019-11-13T10:03:57Z</time>
      </trkpt>
      <trkpt lat="46.52304" lon="5.86055">
        <ele>876.04</ele>
        <time>2019-11-13T10:04:21Z</time>
      </trkpt>
      <trkpt lat="46.52302" lon="5.86056">
        <ele>875.75</ele>
        <time>2019-11-13T10:04:25Z</time>
      </trkpt>
      <trkpt lat="46.52316" lon="5.86042">
        <ele>875.58</ele>
        <time>2019-11-13T10:04:42Z</time>
      </trkpt>
      <trkpt lat="46.52328" lon="5.86029">
        <ele>875.83</ele>
        <time>2019-11-13T10:04:57Z</time>
      </trkpt>
      <trkpt lat="46.52337" lon="5.86018">
        <ele>875.82</ele>
        <time>2019-11-13T10:05:09Z</time>
      </trkpt>
      <trkpt lat="46.52344" lon="5.8601">
        <ele>875.23</ele>
        <time>2019-11-13T10:05:18Z</time>
      </trkpt>
      <trkpt lat="46.52346" lon="5.86007">
        <ele>875.51</ele>
        <time>2019-11-13T10:05:21Z</time>
      </trkpt>
      <trkpt lat="46.52362" lon="5.85987">
        <ele>875.56</ele>
        <time>2019-11-13T10:05:39Z</time>
      </trkpt>
      <trkpt lat="46.52375" lon="5.85975">
        <ele>876.05</ele>
        <time>2019-11-13T10:05:52Z</time>
      </trkpt>
      <trkpt lat="46.52391" lon="5.85958">
        <ele>877.2</ele>
        <time>2019-11-13T10:06:10Z</time>
      </trkpt>
      <trkpt lat="46.52398" lon="5.85949">
        <ele>876.83</ele>
        <time>2019-11-13T10:06:18Z</time>
      </trkpt>
      <trkpt lat="46.52396" lon="5.85939">
        <ele>877.36</ele>
        <time>2019-11-13T10:06:28Z</time>
      </trkpt>
      <trkpt lat="46.52392" lon="5.85933">
        <ele>877.08</ele>
        <time>2019-11-13T10:06:34Z</time>
      </trkpt>
      <trkpt lat="46.5239" lon="5.8593">
        <ele>877.59</ele>
        <time>2019-11-13T10:06:37Z</time>
      </trkpt>
      <trkpt lat="46.52372" lon="5.8591">
        <ele>878.2</ele>
        <time>2019-11-13T10:06:57Z</time>
      </trkpt>
      <trkpt lat="46.52356" lon="5.85899">
        <ele>877.98</ele>
        <time>2019-11-13T10:07:13Z</time>
      </trkpt>
      <trkpt lat="46.52343" lon="5.85887">
        <ele>877.76</ele>
        <time>2019-11-13T10:07:28Z</time>
      </trkpt>
      <trkpt lat="46.52333" lon="5.85881">
        <ele>878.01</ele>
        <time>2019-11-13T10:07:45Z</time>
      </trkpt>
      <trkpt lat="46.52328" lon="5.85879">
        <ele>877.6</ele>
        <time>2019-11-13T10:07:58Z</time>
      </trkpt>
      <trkpt lat="46.52327" lon="5.85878">
        <ele>878.05</ele>
        <time>2019-11-13T10:08:12Z</time>
      </trkpt>
      <trkpt lat="46.52314" lon="5.85871">
        <ele>876.22</ele>
        <time>2019-11-13T10:08:29Z</time>
      </trkpt>
      <trkpt lat="46.523" lon="5.85864">
        <ele>874.35</ele>
        <time>2019-11-13T10:08:45Z</time>
      </trkpt>
      <trkpt lat="46.52281" lon="5.85862">
        <ele>874.34</ele>
        <time>2019-11-13T10:09:05Z</time>
      </trkpt>
      <trkpt lat="46.52273" lon="5.85861">
        <ele>874.14</ele>
        <time>2019-11-13T10:09:18Z</time>
      </trkpt>
      <trkpt lat="46.52247" lon="5.85852">
        <ele>873.78</ele>
        <time>2019-11-13T10:09:42Z</time>
      </trkpt>
      <trkpt lat="46.52228" lon="5.85836">
        <ele>874.09</ele>
        <time>2019-11-13T10:10:02Z</time>
      </trkpt>
      <trkpt lat="46.52223" lon="5.85826">
        <ele>874.47</ele>
        <time>2019-11-13T10:10:14Z</time>
      </trkpt>
      <trkpt lat="46.5222" lon="5.85813">
        <ele>874.59</ele>
        <time>2019-11-13T10:10:24Z</time>
      </trkpt>
      <trkpt lat="46.5222" lon="5.85808">
        <ele>874.45</ele>
        <time>2019-11-13T10:10:28Z</time>
      </trkpt>
      <trkpt lat="46.52216" lon="5.85789">
        <ele>873.87</ele>
        <time>2019-11-13T10:10:43Z</time>
      </trkpt>
      <trkpt lat="46.52209" lon="5.85771">
        <ele>873.59</ele>
        <time>2019-11-13T10:10:59Z</time>
      </trkpt>
      <trkpt lat="46.52207" lon="5.85769">
        <ele>873.49</ele>
        <time>2019-11-13T10:11:03Z</time>
      </trkpt>
      <trkpt lat="46.52204" lon="5.85769">
        <ele>873.83</ele>
        <time>2019-11-13T10:11:06Z</time>
      </trkpt>
      <trkpt lat="46.52194" lon="5.85762">
        <ele>873.84</ele>
        <time>2019-11-13T10:11:20Z</time>
      </trkpt>
      <trkpt lat="46.52192" lon="5.85761">
        <ele>873.45</ele>
        <time>2019-11-13T10:11:24Z</time>
      </trkpt>
      <trkpt lat="46.52186" lon="5.85757">
        <ele>874.12</ele>
        <time>2019-11-13T10:11:30Z</time>
      </trkpt>
      <trkpt lat="46.52178" lon="5.85748">
        <ele>873.73</ele>
        <time>2019-11-13T10:11:39Z</time>
      </trkpt>
      <trkpt lat="46.52161" lon="5.85734">
        <ele>873.45</ele>
        <time>2019-11-13T10:11:56Z</time>
      </trkpt>
      <trkpt lat="46.52144" lon="5.85721">
        <ele>873.33</ele>
        <time>2019-11-13T10:12:14Z</time>
      </trkpt>
      <trkpt lat="46.5214" lon="5.85718">
        <ele>874.22</ele>
        <time>2019-11-13T10:12:18Z</time>
      </trkpt>
      <trkpt lat="46.52139" lon="5.85714">
        <ele>873.27</ele>
        <time>2019-11-13T10:12:21Z</time>
      </trkpt>
      <trkpt lat="46.52123" lon="5.857">
        <ele>874.4</ele>
        <time>2019-11-13T10:12:39Z</time>
      </trkpt>
      <trkpt lat="46.52106" lon="5.85689">
        <ele>875.28</ele>
        <time>2019-11-13T10:12:56Z</time>
      </trkpt>
      <trkpt lat="46.521" lon="5.85687">
        <ele>874.96</ele>
        <time>2019-11-13T10:13:01Z</time>
      </trkpt>
      <trkpt lat="46.52084" lon="5.85674">
        <ele>875.58</ele>
        <time>2019-11-13T10:13:17Z</time>
      </trkpt>
      <trkpt lat="46.52068" lon="5.85664">
        <ele>876.69</ele>
        <time>2019-11-13T10:13:33Z</time>
      </trkpt>
      <trkpt lat="46.52055" lon="5.85655">
        <ele>877.09</ele>
        <time>2019-11-13T10:13:51Z</time>
      </trkpt>
      <trkpt lat="46.52039" lon="5.85647">
        <ele>876.71</ele>
        <time>2019-11-13T10:14:08Z</time>
      </trkpt>
      <trkpt lat="46.52039" lon="5.85655">
        <ele>876.28</ele>
        <time>2019-11-13T10:14:22Z</time>
      </trkpt>
      <trkpt lat="46.52035" lon="5.85664">
        <ele>875.24</ele>
        <time>2019-11-13T10:14:32Z</time>
      </trkpt>
      <trkpt lat="46.52033" lon="5.85683">
        <ele>876.38</ele>
        <time>2019-11-13T10:14:53Z</time>
      </trkpt>
      <trkpt lat="46.52019" lon="5.85701">
        <ele>875.81</ele>
        <time>2019-11-13T10:15:11Z</time>
      </trkpt>
      <trkpt lat="46.52015" lon="5.85699">
        <ele>875.44</ele>
        <time>2019-11-13T10:15:15Z</time>
      </trkpt>
      <trkpt lat="46.52007" lon="5.85705">
        <ele>875.8</ele>
        <time>2019-11-13T10:15:44Z</time>
      </trkpt>
      <trkpt lat="46.52002" lon="5.85704">
        <ele>875.27</ele>
        <time>2019-11-13T10:15:51Z</time>
      </trkpt>
      <trkpt lat="46.51996" lon="5.85704">
        <ele>875.05</ele>
        <time>2019-11-13T10:15:57Z</time>
      </trkpt>
      <trkpt lat="46.51979" lon="5.85698">
        <ele>875.08</ele>
        <time>2019-11-13T10:16:10Z</time>
      </trkpt>
      <trkpt lat="46.51962" lon="5.85685">
        <ele>876.22</ele>
        <time>2019-11-13T10:16:26Z</time>
      </trkpt>
      <trkpt lat="46.51947" lon="5.85684">
        <ele>875.68</ele>
        <time>2019-11-13T10:16:43Z</time>
      </trkpt>
      <trkpt lat="46.51943" lon="5.85688">
        <ele>875.96</ele>
        <time>2019-11-13T10:17:00Z</time>
      </trkpt>
      <trkpt lat="46.5194" lon="5.85685">
        <ele>876.05</ele>
        <time>2019-11-13T10:17:25Z</time>
      </trkpt>
      <trkpt lat="46.51943" lon="5.85686">
        <ele>876.06</ele>
        <time>2019-11-13T10:17:41Z</time>
      </trkpt>
      <trkpt lat="46.51939" lon="5.85687">
        <ele>875.8</ele>
        <time>2019-11-13T10:18:03Z</time>
      </trkpt>
      <trkpt lat="46.5193" lon="5.85689">
        <ele>875.82</ele>
        <time>2019-11-13T10:18:19Z</time>
      </trkpt>
      <trkpt lat="46.51924" lon="5.85688">
        <ele>876.39</ele>
        <time>2019-11-13T10:18:40Z</time>
      </trkpt>
      <trkpt lat="46.5191" lon="5.85672">
        <ele>876.32</ele>
        <time>2019-11-13T10:19:01Z</time>
      </trkpt>
      <trkpt lat="46.51908" lon="5.85669">
        <ele>875.96</ele>
        <time>2019-11-13T10:19:04Z</time>
      </trkpt>
      <trkpt lat="46.51896" lon="5.85654">
        <ele>876.86</ele>
        <time>2019-11-13T10:19:21Z</time>
      </trkpt>
      <trkpt lat="46.51893" lon="5.85651">
        <ele>876.38</ele>
        <time>2019-11-13T10:19:47Z</time>
      </trkpt>
      <trkpt lat="46.51892" lon="5.85651">
        <ele>876.1</ele>
        <time>2019-11-13T10:20:15Z</time>
      </trkpt>
      <trkpt lat="46.51887" lon="5.8565">
        <ele>875.9</ele>
        <time>2019-11-13T10:20:46Z</time>
      </trkpt>
      <trkpt lat="46.51878" lon="5.85643">
        <ele>876.21</ele>
        <time>2019-11-13T10:21:04Z</time>
      </trkpt>
      <trkpt lat="46.51868" lon="5.85627">
        <ele>876.1</ele>
        <time>2019-11-13T10:21:20Z</time>
      </trkpt>
      <trkpt lat="46.51867" lon="5.85622">
        <ele>876.08</ele>
        <time>2019-11-13T10:21:23Z</time>
      </trkpt>
      <trkpt lat="46.51865" lon="5.85616">
        <ele>876.27</ele>
        <time>2019-11-13T10:21:27Z</time>
      </trkpt>
      <trkpt lat="46.51864" lon="5.85611">
        <ele>876.43</ele>
        <time>2019-11-13T10:21:30Z</time>
      </trkpt>
      <trkpt lat="46.51863" lon="5.85607">
        <ele>876.09</ele>
        <time>2019-11-13T10:21:32Z</time>
      </trkpt>
      <trkpt lat="46.51861" lon="5.85604">
        <ele>876.13</ele>
        <time>2019-11-13T10:21:34Z</time>
      </trkpt>
      <trkpt lat="46.51847" lon="5.85594">
        <ele>877.18</ele>
        <time>2019-11-13T10:21:47Z</time>
      </trkpt>
      <trkpt lat="46.51828" lon="5.85578">
        <ele>876.15</ele>
        <time>2019-11-13T10:22:06Z</time>
      </trkpt>
      <trkpt lat="46.51821" lon="5.8556">
        <ele>876.3</ele>
        <time>2019-11-13T10:22:19Z</time>
      </trkpt>
      <trkpt lat="46.51819" lon="5.85552">
        <ele>876.43</ele>
        <time>2019-11-13T10:22:24Z</time>
      </trkpt>
      <trkpt lat="46.51805" lon="5.85529">
        <ele>875.74</ele>
        <time>2019-11-13T10:22:43Z</time>
      </trkpt>
      <trkpt lat="46.51802" lon="5.85522">
        <ele>875.39</ele>
        <time>2019-11-13T10:22:48Z</time>
      </trkpt>
      <trkpt lat="46.51802" lon="5.85516">
        <ele>875.8</ele>
        <time>2019-11-13T10:22:52Z</time>
      </trkpt>
      <trkpt lat="46.51806" lon="5.85496">
        <ele>878.51</ele>
        <time>2019-11-13T10:23:09Z</time>
      </trkpt>
      <trkpt lat="46.51807" lon="5.8549">
        <ele>879.99</ele>
        <time>2019-11-13T10:23:25Z</time>
      </trkpt>
      <trkpt lat="46.51805" lon="5.85485">
        <ele>879.67</ele>
        <time>2019-11-13T10:23:32Z</time>
      </trkpt>
      <trkpt lat="46.51803" lon="5.85481">
        <ele>879.57</ele>
        <time>2019-11-13T10:23:46Z</time>
      </trkpt>
      <trkpt lat="46.51798" lon="5.85478">
        <ele>880.03</ele>
        <time>2019-11-13T10:24:01Z</time>
      </trkpt>
      <trkpt lat="46.51798" lon="5.85476">
        <ele>880.01</ele>
        <time>2019-11-13T10:24:15Z</time>
      </trkpt>
      <trkpt lat="46.51789" lon="5.85467">
        <ele>880.97</ele>
        <time>2019-11-13T10:24:41Z</time>
      </trkpt>
      <trkpt lat="46.51786" lon="5.85463">
        <ele>880.63</ele>
        <time>2019-11-13T10:24:45Z</time>
      </trkpt>
      <trkpt lat="46.51782" lon="5.85459">
        <ele>881.37</ele>
        <time>2019-11-13T10:24:50Z</time>
      </trkpt>
      <trkpt lat="46.51766" lon="5.85441">
        <ele>882.03</ele>
        <time>2019-11-13T10:25:09Z</time>
      </trkpt>
      <trkpt lat="46.5175" lon="5.85422">
        <ele>882.48</ele>
        <time>2019-11-13T10:25:28Z</time>
      </trkpt>
      <trkpt lat="46.51737" lon="5.85409">
        <ele>883</ele>
        <time>2019-11-13T10:25:42Z</time>
      </trkpt>
      <trkpt lat="46.51726" lon="5.85405">
        <ele>885.49</ele>
        <time>2019-11-13T10:25:57Z</time>
      </trkpt>
      <trkpt lat="46.51724" lon="5.85401">
        <ele>885.07</ele>
        <time>2019-11-13T10:26:13Z</time>
      </trkpt>
      <trkpt lat="46.51716" lon="5.85389">
        <ele>885.28</ele>
        <time>2019-11-13T10:26:26Z</time>
      </trkpt>
      <trkpt lat="46.51701" lon="5.85374">
        <ele>886.03</ele>
        <time>2019-11-13T10:26:43Z</time>
      </trkpt>
      <trkpt lat="46.51695" lon="5.85369">
        <ele>885.72</ele>
        <time>2019-11-13T10:26:49Z</time>
      </trkpt>
      <trkpt lat="46.51675" lon="5.85357">
        <ele>885.82</ele>
        <time>2019-11-13T10:27:09Z</time>
      </trkpt>
      <trkpt lat="46.51665" lon="5.85351">
        <ele>884.82</ele>
        <time>2019-11-13T10:27:19Z</time>
      </trkpt>
      <trkpt lat="46.51657" lon="5.85346">
        <ele>884.86</ele>
        <time>2019-11-13T10:27:30Z</time>
      </trkpt>
      <trkpt lat="46.51642" lon="5.85337">
        <ele>885.52</ele>
        <time>2019-11-13T10:27:44Z</time>
      </trkpt>
      <trkpt lat="46.51623" lon="5.85325">
        <ele>885.26</ele>
        <time>2019-11-13T10:28:02Z</time>
      </trkpt>
      <trkpt lat="46.51606" lon="5.8531">
        <ele>885.15</ele>
        <time>2019-11-13T10:28:20Z</time>
      </trkpt>
      <trkpt lat="46.51591" lon="5.85299">
        <ele>885.11</ele>
        <time>2019-11-13T10:28:36Z</time>
      </trkpt>
      <trkpt lat="46.51584" lon="5.85296">
        <ele>885.32</ele>
        <time>2019-11-13T10:28:49Z</time>
      </trkpt>
      <trkpt lat="46.51584" lon="5.85296">
        <ele>884.25</ele>
        <time>2019-11-13T10:28:50Z</time>
      </trkpt>
      <trkpt lat="46.51565" lon="5.85283">
        <ele>884.36</ele>
        <time>2019-11-13T10:29:09Z</time>
      </trkpt>
      <trkpt lat="46.51563" lon="5.85281">
        <ele>884.13</ele>
        <time>2019-11-13T10:29:24Z</time>
      </trkpt>
      <trkpt lat="46.51544" lon="5.85264">
        <ele>883.44</ele>
        <time>2019-11-13T10:29:44Z</time>
      </trkpt>
      <trkpt lat="46.51542" lon="5.85262">
        <ele>883.06</ele>
        <time>2019-11-13T10:29:46Z</time>
      </trkpt>
      <trkpt lat="46.51528" lon="5.85249">
        <ele>883.54</ele>
        <time>2019-11-13T10:30:00Z</time>
      </trkpt>
      <trkpt lat="46.51518" lon="5.85239">
        <ele>883.4</ele>
        <time>2019-11-13T10:30:11Z</time>
      </trkpt>
      <trkpt lat="46.5151" lon="5.85233">
        <ele>883.48</ele>
        <time>2019-11-13T10:30:19Z</time>
      </trkpt>
      <trkpt lat="46.51491" lon="5.85219">
        <ele>884.09</ele>
        <time>2019-11-13T10:30:37Z</time>
      </trkpt>
      <trkpt lat="46.51483" lon="5.85211">
        <ele>885.32</ele>
        <time>2019-11-13T10:30:46Z</time>
      </trkpt>
      <trkpt lat="46.51472" lon="5.85203">
        <ele>885.3</ele>
        <time>2019-11-13T10:31:00Z</time>
      </trkpt>
      <trkpt lat="46.5147" lon="5.85203">
        <ele>885.35</ele>
        <time>2019-11-13T10:31:05Z</time>
      </trkpt>
      <trkpt lat="46.51465" lon="5.85199">
        <ele>885.93</ele>
        <time>2019-11-13T10:31:10Z</time>
      </trkpt>
      <trkpt lat="46.51453" lon="5.85188">
        <ele>885.62</ele>
        <time>2019-11-13T10:31:25Z</time>
      </trkpt>
      <trkpt lat="46.51438" lon="5.85173">
        <ele>887.24</ele>
        <time>2019-11-13T10:31:43Z</time>
      </trkpt>
      <trkpt lat="46.51423" lon="5.85156">
        <ele>886.98</ele>
        <time>2019-11-13T10:32:00Z</time>
      </trkpt>
      <trkpt lat="46.51405" lon="5.85134">
        <ele>887.27</ele>
        <time>2019-11-13T10:32:20Z</time>
      </trkpt>
      <trkpt lat="46.51404" lon="5.85133">
        <ele>887.1</ele>
        <time>2019-11-13T10:32:21Z</time>
      </trkpt>
      <trkpt lat="46.51399" lon="5.85128">
        <ele>886.75</ele>
        <time>2019-11-13T10:32:26Z</time>
      </trkpt>
      <trkpt lat="46.51382" lon="5.85115">
        <ele>886.96</ele>
        <time>2019-11-13T10:32:43Z</time>
      </trkpt>
      <trkpt lat="46.51368" lon="5.85105">
        <ele>886.2</ele>
        <time>2019-11-13T10:32:57Z</time>
      </trkpt>
      <trkpt lat="46.51351" lon="5.85094">
        <ele>886.49</ele>
        <time>2019-11-13T10:33:13Z</time>
      </trkpt>
      <trkpt lat="46.51335" lon="5.85085">
        <ele>886.68</ele>
        <time>2019-11-13T10:33:28Z</time>
      </trkpt>
      <trkpt lat="46.51323" lon="5.85074">
        <ele>886.06</ele>
        <time>2019-11-13T10:33:41Z</time>
      </trkpt>
      <trkpt lat="46.5132" lon="5.85072">
        <ele>886.66</ele>
        <time>2019-11-13T10:33:44Z</time>
      </trkpt>
      <trkpt lat="46.51316" lon="5.85071">
        <ele>886.17</ele>
        <time>2019-11-13T10:33:48Z</time>
      </trkpt>
      <trkpt lat="46.51314" lon="5.85072">
        <ele>886.09</ele>
        <time>2019-11-13T10:33:50Z</time>
      </trkpt>
      <trkpt lat="46.5131" lon="5.85078">
        <ele>886.31</ele>
        <time>2019-11-13T10:34:04Z</time>
      </trkpt>
      <trkpt lat="46.51296" lon="5.85073">
        <ele>885.78</ele>
        <time>2019-11-13T10:34:17Z</time>
      </trkpt>
      <trkpt lat="46.51279" lon="5.85057">
        <ele>886.76</ele>
        <time>2019-11-13T10:34:35Z</time>
      </trkpt>
      <trkpt lat="46.51278" lon="5.85056">
        <ele>886.89</ele>
        <time>2019-11-13T10:34:36Z</time>
      </trkpt>
      <trkpt lat="46.51262" lon="5.85044">
        <ele>887.82</ele>
        <time>2019-11-13T10:34:51Z</time>
      </trkpt>
      <trkpt lat="46.51244" lon="5.85031">
        <ele>888.54</ele>
        <time>2019-11-13T10:35:09Z</time>
      </trkpt>
      <trkpt lat="46.51233" lon="5.85024">
        <ele>888.44</ele>
        <time>2019-11-13T10:35:23Z</time>
      </trkpt>
      <trkpt lat="46.51216" lon="5.85011">
        <ele>888.96</ele>
        <time>2019-11-13T10:35:39Z</time>
      </trkpt>
      <trkpt lat="46.51214" lon="5.85009">
        <ele>888.81</ele>
        <time>2019-11-13T10:35:41Z</time>
      </trkpt>
      <trkpt lat="46.51198" lon="5.84993">
        <ele>889.26</ele>
        <time>2019-11-13T10:35:59Z</time>
      </trkpt>
      <trkpt lat="46.51197" lon="5.84992">
        <ele>889.31</ele>
        <time>2019-11-13T10:36:00Z</time>
      </trkpt>
      <trkpt lat="46.5118" lon="5.84977">
        <ele>890.12</ele>
        <time>2019-11-13T10:36:18Z</time>
      </trkpt>
      <trkpt lat="46.51166" lon="5.84966">
        <ele>889.92</ele>
        <time>2019-11-13T10:36:32Z</time>
      </trkpt>
      <trkpt lat="46.51152" lon="5.84953">
        <ele>889.72</ele>
        <time>2019-11-13T10:36:48Z</time>
      </trkpt>
      <trkpt lat="46.5115" lon="5.84951">
        <ele>889.64</ele>
        <time>2019-11-13T10:36:52Z</time>
      </trkpt>
      <trkpt lat="46.5113" lon="5.84938">
        <ele>890.46</ele>
        <time>2019-11-13T10:37:11Z</time>
      </trkpt>
      <trkpt lat="46.51116" lon="5.84927">
        <ele>890.19</ele>
        <time>2019-11-13T10:37:26Z</time>
      </trkpt>
      <trkpt lat="46.51101" lon="5.84914">
        <ele>890.37</ele>
        <time>2019-11-13T10:37:41Z</time>
      </trkpt>
      <trkpt lat="46.51087" lon="5.84902">
        <ele>890.61</ele>
        <time>2019-11-13T10:37:55Z</time>
      </trkpt>
      <trkpt lat="46.51075" lon="5.84891">
        <ele>891.54</ele>
        <time>2019-11-13T10:38:08Z</time>
      </trkpt>
      <trkpt lat="46.51057" lon="5.84877">
        <ele>891.63</ele>
        <time>2019-11-13T10:38:25Z</time>
      </trkpt>
      <trkpt lat="46.51046" lon="5.84869">
        <ele>891.81</ele>
        <time>2019-11-13T10:38:36Z</time>
      </trkpt>
      <trkpt lat="46.51044" lon="5.84864">
        <ele>890.54</ele>
        <time>2019-11-13T10:38:51Z</time>
      </trkpt>
      <trkpt lat="46.51027" lon="5.84849">
        <ele>892</ele>
        <time>2019-11-13T10:39:10Z</time>
      </trkpt>
      <trkpt lat="46.51011" lon="5.84834">
        <ele>891.3</ele>
        <time>2019-11-13T10:39:26Z</time>
      </trkpt>
      <trkpt lat="46.50995" lon="5.84818">
        <ele>892.39</ele>
        <time>2019-11-13T10:39:43Z</time>
      </trkpt>
      <trkpt lat="46.50984" lon="5.84808">
        <ele>893.03</ele>
        <time>2019-11-13T10:39:54Z</time>
      </trkpt>
      <trkpt lat="46.50967" lon="5.84802">
        <ele>893.05</ele>
        <time>2019-11-13T10:40:10Z</time>
      </trkpt>
      <trkpt lat="46.50965" lon="5.84801">
        <ele>892.97</ele>
        <time>2019-11-13T10:40:12Z</time>
      </trkpt>
      <trkpt lat="46.50949" lon="5.84795">
        <ele>892.59</ele>
        <time>2019-11-13T10:40:28Z</time>
      </trkpt>
      <trkpt lat="46.50942" lon="5.84785">
        <ele>892.52</ele>
        <time>2019-11-13T10:40:36Z</time>
      </trkpt>
      <trkpt lat="46.50941" lon="5.84779">
        <ele>892.99</ele>
        <time>2019-11-13T10:40:51Z</time>
      </trkpt>
      <trkpt lat="46.50935" lon="5.84784">
        <ele>892.97</ele>
        <time>2019-11-13T10:41:09Z</time>
      </trkpt>
      <trkpt lat="46.50936" lon="5.84786">
        <ele>892.34</ele>
        <time>2019-11-13T10:41:12Z</time>
      </trkpt>
      <trkpt lat="46.50932" lon="5.84794">
        <ele>894.11</ele>
        <time>2019-11-13T10:41:23Z</time>
      </trkpt>
      <trkpt lat="46.50929" lon="5.84801">
        <ele>894.15</ele>
        <time>2019-11-13T10:41:33Z</time>
      </trkpt>
      <trkpt lat="46.50925" lon="5.84808">
        <ele>894.39</ele>
        <time>2019-11-13T10:41:58Z</time>
      </trkpt>
      <trkpt lat="46.50925" lon="5.84815">
        <ele>896.68</ele>
        <time>2019-11-13T10:42:08Z</time>
      </trkpt>
      <trkpt lat="46.50917" lon="5.84825">
        <ele>899.7</ele>
        <time>2019-11-13T10:42:26Z</time>
      </trkpt>
      <trkpt lat="46.50918" lon="5.84826">
        <ele>899.92</ele>
        <time>2019-11-13T10:42:29Z</time>
      </trkpt>
      <trkpt lat="46.50912" lon="5.84837">
        <ele>901.36</ele>
        <time>2019-11-13T10:42:50Z</time>
      </trkpt>
      <trkpt lat="46.50912" lon="5.84837">
        <ele>899.84</ele>
        <time>2019-11-13T10:42:52Z</time>
      </trkpt>
      <trkpt lat="46.50909" lon="5.8484">
        <ele>901.06</ele>
        <time>2019-11-13T10:42:58Z</time>
      </trkpt>
      <trkpt lat="46.50906" lon="5.84844">
        <ele>904.07</ele>
        <time>2019-11-13T10:43:13Z</time>
      </trkpt>
      <trkpt lat="46.50904" lon="5.84855">
        <ele>905.87</ele>
        <time>2019-11-13T10:43:31Z</time>
      </trkpt>
      <trkpt lat="46.50896" lon="5.84869">
        <ele>907.87</ele>
        <time>2019-11-13T10:43:53Z</time>
      </trkpt>
      <trkpt lat="46.50888" lon="5.84882">
        <ele>908.33</ele>
        <time>2019-11-13T10:44:12Z</time>
      </trkpt>
      <trkpt lat="46.50886" lon="5.84885">
        <ele>908.02</ele>
        <time>2019-11-13T10:44:30Z</time>
      </trkpt>
      <trkpt lat="46.50884" lon="5.8489">
        <ele>907.75</ele>
        <time>2019-11-13T10:44:53Z</time>
      </trkpt>
      <trkpt lat="46.50876" lon="5.84903">
        <ele>908.31</ele>
        <time>2019-11-13T10:45:18Z</time>
      </trkpt>
      <trkpt lat="46.50872" lon="5.84914">
        <ele>911.72</ele>
        <time>2019-11-13T10:45:36Z</time>
      </trkpt>
      <trkpt lat="46.50866" lon="5.8492">
        <ele>913.36</ele>
        <time>2019-11-13T10:45:45Z</time>
      </trkpt>
      <trkpt lat="46.50855" lon="5.84928">
        <ele>915.18</ele>
        <time>2019-11-13T10:46:03Z</time>
      </trkpt>
      <trkpt lat="46.50849" lon="5.84942">
        <ele>918.25</ele>
        <time>2019-11-13T10:46:23Z</time>
      </trkpt>
      <trkpt lat="46.50846" lon="5.84945">
        <ele>918.59</ele>
        <time>2019-11-13T10:46:32Z</time>
      </trkpt>
      <trkpt lat="46.50844" lon="5.84946">
        <ele>918.21</ele>
        <time>2019-11-13T10:46:34Z</time>
      </trkpt>
      <trkpt lat="46.50836" lon="5.84953">
        <ele>921.7</ele>
        <time>2019-11-13T10:46:52Z</time>
      </trkpt>
      <trkpt lat="46.50826" lon="5.84966">
        <ele>924.84</ele>
        <time>2019-11-13T10:47:13Z</time>
      </trkpt>
      <trkpt lat="46.50821" lon="5.84972">
        <ele>926.91</ele>
        <time>2019-11-13T10:47:35Z</time>
      </trkpt>
      <trkpt lat="46.50814" lon="5.84976">
        <ele>929.32</ele>
        <time>2019-11-13T10:47:54Z</time>
      </trkpt>
      <trkpt lat="46.50806" lon="5.84982">
        <ele>932.26</ele>
        <time>2019-11-13T10:48:16Z</time>
      </trkpt>
      <trkpt lat="46.50794" lon="5.84999">
        <ele>933.75</ele>
        <time>2019-11-13T10:48:37Z</time>
      </trkpt>
      <trkpt lat="46.5079" lon="5.85006">
        <ele>937.03</ele>
        <time>2019-11-13T10:48:51Z</time>
      </trkpt>
      <trkpt lat="46.50789" lon="5.85006">
        <ele>936.79</ele>
        <time>2019-11-13T10:48:54Z</time>
      </trkpt>
      <trkpt lat="46.50784" lon="5.85015">
        <ele>939.75</ele>
        <time>2019-11-13T10:49:16Z</time>
      </trkpt>
      <trkpt lat="46.50785" lon="5.85027">
        <ele>942.64</ele>
        <time>2019-11-13T10:49:38Z</time>
      </trkpt>
      <trkpt lat="46.50785" lon="5.8503">
        <ele>944.17</ele>
        <time>2019-11-13T10:49:58Z</time>
      </trkpt>
      <trkpt lat="46.50781" lon="5.85029">
        <ele>944.23</ele>
        <time>2019-11-13T10:50:20Z</time>
      </trkpt>
      <trkpt lat="46.5078" lon="5.85025">
        <ele>944.56</ele>
        <time>2019-11-13T10:50:44Z</time>
      </trkpt>
      <trkpt lat="46.50783" lon="5.85028">
        <ele>944.87</ele>
        <time>2019-11-13T10:51:11Z</time>
      </trkpt>
      <trkpt lat="46.50782" lon="5.85032">
        <ele>944.03</ele>
        <time>2019-11-13T10:51:31Z</time>
      </trkpt>
      <trkpt lat="46.50784" lon="5.85033">
        <ele>944.68</ele>
        <time>2019-11-13T10:51:58Z</time>
      </trkpt>
      <trkpt lat="46.5078" lon="5.85031">
        <ele>945.74</ele>
        <time>2019-11-13T10:52:26Z</time>
      </trkpt>
      <trkpt lat="46.50774" lon="5.85031">
        <ele>948.52</ele>
        <time>2019-11-13T10:52:47Z</time>
      </trkpt>
      <trkpt lat="46.50768" lon="5.85026">
        <ele>951.79</ele>
        <time>2019-11-13T10:53:02Z</time>
      </trkpt>
      <trkpt lat="46.5076" lon="5.8502">
        <ele>954.61</ele>
        <time>2019-11-13T10:53:20Z</time>
      </trkpt>
      <trkpt lat="46.50757" lon="5.85013">
        <ele>956.27</ele>
        <time>2019-11-13T10:53:44Z</time>
      </trkpt>
      <trkpt lat="46.50755" lon="5.85003">
        <ele>959.47</ele>
        <time>2019-11-13T10:54:00Z</time>
      </trkpt>
      <trkpt lat="46.50753" lon="5.84995">
        <ele>962.64</ele>
        <time>2019-11-13T10:54:12Z</time>
      </trkpt>
      <trkpt lat="46.50752" lon="5.84983">
        <ele>964.51</ele>
        <time>2019-11-13T10:54:34Z</time>
      </trkpt>
      <trkpt lat="46.50754" lon="5.84972">
        <ele>966.55</ele>
        <time>2019-11-13T10:54:51Z</time>
      </trkpt>
      <trkpt lat="46.50755" lon="5.84967">
        <ele>968.94</ele>
        <time>2019-11-13T10:54:59Z</time>
      </trkpt>
      <trkpt lat="46.50761" lon="5.84956">
        <ele>971.6</ele>
        <time>2019-11-13T10:55:19Z</time>
      </trkpt>
      <trkpt lat="46.50761" lon="5.84945">
        <ele>973.58</ele>
        <time>2019-11-13T10:55:37Z</time>
      </trkpt>
      <trkpt lat="46.50764" lon="5.84938">
        <ele>976.05</ele>
        <time>2019-11-13T10:55:54Z</time>
      </trkpt>
      <trkpt lat="46.5077" lon="5.84929">
        <ele>975.77</ele>
        <time>2019-11-13T10:56:14Z</time>
      </trkpt>
      <trkpt lat="46.50771" lon="5.84924">
        <ele>974.12</ele>
        <time>2019-11-13T10:56:33Z</time>
      </trkpt>
      <trkpt lat="46.50772" lon="5.84924">
        <ele>973.6</ele>
        <time>2019-11-13T10:56:56Z</time>
      </trkpt>
      <trkpt lat="46.50772" lon="5.84926">
        <ele>974.48</ele>
        <time>2019-11-13T10:57:24Z</time>
      </trkpt>
      <trkpt lat="46.5077" lon="5.84926">
        <ele>975.11</ele>
        <time>2019-11-13T10:57:40Z</time>
      </trkpt>
      <trkpt lat="46.5077" lon="5.84927">
        <ele>974.44</ele>
        <time>2019-11-13T10:58:02Z</time>
      </trkpt>
      <trkpt lat="46.50773" lon="5.84922">
        <ele>972.76</ele>
        <time>2019-11-13T10:58:29Z</time>
      </trkpt>
      <trkpt lat="46.50779" lon="5.84912">
        <ele>975.67</ele>
        <time>2019-11-13T10:58:44Z</time>
      </trkpt>
      <trkpt lat="46.50781" lon="5.84905">
        <ele>977.87</ele>
        <time>2019-11-13T10:58:58Z</time>
      </trkpt>
      <trkpt lat="46.50781" lon="5.84901">
        <ele>977.8</ele>
        <time>2019-11-13T10:59:17Z</time>
      </trkpt>
      <trkpt lat="46.50774" lon="5.849">
        <ele>977.52</ele>
        <time>2019-11-13T10:59:34Z</time>
      </trkpt>
      <trkpt lat="46.50776" lon="5.84899">
        <ele>977.36</ele>
        <time>2019-11-13T10:59:59Z</time>
      </trkpt>
      <trkpt lat="46.5078" lon="5.84901">
        <ele>977.25</ele>
        <time>2019-11-13T11:00:19Z</time>
      </trkpt>
      <trkpt lat="46.50776" lon="5.84899">
        <ele>976.58</ele>
        <time>2019-11-13T11:00:37Z</time>
      </trkpt>
      <trkpt lat="46.5077" lon="5.84897">
        <ele>975.85</ele>
        <time>2019-11-13T11:00:54Z</time>
      </trkpt>
      <trkpt lat="46.50769" lon="5.84898">
        <ele>976.09</ele>
        <time>2019-11-13T11:01:20Z</time>
      </trkpt>
      <trkpt lat="46.50767" lon="5.84898">
        <ele>974.64</ele>
        <time>2019-11-13T11:01:45Z</time>
      </trkpt>
      <trkpt lat="46.50759" lon="5.849">
        <ele>973.2</ele>
        <time>2019-11-13T11:02:09Z</time>
      </trkpt>
      <trkpt lat="46.50755" lon="5.849">
        <ele>970.4</ele>
        <time>2019-11-13T11:02:18Z</time>
      </trkpt>
      <trkpt lat="46.50743" lon="5.84894">
        <ele>969.64</ele>
        <time>2019-11-13T11:02:38Z</time>
      </trkpt>
      <trkpt lat="46.50733" lon="5.84888">
        <ele>968.22</ele>
        <time>2019-11-13T11:02:51Z</time>
      </trkpt>
      <trkpt lat="46.50718" lon="5.84884">
        <ele>966.3</ele>
        <time>2019-11-13T11:03:08Z</time>
      </trkpt>
      <trkpt lat="46.50715" lon="5.84884">
        <ele>964.61</ele>
        <time>2019-11-13T11:03:11Z</time>
      </trkpt>
      <trkpt lat="46.50701" lon="5.84877">
        <ele>963.39</ele>
        <time>2019-11-13T11:03:29Z</time>
      </trkpt>
      <trkpt lat="46.50688" lon="5.84865">
        <ele>966.05</ele>
        <time>2019-11-13T11:03:49Z</time>
      </trkpt>
      <trkpt lat="46.50675" lon="5.8485">
        <ele>967.24</ele>
        <time>2019-11-13T11:04:09Z</time>
      </trkpt>
      <trkpt lat="46.50667" lon="5.84842">
        <ele>964.51</ele>
        <time>2019-11-13T11:04:26Z</time>
      </trkpt>
      <trkpt lat="46.5066" lon="5.84837">
        <ele>963.23</ele>
        <time>2019-11-13T11:04:45Z</time>
      </trkpt>
      <trkpt lat="46.50656" lon="5.8484">
        <ele>964.31</ele>
        <time>2019-11-13T11:05:13Z</time>
      </trkpt>
      <trkpt lat="46.50652" lon="5.84836">
        <ele>961.12</ele>
        <time>2019-11-13T11:05:27Z</time>
      </trkpt>
      <trkpt lat="46.50645" lon="5.84836">
        <ele>957.83</ele>
        <time>2019-11-13T11:05:41Z</time>
      </trkpt>
      <trkpt lat="46.5064" lon="5.84829">
        <ele>957.45</ele>
        <time>2019-11-13T11:06:00Z</time>
      </trkpt>
      <trkpt lat="46.50639" lon="5.84827">
        <ele>958.71</ele>
        <time>2019-11-13T11:06:14Z</time>
      </trkpt>
      <trkpt lat="46.50637" lon="5.84822">
        <ele>961.93</ele>
        <time>2019-11-13T11:06:27Z</time>
      </trkpt>
      <trkpt lat="46.50637" lon="5.84822">
        <ele>962.16</ele>
        <time>2019-11-13T11:06:28Z</time>
      </trkpt>
      <trkpt lat="46.50634" lon="5.84822">
        <ele>961.16</ele>
        <time>2019-11-13T11:06:49Z</time>
      </trkpt>
      <trkpt lat="46.50634" lon="5.84821">
        <ele>961.15</ele>
        <time>2019-11-13T11:06:50Z</time>
      </trkpt>
      <trkpt lat="46.50633" lon="5.84818">
        <ele>964.16</ele>
        <time>2019-11-13T11:06:56Z</time>
      </trkpt>
      <trkpt lat="46.50634" lon="5.84807">
        <ele>965.47</ele>
        <time>2019-11-13T11:07:19Z</time>
      </trkpt>
      <trkpt lat="46.50633" lon="5.8481">
        <ele>965.11</ele>
        <time>2019-11-13T11:07:45Z</time>
      </trkpt>
      <trkpt lat="46.50633" lon="5.84799">
        <ele>968.54</ele>
        <time>2019-11-13T11:08:05Z</time>
      </trkpt>
      <trkpt lat="46.50629" lon="5.84792">
        <ele>971.54</ele>
        <time>2019-11-13T11:08:20Z</time>
      </trkpt>
      <trkpt lat="46.50625" lon="5.84783">
        <ele>974.57</ele>
        <time>2019-11-13T11:08:36Z</time>
      </trkpt>
      <trkpt lat="46.50621" lon="5.84772">
        <ele>975.25</ele>
        <time>2019-11-13T11:08:53Z</time>
      </trkpt>
      <trkpt lat="46.50625" lon="5.84776">
        <ele>974.98</ele>
        <time>2019-11-13T11:09:17Z</time>
      </trkpt>
      <trkpt lat="46.50624" lon="5.84776">
        <ele>975.37</ele>
        <time>2019-11-13T11:09:37Z</time>
      </trkpt>
      <trkpt lat="46.50612" lon="5.84768">
        <ele>977.25</ele>
        <time>2019-11-13T11:09:57Z</time>
      </trkpt>
      <trkpt lat="46.50601" lon="5.8475">
        <ele>976.74</ele>
        <time>2019-11-13T11:10:16Z</time>
      </trkpt>
      <trkpt lat="46.50598" lon="5.84741">
        <ele>975.11</ele>
        <time>2019-11-13T11:10:25Z</time>
      </trkpt>
      <trkpt lat="46.50586" lon="5.84739">
        <ele>971.67</ele>
        <time>2019-11-13T11:10:46Z</time>
      </trkpt>
      <trkpt lat="46.50575" lon="5.84738">
        <ele>967.98</ele>
        <time>2019-11-13T11:11:08Z</time>
      </trkpt>
      <trkpt lat="46.50563" lon="5.84729">
        <ele>968.6</ele>
        <time>2019-11-13T11:11:29Z</time>
      </trkpt>
      <trkpt lat="46.50556" lon="5.84727">
        <ele>968.17</ele>
        <time>2019-11-13T11:11:37Z</time>
      </trkpt>
      <trkpt lat="46.50555" lon="5.84729">
        <ele>967.74</ele>
        <time>2019-11-13T11:11:41Z</time>
      </trkpt>
      <trkpt lat="46.50557" lon="5.84737">
        <ele>965</ele>
        <time>2019-11-13T11:11:53Z</time>
      </trkpt>
      <trkpt lat="46.50558" lon="5.8474">
        <ele>964.2</ele>
        <time>2019-11-13T11:11:55Z</time>
      </trkpt>
      <trkpt lat="46.50559" lon="5.84752">
        <ele>962.23</ele>
        <time>2019-11-13T11:12:07Z</time>
      </trkpt>
      <trkpt lat="46.50557" lon="5.84754">
        <ele>961.56</ele>
        <time>2019-11-13T11:12:26Z</time>
      </trkpt>
      <trkpt lat="46.50557" lon="5.84765">
        <ele>962.05</ele>
        <time>2019-11-13T11:12:49Z</time>
      </trkpt>
      <trkpt lat="46.50552" lon="5.84789">
        <ele>963.05</ele>
        <time>2019-11-13T11:13:06Z</time>
      </trkpt>
      <trkpt lat="46.50549" lon="5.84796">
        <ele>962.09</ele>
        <time>2019-11-13T11:13:17Z</time>
      </trkpt>
      <trkpt lat="46.50542" lon="5.84804">
        <ele>962.39</ele>
        <time>2019-11-13T11:13:35Z</time>
      </trkpt>
      <trkpt lat="46.50536" lon="5.84808">
        <ele>960.17</ele>
        <time>2019-11-13T11:13:51Z</time>
      </trkpt>
      <trkpt lat="46.50532" lon="5.84809">
        <ele>959.42</ele>
        <time>2019-11-13T11:13:59Z</time>
      </trkpt>
      <trkpt lat="46.50525" lon="5.8481">
        <ele>957.74</ele>
        <time>2019-11-13T11:14:10Z</time>
      </trkpt>
      <trkpt lat="46.50501" lon="5.84812">
        <ele>955.15</ele>
        <time>2019-11-13T11:14:34Z</time>
      </trkpt>
      <trkpt lat="46.50499" lon="5.84813">
        <ele>955</ele>
        <time>2019-11-13T11:14:37Z</time>
      </trkpt>
      <trkpt lat="46.50493" lon="5.84815">
        <ele>954.23</ele>
        <time>2019-11-13T11:14:44Z</time>
      </trkpt>
      <trkpt lat="46.5048" lon="5.84809">
        <ele>950.73</ele>
        <time>2019-11-13T11:15:02Z</time>
      </trkpt>
      <trkpt lat="46.50476" lon="5.84806">
        <ele>949.81</ele>
        <time>2019-11-13T11:15:08Z</time>
      </trkpt>
      <trkpt lat="46.50461" lon="5.84806">
        <ele>948.61</ele>
        <time>2019-11-13T11:15:22Z</time>
      </trkpt>
      <trkpt lat="46.50458" lon="5.84807">
        <ele>948.28</ele>
        <time>2019-11-13T11:15:25Z</time>
      </trkpt>
      <trkpt lat="46.50439" lon="5.848">
        <ele>947.16</ele>
        <time>2019-11-13T11:15:47Z</time>
      </trkpt>
      <trkpt lat="46.50432" lon="5.84797">
        <ele>947.07</ele>
        <time>2019-11-13T11:15:54Z</time>
      </trkpt>
      <trkpt lat="46.5041" lon="5.84789">
        <ele>945.07</ele>
        <time>2019-11-13T11:16:13Z</time>
      </trkpt>
      <trkpt lat="46.50392" lon="5.84775">
        <ele>941.99</ele>
        <time>2019-11-13T11:16:33Z</time>
      </trkpt>
      <trkpt lat="46.50372" lon="5.84764">
        <ele>940.05</ele>
        <time>2019-11-13T11:16:53Z</time>
      </trkpt>
      <trkpt lat="46.50371" lon="5.84763">
        <ele>940.05</ele>
        <time>2019-11-13T11:16:54Z</time>
      </trkpt>
      <trkpt lat="46.50354" lon="5.84768">
        <ele>937.38</ele>
        <time>2019-11-13T11:17:16Z</time>
      </trkpt>
      <trkpt lat="46.50337" lon="5.84765">
        <ele>935.05</ele>
        <time>2019-11-13T11:17:38Z</time>
      </trkpt>
      <trkpt lat="46.50325" lon="5.8476">
        <ele>931.89</ele>
        <time>2019-11-13T11:17:55Z</time>
      </trkpt>
      <trkpt lat="46.50321" lon="5.84756">
        <ele>930.17</ele>
        <time>2019-11-13T11:18:01Z</time>
      </trkpt>
      <trkpt lat="46.50303" lon="5.8474">
        <ele>927.93</ele>
        <time>2019-11-13T11:18:22Z</time>
      </trkpt>
      <trkpt lat="46.50289" lon="5.84728">
        <ele>925.15</ele>
        <time>2019-11-13T11:18:43Z</time>
      </trkpt>
      <trkpt lat="46.50281" lon="5.8472">
        <ele>922</ele>
        <time>2019-11-13T11:19:00Z</time>
      </trkpt>
      <trkpt lat="46.50279" lon="5.84719">
        <ele>921.39</ele>
        <time>2019-11-13T11:19:05Z</time>
      </trkpt>
      <trkpt lat="46.50262" lon="5.84706">
        <ele>919.12</ele>
        <time>2019-11-13T11:19:21Z</time>
      </trkpt>
      <trkpt lat="46.50254" lon="5.847">
        <ele>918.34</ele>
        <time>2019-11-13T11:19:34Z</time>
      </trkpt>
      <trkpt lat="46.50238" lon="5.84699">
        <ele>915.32</ele>
        <time>2019-11-13T11:19:52Z</time>
      </trkpt>
      <trkpt lat="46.50221" lon="5.84702">
        <ele>912.29</ele>
        <time>2019-11-13T11:20:09Z</time>
      </trkpt>
      <trkpt lat="46.50208" lon="5.847">
        <ele>912.73</ele>
        <time>2019-11-13T11:20:28Z</time>
      </trkpt>
      <trkpt lat="46.50204" lon="5.84693">
        <ele>913.34</ele>
        <time>2019-11-13T11:20:34Z</time>
      </trkpt>
      <trkpt lat="46.50195" lon="5.84674">
        <ele>912.98</ele>
        <time>2019-11-13T11:20:47Z</time>
      </trkpt>
      <trkpt lat="46.50193" lon="5.84646">
        <ele>914.36</ele>
        <time>2019-11-13T11:21:01Z</time>
      </trkpt>
      <trkpt lat="46.50196" lon="5.84628">
        <ele>914.54</ele>
        <time>2019-11-13T11:21:12Z</time>
      </trkpt>
      <trkpt lat="46.50198" lon="5.84623">
        <ele>914.39</ele>
        <time>2019-11-13T11:21:16Z</time>
      </trkpt>
      <trkpt lat="46.50206" lon="5.84607">
        <ele>914.28</ele>
        <time>2019-11-13T11:21:31Z</time>
      </trkpt>
      <trkpt lat="46.50214" lon="5.84594">
        <ele>911.92</ele>
        <time>2019-11-13T11:21:47Z</time>
      </trkpt>
      <trkpt lat="46.5022" lon="5.8459">
        <ele>911.56</ele>
        <time>2019-11-13T11:21:55Z</time>
      </trkpt>
      <trkpt lat="46.50231" lon="5.84585">
        <ele>908.11</ele>
        <time>2019-11-13T11:22:12Z</time>
      </trkpt>
      <trkpt lat="46.50245" lon="5.84577">
        <ele>904.93</ele>
        <time>2019-11-13T11:22:28Z</time>
      </trkpt>
      <trkpt lat="46.50259" lon="5.84565">
        <ele>901.57</ele>
        <time>2019-11-13T11:22:44Z</time>
      </trkpt>
      <trkpt lat="46.50268" lon="5.84545">
        <ele>898.44</ele>
        <time>2019-11-13T11:23:01Z</time>
      </trkpt>
      <trkpt lat="46.50266" lon="5.84512">
        <ele>896.16</ele>
        <time>2019-11-13T11:23:17Z</time>
      </trkpt>
      <trkpt lat="46.50267" lon="5.84495">
        <ele>893.94</ele>
        <time>2019-11-13T11:23:31Z</time>
      </trkpt>
      <trkpt lat="46.50273" lon="5.8448">
        <ele>892.79</ele>
        <time>2019-11-13T11:23:41Z</time>
      </trkpt>
      <trkpt lat="46.50279" lon="5.84472">
        <ele>891.39</ele>
        <time>2019-11-13T11:23:49Z</time>
      </trkpt>
      <trkpt lat="46.50288" lon="5.84455">
        <ele>889.21</ele>
        <time>2019-11-13T11:24:03Z</time>
      </trkpt>
      <trkpt lat="46.50295" lon="5.84445">
        <ele>888.49</ele>
        <time>2019-11-13T11:24:13Z</time>
      </trkpt>
      <trkpt lat="46.5031" lon="5.84423">
        <ele>886.22</ele>
        <time>2019-11-13T11:24:29Z</time>
      </trkpt>
      <trkpt lat="46.50318" lon="5.84412">
        <ele>885.41</ele>
        <time>2019-11-13T11:24:43Z</time>
      </trkpt>
      <trkpt lat="46.5032" lon="5.84406">
        <ele>884.37</ele>
        <time>2019-11-13T11:24:53Z</time>
      </trkpt>
      <trkpt lat="46.50322" lon="5.84393">
        <ele>884.72</ele>
        <time>2019-11-13T11:25:07Z</time>
      </trkpt>
      <trkpt lat="46.50329" lon="5.8438">
        <ele>883.72</ele>
        <time>2019-11-13T11:25:22Z</time>
      </trkpt>
      <trkpt lat="46.50337" lon="5.84366">
        <ele>883.68</ele>
        <time>2019-11-13T11:25:34Z</time>
      </trkpt>
      <trkpt lat="46.50342" lon="5.84355">
        <ele>883.4</ele>
        <time>2019-11-13T11:25:40Z</time>
      </trkpt>
      <trkpt lat="46.50348" lon="5.84346">
        <ele>882.88</ele>
        <time>2019-11-13T11:25:48Z</time>
      </trkpt>
      <trkpt lat="46.50358" lon="5.84331">
        <ele>880.79</ele>
        <time>2019-11-13T11:26:03Z</time>
      </trkpt>
      <trkpt lat="46.50359" lon="5.84328">
        <ele>880.64</ele>
        <time>2019-11-13T11:26:05Z</time>
      </trkpt>
      <trkpt lat="46.50365" lon="5.84313">
        <ele>878.92</ele>
        <time>2019-11-13T11:26:20Z</time>
      </trkpt>
      <trkpt lat="46.50372" lon="5.84291">
        <ele>878.31</ele>
        <time>2019-11-13T11:26:37Z</time>
      </trkpt>
      <trkpt lat="46.50379" lon="5.84264">
        <ele>877.15</ele>
        <time>2019-11-13T11:26:54Z</time>
      </trkpt>
      <trkpt lat="46.50389" lon="5.84233">
        <ele>876.3</ele>
        <time>2019-11-13T11:27:13Z</time>
      </trkpt>
      <trkpt lat="46.50401" lon="5.84207">
        <ele>875.91</ele>
        <time>2019-11-13T11:27:31Z</time>
      </trkpt>
      <trkpt lat="46.50402" lon="5.84205">
        <ele>875.27</ele>
        <time>2019-11-13T11:27:33Z</time>
      </trkpt>
      <trkpt lat="46.5041" lon="5.8419">
        <ele>875.8</ele>
        <time>2019-11-13T11:27:45Z</time>
      </trkpt>
      <trkpt lat="46.50417" lon="5.84175">
        <ele>876.68</ele>
        <time>2019-11-13T11:28:00Z</time>
      </trkpt>
      <trkpt lat="46.50422" lon="5.84166">
        <ele>876.67</ele>
        <time>2019-11-13T11:28:21Z</time>
      </trkpt>
      <trkpt lat="46.50425" lon="5.84159">
        <ele>876.17</ele>
        <time>2019-11-13T11:28:26Z</time>
      </trkpt>
      <trkpt lat="46.50427" lon="5.84154">
        <ele>875.79</ele>
        <time>2019-11-13T11:28:30Z</time>
      </trkpt>
      <trkpt lat="46.50444" lon="5.8412">
        <ele>875.86</ele>
        <time>2019-11-13T11:28:54Z</time>
      </trkpt>
      <trkpt lat="46.50454" lon="5.84117">
        <ele>875.58</ele>
        <time>2019-11-13T11:29:06Z</time>
      </trkpt>
      <trkpt lat="46.50457" lon="5.84116">
        <ele>876.17</ele>
        <time>2019-11-13T11:29:09Z</time>
      </trkpt>
      <trkpt lat="46.50474" lon="5.84124">
        <ele>876.12</ele>
        <time>2019-11-13T11:29:25Z</time>
      </trkpt>
      <trkpt lat="46.50489" lon="5.84132">
        <ele>876.52</ele>
        <time>2019-11-13T11:29:40Z</time>
      </trkpt>
      <trkpt lat="46.50505" lon="5.84139">
        <ele>876.25</ele>
        <time>2019-11-13T11:29:55Z</time>
      </trkpt>
      <trkpt lat="46.50518" lon="5.84144">
        <ele>876.94</ele>
        <time>2019-11-13T11:30:07Z</time>
      </trkpt>
      <trkpt lat="46.50543" lon="5.84149">
        <ele>876.92</ele>
        <time>2019-11-13T11:30:25Z</time>
      </trkpt>
      <trkpt lat="46.50562" lon="5.8415">
        <ele>876.22</ele>
        <time>2019-11-13T11:30:41Z</time>
      </trkpt>
      <trkpt lat="46.50579" lon="5.84152">
        <ele>876.37</ele>
        <time>2019-11-13T11:30:54Z</time>
      </trkpt>
      <trkpt lat="46.50596" lon="5.84153">
        <ele>875.58</ele>
        <time>2019-11-13T11:31:08Z</time>
      </trkpt>
      <trkpt lat="46.50614" lon="5.84155">
        <ele>875.95</ele>
        <time>2019-11-13T11:31:22Z</time>
      </trkpt>
      <trkpt lat="46.50632" lon="5.84157">
        <ele>877.23</ele>
        <time>2019-11-13T11:31:37Z</time>
      </trkpt>
      <trkpt lat="46.50648" lon="5.84159">
        <ele>878.06</ele>
        <time>2019-11-13T11:31:52Z</time>
      </trkpt>
      <trkpt lat="46.50664" lon="5.8416">
        <ele>878.18</ele>
        <time>2019-11-13T11:32:06Z</time>
      </trkpt>
      <trkpt lat="46.50674" lon="5.84157">
        <ele>877.48</ele>
        <time>2019-11-13T11:32:17Z</time>
      </trkpt>
      <trkpt lat="46.50676" lon="5.84155">
        <ele>877.86</ele>
        <time>2019-11-13T11:32:19Z</time>
      </trkpt>
      <trkpt lat="46.50677" lon="5.84153">
        <ele>877.6</ele>
        <time>2019-11-13T11:32:21Z</time>
      </trkpt>
      <trkpt lat="46.50681" lon="5.84149">
        <ele>878.11</ele>
        <time>2019-11-13T11:32:25Z</time>
      </trkpt>
      <trkpt lat="46.50692" lon="5.84126">
        <ele>880.07</ele>
        <time>2019-11-13T11:32:41Z</time>
      </trkpt>
      <trkpt lat="46.50702" lon="5.84109">
        <ele>882.47</ele>
        <time>2019-11-13T11:32:54Z</time>
      </trkpt>
      <trkpt lat="46.50711" lon="5.84088">
        <ele>883.77</ele>
        <time>2019-11-13T11:33:10Z</time>
      </trkpt>
      <trkpt lat="46.50718" lon="5.84074">
        <ele>884.95</ele>
        <time>2019-11-13T11:33:20Z</time>
      </trkpt>
      <trkpt lat="46.50722" lon="5.84065">
        <ele>885.48</ele>
        <time>2019-11-13T11:33:26Z</time>
      </trkpt>
      <trkpt lat="46.50727" lon="5.84056">
        <ele>886.36</ele>
        <time>2019-11-13T11:33:32Z</time>
      </trkpt>
      <trkpt lat="46.5073" lon="5.8405">
        <ele>887.51</ele>
        <time>2019-11-13T11:33:38Z</time>
      </trkpt>
      <trkpt lat="46.50729" lon="5.8405">
        <ele>886.21</ele>
        <time>2019-11-13T11:33:43Z</time>
      </trkpt>
      <trkpt lat="46.50726" lon="5.84054">
        <ele>886.76</ele>
        <time>2019-11-13T11:34:01Z</time>
      </trkpt>
      <trkpt lat="46.50726" lon="5.84054">
        <ele>886.5</ele>
        <time>2019-11-13T11:34:23Z</time>
      </trkpt>
      <trkpt lat="46.50726" lon="5.84055">
        <ele>885.83</ele>
        <time>2019-11-13T11:34:47Z</time>
      </trkpt>
      <trkpt lat="46.50732" lon="5.84043">
        <ele>887.27</ele>
        <time>2019-11-13T11:35:02Z</time>
      </trkpt>
      <trkpt lat="46.50742" lon="5.84024">
        <ele>889.88</ele>
        <time>2019-11-13T11:35:16Z</time>
      </trkpt>
      <trkpt lat="46.50752" lon="5.84003">
        <ele>891.22</ele>
        <time>2019-11-13T11:35:32Z</time>
      </trkpt>
      <trkpt lat="46.50753" lon="5.84004">
        <ele>891.18</ele>
        <time>2019-11-13T11:35:52Z</time>
      </trkpt>
      <trkpt lat="46.50752" lon="5.84003">
        <ele>891.34</ele>
        <time>2019-11-13T11:36:13Z</time>
      </trkpt>
      <trkpt lat="46.50753" lon="5.84001">
        <ele>891.43</ele>
        <time>2019-11-13T11:36:28Z</time>
      </trkpt>
      <trkpt lat="46.50754" lon="5.83998">
        <ele>891.46</ele>
        <time>2019-11-13T11:36:42Z</time>
      </trkpt>
      <trkpt lat="46.50755" lon="5.83997">
        <ele>891.67</ele>
        <time>2019-11-13T11:37:18Z</time>
      </trkpt>
      <trkpt lat="46.50755" lon="5.83997">
        <ele>891.67</ele>
        <time>2019-11-13T11:37:31Z</time>
      </trkpt>
      <trkpt lat="46.50759" lon="5.83986">
        <ele>893.16</ele>
        <time>2019-11-13T11:37:44Z</time>
      </trkpt>
      <trkpt lat="46.50761" lon="5.83981">
        <ele>893.36</ele>
        <time>2019-11-13T11:38:00Z</time>
      </trkpt>
      <trkpt lat="46.50765" lon="5.83974">
        <ele>894.33</ele>
        <time>2019-11-13T11:38:10Z</time>
      </trkpt>
      <trkpt lat="46.50767" lon="5.83969">
        <ele>894.67</ele>
        <time>2019-11-13T11:38:15Z</time>
      </trkpt>
      <trkpt lat="46.5077" lon="5.83964">
        <ele>895.16</ele>
        <time>2019-11-13T11:38:19Z</time>
      </trkpt>
      <trkpt lat="46.50777" lon="5.83952">
        <ele>895.95</ele>
        <time>2019-11-13T11:38:37Z</time>
      </trkpt>
      <trkpt lat="46.50778" lon="5.8395">
        <ele>896.25</ele>
        <time>2019-11-13T11:38:45Z</time>
      </trkpt>
      <trkpt lat="46.5078" lon="5.83947">
        <ele>895.79</ele>
        <time>2019-11-13T11:38:58Z</time>
      </trkpt>
      <trkpt lat="46.50782" lon="5.83945">
        <ele>895.9</ele>
        <time>2019-11-13T11:39:23Z</time>
      </trkpt>
      <trkpt lat="46.50786" lon="5.83937">
        <ele>896.92</ele>
        <time>2019-11-13T11:39:48Z</time>
      </trkpt>
      <trkpt lat="46.5079" lon="5.83929">
        <ele>897.12</ele>
        <time>2019-11-13T11:40:00Z</time>
      </trkpt>
      <trkpt lat="46.50793" lon="5.83922">
        <ele>897.7</ele>
        <time>2019-11-13T11:40:18Z</time>
      </trkpt>
      <trkpt lat="46.50792" lon="5.83922">
        <ele>897.85</ele>
        <time>2019-11-13T11:40:24Z</time>
      </trkpt>
      <trkpt lat="46.50793" lon="5.83918">
        <ele>897.65</ele>
        <time>2019-11-13T11:40:27Z</time>
      </trkpt>
      <trkpt lat="46.50794" lon="5.83913">
        <ele>897.5</ele>
        <time>2019-11-13T11:40:31Z</time>
      </trkpt>
      <trkpt lat="46.50801" lon="5.83893">
        <ele>899.03</ele>
        <time>2019-11-13T11:40:46Z</time>
      </trkpt>
      <trkpt lat="46.5081" lon="5.83875">
        <ele>900</ele>
        <time>2019-11-13T11:41:01Z</time>
      </trkpt>
      <trkpt lat="46.50812" lon="5.83871">
        <ele>900.39</ele>
        <time>2019-11-13T11:41:19Z</time>
      </trkpt>
      <trkpt lat="46.5082" lon="5.83856">
        <ele>902.25</ele>
        <time>2019-11-13T11:41:36Z</time>
      </trkpt>
      <trkpt lat="46.50831" lon="5.83844">
        <ele>903.52</ele>
        <time>2019-11-13T11:41:51Z</time>
      </trkpt>
      <trkpt lat="46.50834" lon="5.83842">
        <ele>903.13</ele>
        <time>2019-11-13T11:42:06Z</time>
      </trkpt>
      <trkpt lat="46.50841" lon="5.83844">
        <ele>903.77</ele>
        <time>2019-11-13T11:42:20Z</time>
      </trkpt>
      <trkpt lat="46.50842" lon="5.83845">
        <ele>904.06</ele>
        <time>2019-11-13T11:42:35Z</time>
      </trkpt>
      <trkpt lat="46.50842" lon="5.83842">
        <ele>904.37</ele>
        <time>2019-11-13T11:42:48Z</time>
      </trkpt>
      <trkpt lat="46.50844" lon="5.83842">
        <ele>904.52</ele>
        <time>2019-11-13T11:43:02Z</time>
      </trkpt>
      <trkpt lat="46.50848" lon="5.83846">
        <ele>904.89</ele>
        <time>2019-11-13T11:43:12Z</time>
      </trkpt>
      <trkpt lat="46.5086" lon="5.83846">
        <ele>905.29</ele>
        <time>2019-11-13T11:43:25Z</time>
      </trkpt>
      <trkpt lat="46.50862" lon="5.83846">
        <ele>905.22</ele>
        <time>2019-11-13T11:43:27Z</time>
      </trkpt>
      <trkpt lat="46.50871" lon="5.83838">
        <ele>906.41</ele>
        <time>2019-11-13T11:43:40Z</time>
      </trkpt>
      <trkpt lat="46.50877" lon="5.83833">
        <ele>907</ele>
        <time>2019-11-13T11:43:50Z</time>
      </trkpt>
      <trkpt lat="46.5089" lon="5.83822">
        <ele>906.09</ele>
        <time>2019-11-13T11:44:05Z</time>
      </trkpt>
      <trkpt lat="46.50893" lon="5.83819">
        <ele>905.67</ele>
        <time>2019-11-13T11:44:10Z</time>
      </trkpt>
      <trkpt lat="46.50897" lon="5.83818">
        <ele>905.85</ele>
        <time>2019-11-13T11:44:14Z</time>
      </trkpt>
      <trkpt lat="46.50911" lon="5.83798">
        <ele>905.31</ele>
        <time>2019-11-13T11:44:33Z</time>
      </trkpt>
      <trkpt lat="46.50928" lon="5.83781">
        <ele>905.04</ele>
        <time>2019-11-13T11:44:52Z</time>
      </trkpt>
      <trkpt lat="46.50942" lon="5.83759">
        <ele>904.75</ele>
        <time>2019-11-13T11:45:11Z</time>
      </trkpt>
      <trkpt lat="46.50943" lon="5.83755">
        <ele>904.74</ele>
        <time>2019-11-13T11:45:14Z</time>
      </trkpt>
      <trkpt lat="46.50947" lon="5.83746">
        <ele>904.91</ele>
        <time>2019-11-13T11:45:21Z</time>
      </trkpt>
      <trkpt lat="46.50949" lon="5.83743">
        <ele>905.03</ele>
        <time>2019-11-13T11:45:24Z</time>
      </trkpt>
      <trkpt lat="46.50955" lon="5.83734">
        <ele>905.19</ele>
        <time>2019-11-13T11:45:37Z</time>
      </trkpt>
      <trkpt lat="46.50966" lon="5.83722">
        <ele>906.95</ele>
        <time>2019-11-13T11:45:53Z</time>
      </trkpt>
      <trkpt lat="46.50976" lon="5.83714">
        <ele>907.96</ele>
        <time>2019-11-13T11:46:05Z</time>
      </trkpt>
      <trkpt lat="46.50985" lon="5.83708">
        <ele>908.74</ele>
        <time>2019-11-13T11:46:19Z</time>
      </trkpt>
      <trkpt lat="46.50997" lon="5.83708">
        <ele>909.55</ele>
        <time>2019-11-13T11:46:31Z</time>
      </trkpt>
      <trkpt lat="46.51011" lon="5.83713">
        <ele>911.31</ele>
        <time>2019-11-13T11:46:45Z</time>
      </trkpt>
      <trkpt lat="46.51025" lon="5.83722">
        <ele>912.58</ele>
        <time>2019-11-13T11:47:00Z</time>
      </trkpt>
      <trkpt lat="46.51039" lon="5.83731">
        <ele>913.3</ele>
        <time>2019-11-13T11:47:15Z</time>
      </trkpt>
      <trkpt lat="46.51054" lon="5.83741">
        <ele>914.05</ele>
        <time>2019-11-13T11:47:30Z</time>
      </trkpt>
      <trkpt lat="46.51069" lon="5.83746">
        <ele>914.99</ele>
        <time>2019-11-13T11:47:44Z</time>
      </trkpt>
      <trkpt lat="46.51086" lon="5.83752">
        <ele>915.75</ele>
        <time>2019-11-13T11:48:01Z</time>
      </trkpt>
      <trkpt lat="46.511" lon="5.83752">
        <ele>915.13</ele>
        <time>2019-11-13T11:48:14Z</time>
      </trkpt>
      <trkpt lat="46.51101" lon="5.83752">
        <ele>915.1</ele>
        <time>2019-11-13T11:48:15Z</time>
      </trkpt>
      <trkpt lat="46.51103" lon="5.83752">
        <ele>915.22</ele>
        <time>2019-11-13T11:48:17Z</time>
      </trkpt>
      <trkpt lat="46.51112" lon="5.83767">
        <ele>915.67</ele>
        <time>2019-11-13T11:48:32Z</time>
      </trkpt>
      <trkpt lat="46.51113" lon="5.83768">
        <ele>915.11</ele>
        <time>2019-11-13T11:48:33Z</time>
      </trkpt>
      <trkpt lat="46.51127" lon="5.83784">
        <ele>913.56</ele>
        <time>2019-11-13T11:48:51Z</time>
      </trkpt>
      <trkpt lat="46.51148" lon="5.8379">
        <ele>912.78</ele>
        <time>2019-11-13T11:49:09Z</time>
      </trkpt>
      <trkpt lat="46.5116" lon="5.83792">
        <ele>912.6</ele>
        <time>2019-11-13T11:49:22Z</time>
      </trkpt>
      <trkpt lat="46.51176" lon="5.83789">
        <ele>912.32</ele>
        <time>2019-11-13T11:49:36Z</time>
      </trkpt>
      <trkpt lat="46.51188" lon="5.83795">
        <ele>912.13</ele>
        <time>2019-11-13T11:49:50Z</time>
      </trkpt>
      <trkpt lat="46.51195" lon="5.8379">
        <ele>914.67</ele>
        <time>2019-11-13T11:50:04Z</time>
      </trkpt>
      <trkpt lat="46.51197" lon="5.83794">
        <ele>915.22</ele>
        <time>2019-11-13T11:50:23Z</time>
      </trkpt>
      <trkpt lat="46.51203" lon="5.83792">
        <ele>916.46</ele>
        <time>2019-11-13T11:50:40Z</time>
      </trkpt>
      <trkpt lat="46.51198" lon="5.83803">
        <ele>914.45</ele>
        <time>2019-11-13T11:51:32Z</time>
      </trkpt>
      <trkpt lat="46.51202" lon="5.83803">
        <ele>914.8</ele>
        <time>2019-11-13T11:51:36Z</time>
      </trkpt>
      <trkpt lat="46.51197" lon="5.83816">
        <ele>911.97</ele>
        <time>2019-11-13T11:51:50Z</time>
      </trkpt>
      <trkpt lat="46.51194" lon="5.83821">
        <ele>912.02</ele>
        <time>2019-11-13T11:51:56Z</time>
      </trkpt>
      <trkpt lat="46.51195" lon="5.83838">
        <ele>909.4</ele>
        <time>2019-11-13T11:53:47Z</time>
      </trkpt>
      <trkpt lat="46.51192" lon="5.83852">
        <ele>908.36</ele>
        <time>2019-11-13T11:53:55Z</time>
      </trkpt>
    </trkseg>
  </trk>
  <trk>
    <name><![CDATA[J2a - Cascades du Hérisson]]></name>
    <trkseg>
      <trkpt lat="46.6264" lon="5.8283">
        <ele>652</ele>
        <time>2015-03-27T07:58:03Z</time>
      </trkpt>
      <trkpt lat="46.62639" lon="5.82834">
        <ele>650</ele>
        <time>2015-03-27T07:59:02Z</time>
      </trkpt>
      <trkpt lat="46.62641" lon="5.82841">
        <ele>650</ele>
        <time>2015-03-27T07:59:11Z</time>
      </trkpt>
      <trkpt lat="46.62648" lon="5.82849">
        <ele>651</ele>
        <time>2015-03-27T07:59:23Z</time>
      </trkpt>
      <trkpt lat="46.62654" lon="5.82849">
        <ele>653</ele>
        <time>2015-03-27T08:00:55Z</time>
      </trkpt>
      <trkpt lat="46.62652" lon="5.82847">
        <ele>650</ele>
        <time>2015-03-27T08:02:45Z</time>
      </trkpt>
      <trkpt lat="46.62646" lon="5.82843">
        <ele>647</ele>
        <time>2015-03-27T08:03:21Z</time>
      </trkpt>
      <trkpt lat="46.62642" lon="5.82839">
        <ele>645</ele>
        <time>2015-03-27T08:03:26Z</time>
      </trkpt>
      <trkpt lat="46.62639" lon="5.82835">
        <ele>645</ele>
        <time>2015-03-27T08:03:31Z</time>
      </trkpt>
      <trkpt lat="46.62637" lon="5.8283">
        <ele>646</ele>
        <time>2015-03-27T08:04:06Z</time>
      </trkpt>
      <trkpt lat="46.62635" lon="5.82833">
        <ele>648</ele>
        <time>2015-03-27T08:04:51Z</time>
      </trkpt>
      <trkpt lat="46.62634" lon="5.82837">
        <ele>651</ele>
        <time>2015-03-27T08:05:20Z</time>
      </trkpt>
      <trkpt lat="46.62639" lon="5.82837">
        <ele>651</ele>
        <time>2015-03-27T08:05:26Z</time>
      </trkpt>
      <trkpt lat="46.6264" lon="5.82844">
        <ele>652</ele>
        <time>2015-03-27T08:05:38Z</time>
      </trkpt>
      <trkpt lat="46.62639" lon="5.82838">
        <ele>652</ele>
        <time>2015-03-27T08:07:06Z</time>
      </trkpt>
      <trkpt lat="46.62639" lon="5.82833">
        <ele>652</ele>
        <time>2015-03-27T08:07:31Z</time>
      </trkpt>
      <trkpt lat="46.62637" lon="5.82834">
        <ele>651</ele>
        <time>2015-03-27T08:07:46Z</time>
      </trkpt>
      <trkpt lat="46.6264" lon="5.8284">
        <ele>651</ele>
        <time>2015-03-27T08:07:53Z</time>
      </trkpt>
      <trkpt lat="46.62637" lon="5.82843">
        <ele>652</ele>
        <time>2015-03-27T08:08:42Z</time>
      </trkpt>
      <trkpt lat="46.62629" lon="5.82854">
        <ele>654</ele>
        <time>2015-03-27T08:09:10Z</time>
      </trkpt>
      <trkpt lat="46.62619" lon="5.82858">
        <ele>656</ele>
        <time>2015-03-27T08:09:21Z</time>
      </trkpt>
      <trkpt lat="46.62586" lon="5.82884">
        <ele>659</ele>
        <time>2015-03-27T08:09:56Z</time>
      </trkpt>
      <trkpt lat="46.62563" lon="5.82907">
        <ele>658</ele>
        <time>2015-03-27T08:10:20Z</time>
      </trkpt>
      <trkpt lat="46.62537" lon="5.82921">
        <ele>658</ele>
        <time>2015-03-27T08:10:42Z</time>
      </trkpt>
      <trkpt lat="46.62527" lon="5.82918">
        <ele>658</ele>
        <time>2015-03-27T08:10:53Z</time>
      </trkpt>
      <trkpt lat="46.62526" lon="5.8291">
        <ele>657</ele>
        <time>2015-03-27T08:10:57Z</time>
      </trkpt>
      <trkpt lat="46.62513" lon="5.82875">
        <ele>654</ele>
        <time>2015-03-27T08:11:16Z</time>
      </trkpt>
      <trkpt lat="46.62508" lon="5.82868">
        <ele>653</ele>
        <time>2015-03-27T08:11:21Z</time>
      </trkpt>
      <trkpt lat="46.62505" lon="5.82869">
        <ele>653</ele>
        <time>2015-03-27T08:11:23Z</time>
      </trkpt>
      <trkpt lat="46.62481" lon="5.82876">
        <ele>652</ele>
        <time>2015-03-27T08:11:47Z</time>
      </trkpt>
      <trkpt lat="46.62476" lon="5.82875">
        <ele>652</ele>
        <time>2015-03-27T08:11:51Z</time>
      </trkpt>
      <trkpt lat="46.62472" lon="5.82869">
        <ele>652</ele>
        <time>2015-03-27T08:11:54Z</time>
      </trkpt>
      <trkpt lat="46.62468" lon="5.82866">
        <ele>653</ele>
        <time>2015-03-27T08:11:57Z</time>
      </trkpt>
      <trkpt lat="46.62462" lon="5.82868">
        <ele>653</ele>
        <time>2015-03-27T08:12:01Z</time>
      </trkpt>
      <trkpt lat="46.62458" lon="5.8287">
        <ele>652</ele>
        <time>2015-03-27T08:12:06Z</time>
      </trkpt>
      <trkpt lat="46.62442" lon="5.82887">
        <ele>655</ele>
        <time>2015-03-27T08:12:25Z</time>
      </trkpt>
      <trkpt lat="46.62418" lon="5.82908">
        <ele>656</ele>
        <time>2015-03-27T08:12:49Z</time>
      </trkpt>
      <trkpt lat="46.62387" lon="5.82908">
        <ele>661</ele>
        <time>2015-03-27T08:13:17Z</time>
      </trkpt>
      <trkpt lat="46.62383" lon="5.82905">
        <ele>662</ele>
        <time>2015-03-27T08:13:21Z</time>
      </trkpt>
      <trkpt lat="46.62378" lon="5.82899">
        <ele>662</ele>
        <time>2015-03-27T08:13:25Z</time>
      </trkpt>
      <trkpt lat="46.62374" lon="5.82895">
        <ele>662</ele>
        <time>2015-03-27T08:13:28Z</time>
      </trkpt>
      <trkpt lat="46.6237" lon="5.82892">
        <ele>663</ele>
        <time>2015-03-27T08:13:31Z</time>
      </trkpt>
      <trkpt lat="46.62349" lon="5.82888">
        <ele>667</ele>
        <time>2015-03-27T08:13:49Z</time>
      </trkpt>
      <trkpt lat="46.62343" lon="5.82888">
        <ele>666</ele>
        <time>2015-03-27T08:13:54Z</time>
      </trkpt>
      <trkpt lat="46.62337" lon="5.82884">
        <ele>667</ele>
        <time>2015-03-27T08:13:59Z</time>
      </trkpt>
      <trkpt lat="46.62333" lon="5.82884">
        <ele>667</ele>
        <time>2015-03-27T08:14:01Z</time>
      </trkpt>
      <trkpt lat="46.6231" lon="5.82898">
        <ele>669</ele>
        <time>2015-03-27T08:14:24Z</time>
      </trkpt>
      <trkpt lat="46.62305" lon="5.829">
        <ele>669</ele>
        <time>2015-03-27T08:14:29Z</time>
      </trkpt>
      <trkpt lat="46.623" lon="5.82901">
        <ele>669</ele>
        <time>2015-03-27T08:14:34Z</time>
      </trkpt>
      <trkpt lat="46.62286" lon="5.82912">
        <ele>668</ele>
        <time>2015-03-27T08:14:46Z</time>
      </trkpt>
      <trkpt lat="46.62268" lon="5.82922">
        <ele>669</ele>
        <time>2015-03-27T08:14:58Z</time>
      </trkpt>
      <trkpt lat="46.62259" lon="5.82926">
        <ele>669</ele>
        <time>2015-03-27T08:15:05Z</time>
      </trkpt>
      <trkpt lat="46.62256" lon="5.82932">
        <ele>669</ele>
        <time>2015-03-27T08:15:10Z</time>
      </trkpt>
      <trkpt lat="46.62234" lon="5.82951">
        <ele>668</ele>
        <time>2015-03-27T08:15:33Z</time>
      </trkpt>
      <trkpt lat="46.62227" lon="5.8296">
        <ele>668</ele>
        <time>2015-03-27T08:15:41Z</time>
      </trkpt>
      <trkpt lat="46.62218" lon="5.82961">
        <ele>670</ele>
        <time>2015-03-27T08:15:51Z</time>
      </trkpt>
      <trkpt lat="46.62211" lon="5.82951">
        <ele>670</ele>
        <time>2015-03-27T08:15:56Z</time>
      </trkpt>
      <trkpt lat="46.62203" lon="5.82942">
        <ele>671</ele>
        <time>2015-03-27T08:16:03Z</time>
      </trkpt>
      <trkpt lat="46.62178" lon="5.82915">
        <ele>673</ele>
        <time>2015-03-27T08:16:31Z</time>
      </trkpt>
      <trkpt lat="46.62173" lon="5.82917">
        <ele>673</ele>
        <time>2015-03-27T08:16:35Z</time>
      </trkpt>
      <trkpt lat="46.62169" lon="5.82921">
        <ele>672</ele>
        <time>2015-03-27T08:16:39Z</time>
      </trkpt>
      <trkpt lat="46.62166" lon="5.82925">
        <ele>672</ele>
        <time>2015-03-27T08:16:45Z</time>
      </trkpt>
      <trkpt lat="46.62161" lon="5.8293">
        <ele>671</ele>
        <time>2015-03-27T08:16:49Z</time>
      </trkpt>
      <trkpt lat="46.62153" lon="5.8294">
        <ele>672</ele>
        <time>2015-03-27T08:16:56Z</time>
      </trkpt>
      <trkpt lat="46.62139" lon="5.82961">
        <ele>673</ele>
        <time>2015-03-27T08:17:13Z</time>
      </trkpt>
      <trkpt lat="46.62132" lon="5.82957">
        <ele>673</ele>
        <time>2015-03-27T08:17:19Z</time>
      </trkpt>
      <trkpt lat="46.62126" lon="5.82958">
        <ele>674</ele>
        <time>2015-03-27T08:17:24Z</time>
      </trkpt>
      <trkpt lat="46.62117" lon="5.82956">
        <ele>673</ele>
        <time>2015-03-27T08:17:32Z</time>
      </trkpt>
      <trkpt lat="46.62072" lon="5.82966">
        <ele>676</ele>
        <time>2015-03-27T08:18:07Z</time>
      </trkpt>
      <trkpt lat="46.62055" lon="5.82977">
        <ele>678</ele>
        <time>2015-03-27T08:18:21Z</time>
      </trkpt>
      <trkpt lat="46.62045" lon="5.82977">
        <ele>677</ele>
        <time>2015-03-27T08:18:31Z</time>
      </trkpt>
      <trkpt lat="46.62036" lon="5.82973">
        <ele>675</ele>
        <time>2015-03-27T08:18:42Z</time>
      </trkpt>
      <trkpt lat="46.62027" lon="5.82976">
        <ele>674</ele>
        <time>2015-03-27T08:18:51Z</time>
      </trkpt>
      <trkpt lat="46.62006" lon="5.82973">
        <ele>673</ele>
        <time>2015-03-27T08:19:04Z</time>
      </trkpt>
      <trkpt lat="46.61989" lon="5.8298">
        <ele>672</ele>
        <time>2015-03-27T08:19:21Z</time>
      </trkpt>
      <trkpt lat="46.61982" lon="5.8299">
        <ele>671</ele>
        <time>2015-03-27T08:19:36Z</time>
      </trkpt>
      <trkpt lat="46.61983" lon="5.83004">
        <ele>672</ele>
        <time>2015-03-27T08:19:47Z</time>
      </trkpt>
      <trkpt lat="46.61972" lon="5.83009">
        <ele>674</ele>
        <time>2015-03-27T08:20:01Z</time>
      </trkpt>
      <trkpt lat="46.61962" lon="5.83006">
        <ele>677</ele>
        <time>2015-03-27T08:20:12Z</time>
      </trkpt>
      <trkpt lat="46.61953" lon="5.83008">
        <ele>677</ele>
        <time>2015-03-27T08:20:18Z</time>
      </trkpt>
      <trkpt lat="46.61944" lon="5.83009">
        <ele>677</ele>
        <time>2015-03-27T08:20:25Z</time>
      </trkpt>
      <trkpt lat="46.61936" lon="5.83016">
        <ele>677</ele>
        <time>2015-03-27T08:20:35Z</time>
      </trkpt>
      <trkpt lat="46.61927" lon="5.83023">
        <ele>677</ele>
        <time>2015-03-27T08:20:44Z</time>
      </trkpt>
      <trkpt lat="46.61909" lon="5.83033">
        <ele>677</ele>
        <time>2015-03-27T08:21:02Z</time>
      </trkpt>
      <trkpt lat="46.61873" lon="5.83059">
        <ele>673</ele>
        <time>2015-03-27T08:21:36Z</time>
      </trkpt>
      <trkpt lat="46.61865" lon="5.83066">
        <ele>672</ele>
        <time>2015-03-27T08:21:43Z</time>
      </trkpt>
      <trkpt lat="46.61855" lon="5.83088">
        <ele>671</ele>
        <time>2015-03-27T08:21:59Z</time>
      </trkpt>
      <trkpt lat="46.61849" lon="5.83099">
        <ele>671</ele>
        <time>2015-03-27T08:22:07Z</time>
      </trkpt>
      <trkpt lat="46.61836" lon="5.83135">
        <ele>669</ele>
        <time>2015-03-27T08:22:33Z</time>
      </trkpt>
      <trkpt lat="46.61827" lon="5.8316">
        <ele>670</ele>
        <time>2015-03-27T08:22:50Z</time>
      </trkpt>
      <trkpt lat="46.61822" lon="5.83172">
        <ele>670</ele>
        <time>2015-03-27T08:22:57Z</time>
      </trkpt>
      <trkpt lat="46.61816" lon="5.83183">
        <ele>670</ele>
        <time>2015-03-27T08:23:03Z</time>
      </trkpt>
      <trkpt lat="46.61796" lon="5.8323">
        <ele>667</ele>
        <time>2015-03-27T08:23:36Z</time>
      </trkpt>
      <trkpt lat="46.61786" lon="5.83254">
        <ele>665</ele>
        <time>2015-03-27T08:23:56Z</time>
      </trkpt>
      <trkpt lat="46.61783" lon="5.83268">
        <ele>665</ele>
        <time>2015-03-27T08:24:05Z</time>
      </trkpt>
      <trkpt lat="46.61774" lon="5.83292">
        <ele>663</ele>
        <time>2015-03-27T08:24:22Z</time>
      </trkpt>
      <trkpt lat="46.61752" lon="5.83339">
        <ele>654</ele>
        <time>2015-03-27T08:24:54Z</time>
      </trkpt>
      <trkpt lat="46.61751" lon="5.83346">
        <ele>654</ele>
        <time>2015-03-27T08:24:58Z</time>
      </trkpt>
      <trkpt lat="46.61747" lon="5.8336">
        <ele>654</ele>
        <time>2015-03-27T08:25:05Z</time>
      </trkpt>
      <trkpt lat="46.6174" lon="5.83378">
        <ele>653</ele>
        <time>2015-03-27T08:25:20Z</time>
      </trkpt>
      <trkpt lat="46.61737" lon="5.83383">
        <ele>652</ele>
        <time>2015-03-27T08:25:26Z</time>
      </trkpt>
      <trkpt lat="46.61726" lon="5.83415">
        <ele>645</ele>
        <time>2015-03-27T08:25:52Z</time>
      </trkpt>
      <trkpt lat="46.61719" lon="5.83424">
        <ele>645</ele>
        <time>2015-03-27T08:26:01Z</time>
      </trkpt>
      <trkpt lat="46.61712" lon="5.83451">
        <ele>643</ele>
        <time>2015-03-27T08:26:16Z</time>
      </trkpt>
      <trkpt lat="46.617" lon="5.83473">
        <ele>639</ele>
        <time>2015-03-27T08:26:31Z</time>
      </trkpt>
      <trkpt lat="46.61693" lon="5.83498">
        <ele>638</ele>
        <time>2015-03-27T08:26:47Z</time>
      </trkpt>
      <trkpt lat="46.61693" lon="5.83526">
        <ele>637</ele>
        <time>2015-03-27T08:27:06Z</time>
      </trkpt>
      <trkpt lat="46.61703" lon="5.83565">
        <ele>635</ele>
        <time>2015-03-27T08:27:27Z</time>
      </trkpt>
      <trkpt lat="46.61701" lon="5.83579">
        <ele>635</ele>
        <time>2015-03-27T08:27:36Z</time>
      </trkpt>
      <trkpt lat="46.61697" lon="5.83593">
        <ele>636</ele>
        <time>2015-03-27T08:27:43Z</time>
      </trkpt>
      <trkpt lat="46.61694" lon="5.83607">
        <ele>636</ele>
        <time>2015-03-27T08:27:50Z</time>
      </trkpt>
      <trkpt lat="46.61694" lon="5.83622">
        <ele>635</ele>
        <time>2015-03-27T08:27:58Z</time>
      </trkpt>
      <trkpt lat="46.61678" lon="5.83671">
        <ele>629</ele>
        <time>2015-03-27T08:28:31Z</time>
      </trkpt>
      <trkpt lat="46.61676" lon="5.837">
        <ele>625</ele>
        <time>2015-03-27T08:28:49Z</time>
      </trkpt>
      <trkpt lat="46.61672" lon="5.83726">
        <ele>624</ele>
        <time>2015-03-27T08:29:05Z</time>
      </trkpt>
      <trkpt lat="46.61672" lon="5.83768">
        <ele>620</ele>
        <time>2015-03-27T08:29:30Z</time>
      </trkpt>
      <trkpt lat="46.61671" lon="5.83824">
        <ele>619</ele>
        <time>2015-03-27T08:30:06Z</time>
      </trkpt>
      <trkpt lat="46.61664" lon="5.83864">
        <ele>618</ele>
        <time>2015-03-27T08:30:35Z</time>
      </trkpt>
      <trkpt lat="46.61659" lon="5.83892">
        <ele>616</ele>
        <time>2015-03-27T08:30:53Z</time>
      </trkpt>
      <trkpt lat="46.61654" lon="5.8392">
        <ele>616</ele>
        <time>2015-03-27T08:31:06Z</time>
      </trkpt>
      <trkpt lat="46.61652" lon="5.83933">
        <ele>615</ele>
        <time>2015-03-27T08:31:16Z</time>
      </trkpt>
      <trkpt lat="46.61652" lon="5.83947">
        <ele>615</ele>
        <time>2015-03-27T08:31:26Z</time>
      </trkpt>
      <trkpt lat="46.61654" lon="5.84003">
        <ele>612</ele>
        <time>2015-03-27T08:31:58Z</time>
      </trkpt>
      <trkpt lat="46.61653" lon="5.84072">
        <ele>611</ele>
        <time>2015-03-27T08:32:35Z</time>
      </trkpt>
      <trkpt lat="46.61651" lon="5.84099">
        <ele>612</ele>
        <time>2015-03-27T08:32:53Z</time>
      </trkpt>
      <trkpt lat="46.61648" lon="5.84153">
        <ele>608</ele>
        <time>2015-03-27T08:33:27Z</time>
      </trkpt>
      <trkpt lat="46.61651" lon="5.84206">
        <ele>604</ele>
        <time>2015-03-27T08:33:58Z</time>
      </trkpt>
      <trkpt lat="46.6165" lon="5.8425">
        <ele>600</ele>
        <time>2015-03-27T08:34:20Z</time>
      </trkpt>
      <trkpt lat="46.61654" lon="5.84262">
        <ele>600</ele>
        <time>2015-03-27T08:34:31Z</time>
      </trkpt>
      <trkpt lat="46.61651" lon="5.84276">
        <ele>600</ele>
        <time>2015-03-27T08:34:39Z</time>
      </trkpt>
      <trkpt lat="46.61645" lon="5.84303">
        <ele>595</ele>
        <time>2015-03-27T08:35:00Z</time>
      </trkpt>
      <trkpt lat="46.61645" lon="5.84369">
        <ele>588</ele>
        <time>2015-03-27T08:35:43Z</time>
      </trkpt>
      <trkpt lat="46.61642" lon="5.84397">
        <ele>585</ele>
        <time>2015-03-27T08:35:58Z</time>
      </trkpt>
      <trkpt lat="46.61636" lon="5.84424">
        <ele>585</ele>
        <time>2015-03-27T08:36:15Z</time>
      </trkpt>
      <trkpt lat="46.61626" lon="5.84478">
        <ele>579</ele>
        <time>2015-03-27T08:36:47Z</time>
      </trkpt>
      <trkpt lat="46.61623" lon="5.84492">
        <ele>577</ele>
        <time>2015-03-27T08:36:59Z</time>
      </trkpt>
      <trkpt lat="46.61614" lon="5.84517">
        <ele>575</ele>
        <time>2015-03-27T08:37:14Z</time>
      </trkpt>
      <trkpt lat="46.61605" lon="5.84556">
        <ele>576</ele>
        <time>2015-03-27T08:37:39Z</time>
      </trkpt>
      <trkpt lat="46.61599" lon="5.84566">
        <ele>575</ele>
        <time>2015-03-27T08:37:48Z</time>
      </trkpt>
      <trkpt lat="46.61582" lon="5.84601">
        <ele>570</ele>
        <time>2015-03-27T08:38:18Z</time>
      </trkpt>
      <trkpt lat="46.61564" lon="5.84651">
        <ele>564</ele>
        <time>2015-03-27T08:38:54Z</time>
      </trkpt>
      <trkpt lat="46.61555" lon="5.84677">
        <ele>561</ele>
        <time>2015-03-27T08:39:07Z</time>
      </trkpt>
      <trkpt lat="46.61546" lon="5.84684">
        <ele>559</ele>
        <time>2015-03-27T08:39:16Z</time>
      </trkpt>
      <trkpt lat="46.61521" lon="5.84724">
        <ele>556</ele>
        <time>2015-03-27T08:39:49Z</time>
      </trkpt>
      <trkpt lat="46.61504" lon="5.8476">
        <ele>547</ele>
        <time>2015-03-27T08:40:21Z</time>
      </trkpt>
      <trkpt lat="46.6147" lon="5.84808">
        <ele>537</ele>
        <time>2015-03-27T08:40:58Z</time>
      </trkpt>
      <trkpt lat="46.61438" lon="5.84836">
        <ele>533</ele>
        <time>2015-03-27T08:41:29Z</time>
      </trkpt>
      <trkpt lat="46.61405" lon="5.84886">
        <ele>529</ele>
        <time>2015-03-27T08:42:07Z</time>
      </trkpt>
      <trkpt lat="46.61395" lon="5.8491">
        <ele>529</ele>
        <time>2015-03-27T08:42:23Z</time>
      </trkpt>
      <trkpt lat="46.61388" lon="5.84919">
        <ele>528</ele>
        <time>2015-03-27T08:42:31Z</time>
      </trkpt>
      <trkpt lat="46.6136" lon="5.84927">
        <ele>525</ele>
        <time>2015-03-27T08:42:52Z</time>
      </trkpt>
      <trkpt lat="46.61352" lon="5.84936">
        <ele>525</ele>
        <time>2015-03-27T08:43:00Z</time>
      </trkpt>
      <trkpt lat="46.61346" lon="5.84947">
        <ele>525</ele>
        <time>2015-03-27T08:43:09Z</time>
      </trkpt>
      <trkpt lat="46.61345" lon="5.84962">
        <ele>523</ele>
        <time>2015-03-27T08:43:18Z</time>
      </trkpt>
      <trkpt lat="46.61339" lon="5.85016">
        <ele>520</ele>
        <time>2015-03-27T08:43:50Z</time>
      </trkpt>
      <trkpt lat="46.6133" lon="5.8504">
        <ele>518</ele>
        <time>2015-03-27T08:44:01Z</time>
      </trkpt>
      <trkpt lat="46.61336" lon="5.85063">
        <ele>516</ele>
        <time>2015-03-27T08:44:51Z</time>
      </trkpt>
      <trkpt lat="46.61341" lon="5.85074">
        <ele>516</ele>
        <time>2015-03-27T08:44:59Z</time>
      </trkpt>
      <trkpt lat="46.61334" lon="5.85077">
        <ele>518</ele>
        <time>2015-03-27T08:45:26Z</time>
      </trkpt>
      <trkpt lat="46.61335" lon="5.8506">
        <ele>519</ele>
        <time>2015-03-27T08:45:47Z</time>
      </trkpt>
      <trkpt lat="46.61332" lon="5.85047">
        <ele>519</ele>
        <time>2015-03-27T08:45:55Z</time>
      </trkpt>
      <trkpt lat="46.61327" lon="5.85048">
        <ele>517</ele>
        <time>2015-03-27T08:47:31Z</time>
      </trkpt>
      <trkpt lat="46.61327" lon="5.85056">
        <ele>517</ele>
        <time>2015-03-27T08:48:10Z</time>
      </trkpt>
      <trkpt lat="46.61322" lon="5.85052">
        <ele>511</ele>
        <time>2015-03-27T08:48:56Z</time>
      </trkpt>
      <trkpt lat="46.61321" lon="5.85055">
        <ele>511</ele>
        <time>2015-03-27T08:50:03Z</time>
      </trkpt>
      <trkpt lat="46.61317" lon="5.85061">
        <ele>510</ele>
        <time>2015-03-27T08:50:08Z</time>
      </trkpt>
      <trkpt lat="46.61316" lon="5.85068">
        <ele>510</ele>
        <time>2015-03-27T08:50:13Z</time>
      </trkpt>
      <trkpt lat="46.61317" lon="5.85074">
        <ele>511</ele>
        <time>2015-03-27T08:50:22Z</time>
      </trkpt>
      <trkpt lat="46.61316" lon="5.85081">
        <ele>512</ele>
        <time>2015-03-27T08:50:30Z</time>
      </trkpt>
      <trkpt lat="46.61323" lon="5.85089">
        <ele>514</ele>
        <time>2015-03-27T08:51:33Z</time>
      </trkpt>
      <trkpt lat="46.61323" lon="5.85103">
        <ele>515</ele>
        <time>2015-03-27T08:51:42Z</time>
      </trkpt>
      <trkpt lat="46.61322" lon="5.85117">
        <ele>519</ele>
        <time>2015-03-27T08:51:51Z</time>
      </trkpt>
      <trkpt lat="46.6132" lon="5.85131">
        <ele>519</ele>
        <time>2015-03-27T08:51:58Z</time>
      </trkpt>
      <trkpt lat="46.61326" lon="5.85143">
        <ele>520</ele>
        <time>2015-03-27T08:52:07Z</time>
      </trkpt>
      <trkpt lat="46.61346" lon="5.85173">
        <ele>526</ele>
        <time>2015-03-27T08:52:28Z</time>
      </trkpt>
      <trkpt lat="46.61361" lon="5.85225">
        <ele>534</ele>
        <time>2015-03-27T08:53:02Z</time>
      </trkpt>
      <trkpt lat="46.61364" lon="5.85238">
        <ele>536</ele>
        <time>2015-03-27T08:53:09Z</time>
      </trkpt>
      <trkpt lat="46.61367" lon="5.85244">
        <ele>535</ele>
        <time>2015-03-27T08:54:06Z</time>
      </trkpt>
      <trkpt lat="46.61373" lon="5.85256">
        <ele>537</ele>
        <time>2015-03-27T08:54:19Z</time>
      </trkpt>
      <trkpt lat="46.61373" lon="5.85283">
        <ele>545</ele>
        <time>2015-03-27T08:54:34Z</time>
      </trkpt>
      <trkpt lat="46.61379" lon="5.85293">
        <ele>547</ele>
        <time>2015-03-27T08:54:48Z</time>
      </trkpt>
      <trkpt lat="46.61386" lon="5.85333">
        <ele>551</ele>
        <time>2015-03-27T08:55:26Z</time>
      </trkpt>
      <trkpt lat="46.61386" lon="5.85346">
        <ele>551</ele>
        <time>2015-03-27T08:55:35Z</time>
      </trkpt>
      <trkpt lat="46.61391" lon="5.85347">
        <ele>551</ele>
        <time>2015-03-27T08:56:18Z</time>
      </trkpt>
      <trkpt lat="46.61388" lon="5.85349">
        <ele>551</ele>
        <time>2015-03-27T08:57:41Z</time>
      </trkpt>
      <trkpt lat="46.61383" lon="5.85363">
        <ele>551</ele>
        <time>2015-03-27T08:57:49Z</time>
      </trkpt>
      <trkpt lat="46.61391" lon="5.8537">
        <ele>551</ele>
        <time>2015-03-27T08:58:03Z</time>
      </trkpt>
      <trkpt lat="46.61393" lon="5.85384">
        <ele>554</ele>
        <time>2015-03-27T08:58:12Z</time>
      </trkpt>
      <trkpt lat="46.61398" lon="5.85397">
        <ele>554</ele>
        <time>2015-03-27T08:58:28Z</time>
      </trkpt>
      <trkpt lat="46.61397" lon="5.8541">
        <ele>553</ele>
        <time>2015-03-27T08:58:40Z</time>
      </trkpt>
      <trkpt lat="46.61395" lon="5.85424">
        <ele>553</ele>
        <time>2015-03-27T08:58:57Z</time>
      </trkpt>
      <trkpt lat="46.61393" lon="5.85431">
        <ele>555</ele>
        <time>2015-03-27T08:59:12Z</time>
      </trkpt>
      <trkpt lat="46.61396" lon="5.85452">
        <ele>557</ele>
        <time>2015-03-27T08:59:37Z</time>
      </trkpt>
      <trkpt lat="46.61403" lon="5.85469">
        <ele>558</ele>
        <time>2015-03-27T08:59:57Z</time>
      </trkpt>
      <trkpt lat="46.61411" lon="5.85465">
        <ele>556</ele>
        <time>2015-03-27T09:00:13Z</time>
      </trkpt>
      <trkpt lat="46.61404" lon="5.85463">
        <ele>557</ele>
        <time>2015-03-27T09:01:09Z</time>
      </trkpt>
      <trkpt lat="46.61403" lon="5.8545">
        <ele>558</ele>
        <time>2015-03-27T09:01:18Z</time>
      </trkpt>
      <trkpt lat="46.61402" lon="5.85436">
        <ele>557</ele>
        <time>2015-03-27T09:01:28Z</time>
      </trkpt>
      <trkpt lat="46.61399" lon="5.85437">
        <ele>553</ele>
        <time>2015-03-27T09:02:18Z</time>
      </trkpt>
      <trkpt lat="46.614" lon="5.85452">
        <ele>552</ele>
        <time>2015-03-27T09:02:26Z</time>
      </trkpt>
      <trkpt lat="46.61409" lon="5.8545">
        <ele>549</ele>
        <time>2015-03-27T09:02:45Z</time>
      </trkpt>
      <trkpt lat="46.61415" lon="5.85439">
        <ele>550</ele>
        <time>2015-03-27T09:02:54Z</time>
      </trkpt>
      <trkpt lat="46.6142" lon="5.85428">
        <ele>553</ele>
        <time>2015-03-27T09:03:03Z</time>
      </trkpt>
      <trkpt lat="46.61429" lon="5.85421">
        <ele>555</ele>
        <time>2015-03-27T09:03:18Z</time>
      </trkpt>
      <trkpt lat="46.61435" lon="5.85407">
        <ele>560</ele>
        <time>2015-03-27T09:03:40Z</time>
      </trkpt>
      <trkpt lat="46.61454" lon="5.85398">
        <ele>563</ele>
        <time>2015-03-27T09:04:12Z</time>
      </trkpt>
      <trkpt lat="46.6146" lon="5.85404">
        <ele>563</ele>
        <time>2015-03-27T09:04:43Z</time>
      </trkpt>
      <trkpt lat="46.61449" lon="5.85427">
        <ele>566</ele>
        <time>2015-03-27T09:05:03Z</time>
      </trkpt>
      <trkpt lat="46.61447" lon="5.8544">
        <ele>567</ele>
        <time>2015-03-27T09:05:15Z</time>
      </trkpt>
      <trkpt lat="46.61444" lon="5.85454">
        <ele>566</ele>
        <time>2015-03-27T09:05:26Z</time>
      </trkpt>
      <trkpt lat="46.61439" lon="5.85465">
        <ele>567</ele>
        <time>2015-03-27T09:05:36Z</time>
      </trkpt>
      <trkpt lat="46.61437" lon="5.85494">
        <ele>574</ele>
        <time>2015-03-27T09:06:06Z</time>
      </trkpt>
      <trkpt lat="46.61438" lon="5.85507">
        <ele>576</ele>
        <time>2015-03-27T09:06:18Z</time>
      </trkpt>
      <trkpt lat="46.6143" lon="5.85531">
        <ele>580</ele>
        <time>2015-03-27T09:06:40Z</time>
      </trkpt>
      <trkpt lat="46.61423" lon="5.8554">
        <ele>580</ele>
        <time>2015-03-27T09:06:55Z</time>
      </trkpt>
      <trkpt lat="46.61404" lon="5.85538">
        <ele>583</ele>
        <time>2015-03-27T09:07:27Z</time>
      </trkpt>
      <trkpt lat="46.61398" lon="5.85529">
        <ele>584</ele>
        <time>2015-03-27T09:07:40Z</time>
      </trkpt>
      <trkpt lat="46.61399" lon="5.85535">
        <ele>590</ele>
        <time>2015-03-27T09:08:42Z</time>
      </trkpt>
      <trkpt lat="46.61399" lon="5.85542">
        <ele>590</ele>
        <time>2015-03-27T09:08:47Z</time>
      </trkpt>
      <trkpt lat="46.61403" lon="5.85562">
        <ele>592</ele>
        <time>2015-03-27T09:09:01Z</time>
      </trkpt>
      <trkpt lat="46.61396" lon="5.85583">
        <ele>594</ele>
        <time>2015-03-27T09:09:13Z</time>
      </trkpt>
      <trkpt lat="46.61394" lon="5.85597">
        <ele>594</ele>
        <time>2015-03-27T09:09:25Z</time>
      </trkpt>
      <trkpt lat="46.61394" lon="5.85601">
        <ele>598</ele>
        <time>2015-03-27T09:10:31Z</time>
      </trkpt>
      <trkpt lat="46.61401" lon="5.85611">
        <ele>599</ele>
        <time>2015-03-27T09:10:49Z</time>
      </trkpt>
      <trkpt lat="46.6141" lon="5.85615">
        <ele>600</ele>
        <time>2015-03-27T09:11:02Z</time>
      </trkpt>
      <trkpt lat="46.6141" lon="5.85629">
        <ele>602</ele>
        <time>2015-03-27T09:11:12Z</time>
      </trkpt>
      <trkpt lat="46.61407" lon="5.85642">
        <ele>605</ele>
        <time>2015-03-27T09:11:22Z</time>
      </trkpt>
      <trkpt lat="46.61402" lon="5.8565">
        <ele>607</ele>
        <time>2015-03-27T09:11:39Z</time>
      </trkpt>
      <trkpt lat="46.61393" lon="5.85675">
        <ele>611</ele>
        <time>2015-03-27T09:12:15Z</time>
      </trkpt>
      <trkpt lat="46.61387" lon="5.85685">
        <ele>611</ele>
        <time>2015-03-27T09:12:25Z</time>
      </trkpt>
      <trkpt lat="46.61382" lon="5.85689">
        <ele>611</ele>
        <time>2015-03-27T09:12:44Z</time>
      </trkpt>
      <trkpt lat="46.61381" lon="5.857">
        <ele>613</ele>
        <time>2015-03-27T09:13:04Z</time>
      </trkpt>
      <trkpt lat="46.61374" lon="5.8573">
        <ele>623</ele>
        <time>2015-03-27T09:13:43Z</time>
      </trkpt>
      <trkpt lat="46.61371" lon="5.85763">
        <ele>631</ele>
        <time>2015-03-27T09:14:23Z</time>
      </trkpt>
      <trkpt lat="46.6138" lon="5.85793">
        <ele>641</ele>
        <time>2015-03-27T09:15:00Z</time>
      </trkpt>
      <trkpt lat="46.61377" lon="5.85806">
        <ele>643</ele>
        <time>2015-03-27T09:15:19Z</time>
      </trkpt>
      <trkpt lat="46.61378" lon="5.8582">
        <ele>645</ele>
        <time>2015-03-27T09:15:33Z</time>
      </trkpt>
      <trkpt lat="46.61381" lon="5.85829">
        <ele>645</ele>
        <time>2015-03-27T09:15:49Z</time>
      </trkpt>
      <trkpt lat="46.61373" lon="5.85842">
        <ele>647</ele>
        <time>2015-03-27T09:16:29Z</time>
      </trkpt>
      <trkpt lat="46.61366" lon="5.85853">
        <ele>647</ele>
        <time>2015-03-27T09:16:39Z</time>
      </trkpt>
      <trkpt lat="46.61367" lon="5.85866">
        <ele>644</ele>
        <time>2015-03-27T09:16:56Z</time>
      </trkpt>
      <trkpt lat="46.61371" lon="5.85883">
        <ele>644</ele>
        <time>2015-03-27T09:17:16Z</time>
      </trkpt>
      <trkpt lat="46.61382" lon="5.85887">
        <ele>646</ele>
        <time>2015-03-27T09:17:30Z</time>
      </trkpt>
      <trkpt lat="46.61406" lon="5.85903">
        <ele>657</ele>
        <time>2015-03-27T09:18:10Z</time>
      </trkpt>
      <trkpt lat="46.61414" lon="5.85911">
        <ele>658</ele>
        <time>2015-03-27T09:18:18Z</time>
      </trkpt>
      <trkpt lat="46.61422" lon="5.85913">
        <ele>662</ele>
        <time>2015-03-27T09:19:01Z</time>
      </trkpt>
      <trkpt lat="46.6142" lon="5.85925">
        <ele>661</ele>
        <time>2015-03-27T09:19:41Z</time>
      </trkpt>
      <trkpt lat="46.6142" lon="5.85916">
        <ele>663</ele>
        <time>2015-03-27T09:21:18Z</time>
      </trkpt>
      <trkpt lat="46.61413" lon="5.85914">
        <ele>663</ele>
        <time>2015-03-27T09:21:57Z</time>
      </trkpt>
      <trkpt lat="46.61419" lon="5.85912">
        <ele>659</ele>
        <time>2015-03-27T09:23:42Z</time>
      </trkpt>
      <trkpt lat="46.61414" lon="5.85899">
        <ele>660</ele>
        <time>2015-03-27T09:23:52Z</time>
      </trkpt>
      <trkpt lat="46.61407" lon="5.8589">
        <ele>660</ele>
        <time>2015-03-27T09:24:01Z</time>
      </trkpt>
      <trkpt lat="46.61399" lon="5.85884">
        <ele>662</ele>
        <time>2015-03-27T09:24:08Z</time>
      </trkpt>
      <trkpt lat="46.6139" lon="5.85886">
        <ele>661</ele>
        <time>2015-03-27T09:24:31Z</time>
      </trkpt>
      <trkpt lat="46.61389" lon="5.85873">
        <ele>663</ele>
        <time>2015-03-27T09:24:48Z</time>
      </trkpt>
      <trkpt lat="46.61382" lon="5.85863">
        <ele>666</ele>
        <time>2015-03-27T09:24:59Z</time>
      </trkpt>
      <trkpt lat="46.61373" lon="5.85863">
        <ele>665</ele>
        <time>2015-03-27T09:25:11Z</time>
      </trkpt>
      <trkpt lat="46.61368" lon="5.85875">
        <ele>664</ele>
        <time>2015-03-27T09:25:21Z</time>
      </trkpt>
      <trkpt lat="46.61374" lon="5.85886">
        <ele>664</ele>
        <time>2015-03-27T09:25:39Z</time>
      </trkpt>
      <trkpt lat="46.61382" lon="5.85894">
        <ele>663</ele>
        <time>2015-03-27T09:25:47Z</time>
      </trkpt>
      <trkpt lat="46.61396" lon="5.85933">
        <ele>658</ele>
        <time>2015-03-27T09:26:30Z</time>
      </trkpt>
      <trkpt lat="46.61408" lon="5.85953">
        <ele>658</ele>
        <time>2015-03-27T09:26:49Z</time>
      </trkpt>
      <trkpt lat="46.61425" lon="5.85974">
        <ele>662</ele>
        <time>2015-03-27T09:27:15Z</time>
      </trkpt>
      <trkpt lat="46.61433" lon="5.85976">
        <ele>662</ele>
        <time>2015-03-27T09:27:38Z</time>
      </trkpt>
      <trkpt lat="46.6143" lon="5.85989">
        <ele>662</ele>
        <time>2015-03-27T09:27:49Z</time>
      </trkpt>
      <trkpt lat="46.61428" lon="5.86002">
        <ele>662</ele>
        <time>2015-03-27T09:28:01Z</time>
      </trkpt>
      <trkpt lat="46.61435" lon="5.86028">
        <ele>665</ele>
        <time>2015-03-27T09:28:27Z</time>
      </trkpt>
      <trkpt lat="46.6143" lon="5.86039">
        <ele>665</ele>
        <time>2015-03-27T09:28:41Z</time>
      </trkpt>
      <trkpt lat="46.61439" lon="5.86043">
        <ele>666</ele>
        <time>2015-03-27T09:28:55Z</time>
      </trkpt>
      <trkpt lat="46.61456" lon="5.86055">
        <ele>667</ele>
        <time>2015-03-27T09:29:16Z</time>
      </trkpt>
      <trkpt lat="46.61464" lon="5.86061">
        <ele>666</ele>
        <time>2015-03-27T09:29:30Z</time>
      </trkpt>
      <trkpt lat="46.6147" lon="5.86065">
        <ele>664</ele>
        <time>2015-03-27T09:29:46Z</time>
      </trkpt>
      <trkpt lat="46.61479" lon="5.86056">
        <ele>662</ele>
        <time>2015-03-27T09:30:48Z</time>
      </trkpt>
      <trkpt lat="46.61472" lon="5.86058">
        <ele>667</ele>
        <time>2015-03-27T09:31:06Z</time>
      </trkpt>
      <trkpt lat="46.61464" lon="5.8605">
        <ele>668</ele>
        <time>2015-03-27T09:31:13Z</time>
      </trkpt>
      <trkpt lat="46.61464" lon="5.86051">
        <ele>675</ele>
        <time>2015-03-27T09:31:43Z</time>
      </trkpt>
      <trkpt lat="46.61469" lon="5.86063">
        <ele>674</ele>
        <time>2015-03-27T09:31:51Z</time>
      </trkpt>
      <trkpt lat="46.6148" lon="5.86067">
        <ele>673</ele>
        <time>2015-03-27T09:31:58Z</time>
      </trkpt>
      <trkpt lat="46.6147" lon="5.86047">
        <ele>674</ele>
        <time>2015-03-27T09:32:19Z</time>
      </trkpt>
      <trkpt lat="46.61472" lon="5.8606">
        <ele>674</ele>
        <time>2015-03-27T09:32:27Z</time>
      </trkpt>
      <trkpt lat="46.61475" lon="5.86073">
        <ele>674</ele>
        <time>2015-03-27T09:32:41Z</time>
      </trkpt>
      <trkpt lat="46.61479" lon="5.86079">
        <ele>677</ele>
        <time>2015-03-27T09:33:28Z</time>
      </trkpt>
      <trkpt lat="46.61479" lon="5.86092">
        <ele>677</ele>
        <time>2015-03-27T09:33:36Z</time>
      </trkpt>
      <trkpt lat="46.6148" lon="5.86119">
        <ele>673</ele>
        <time>2015-03-27T09:34:03Z</time>
      </trkpt>
      <trkpt lat="46.61474" lon="5.86131">
        <ele>672</ele>
        <time>2015-03-27T09:34:12Z</time>
      </trkpt>
      <trkpt lat="46.61479" lon="5.86143">
        <ele>670</ele>
        <time>2015-03-27T09:34:44Z</time>
      </trkpt>
      <trkpt lat="46.61495" lon="5.86174">
        <ele>682</ele>
        <time>2015-03-27T09:35:40Z</time>
      </trkpt>
      <trkpt lat="46.61492" lon="5.86188">
        <ele>682</ele>
        <time>2015-03-27T09:35:51Z</time>
      </trkpt>
      <trkpt lat="46.61495" lon="5.86201">
        <ele>684</ele>
        <time>2015-03-27T09:35:58Z</time>
      </trkpt>
      <trkpt lat="46.61504" lon="5.86221">
        <ele>688</ele>
        <time>2015-03-27T09:36:34Z</time>
      </trkpt>
      <trkpt lat="46.61506" lon="5.86234">
        <ele>689</ele>
        <time>2015-03-27T09:36:46Z</time>
      </trkpt>
      <trkpt lat="46.61514" lon="5.86247">
        <ele>691</ele>
        <time>2015-03-27T09:37:10Z</time>
      </trkpt>
      <trkpt lat="46.61522" lon="5.86257">
        <ele>690</ele>
        <time>2015-03-27T09:37:29Z</time>
      </trkpt>
      <trkpt lat="46.61528" lon="5.86269">
        <ele>688</ele>
        <time>2015-03-27T09:38:16Z</time>
      </trkpt>
      <trkpt lat="46.61526" lon="5.86279">
        <ele>689</ele>
        <time>2015-03-27T09:38:49Z</time>
      </trkpt>
      <trkpt lat="46.6153" lon="5.86291">
        <ele>688</ele>
        <time>2015-03-27T09:39:07Z</time>
      </trkpt>
      <trkpt lat="46.61537" lon="5.86299">
        <ele>688</ele>
        <time>2015-03-27T09:39:17Z</time>
      </trkpt>
      <trkpt lat="46.6154" lon="5.86312">
        <ele>688</ele>
        <time>2015-03-27T09:39:29Z</time>
      </trkpt>
      <trkpt lat="46.61542" lon="5.86326">
        <ele>688</ele>
        <time>2015-03-27T09:39:37Z</time>
      </trkpt>
      <trkpt lat="46.61543" lon="5.86333">
        <ele>690</ele>
        <time>2015-03-27T09:39:49Z</time>
      </trkpt>
      <trkpt lat="46.61536" lon="5.86342">
        <ele>690</ele>
        <time>2015-03-27T09:40:20Z</time>
      </trkpt>
      <trkpt lat="46.61526" lon="5.86366">
        <ele>694</ele>
        <time>2015-03-27T09:40:54Z</time>
      </trkpt>
      <trkpt lat="46.61538" lon="5.86369">
        <ele>697</ele>
        <time>2015-03-27T09:41:28Z</time>
      </trkpt>
      <trkpt lat="46.61541" lon="5.86374">
        <ele>700</ele>
        <time>2015-03-27T09:41:39Z</time>
      </trkpt>
      <trkpt lat="46.61532" lon="5.86379">
        <ele>701</ele>
        <time>2015-03-27T09:42:10Z</time>
      </trkpt>
      <trkpt lat="46.61525" lon="5.86388">
        <ele>701</ele>
        <time>2015-03-27T09:42:22Z</time>
      </trkpt>
      <trkpt lat="46.61525" lon="5.86402">
        <ele>703</ele>
        <time>2015-03-27T09:42:34Z</time>
      </trkpt>
      <trkpt lat="46.6153" lon="5.86421">
        <ele>706</ele>
        <time>2015-03-27T09:43:03Z</time>
      </trkpt>
      <trkpt lat="46.61525" lon="5.86422">
        <ele>707</ele>
        <time>2015-03-27T09:43:17Z</time>
      </trkpt>
      <trkpt lat="46.61524" lon="5.86435">
        <ele>707</ele>
        <time>2015-03-27T09:43:31Z</time>
      </trkpt>
      <trkpt lat="46.61523" lon="5.86449">
        <ele>702</ele>
        <time>2015-03-27T09:44:10Z</time>
      </trkpt>
      <trkpt lat="46.61519" lon="5.86462">
        <ele>702</ele>
        <time>2015-03-27T09:44:20Z</time>
      </trkpt>
      <trkpt lat="46.61516" lon="5.86475">
        <ele>704</ele>
        <time>2015-03-27T09:44:37Z</time>
      </trkpt>
      <trkpt lat="46.61509" lon="5.86485">
        <ele>705</ele>
        <time>2015-03-27T09:44:53Z</time>
      </trkpt>
      <trkpt lat="46.61508" lon="5.86493">
        <ele>705</ele>
        <time>2015-03-27T09:45:17Z</time>
      </trkpt>
      <trkpt lat="46.61509" lon="5.8652">
        <ele>701</ele>
        <time>2015-03-27T09:45:38Z</time>
      </trkpt>
      <trkpt lat="46.6151" lon="5.86533">
        <ele>701</ele>
        <time>2015-03-27T09:45:45Z</time>
      </trkpt>
      <trkpt lat="46.61513" lon="5.86546">
        <ele>702</ele>
        <time>2015-03-27T09:46:00Z</time>
      </trkpt>
      <trkpt lat="46.6151" lon="5.8656">
        <ele>703</ele>
        <time>2015-03-27T09:46:15Z</time>
      </trkpt>
      <trkpt lat="46.61505" lon="5.86563">
        <ele>703</ele>
        <time>2015-03-27T09:46:29Z</time>
      </trkpt>
      <trkpt lat="46.61504" lon="5.8657">
        <ele>703</ele>
        <time>2015-03-27T09:46:40Z</time>
      </trkpt>
      <trkpt lat="46.615" lon="5.86582">
        <ele>703</ele>
        <time>2015-03-27T09:46:53Z</time>
      </trkpt>
      <trkpt lat="46.61504" lon="5.86594">
        <ele>703</ele>
        <time>2015-03-27T09:47:13Z</time>
      </trkpt>
      <trkpt lat="46.61509" lon="5.86605">
        <ele>704</ele>
        <time>2015-03-27T09:47:37Z</time>
      </trkpt>
      <trkpt lat="46.61513" lon="5.86616">
        <ele>705</ele>
        <time>2015-03-27T09:47:50Z</time>
      </trkpt>
      <trkpt lat="46.61518" lon="5.8663">
        <ele>706</ele>
        <time>2015-03-27T09:48:00Z</time>
      </trkpt>
      <trkpt lat="46.61512" lon="5.86638">
        <ele>715</ele>
        <time>2015-03-27T09:50:03Z</time>
      </trkpt>
      <trkpt lat="46.61506" lon="5.86644">
        <ele>714</ele>
        <time>2015-03-27T09:50:44Z</time>
      </trkpt>
      <trkpt lat="46.61499" lon="5.86641">
        <ele>713</ele>
        <time>2015-03-27T09:51:02Z</time>
      </trkpt>
      <trkpt lat="46.615" lon="5.86655">
        <ele>711</ele>
        <time>2015-03-27T09:51:16Z</time>
      </trkpt>
      <trkpt lat="46.61504" lon="5.86667">
        <ele>707</ele>
        <time>2015-03-27T09:51:28Z</time>
      </trkpt>
      <trkpt lat="46.615" lon="5.86658">
        <ele>706</ele>
        <time>2015-03-27T09:52:01Z</time>
      </trkpt>
      <trkpt lat="46.6149" lon="5.86657">
        <ele>705</ele>
        <time>2015-03-27T09:52:08Z</time>
      </trkpt>
      <trkpt lat="46.61481" lon="5.86657">
        <ele>704</ele>
        <time>2015-03-27T09:52:15Z</time>
      </trkpt>
      <trkpt lat="46.61472" lon="5.86663">
        <ele>703</ele>
        <time>2015-03-27T09:52:22Z</time>
      </trkpt>
      <trkpt lat="46.61461" lon="5.86685">
        <ele>702</ele>
        <time>2015-03-27T09:52:47Z</time>
      </trkpt>
      <trkpt lat="46.61463" lon="5.86713">
        <ele>702</ele>
        <time>2015-03-27T09:53:07Z</time>
      </trkpt>
      <trkpt lat="46.61453" lon="5.86737">
        <ele>702</ele>
        <time>2015-03-27T09:53:22Z</time>
      </trkpt>
      <trkpt lat="46.61443" lon="5.86762">
        <ele>703</ele>
        <time>2015-03-27T09:53:44Z</time>
      </trkpt>
      <trkpt lat="46.61443" lon="5.86776">
        <ele>705</ele>
        <time>2015-03-27T09:53:57Z</time>
      </trkpt>
      <trkpt lat="46.61441" lon="5.86779">
        <ele>709</ele>
        <time>2015-03-27T09:54:41Z</time>
      </trkpt>
      <trkpt lat="46.61439" lon="5.86784">
        <ele>707</ele>
        <time>2015-03-27T09:55:48Z</time>
      </trkpt>
      <trkpt lat="46.6144" lon="5.86795">
        <ele>713</ele>
        <time>2015-03-27T09:59:32Z</time>
      </trkpt>
      <trkpt lat="46.61443" lon="5.8679">
        <ele>714</ele>
        <time>2015-03-27T10:00:41Z</time>
      </trkpt>
      <trkpt lat="46.61446" lon="5.8678">
        <ele>715</ele>
        <time>2015-03-27T10:00:58Z</time>
      </trkpt>
      <trkpt lat="46.61443" lon="5.86775">
        <ele>714</ele>
        <time>2015-03-27T10:01:55Z</time>
      </trkpt>
      <trkpt lat="46.61434" lon="5.86768">
        <ele>714</ele>
        <time>2015-03-27T10:02:06Z</time>
      </trkpt>
      <trkpt lat="46.61428" lon="5.86765">
        <ele>702</ele>
        <time>2015-03-27T10:02:47Z</time>
      </trkpt>
      <trkpt lat="46.61421" lon="5.86781">
        <ele>698</ele>
        <time>2015-03-27T10:03:27Z</time>
      </trkpt>
      <trkpt lat="46.61418" lon="5.8681">
        <ele>699</ele>
        <time>2015-03-27T10:03:57Z</time>
      </trkpt>
      <trkpt lat="46.61416" lon="5.86844">
        <ele>709</ele>
        <time>2015-03-27T10:04:30Z</time>
      </trkpt>
      <trkpt lat="46.61414" lon="5.86864">
        <ele>709</ele>
        <time>2015-03-27T10:04:53Z</time>
      </trkpt>
      <trkpt lat="46.61414" lon="5.86876">
        <ele>711</ele>
        <time>2015-03-27T10:05:12Z</time>
      </trkpt>
      <trkpt lat="46.61415" lon="5.86876">
        <ele>705</ele>
        <time>2015-03-27T10:07:45Z</time>
      </trkpt>
      <trkpt lat="46.61405" lon="5.86864">
        <ele>709</ele>
        <time>2015-03-27T10:08:10Z</time>
      </trkpt>
      <trkpt lat="46.61393" lon="5.86859">
        <ele>714</ele>
        <time>2015-03-27T10:08:32Z</time>
      </trkpt>
      <trkpt lat="46.61393" lon="5.86873">
        <ele>712</ele>
        <time>2015-03-27T10:08:42Z</time>
      </trkpt>
      <trkpt lat="46.61387" lon="5.86882">
        <ele>711</ele>
        <time>2015-03-27T10:08:49Z</time>
      </trkpt>
      <trkpt lat="46.61381" lon="5.86893">
        <ele>712</ele>
        <time>2015-03-27T10:08:59Z</time>
      </trkpt>
      <trkpt lat="46.61375" lon="5.86904">
        <ele>713</ele>
        <time>2015-03-27T10:09:11Z</time>
      </trkpt>
      <trkpt lat="46.61369" lon="5.86914">
        <ele>713</ele>
        <time>2015-03-27T10:09:22Z</time>
      </trkpt>
      <trkpt lat="46.61361" lon="5.86922">
        <ele>712</ele>
        <time>2015-03-27T10:09:31Z</time>
      </trkpt>
      <trkpt lat="46.61353" lon="5.8693">
        <ele>713</ele>
        <time>2015-03-27T10:09:40Z</time>
      </trkpt>
      <trkpt lat="46.61353" lon="5.86944">
        <ele>713</ele>
        <time>2015-03-27T10:09:50Z</time>
      </trkpt>
      <trkpt lat="46.61355" lon="5.86957">
        <ele>713</ele>
        <time>2015-03-27T10:09:59Z</time>
      </trkpt>
      <trkpt lat="46.61352" lon="5.8697">
        <ele>714</ele>
        <time>2015-03-27T10:10:08Z</time>
      </trkpt>
      <trkpt lat="46.61339" lon="5.87009">
        <ele>714</ele>
        <time>2015-03-27T10:10:36Z</time>
      </trkpt>
      <trkpt lat="46.61338" lon="5.87022">
        <ele>714</ele>
        <time>2015-03-27T10:10:45Z</time>
      </trkpt>
      <trkpt lat="46.6134" lon="5.87036">
        <ele>715</ele>
        <time>2015-03-27T10:10:56Z</time>
      </trkpt>
      <trkpt lat="46.61339" lon="5.87078">
        <ele>716</ele>
        <time>2015-03-27T10:11:26Z</time>
      </trkpt>
      <trkpt lat="46.61337" lon="5.87091">
        <ele>715</ele>
        <time>2015-03-27T10:11:38Z</time>
      </trkpt>
      <trkpt lat="46.61336" lon="5.87118">
        <ele>712</ele>
        <time>2015-03-27T10:12:00Z</time>
      </trkpt>
      <trkpt lat="46.61339" lon="5.87131">
        <ele>712</ele>
        <time>2015-03-27T10:12:11Z</time>
      </trkpt>
      <trkpt lat="46.61329" lon="5.87154">
        <ele>711</ele>
        <time>2015-03-27T10:12:29Z</time>
      </trkpt>
      <trkpt lat="46.6133" lon="5.87168">
        <ele>709</ele>
        <time>2015-03-27T10:12:38Z</time>
      </trkpt>
      <trkpt lat="46.61335" lon="5.87181">
        <ele>709</ele>
        <time>2015-03-27T10:12:46Z</time>
      </trkpt>
      <trkpt lat="46.61335" lon="5.87208">
        <ele>710</ele>
        <time>2015-03-27T10:12:59Z</time>
      </trkpt>
      <trkpt lat="46.6133" lon="5.8722">
        <ele>711</ele>
        <time>2015-03-27T10:13:06Z</time>
      </trkpt>
      <trkpt lat="46.61332" lon="5.87235">
        <ele>712</ele>
        <time>2015-03-27T10:13:17Z</time>
      </trkpt>
      <trkpt lat="46.61341" lon="5.87274">
        <ele>717</ele>
        <time>2015-03-27T10:13:40Z</time>
      </trkpt>
      <trkpt lat="46.61341" lon="5.87287">
        <ele>717</ele>
        <time>2015-03-27T10:13:46Z</time>
      </trkpt>
      <trkpt lat="46.61347" lon="5.87312">
        <ele>720</ele>
        <time>2015-03-27T10:14:03Z</time>
      </trkpt>
      <trkpt lat="46.61354" lon="5.87338">
        <ele>720</ele>
        <time>2015-03-27T10:14:23Z</time>
      </trkpt>
      <trkpt lat="46.61358" lon="5.8735">
        <ele>719</ele>
        <time>2015-03-27T10:14:36Z</time>
      </trkpt>
      <trkpt lat="46.61362" lon="5.87362">
        <ele>719</ele>
        <time>2015-03-27T10:14:45Z</time>
      </trkpt>
      <trkpt lat="46.61369" lon="5.87371">
        <ele>720</ele>
        <time>2015-03-27T10:14:54Z</time>
      </trkpt>
      <trkpt lat="46.61374" lon="5.87384">
        <ele>720</ele>
        <time>2015-03-27T10:15:01Z</time>
      </trkpt>
      <trkpt lat="46.61377" lon="5.87397">
        <ele>719</ele>
        <time>2015-03-27T10:15:09Z</time>
      </trkpt>
      <trkpt lat="46.61375" lon="5.87411">
        <ele>719</ele>
        <time>2015-03-27T10:15:18Z</time>
      </trkpt>
      <trkpt lat="46.61369" lon="5.87421">
        <ele>718</ele>
        <time>2015-03-27T10:15:31Z</time>
      </trkpt>
      <trkpt lat="46.61364" lon="5.87433">
        <ele>719</ele>
        <time>2015-03-27T10:16:03Z</time>
      </trkpt>
      <trkpt lat="46.61356" lon="5.87441">
        <ele>720</ele>
        <time>2015-03-27T10:16:10Z</time>
      </trkpt>
      <trkpt lat="46.61346" lon="5.87473">
        <ele>719</ele>
        <time>2015-03-27T10:16:47Z</time>
      </trkpt>
      <trkpt lat="46.61343" lon="5.87477">
        <ele>721</ele>
        <time>2015-03-27T10:18:23Z</time>
      </trkpt>
      <trkpt lat="46.61339" lon="5.87481">
        <ele>721</ele>
        <time>2015-03-27T10:18:31Z</time>
      </trkpt>
      <trkpt lat="46.61333" lon="5.87492">
        <ele>724</ele>
        <time>2015-03-27T10:18:42Z</time>
      </trkpt>
      <trkpt lat="46.61328" lon="5.87493">
        <ele>724</ele>
        <time>2015-03-27T10:18:48Z</time>
      </trkpt>
      <trkpt lat="46.61325" lon="5.87498">
        <ele>724</ele>
        <time>2015-03-27T10:18:55Z</time>
      </trkpt>
      <trkpt lat="46.61322" lon="5.87504">
        <ele>724</ele>
        <time>2015-03-27T10:19:02Z</time>
      </trkpt>
      <trkpt lat="46.6132" lon="5.87511">
        <ele>724</ele>
        <time>2015-03-27T10:19:07Z</time>
      </trkpt>
      <trkpt lat="46.61313" lon="5.87523">
        <ele>721</ele>
        <time>2015-03-27T10:19:17Z</time>
      </trkpt>
      <trkpt lat="46.6131" lon="5.87528">
        <ele>721</ele>
        <time>2015-03-27T10:19:21Z</time>
      </trkpt>
      <trkpt lat="46.61302" lon="5.87537">
        <ele>721</ele>
        <time>2015-03-27T10:19:28Z</time>
      </trkpt>
      <trkpt lat="46.61296" lon="5.87546">
        <ele>720</ele>
        <time>2015-03-27T10:19:39Z</time>
      </trkpt>
      <trkpt lat="46.61291" lon="5.87559">
        <ele>719</ele>
        <time>2015-03-27T10:19:49Z</time>
      </trkpt>
      <trkpt lat="46.61282" lon="5.87582">
        <ele>720</ele>
        <time>2015-03-27T10:20:07Z</time>
      </trkpt>
      <trkpt lat="46.61272" lon="5.8762">
        <ele>717</ele>
        <time>2015-03-27T10:20:38Z</time>
      </trkpt>
      <trkpt lat="46.61271" lon="5.87635">
        <ele>717</ele>
        <time>2015-03-27T10:20:48Z</time>
      </trkpt>
      <trkpt lat="46.61266" lon="5.87661">
        <ele>719</ele>
        <time>2015-03-27T10:21:05Z</time>
      </trkpt>
      <trkpt lat="46.61264" lon="5.87674">
        <ele>720</ele>
        <time>2015-03-27T10:21:16Z</time>
      </trkpt>
      <trkpt lat="46.61261" lon="5.87687">
        <ele>720</ele>
        <time>2015-03-27T10:21:29Z</time>
      </trkpt>
      <trkpt lat="46.61258" lon="5.877">
        <ele>720</ele>
        <time>2015-03-27T10:21:39Z</time>
      </trkpt>
      <trkpt lat="46.61256" lon="5.87713">
        <ele>720</ele>
        <time>2015-03-27T10:21:52Z</time>
      </trkpt>
      <trkpt lat="46.61231" lon="5.87755">
        <ele>725</ele>
        <time>2015-03-27T10:22:26Z</time>
      </trkpt>
      <trkpt lat="46.61228" lon="5.87767">
        <ele>726</ele>
        <time>2015-03-27T10:22:38Z</time>
      </trkpt>
      <trkpt lat="46.61223" lon="5.8778">
        <ele>726</ele>
        <time>2015-03-27T10:22:46Z</time>
      </trkpt>
      <trkpt lat="46.6122" lon="5.87793">
        <ele>725</ele>
        <time>2015-03-27T10:22:53Z</time>
      </trkpt>
      <trkpt lat="46.61215" lon="5.87833">
        <ele>725</ele>
        <time>2015-03-27T10:23:19Z</time>
      </trkpt>
      <trkpt lat="46.61204" lon="5.87873">
        <ele>723</ele>
        <time>2015-03-27T10:23:48Z</time>
      </trkpt>
      <trkpt lat="46.61194" lon="5.87915">
        <ele>723</ele>
        <time>2015-03-27T10:24:24Z</time>
      </trkpt>
      <trkpt lat="46.61175" lon="5.87949">
        <ele>724</ele>
        <time>2015-03-27T10:24:55Z</time>
      </trkpt>
      <trkpt lat="46.6116" lon="5.87967">
        <ele>726</ele>
        <time>2015-03-27T10:25:17Z</time>
      </trkpt>
      <trkpt lat="46.61155" lon="5.87972">
        <ele>726</ele>
        <time>2015-03-27T10:25:22Z</time>
      </trkpt>
      <trkpt lat="46.61152" lon="5.87978">
        <ele>726</ele>
        <time>2015-03-27T10:25:27Z</time>
      </trkpt>
      <trkpt lat="46.61135" lon="5.88">
        <ele>729</ele>
        <time>2015-03-27T10:25:51Z</time>
      </trkpt>
      <trkpt lat="46.61135" lon="5.88008">
        <ele>729</ele>
        <time>2015-03-27T10:25:55Z</time>
      </trkpt>
      <trkpt lat="46.61127" lon="5.88024">
        <ele>730</ele>
        <time>2015-03-27T10:26:09Z</time>
      </trkpt>
      <trkpt lat="46.61123" lon="5.8803">
        <ele>730</ele>
        <time>2015-03-27T10:26:13Z</time>
      </trkpt>
      <trkpt lat="46.61118" lon="5.88034">
        <ele>730</ele>
        <time>2015-03-27T10:26:17Z</time>
      </trkpt>
      <trkpt lat="46.61114" lon="5.88048">
        <ele>731</ele>
        <time>2015-03-27T10:26:25Z</time>
      </trkpt>
      <trkpt lat="46.61105" lon="5.88055">
        <ele>731</ele>
        <time>2015-03-27T10:26:35Z</time>
      </trkpt>
      <trkpt lat="46.61083" lon="5.8808">
        <ele>728</ele>
        <time>2015-03-27T10:27:04Z</time>
      </trkpt>
      <trkpt lat="46.61077" lon="5.88091">
        <ele>728</ele>
        <time>2015-03-27T10:27:13Z</time>
      </trkpt>
      <trkpt lat="46.61073" lon="5.88103">
        <ele>729</ele>
        <time>2015-03-27T10:27:26Z</time>
      </trkpt>
      <trkpt lat="46.61074" lon="5.88106">
        <ele>730</ele>
        <time>2015-03-27T10:28:16Z</time>
      </trkpt>
      <trkpt lat="46.61077" lon="5.88123">
        <ele>731</ele>
        <time>2015-03-27T10:28:23Z</time>
      </trkpt>
      <trkpt lat="46.61076" lon="5.88111">
        <ele>731</ele>
        <time>2015-03-27T10:28:53Z</time>
      </trkpt>
      <trkpt lat="46.61082" lon="5.88112">
        <ele>735</ele>
        <time>2015-03-27T10:29:23Z</time>
      </trkpt>
      <trkpt lat="46.61085" lon="5.88128">
        <ele>738</ele>
        <time>2015-03-27T10:29:41Z</time>
      </trkpt>
      <trkpt lat="46.61087" lon="5.88141">
        <ele>739</ele>
        <time>2015-03-27T10:29:51Z</time>
      </trkpt>
      <trkpt lat="46.61093" lon="5.88151">
        <ele>740</ele>
        <time>2015-03-27T10:30:00Z</time>
      </trkpt>
      <trkpt lat="46.61099" lon="5.88164">
        <ele>740</ele>
        <time>2015-03-27T10:30:12Z</time>
      </trkpt>
      <trkpt lat="46.61111" lon="5.88186">
        <ele>735</ele>
        <time>2015-03-27T10:30:37Z</time>
      </trkpt>
      <trkpt lat="46.61118" lon="5.88195">
        <ele>735</ele>
        <time>2015-03-27T10:30:46Z</time>
      </trkpt>
      <trkpt lat="46.61126" lon="5.88203">
        <ele>735</ele>
        <time>2015-03-27T10:30:54Z</time>
      </trkpt>
      <trkpt lat="46.61133" lon="5.88213">
        <ele>735</ele>
        <time>2015-03-27T10:31:03Z</time>
      </trkpt>
      <trkpt lat="46.61148" lon="5.88229">
        <ele>738</ele>
        <time>2015-03-27T10:31:19Z</time>
      </trkpt>
      <trkpt lat="46.61163" lon="5.88264">
        <ele>736</ele>
        <time>2015-03-27T10:31:47Z</time>
      </trkpt>
      <trkpt lat="46.61166" lon="5.88277">
        <ele>736</ele>
        <time>2015-03-27T10:31:55Z</time>
      </trkpt>
      <trkpt lat="46.61165" lon="5.88291">
        <ele>736</ele>
        <time>2015-03-27T10:32:08Z</time>
      </trkpt>
      <trkpt lat="46.61158" lon="5.88318">
        <ele>731</ele>
        <time>2015-03-27T10:32:41Z</time>
      </trkpt>
      <trkpt lat="46.6116" lon="5.88325">
        <ele>731</ele>
        <time>2015-03-27T10:32:52Z</time>
      </trkpt>
      <trkpt lat="46.61165" lon="5.88332">
        <ele>731</ele>
        <time>2015-03-27T10:32:59Z</time>
      </trkpt>
      <trkpt lat="46.61173" lon="5.88339">
        <ele>729</ele>
        <time>2015-03-27T10:33:08Z</time>
      </trkpt>
      <trkpt lat="46.61177" lon="5.88342">
        <ele>729</ele>
        <time>2015-03-27T10:33:15Z</time>
      </trkpt>
      <trkpt lat="46.61186" lon="5.88346">
        <ele>730</ele>
        <time>2015-03-27T10:33:26Z</time>
      </trkpt>
      <trkpt lat="46.61198" lon="5.88361">
        <ele>735</ele>
        <time>2015-03-27T10:33:55Z</time>
      </trkpt>
      <trkpt lat="46.61201" lon="5.88355">
        <ele>737</ele>
        <time>2015-03-27T10:34:25Z</time>
      </trkpt>
      <trkpt lat="46.61205" lon="5.88338">
        <ele>737</ele>
        <time>2015-03-27T10:36:10Z</time>
      </trkpt>
      <trkpt lat="46.61209" lon="5.88326">
        <ele>735</ele>
        <time>2015-03-27T10:36:21Z</time>
      </trkpt>
      <trkpt lat="46.61208" lon="5.88311">
        <ele>736</ele>
        <time>2015-03-27T10:36:28Z</time>
      </trkpt>
      <trkpt lat="46.61204" lon="5.88311">
        <ele>734</ele>
        <time>2015-03-27T10:37:50Z</time>
      </trkpt>
      <trkpt lat="46.61207" lon="5.8832">
        <ele>734</ele>
        <time>2015-03-27T10:37:59Z</time>
      </trkpt>
      <trkpt lat="46.61206" lon="5.88334">
        <ele>732</ele>
        <time>2015-03-27T10:38:08Z</time>
      </trkpt>
      <trkpt lat="46.61196" lon="5.88351">
        <ele>730</ele>
        <time>2015-03-27T10:38:21Z</time>
      </trkpt>
      <trkpt lat="46.61191" lon="5.88352">
        <ele>730</ele>
        <time>2015-03-27T10:38:27Z</time>
      </trkpt>
      <trkpt lat="46.61186" lon="5.88348">
        <ele>730</ele>
        <time>2015-03-27T10:38:31Z</time>
      </trkpt>
      <trkpt lat="46.61178" lon="5.88341">
        <ele>728</ele>
        <time>2015-03-27T10:38:43Z</time>
      </trkpt>
      <trkpt lat="46.6117" lon="5.88332">
        <ele>727</ele>
        <time>2015-03-27T10:38:54Z</time>
      </trkpt>
      <trkpt lat="46.61162" lon="5.88326">
        <ele>727</ele>
        <time>2015-03-27T10:39:08Z</time>
      </trkpt>
      <trkpt lat="46.6116" lon="5.88313">
        <ele>727</ele>
        <time>2015-03-27T10:39:16Z</time>
      </trkpt>
      <trkpt lat="46.61166" lon="5.88303">
        <ele>727</ele>
        <time>2015-03-27T10:39:23Z</time>
      </trkpt>
      <trkpt lat="46.61168" lon="5.88289">
        <ele>726</ele>
        <time>2015-03-27T10:39:32Z</time>
      </trkpt>
      <trkpt lat="46.61169" lon="5.88276">
        <ele>726</ele>
        <time>2015-03-27T10:39:40Z</time>
      </trkpt>
      <trkpt lat="46.61161" lon="5.88236">
        <ele>728</ele>
        <time>2015-03-27T10:40:07Z</time>
      </trkpt>
      <trkpt lat="46.61155" lon="5.88226">
        <ele>727</ele>
        <time>2015-03-27T10:40:15Z</time>
      </trkpt>
      <trkpt lat="46.61124" lon="5.88197">
        <ele>728</ele>
        <time>2015-03-27T10:40:52Z</time>
      </trkpt>
      <trkpt lat="46.61091" lon="5.88166">
        <ele>732</ele>
        <time>2015-03-27T10:41:23Z</time>
      </trkpt>
      <trkpt lat="46.61082" lon="5.88164">
        <ele>732</ele>
        <time>2015-03-27T10:41:33Z</time>
      </trkpt>
      <trkpt lat="46.61063" lon="5.88154">
        <ele>730</ele>
        <time>2015-03-27T10:41:51Z</time>
      </trkpt>
      <trkpt lat="46.61059" lon="5.88145">
        <ele>730</ele>
        <time>2015-03-27T10:41:53Z</time>
      </trkpt>
      <trkpt lat="46.61054" lon="5.88128">
        <ele>731</ele>
        <time>2015-03-27T10:42:07Z</time>
      </trkpt>
      <trkpt lat="46.61047" lon="5.88122">
        <ele>731</ele>
        <time>2015-03-27T10:42:15Z</time>
      </trkpt>
      <trkpt lat="46.6104" lon="5.88106">
        <ele>732</ele>
        <time>2015-03-27T10:42:31Z</time>
      </trkpt>
      <trkpt lat="46.61043" lon="5.88079">
        <ele>735</ele>
        <time>2015-03-27T10:42:50Z</time>
      </trkpt>
      <trkpt lat="46.61058" lon="5.88043">
        <ele>737</ele>
        <time>2015-03-27T10:43:22Z</time>
      </trkpt>
      <trkpt lat="46.61065" lon="5.88004">
        <ele>740</ele>
        <time>2015-03-27T10:43:50Z</time>
      </trkpt>
      <trkpt lat="46.61071" lon="5.87993">
        <ele>741</ele>
        <time>2015-03-27T10:43:57Z</time>
      </trkpt>
      <trkpt lat="46.61081" lon="5.87988">
        <ele>743</ele>
        <time>2015-03-27T10:44:04Z</time>
      </trkpt>
      <trkpt lat="46.61084" lon="5.87974">
        <ele>744</ele>
        <time>2015-03-27T10:44:11Z</time>
      </trkpt>
      <trkpt lat="46.6108" lon="5.87963">
        <ele>744</ele>
        <time>2015-03-27T10:44:18Z</time>
      </trkpt>
      <trkpt lat="46.61076" lon="5.87951">
        <ele>744</ele>
        <time>2015-03-27T10:44:28Z</time>
      </trkpt>
      <trkpt lat="46.61076" lon="5.87937">
        <ele>745</ele>
        <time>2015-03-27T10:44:38Z</time>
      </trkpt>
      <trkpt lat="46.61069" lon="5.87929">
        <ele>746</ele>
        <time>2015-03-27T10:44:44Z</time>
      </trkpt>
      <trkpt lat="46.61066" lon="5.87915">
        <ele>748</ele>
        <time>2015-03-27T10:44:55Z</time>
      </trkpt>
      <trkpt lat="46.61063" lon="5.87901">
        <ele>748</ele>
        <time>2015-03-27T10:45:06Z</time>
      </trkpt>
      <trkpt lat="46.61056" lon="5.87894">
        <ele>748</ele>
        <time>2015-03-27T10:45:10Z</time>
      </trkpt>
      <trkpt lat="46.61049" lon="5.87888">
        <ele>748</ele>
        <time>2015-03-27T10:45:12Z</time>
      </trkpt>
      <trkpt lat="46.61048" lon="5.87875">
        <ele>748</ele>
        <time>2015-03-27T10:45:31Z</time>
      </trkpt>
      <trkpt lat="46.61046" lon="5.87862">
        <ele>748</ele>
        <time>2015-03-27T10:45:41Z</time>
      </trkpt>
      <trkpt lat="46.61049" lon="5.8785">
        <ele>748</ele>
        <time>2015-03-27T10:45:51Z</time>
      </trkpt>
      <trkpt lat="46.61046" lon="5.87837">
        <ele>749</ele>
        <time>2015-03-27T10:46:01Z</time>
      </trkpt>
      <trkpt lat="46.61037" lon="5.87813">
        <ele>752</ele>
        <time>2015-03-27T10:46:26Z</time>
      </trkpt>
      <trkpt lat="46.61034" lon="5.87799">
        <ele>752</ele>
        <time>2015-03-27T10:46:37Z</time>
      </trkpt>
      <trkpt lat="46.61029" lon="5.87787">
        <ele>752</ele>
        <time>2015-03-27T10:46:44Z</time>
      </trkpt>
      <trkpt lat="46.61029" lon="5.87774">
        <ele>752</ele>
        <time>2015-03-27T10:47:05Z</time>
      </trkpt>
      <trkpt lat="46.61028" lon="5.87759">
        <ele>754</ele>
        <time>2015-03-27T10:47:23Z</time>
      </trkpt>
      <trkpt lat="46.61022" lon="5.87747">
        <ele>756</ele>
        <time>2015-03-27T10:47:32Z</time>
      </trkpt>
      <trkpt lat="46.61022" lon="5.87734">
        <ele>756</ele>
        <time>2015-03-27T10:47:42Z</time>
      </trkpt>
      <trkpt lat="46.61014" lon="5.87712">
        <ele>756</ele>
        <time>2015-03-27T10:48:17Z</time>
      </trkpt>
      <trkpt lat="46.61008" lon="5.87702">
        <ele>756</ele>
        <time>2015-03-27T10:48:27Z</time>
      </trkpt>
      <trkpt lat="46.61005" lon="5.87689">
        <ele>757</ele>
        <time>2015-03-27T10:48:34Z</time>
      </trkpt>
      <trkpt lat="46.60999" lon="5.87685">
        <ele>758</ele>
        <time>2015-03-27T10:48:44Z</time>
      </trkpt>
      <trkpt lat="46.60998" lon="5.87672">
        <ele>758</ele>
        <time>2015-03-27T10:48:59Z</time>
      </trkpt>
      <trkpt lat="46.60993" lon="5.87659">
        <ele>758</ele>
        <time>2015-03-27T10:49:13Z</time>
      </trkpt>
      <trkpt lat="46.60998" lon="5.87646">
        <ele>757</ele>
        <time>2015-03-27T10:49:25Z</time>
      </trkpt>
      <trkpt lat="46.60994" lon="5.87634">
        <ele>755</ele>
        <time>2015-03-27T10:49:52Z</time>
      </trkpt>
      <trkpt lat="46.60989" lon="5.87621">
        <ele>755</ele>
        <time>2015-03-27T10:50:01Z</time>
      </trkpt>
      <trkpt lat="46.60965" lon="5.8758">
        <ele>762</ele>
        <time>2015-03-27T10:50:40Z</time>
      </trkpt>
      <trkpt lat="46.60947" lon="5.87551">
        <ele>764</ele>
        <time>2015-03-27T10:51:12Z</time>
      </trkpt>
      <trkpt lat="46.60932" lon="5.87516">
        <ele>767</ele>
        <time>2015-03-27T10:51:41Z</time>
      </trkpt>
      <trkpt lat="46.60919" lon="5.87498">
        <ele>764</ele>
        <time>2015-03-27T10:52:04Z</time>
      </trkpt>
      <trkpt lat="46.60911" lon="5.87489">
        <ele>765</ele>
        <time>2015-03-27T10:52:11Z</time>
      </trkpt>
      <trkpt lat="46.60886" lon="5.87447">
        <ele>772</ele>
        <time>2015-03-27T10:52:48Z</time>
      </trkpt>
      <trkpt lat="46.60878" lon="5.87438">
        <ele>772</ele>
        <time>2015-03-27T10:52:58Z</time>
      </trkpt>
      <trkpt lat="46.60847" lon="5.87405">
        <ele>778</ele>
        <time>2015-03-27T10:53:33Z</time>
      </trkpt>
      <trkpt lat="46.60835" lon="5.87384">
        <ele>779</ele>
        <time>2015-03-27T10:53:51Z</time>
      </trkpt>
      <trkpt lat="46.60827" lon="5.87377">
        <ele>779</ele>
        <time>2015-03-27T10:54:01Z</time>
      </trkpt>
      <trkpt lat="46.60824" lon="5.87372">
        <ele>778</ele>
        <time>2015-03-27T10:55:17Z</time>
      </trkpt>
      <trkpt lat="46.60819" lon="5.87368">
        <ele>778</ele>
        <time>2015-03-27T10:55:39Z</time>
      </trkpt>
      <trkpt lat="46.60812" lon="5.87359">
        <ele>781</ele>
        <time>2015-03-27T10:55:52Z</time>
      </trkpt>
      <trkpt lat="46.60807" lon="5.87358">
        <ele>782</ele>
        <time>2015-03-27T10:55:57Z</time>
      </trkpt>
      <trkpt lat="46.60799" lon="5.87348">
        <ele>782</ele>
        <time>2015-03-27T10:56:08Z</time>
      </trkpt>
      <trkpt lat="46.60794" lon="5.87348">
        <ele>782</ele>
        <time>2015-03-27T10:56:11Z</time>
      </trkpt>
      <trkpt lat="46.6079" lon="5.87345">
        <ele>783</ele>
        <time>2015-03-27T10:56:15Z</time>
      </trkpt>
      <trkpt lat="46.60788" lon="5.87338">
        <ele>782</ele>
        <time>2015-03-27T10:56:19Z</time>
      </trkpt>
      <trkpt lat="46.60785" lon="5.87325">
        <ele>781</ele>
        <time>2015-03-27T10:56:29Z</time>
      </trkpt>
      <trkpt lat="46.60761" lon="5.87292">
        <ele>780</ele>
        <time>2015-03-27T10:56:59Z</time>
      </trkpt>
      <trkpt lat="46.60741" lon="5.87263">
        <ele>780</ele>
        <time>2015-03-27T10:57:25Z</time>
      </trkpt>
      <trkpt lat="46.60733" lon="5.87254">
        <ele>780</ele>
        <time>2015-03-27T10:57:34Z</time>
      </trkpt>
      <trkpt lat="46.60728" lon="5.87244">
        <ele>780</ele>
        <time>2015-03-27T10:57:42Z</time>
      </trkpt>
      <trkpt lat="46.60704" lon="5.87199">
        <ele>782</ele>
        <time>2015-03-27T10:58:13Z</time>
      </trkpt>
      <trkpt lat="46.60697" lon="5.87189">
        <ele>782</ele>
        <time>2015-03-27T10:58:23Z</time>
      </trkpt>
      <trkpt lat="46.60688" lon="5.87182">
        <ele>782</ele>
        <time>2015-03-27T10:58:33Z</time>
      </trkpt>
      <trkpt lat="46.60681" lon="5.87172">
        <ele>782</ele>
        <time>2015-03-27T10:58:42Z</time>
      </trkpt>
      <trkpt lat="46.6066" lon="5.87126">
        <ele>785</ele>
        <time>2015-03-27T10:59:14Z</time>
      </trkpt>
      <trkpt lat="46.60653" lon="5.87116">
        <ele>787</ele>
        <time>2015-03-27T10:59:22Z</time>
      </trkpt>
      <trkpt lat="46.60627" lon="5.87076">
        <ele>790</ele>
        <time>2015-03-27T10:59:58Z</time>
      </trkpt>
      <trkpt lat="46.60613" lon="5.87058">
        <ele>792</ele>
        <time>2015-03-27T11:00:14Z</time>
      </trkpt>
      <trkpt lat="46.60599" lon="5.87038">
        <ele>792</ele>
        <time>2015-03-27T11:00:32Z</time>
      </trkpt>
      <trkpt lat="46.60594" lon="5.87012">
        <ele>794</ele>
        <time>2015-03-27T11:00:49Z</time>
      </trkpt>
      <trkpt lat="46.60576" lon="5.8696">
        <ele>796</ele>
        <time>2015-03-27T11:01:22Z</time>
      </trkpt>
      <trkpt lat="46.60559" lon="5.86949">
        <ele>799</ele>
        <time>2015-03-27T11:01:40Z</time>
      </trkpt>
      <trkpt lat="46.60534" lon="5.86929">
        <ele>800</ele>
        <time>2015-03-27T11:02:05Z</time>
      </trkpt>
      <trkpt lat="46.60525" lon="5.86924">
        <ele>800</ele>
        <time>2015-03-27T11:02:14Z</time>
      </trkpt>
      <trkpt lat="46.60508" lon="5.86914">
        <ele>801</ele>
        <time>2015-03-27T11:02:30Z</time>
      </trkpt>
      <trkpt lat="46.6049" lon="5.86903">
        <ele>804</ele>
        <time>2015-03-27T11:02:47Z</time>
      </trkpt>
      <trkpt lat="46.60448" lon="5.86871">
        <ele>805</ele>
        <time>2015-03-27T11:03:24Z</time>
      </trkpt>
      <trkpt lat="46.60435" lon="5.8686">
        <ele>805</ele>
        <time>2015-03-27T11:03:37Z</time>
      </trkpt>
      <trkpt lat="46.60428" lon="5.86851">
        <ele>805</ele>
        <time>2015-03-27T11:03:46Z</time>
      </trkpt>
      <trkpt lat="46.60424" lon="5.86847">
        <ele>805</ele>
        <time>2015-03-27T11:03:50Z</time>
      </trkpt>
      <trkpt lat="46.60421" lon="5.86841">
        <ele>806</ele>
        <time>2015-03-27T11:03:54Z</time>
      </trkpt>
      <trkpt lat="46.60414" lon="5.86831">
        <ele>805</ele>
        <time>2015-03-27T11:04:02Z</time>
      </trkpt>
      <trkpt lat="46.60403" lon="5.86818">
        <ele>806</ele>
        <time>2015-03-27T11:04:15Z</time>
      </trkpt>
      <trkpt lat="46.60391" lon="5.86806">
        <ele>805</ele>
        <time>2015-03-27T11:04:31Z</time>
      </trkpt>
      <trkpt lat="46.60378" lon="5.86792">
        <ele>807</ele>
        <time>2015-03-27T11:04:43Z</time>
      </trkpt>
      <trkpt lat="46.60373" lon="5.86789">
        <ele>807</ele>
        <time>2015-03-27T11:04:47Z</time>
      </trkpt>
      <trkpt lat="46.60356" lon="5.86773">
        <ele>805</ele>
        <time>2015-03-27T11:05:09Z</time>
      </trkpt>
      <trkpt lat="46.60352" lon="5.86772">
        <ele>805</ele>
        <time>2015-03-27T11:05:13Z</time>
      </trkpt>
      <trkpt lat="46.60349" lon="5.86766">
        <ele>806</ele>
        <time>2015-03-27T11:05:19Z</time>
      </trkpt>
      <trkpt lat="46.60345" lon="5.86752">
        <ele>808</ele>
        <time>2015-03-27T11:05:27Z</time>
      </trkpt>
      <trkpt lat="46.60346" lon="5.86744">
        <ele>809</ele>
        <time>2015-03-27T11:05:33Z</time>
      </trkpt>
      <trkpt lat="46.60336" lon="5.8671">
        <ele>811</ele>
        <time>2015-03-27T11:05:56Z</time>
      </trkpt>
      <trkpt lat="46.60336" lon="5.86703">
        <ele>811</ele>
        <time>2015-03-27T11:06:01Z</time>
      </trkpt>
      <trkpt lat="46.60335" lon="5.86696">
        <ele>812</ele>
        <time>2015-03-27T11:06:06Z</time>
      </trkpt>
      <trkpt lat="46.60325" lon="5.86671">
        <ele>817</ele>
        <time>2015-03-27T11:06:25Z</time>
      </trkpt>
      <trkpt lat="46.60322" lon="5.86665">
        <ele>817</ele>
        <time>2015-03-27T11:06:29Z</time>
      </trkpt>
      <trkpt lat="46.60318" lon="5.8666">
        <ele>816</ele>
        <time>2015-03-27T11:06:34Z</time>
      </trkpt>
      <trkpt lat="46.60314" lon="5.86655">
        <ele>816</ele>
        <time>2015-03-27T11:06:38Z</time>
      </trkpt>
      <trkpt lat="46.60307" lon="5.86644">
        <ele>816</ele>
        <time>2015-03-27T11:06:47Z</time>
      </trkpt>
      <trkpt lat="46.60303" lon="5.86639">
        <ele>816</ele>
        <time>2015-03-27T11:06:51Z</time>
      </trkpt>
      <trkpt lat="46.603" lon="5.86634">
        <ele>816</ele>
        <time>2015-03-27T11:06:56Z</time>
      </trkpt>
      <trkpt lat="46.60288" lon="5.86619">
        <ele>817</ele>
        <time>2015-03-27T11:07:11Z</time>
      </trkpt>
      <trkpt lat="46.60259" lon="5.8658">
        <ele>817</ele>
        <time>2015-03-27T11:07:45Z</time>
      </trkpt>
      <trkpt lat="46.60253" lon="5.8657">
        <ele>819</ele>
        <time>2015-03-27T11:07:57Z</time>
      </trkpt>
      <trkpt lat="46.60252" lon="5.86563">
        <ele>819</ele>
        <time>2015-03-27T11:08:03Z</time>
      </trkpt>
      <trkpt lat="46.6025" lon="5.86556">
        <ele>819</ele>
        <time>2015-03-27T11:08:07Z</time>
      </trkpt>
      <trkpt lat="46.60248" lon="5.8655">
        <ele>819</ele>
        <time>2015-03-27T11:08:10Z</time>
      </trkpt>
      <trkpt lat="46.60239" lon="5.86523">
        <ele>821</ele>
        <time>2015-03-27T11:08:26Z</time>
      </trkpt>
      <trkpt lat="46.60231" lon="5.86504">
        <ele>821</ele>
        <time>2015-03-27T11:08:37Z</time>
      </trkpt>
      <trkpt lat="46.60232" lon="5.86498">
        <ele>821</ele>
        <time>2015-03-27T11:08:43Z</time>
      </trkpt>
      <trkpt lat="46.60231" lon="5.8649">
        <ele>820</ele>
        <time>2015-03-27T11:08:51Z</time>
      </trkpt>
      <trkpt lat="46.60229" lon="5.86484">
        <ele>820</ele>
        <time>2015-03-27T11:08:57Z</time>
      </trkpt>
      <trkpt lat="46.60225" lon="5.86477">
        <ele>820</ele>
        <time>2015-03-27T11:09:02Z</time>
      </trkpt>
      <trkpt lat="46.60223" lon="5.86471">
        <ele>820</ele>
        <time>2015-03-27T11:09:07Z</time>
      </trkpt>
      <trkpt lat="46.6022" lon="5.86464">
        <ele>820</ele>
        <time>2015-03-27T11:09:12Z</time>
      </trkpt>
      <trkpt lat="46.60216" lon="5.8645">
        <ele>820</ele>
        <time>2015-03-27T11:09:22Z</time>
      </trkpt>
      <trkpt lat="46.60213" lon="5.86435">
        <ele>820</ele>
        <time>2015-03-27T11:09:32Z</time>
      </trkpt>
      <trkpt lat="46.60212" lon="5.86428">
        <ele>821</ele>
        <time>2015-03-27T11:09:36Z</time>
      </trkpt>
      <trkpt lat="46.60206" lon="5.86416">
        <ele>821</ele>
        <time>2015-03-27T11:09:46Z</time>
      </trkpt>
      <trkpt lat="46.602" lon="5.86406">
        <ele>819</ele>
        <time>2015-03-27T11:09:57Z</time>
      </trkpt>
      <trkpt lat="46.60197" lon="5.864">
        <ele>819</ele>
        <time>2015-03-27T11:10:01Z</time>
      </trkpt>
      <trkpt lat="46.60194" lon="5.86394">
        <ele>819</ele>
        <time>2015-03-27T11:10:05Z</time>
      </trkpt>
      <trkpt lat="46.60188" lon="5.86382">
        <ele>819</ele>
        <time>2015-03-27T11:10:14Z</time>
      </trkpt>
      <trkpt lat="46.60185" lon="5.86376">
        <ele>819</ele>
        <time>2015-03-27T11:10:19Z</time>
      </trkpt>
      <trkpt lat="46.60182" lon="5.86371">
        <ele>819</ele>
        <time>2015-03-27T11:10:24Z</time>
      </trkpt>
      <trkpt lat="46.60179" lon="5.86364">
        <ele>820</ele>
        <time>2015-03-27T11:10:31Z</time>
      </trkpt>
      <trkpt lat="46.60172" lon="5.86355">
        <ele>818</ele>
        <time>2015-03-27T11:10:45Z</time>
      </trkpt>
      <trkpt lat="46.60169" lon="5.8635">
        <ele>819</ele>
        <time>2015-03-27T11:10:49Z</time>
      </trkpt>
      <trkpt lat="46.60166" lon="5.86344">
        <ele>819</ele>
        <time>2015-03-27T11:10:53Z</time>
      </trkpt>
      <trkpt lat="46.6016" lon="5.86334">
        <ele>813</ele>
        <time>2015-03-27T11:11:12Z</time>
      </trkpt>
      <trkpt lat="46.60153" lon="5.86313">
        <ele>812</ele>
        <time>2015-03-27T11:11:24Z</time>
      </trkpt>
      <trkpt lat="46.60145" lon="5.86304">
        <ele>813</ele>
        <time>2015-03-27T11:11:34Z</time>
      </trkpt>
      <trkpt lat="46.60142" lon="5.86299">
        <ele>814</ele>
        <time>2015-03-27T11:11:38Z</time>
      </trkpt>
      <trkpt lat="46.60126" lon="5.86283">
        <ele>815</ele>
        <time>2015-03-27T11:11:55Z</time>
      </trkpt>
      <trkpt lat="46.60119" lon="5.86272">
        <ele>815</ele>
        <time>2015-03-27T11:12:01Z</time>
      </trkpt>
      <trkpt lat="46.60111" lon="5.86263">
        <ele>815</ele>
        <time>2015-03-27T11:12:09Z</time>
      </trkpt>
      <trkpt lat="46.60101" lon="5.86259">
        <ele>816</ele>
        <time>2015-03-27T11:12:25Z</time>
      </trkpt>
      <trkpt lat="46.60095" lon="5.86255">
        <ele>816</ele>
        <time>2015-03-27T11:12:36Z</time>
      </trkpt>
      <trkpt lat="46.60086" lon="5.86255">
        <ele>815</ele>
        <time>2015-03-27T11:12:43Z</time>
      </trkpt>
      <trkpt lat="46.60082" lon="5.86252">
        <ele>815</ele>
        <time>2015-03-27T11:12:47Z</time>
      </trkpt>
      <trkpt lat="46.60078" lon="5.86249">
        <ele>816</ele>
        <time>2015-03-27T11:12:51Z</time>
      </trkpt>
      <trkpt lat="46.60063" lon="5.8624">
        <ele>817</ele>
        <time>2015-03-27T11:13:03Z</time>
      </trkpt>
      <trkpt lat="46.60058" lon="5.86239">
        <ele>816</ele>
        <time>2015-03-27T11:13:10Z</time>
      </trkpt>
      <trkpt lat="46.60054" lon="5.86238">
        <ele>815</ele>
        <time>2015-03-27T11:13:17Z</time>
      </trkpt>
      <trkpt lat="46.60059" lon="5.86231">
        <ele>814</ele>
        <time>2015-03-27T11:14:09Z</time>
      </trkpt>
      <trkpt lat="46.60067" lon="5.86223">
        <ele>814</ele>
        <time>2015-03-27T11:14:22Z</time>
      </trkpt>
      <trkpt lat="46.6008" lon="5.86208">
        <ele>814</ele>
        <time>2015-03-27T11:14:36Z</time>
      </trkpt>
      <trkpt lat="46.60091" lon="5.86196">
        <ele>816</ele>
        <time>2015-03-27T11:14:54Z</time>
      </trkpt>
      <trkpt lat="46.60093" lon="5.86188">
        <ele>816</ele>
        <time>2015-03-27T11:15:00Z</time>
      </trkpt>
      <trkpt lat="46.60102" lon="5.86182">
        <ele>816</ele>
        <time>2015-03-27T11:15:12Z</time>
      </trkpt>
      <trkpt lat="46.60111" lon="5.86178">
        <ele>818</ele>
        <time>2015-03-27T11:15:38Z</time>
      </trkpt>
      <trkpt lat="46.60119" lon="5.86171">
        <ele>818</ele>
        <time>2015-03-27T11:15:54Z</time>
      </trkpt>
      <trkpt lat="46.60124" lon="5.86172">
        <ele>818</ele>
        <time>2015-03-27T11:16:00Z</time>
      </trkpt>
      <trkpt lat="46.60128" lon="5.86176">
        <ele>818</ele>
        <time>2015-03-27T11:16:08Z</time>
      </trkpt>
      <trkpt lat="46.60129" lon="5.86173">
        <ele>822</ele>
        <time>2015-03-27T11:17:25Z</time>
      </trkpt>
      <trkpt lat="46.60124" lon="5.8617">
        <ele>822</ele>
        <time>2015-03-27T11:17:29Z</time>
      </trkpt>
      <trkpt lat="46.6012" lon="5.86167">
        <ele>821</ele>
        <time>2015-03-27T11:17:37Z</time>
      </trkpt>
      <trkpt lat="46.60115" lon="5.86165">
        <ele>822</ele>
        <time>2015-03-27T11:17:46Z</time>
      </trkpt>
      <trkpt lat="46.60115" lon="5.86169">
        <ele>822</ele>
        <time>2015-03-27T11:17:58Z</time>
      </trkpt>
      <trkpt lat="46.60114" lon="5.86174">
        <ele>823</ele>
        <time>2015-03-27T11:19:02Z</time>
      </trkpt>
      <trkpt lat="46.60112" lon="5.86172">
        <ele>823</ele>
        <time>2015-03-27T11:19:20Z</time>
      </trkpt>
      <trkpt lat="46.60112" lon="5.86169">
        <ele>823</ele>
        <time>2015-03-27T11:19:45Z</time>
      </trkpt>
      <trkpt lat="46.60112" lon="5.86173">
        <ele>823</ele>
        <time>2015-03-27T11:20:12Z</time>
      </trkpt>
      <trkpt lat="46.60108" lon="5.86175">
        <ele>823</ele>
        <time>2015-03-27T11:20:26Z</time>
      </trkpt>
      <trkpt lat="46.60108" lon="5.86177">
        <ele>827</ele>
        <time>2015-03-27T11:23:14Z</time>
      </trkpt>
      <trkpt lat="46.6011" lon="5.86169">
        <ele>826</ele>
        <time>2015-03-27T11:34:54Z</time>
      </trkpt>
      <trkpt lat="46.60087" lon="5.86185">
        <ele>822</ele>
        <time>2015-03-27T11:58:57Z</time>
      </trkpt>
      <trkpt lat="46.60085" lon="5.86192">
        <ele>822</ele>
        <time>2015-03-27T11:59:02Z</time>
      </trkpt>
      <trkpt lat="46.60082" lon="5.86196">
        <ele>823</ele>
        <time>2015-03-27T11:59:08Z</time>
      </trkpt>
      <trkpt lat="46.60071" lon="5.86199">
        <ele>825</ele>
        <time>2015-03-27T11:59:17Z</time>
      </trkpt>
      <trkpt lat="46.60063" lon="5.86205">
        <ele>825</ele>
        <time>2015-03-27T11:59:26Z</time>
      </trkpt>
      <trkpt lat="46.60065" lon="5.86211">
        <ele>824</ele>
        <time>2015-03-27T11:59:31Z</time>
      </trkpt>
      <trkpt lat="46.60064" lon="5.86217">
        <ele>823</ele>
        <time>2015-03-27T11:59:37Z</time>
      </trkpt>
      <trkpt lat="46.60061" lon="5.86222">
        <ele>823</ele>
        <time>2015-03-27T11:59:41Z</time>
      </trkpt>
      <trkpt lat="46.60056" lon="5.86224">
        <ele>822</ele>
        <time>2015-03-27T11:59:45Z</time>
      </trkpt>
      <trkpt lat="46.60046" lon="5.86225">
        <ele>821</ele>
        <time>2015-03-27T11:59:55Z</time>
      </trkpt>
      <trkpt lat="46.60011" lon="5.86219">
        <ele>818</ele>
        <time>2015-03-27T12:00:25Z</time>
      </trkpt>
      <trkpt lat="46.60001" lon="5.86214">
        <ele>817</ele>
        <time>2015-03-27T12:00:32Z</time>
      </trkpt>
      <trkpt lat="46.59992" lon="5.86209">
        <ele>814</ele>
        <time>2015-03-27T12:00:40Z</time>
      </trkpt>
      <trkpt lat="46.5996" lon="5.86184">
        <ele>809</ele>
        <time>2015-03-27T12:01:13Z</time>
      </trkpt>
      <trkpt lat="46.59956" lon="5.8618">
        <ele>808</ele>
        <time>2015-03-27T12:01:18Z</time>
      </trkpt>
      <trkpt lat="46.59951" lon="5.86178">
        <ele>808</ele>
        <time>2015-03-27T12:01:23Z</time>
      </trkpt>
      <trkpt lat="46.59947" lon="5.86173">
        <ele>808</ele>
        <time>2015-03-27T12:01:28Z</time>
      </trkpt>
      <trkpt lat="46.59943" lon="5.86169">
        <ele>808</ele>
        <time>2015-03-27T12:01:32Z</time>
      </trkpt>
      <trkpt lat="46.59941" lon="5.86163">
        <ele>809</ele>
        <time>2015-03-27T12:01:36Z</time>
      </trkpt>
      <trkpt lat="46.59934" lon="5.86145">
        <ele>810</ele>
        <time>2015-03-27T12:01:47Z</time>
      </trkpt>
      <trkpt lat="46.59931" lon="5.86139">
        <ele>809</ele>
        <time>2015-03-27T12:01:51Z</time>
      </trkpt>
      <trkpt lat="46.59918" lon="5.86115">
        <ele>810</ele>
        <time>2015-03-27T12:02:09Z</time>
      </trkpt>
      <trkpt lat="46.59915" lon="5.86109">
        <ele>810</ele>
        <time>2015-03-27T12:02:15Z</time>
      </trkpt>
      <trkpt lat="46.59914" lon="5.86089">
        <ele>809</ele>
        <time>2015-03-27T12:02:28Z</time>
      </trkpt>
      <trkpt lat="46.59916" lon="5.86082">
        <ele>809</ele>
        <time>2015-03-27T12:02:33Z</time>
      </trkpt>
      <trkpt lat="46.59917" lon="5.86075">
        <ele>808</ele>
        <time>2015-03-27T12:02:40Z</time>
      </trkpt>
      <trkpt lat="46.59913" lon="5.86061">
        <ele>808</ele>
        <time>2015-03-27T12:02:47Z</time>
      </trkpt>
      <trkpt lat="46.59918" lon="5.85996">
        <ele>805</ele>
        <time>2015-03-27T12:03:24Z</time>
      </trkpt>
      <trkpt lat="46.59929" lon="5.85972">
        <ele>804</ele>
        <time>2015-03-27T12:03:40Z</time>
      </trkpt>
      <trkpt lat="46.59944" lon="5.85953">
        <ele>804</ele>
        <time>2015-03-27T12:03:56Z</time>
      </trkpt>
      <trkpt lat="46.59943" lon="5.85939">
        <ele>804</ele>
        <time>2015-03-27T12:04:04Z</time>
      </trkpt>
      <trkpt lat="46.59953" lon="5.85915">
        <ele>803</ele>
        <time>2015-03-27T12:04:16Z</time>
      </trkpt>
      <trkpt lat="46.5996" lon="5.85906">
        <ele>802</ele>
        <time>2015-03-27T12:04:25Z</time>
      </trkpt>
      <trkpt lat="46.59965" lon="5.85848">
        <ele>798</ele>
        <time>2015-03-27T12:04:57Z</time>
      </trkpt>
      <trkpt lat="46.59972" lon="5.85821">
        <ele>797</ele>
        <time>2015-03-27T12:05:13Z</time>
      </trkpt>
      <trkpt lat="46.5998" lon="5.85813">
        <ele>797</ele>
        <time>2015-03-27T12:05:20Z</time>
      </trkpt>
      <trkpt lat="46.59997" lon="5.85768">
        <ele>793</ele>
        <time>2015-03-27T12:05:51Z</time>
      </trkpt>
      <trkpt lat="46.59999" lon="5.85762">
        <ele>793</ele>
        <time>2015-03-27T12:05:55Z</time>
      </trkpt>
      <trkpt lat="46.59999" lon="5.85755">
        <ele>792</ele>
        <time>2015-03-27T12:06:00Z</time>
      </trkpt>
      <trkpt lat="46.60002" lon="5.85749">
        <ele>791</ele>
        <time>2015-03-27T12:06:06Z</time>
      </trkpt>
      <trkpt lat="46.60006" lon="5.85745">
        <ele>789</ele>
        <time>2015-03-27T12:06:13Z</time>
      </trkpt>
      <trkpt lat="46.60018" lon="5.85731">
        <ele>787</ele>
        <time>2015-03-27T12:06:24Z</time>
      </trkpt>
      <trkpt lat="46.60024" lon="5.85712">
        <ele>786</ele>
        <time>2015-03-27T12:06:37Z</time>
      </trkpt>
      <trkpt lat="46.60029" lon="5.85643">
        <ele>786</ele>
        <time>2015-03-27T12:07:12Z</time>
      </trkpt>
      <trkpt lat="46.60027" lon="5.85622">
        <ele>785</ele>
        <time>2015-03-27T12:07:33Z</time>
      </trkpt>
      <trkpt lat="46.60027" lon="5.85593">
        <ele>784</ele>
        <time>2015-03-27T12:07:43Z</time>
      </trkpt>
      <trkpt lat="46.60038" lon="5.85568">
        <ele>784</ele>
        <time>2015-03-27T12:07:57Z</time>
      </trkpt>
      <trkpt lat="46.60039" lon="5.85554">
        <ele>784</ele>
        <time>2015-03-27T12:08:04Z</time>
      </trkpt>
      <trkpt lat="46.6004" lon="5.85525">
        <ele>782</ele>
        <time>2015-03-27T12:08:19Z</time>
      </trkpt>
      <trkpt lat="46.60043" lon="5.85512">
        <ele>783</ele>
        <time>2015-03-27T12:08:28Z</time>
      </trkpt>
      <trkpt lat="46.60053" lon="5.85506">
        <ele>782</ele>
        <time>2015-03-27T12:08:45Z</time>
      </trkpt>
      <trkpt lat="46.60072" lon="5.85507">
        <ele>780</ele>
        <time>2015-03-27T12:08:58Z</time>
      </trkpt>
      <trkpt lat="46.60081" lon="5.85505">
        <ele>781</ele>
        <time>2015-03-27T12:09:04Z</time>
      </trkpt>
      <trkpt lat="46.60108" lon="5.85496">
        <ele>781</ele>
        <time>2015-03-27T12:09:26Z</time>
      </trkpt>
      <trkpt lat="46.60117" lon="5.85493">
        <ele>782</ele>
        <time>2015-03-27T12:09:36Z</time>
      </trkpt>
      <trkpt lat="46.60145" lon="5.85485">
        <ele>783</ele>
        <time>2015-03-27T12:09:57Z</time>
      </trkpt>
      <trkpt lat="46.60154" lon="5.8548">
        <ele>780</ele>
        <time>2015-03-27T12:10:10Z</time>
      </trkpt>
      <trkpt lat="46.60193" lon="5.85484">
        <ele>776</ele>
        <time>2015-03-27T12:10:44Z</time>
      </trkpt>
      <trkpt lat="46.60204" lon="5.85487">
        <ele>773</ele>
        <time>2015-03-27T12:10:54Z</time>
      </trkpt>
      <trkpt lat="46.60209" lon="5.85489">
        <ele>773</ele>
        <time>2015-03-27T12:10:58Z</time>
      </trkpt>
      <trkpt lat="46.60214" lon="5.85491">
        <ele>773</ele>
        <time>2015-03-27T12:11:05Z</time>
      </trkpt>
      <trkpt lat="46.60219" lon="5.85495">
        <ele>772</ele>
        <time>2015-03-27T12:11:11Z</time>
      </trkpt>
      <trkpt lat="46.60232" lon="5.855">
        <ele>772</ele>
        <time>2015-03-27T12:11:19Z</time>
      </trkpt>
      <trkpt lat="46.60239" lon="5.85503">
        <ele>773</ele>
        <time>2015-03-27T12:11:25Z</time>
      </trkpt>
      <trkpt lat="46.60268" lon="5.85526">
        <ele>773</ele>
        <time>2015-03-27T12:11:50Z</time>
      </trkpt>
      <trkpt lat="46.60273" lon="5.85529">
        <ele>773</ele>
        <time>2015-03-27T12:11:54Z</time>
      </trkpt>
      <trkpt lat="46.60278" lon="5.85529">
        <ele>773</ele>
        <time>2015-03-27T12:11:57Z</time>
      </trkpt>
      <trkpt lat="46.60283" lon="5.85528">
        <ele>772</ele>
        <time>2015-03-27T12:12:01Z</time>
      </trkpt>
      <trkpt lat="46.60292" lon="5.85521">
        <ele>772</ele>
        <time>2015-03-27T12:12:09Z</time>
      </trkpt>
      <trkpt lat="46.603" lon="5.85513">
        <ele>772</ele>
        <time>2015-03-27T12:12:20Z</time>
      </trkpt>
      <trkpt lat="46.60339" lon="5.85509">
        <ele>772</ele>
        <time>2015-03-27T12:12:50Z</time>
      </trkpt>
      <trkpt lat="46.60348" lon="5.85513">
        <ele>772</ele>
        <time>2015-03-27T12:12:59Z</time>
      </trkpt>
      <trkpt lat="46.60366" lon="5.85524">
        <ele>774</ele>
        <time>2015-03-27T12:13:20Z</time>
      </trkpt>
      <trkpt lat="46.60375" lon="5.8553">
        <ele>776</ele>
        <time>2015-03-27T12:13:30Z</time>
      </trkpt>
      <trkpt lat="46.60383" lon="5.85538">
        <ele>777</ele>
        <time>2015-03-27T12:13:38Z</time>
      </trkpt>
      <trkpt lat="46.60419" lon="5.85552">
        <ele>782</ele>
        <time>2015-03-27T12:14:12Z</time>
      </trkpt>
      <trkpt lat="46.60428" lon="5.85554">
        <ele>784</ele>
        <time>2015-03-27T12:14:21Z</time>
      </trkpt>
      <trkpt lat="46.60454" lon="5.85574">
        <ele>784</ele>
        <time>2015-03-27T12:14:45Z</time>
      </trkpt>
      <trkpt lat="46.60479" lon="5.85593">
        <ele>782</ele>
        <time>2015-03-27T12:15:15Z</time>
      </trkpt>
      <trkpt lat="46.60489" lon="5.85596">
        <ele>782</ele>
        <time>2015-03-27T12:15:23Z</time>
      </trkpt>
      <trkpt lat="46.60496" lon="5.85599">
        <ele>782</ele>
        <time>2015-03-27T12:15:31Z</time>
      </trkpt>
      <trkpt lat="46.60501" lon="5.85601">
        <ele>781</ele>
        <time>2015-03-27T12:15:35Z</time>
      </trkpt>
      <trkpt lat="46.60522" lon="5.85605">
        <ele>785</ele>
        <time>2015-03-27T12:15:54Z</time>
      </trkpt>
      <trkpt lat="46.60533" lon="5.85605">
        <ele>784</ele>
        <time>2015-03-27T12:16:03Z</time>
      </trkpt>
      <trkpt lat="46.60535" lon="5.85604">
        <ele>785</ele>
        <time>2015-03-27T12:16:09Z</time>
      </trkpt>
      <trkpt lat="46.60536" lon="5.85598">
        <ele>784</ele>
        <time>2015-03-27T12:16:24Z</time>
      </trkpt>
      <trkpt lat="46.60542" lon="5.85603">
        <ele>782</ele>
        <time>2015-03-27T12:18:32Z</time>
      </trkpt>
      <trkpt lat="46.60551" lon="5.85606">
        <ele>782</ele>
        <time>2015-03-27T12:18:41Z</time>
      </trkpt>
      <trkpt lat="46.60578" lon="5.85616">
        <ele>788</ele>
        <time>2015-03-27T12:19:08Z</time>
      </trkpt>
      <trkpt lat="46.60588" lon="5.8562">
        <ele>789</ele>
        <time>2015-03-27T12:19:18Z</time>
      </trkpt>
      <trkpt lat="46.60625" lon="5.85627">
        <ele>788</ele>
        <time>2015-03-27T12:19:48Z</time>
      </trkpt>
      <trkpt lat="46.60635" lon="5.85627">
        <ele>787</ele>
        <time>2015-03-27T12:19:56Z</time>
      </trkpt>
      <trkpt lat="46.60644" lon="5.85629">
        <ele>786</ele>
        <time>2015-03-27T12:20:06Z</time>
      </trkpt>
      <trkpt lat="46.60662" lon="5.85636">
        <ele>786</ele>
        <time>2015-03-27T12:20:23Z</time>
      </trkpt>
      <trkpt lat="46.60699" lon="5.8563">
        <ele>790</ele>
        <time>2015-03-27T12:20:55Z</time>
      </trkpt>
      <trkpt lat="46.60727" lon="5.85627">
        <ele>792</ele>
        <time>2015-03-27T12:21:16Z</time>
      </trkpt>
      <trkpt lat="46.60746" lon="5.85622">
        <ele>792</ele>
        <time>2015-03-27T12:21:32Z</time>
      </trkpt>
      <trkpt lat="46.60782" lon="5.85613">
        <ele>794</ele>
        <time>2015-03-27T12:22:05Z</time>
      </trkpt>
      <trkpt lat="46.60791" lon="5.85606">
        <ele>796</ele>
        <time>2015-03-27T12:22:14Z</time>
      </trkpt>
      <trkpt lat="46.60819" lon="5.85595">
        <ele>795</ele>
        <time>2015-03-27T12:22:41Z</time>
      </trkpt>
      <trkpt lat="46.60857" lon="5.85591">
        <ele>799</ele>
        <time>2015-03-27T12:23:12Z</time>
      </trkpt>
      <trkpt lat="46.60887" lon="5.8559">
        <ele>800</ele>
        <time>2015-03-27T12:23:43Z</time>
      </trkpt>
      <trkpt lat="46.60892" lon="5.85594">
        <ele>799</ele>
        <time>2015-03-27T12:26:40Z</time>
      </trkpt>
      <trkpt lat="46.60894" lon="5.85587">
        <ele>799</ele>
        <time>2015-03-27T12:27:42Z</time>
      </trkpt>
      <trkpt lat="46.60896" lon="5.85589">
        <ele>800</ele>
        <time>2015-03-27T12:28:22Z</time>
      </trkpt>
      <trkpt lat="46.60914" lon="5.85608">
        <ele>803</ele>
        <time>2015-03-27T12:31:05Z</time>
      </trkpt>
      <trkpt lat="46.60918" lon="5.85608">
        <ele>803</ele>
        <time>2015-03-27T12:31:08Z</time>
      </trkpt>
      <trkpt lat="46.60937" lon="5.85621">
        <ele>800</ele>
        <time>2015-03-27T12:31:29Z</time>
      </trkpt>
      <trkpt lat="46.60946" lon="5.85625">
        <ele>799</ele>
        <time>2015-03-27T12:31:37Z</time>
      </trkpt>
      <trkpt lat="46.60959" lon="5.85637">
        <ele>801</ele>
        <time>2015-03-27T12:31:50Z</time>
      </trkpt>
      <trkpt lat="46.60968" lon="5.85643">
        <ele>801</ele>
        <time>2015-03-27T12:31:59Z</time>
      </trkpt>
      <trkpt lat="46.61002" lon="5.85671">
        <ele>800</ele>
        <time>2015-03-27T12:32:36Z</time>
      </trkpt>
      <trkpt lat="46.61032" lon="5.85703">
        <ele>799</ele>
        <time>2015-03-27T12:33:09Z</time>
      </trkpt>
      <trkpt lat="46.61041" lon="5.85711">
        <ele>799</ele>
        <time>2015-03-27T12:33:19Z</time>
      </trkpt>
      <trkpt lat="46.61063" lon="5.85734">
        <ele>798</ele>
        <time>2015-03-27T12:33:46Z</time>
      </trkpt>
      <trkpt lat="46.61071" lon="5.85742">
        <ele>796</ele>
        <time>2015-03-27T12:33:55Z</time>
      </trkpt>
      <trkpt lat="46.6108" lon="5.85746">
        <ele>795</ele>
        <time>2015-03-27T12:34:02Z</time>
      </trkpt>
      <trkpt lat="46.61111" lon="5.85779">
        <ele>795</ele>
        <time>2015-03-27T12:34:31Z</time>
      </trkpt>
      <trkpt lat="46.61131" lon="5.8581">
        <ele>795</ele>
        <time>2015-03-27T12:34:54Z</time>
      </trkpt>
      <trkpt lat="46.61132" lon="5.85823">
        <ele>794</ele>
        <time>2015-03-27T12:35:02Z</time>
      </trkpt>
      <trkpt lat="46.6114" lon="5.85831">
        <ele>793</ele>
        <time>2015-03-27T12:35:11Z</time>
      </trkpt>
      <trkpt lat="46.61149" lon="5.85837">
        <ele>793</ele>
        <time>2015-03-27T12:35:19Z</time>
      </trkpt>
      <trkpt lat="46.61167" lon="5.85867">
        <ele>795</ele>
        <time>2015-03-27T12:35:43Z</time>
      </trkpt>
      <trkpt lat="46.61175" lon="5.8592">
        <ele>786</ele>
        <time>2015-03-27T12:36:15Z</time>
      </trkpt>
      <trkpt lat="46.61174" lon="5.85935">
        <ele>785</ele>
        <time>2015-03-27T12:36:24Z</time>
      </trkpt>
      <trkpt lat="46.61179" lon="5.85943">
        <ele>785</ele>
        <time>2015-03-27T12:36:30Z</time>
      </trkpt>
      <trkpt lat="46.61182" lon="5.85948">
        <ele>785</ele>
        <time>2015-03-27T12:36:34Z</time>
      </trkpt>
      <trkpt lat="46.61182" lon="5.85958">
        <ele>785</ele>
        <time>2015-03-27T12:36:39Z</time>
      </trkpt>
      <trkpt lat="46.61185" lon="5.85965">
        <ele>786</ele>
        <time>2015-03-27T12:36:43Z</time>
      </trkpt>
      <trkpt lat="46.61191" lon="5.85979">
        <ele>785</ele>
        <time>2015-03-27T12:36:51Z</time>
      </trkpt>
      <trkpt lat="46.61204" lon="5.85999">
        <ele>786</ele>
        <time>2015-03-27T12:37:06Z</time>
      </trkpt>
      <trkpt lat="46.61213" lon="5.86011">
        <ele>786</ele>
        <time>2015-03-27T12:37:16Z</time>
      </trkpt>
      <trkpt lat="46.61214" lon="5.86018">
        <ele>786</ele>
        <time>2015-03-27T12:37:20Z</time>
      </trkpt>
      <trkpt lat="46.61218" lon="5.86023">
        <ele>785</ele>
        <time>2015-03-27T12:37:24Z</time>
      </trkpt>
      <trkpt lat="46.61226" lon="5.86033">
        <ele>787</ele>
        <time>2015-03-27T12:37:34Z</time>
      </trkpt>
      <trkpt lat="46.61229" lon="5.8604">
        <ele>786</ele>
        <time>2015-03-27T12:37:39Z</time>
      </trkpt>
      <trkpt lat="46.61253" lon="5.86086">
        <ele>782</ele>
        <time>2015-03-27T12:38:15Z</time>
      </trkpt>
      <trkpt lat="46.61276" lon="5.86131">
        <ele>776</ele>
        <time>2015-03-27T12:38:50Z</time>
      </trkpt>
      <trkpt lat="46.61278" lon="5.86143">
        <ele>775</ele>
        <time>2015-03-27T12:38:57Z</time>
      </trkpt>
      <trkpt lat="46.61285" lon="5.86184">
        <ele>775</ele>
        <time>2015-03-27T12:39:23Z</time>
      </trkpt>
      <trkpt lat="46.61286" lon="5.86197">
        <ele>774</ele>
        <time>2015-03-27T12:39:31Z</time>
      </trkpt>
      <trkpt lat="46.61293" lon="5.86249">
        <ele>768</ele>
        <time>2015-03-27T12:40:02Z</time>
      </trkpt>
      <trkpt lat="46.61303" lon="5.86303">
        <ele>763</ele>
        <time>2015-03-27T12:40:38Z</time>
      </trkpt>
      <trkpt lat="46.61312" lon="5.86372">
        <ele>755</ele>
        <time>2015-03-27T12:41:17Z</time>
      </trkpt>
      <trkpt lat="46.61311" lon="5.86386">
        <ele>754</ele>
        <time>2015-03-27T12:41:26Z</time>
      </trkpt>
      <trkpt lat="46.61316" lon="5.86398">
        <ele>752</ele>
        <time>2015-03-27T12:41:34Z</time>
      </trkpt>
      <trkpt lat="46.61317" lon="5.86412">
        <ele>752</ele>
        <time>2015-03-27T12:41:41Z</time>
      </trkpt>
      <trkpt lat="46.61322" lon="5.86424">
        <ele>751</ele>
        <time>2015-03-27T12:41:49Z</time>
      </trkpt>
      <trkpt lat="46.61321" lon="5.86438">
        <ele>751</ele>
        <time>2015-03-27T12:41:57Z</time>
      </trkpt>
      <trkpt lat="46.6132" lon="5.86452">
        <ele>750</ele>
        <time>2015-03-27T12:42:05Z</time>
      </trkpt>
      <trkpt lat="46.61323" lon="5.86465">
        <ele>749</ele>
        <time>2015-03-27T12:42:13Z</time>
      </trkpt>
      <trkpt lat="46.61326" lon="5.86491">
        <ele>749</ele>
        <time>2015-03-27T12:42:25Z</time>
      </trkpt>
      <trkpt lat="46.61333" lon="5.86517">
        <ele>747</ele>
        <time>2015-03-27T12:42:43Z</time>
      </trkpt>
      <trkpt lat="46.61332" lon="5.86532">
        <ele>746</ele>
        <time>2015-03-27T12:42:51Z</time>
      </trkpt>
      <trkpt lat="46.61346" lon="5.86583">
        <ele>743</ele>
        <time>2015-03-27T12:43:22Z</time>
      </trkpt>
      <trkpt lat="46.61349" lon="5.86597">
        <ele>742</ele>
        <time>2015-03-27T12:43:28Z</time>
      </trkpt>
      <trkpt lat="46.61362" lon="5.86615">
        <ele>743</ele>
        <time>2015-03-27T12:43:42Z</time>
      </trkpt>
      <trkpt lat="46.61364" lon="5.86656">
        <ele>740</ele>
        <time>2015-03-27T12:44:13Z</time>
      </trkpt>
      <trkpt lat="46.61368" lon="5.86684">
        <ele>740</ele>
        <time>2015-03-27T12:44:29Z</time>
      </trkpt>
      <trkpt lat="46.61375" lon="5.86725">
        <ele>738</ele>
        <time>2015-03-27T12:44:53Z</time>
      </trkpt>
      <trkpt lat="46.61361" lon="5.86791">
        <ele>730</ele>
        <time>2015-03-27T12:45:31Z</time>
      </trkpt>
      <trkpt lat="46.61361" lon="5.86804">
        <ele>729</ele>
        <time>2015-03-27T12:45:39Z</time>
      </trkpt>
      <trkpt lat="46.61369" lon="5.86812">
        <ele>727</ele>
        <time>2015-03-27T12:45:50Z</time>
      </trkpt>
      <trkpt lat="46.61396" lon="5.86847">
        <ele>721</ele>
        <time>2015-03-27T12:46:27Z</time>
      </trkpt>
      <trkpt lat="46.61398" lon="5.8686">
        <ele>718</ele>
        <time>2015-03-27T12:46:41Z</time>
      </trkpt>
      <trkpt lat="46.61407" lon="5.86867">
        <ele>715</ele>
        <time>2015-03-27T12:46:53Z</time>
      </trkpt>
      <trkpt lat="46.61415" lon="5.86873">
        <ele>712</ele>
        <time>2015-03-27T12:47:06Z</time>
      </trkpt>
      <trkpt lat="46.61419" lon="5.86879">
        <ele>711</ele>
        <time>2015-03-27T12:47:12Z</time>
      </trkpt>
      <trkpt lat="46.61411" lon="5.86879">
        <ele>705</ele>
        <time>2015-03-27T12:49:22Z</time>
      </trkpt>
      <trkpt lat="46.61405" lon="5.86867">
        <ele>704</ele>
        <time>2015-03-27T12:49:38Z</time>
      </trkpt>
      <trkpt lat="46.61399" lon="5.86858">
        <ele>705</ele>
        <time>2015-03-27T12:50:07Z</time>
      </trkpt>
      <trkpt lat="46.61398" lon="5.86851">
        <ele>705</ele>
        <time>2015-03-27T12:50:26Z</time>
      </trkpt>
      <trkpt lat="46.61406" lon="5.86844">
        <ele>704</ele>
        <time>2015-03-27T12:50:37Z</time>
      </trkpt>
      <trkpt lat="46.61408" lon="5.86829">
        <ele>700</ele>
        <time>2015-03-27T12:51:02Z</time>
      </trkpt>
      <trkpt lat="46.61426" lon="5.86799">
        <ele>699</ele>
        <time>2015-03-27T12:51:39Z</time>
      </trkpt>
      <trkpt lat="46.61434" lon="5.86804">
        <ele>698</ele>
        <time>2015-03-27T12:51:48Z</time>
      </trkpt>
      <trkpt lat="46.61444" lon="5.86804">
        <ele>698</ele>
        <time>2015-03-27T12:52:05Z</time>
      </trkpt>
      <trkpt lat="46.61438" lon="5.86789">
        <ele>698</ele>
        <time>2015-03-27T12:52:18Z</time>
      </trkpt>
      <trkpt lat="46.61444" lon="5.8675">
        <ele>693</ele>
        <time>2015-03-27T12:52:58Z</time>
      </trkpt>
      <trkpt lat="46.61444" lon="5.86736">
        <ele>691</ele>
        <time>2015-03-27T12:53:10Z</time>
      </trkpt>
      <trkpt lat="46.61449" lon="5.86725">
        <ele>691</ele>
        <time>2015-03-27T12:53:16Z</time>
      </trkpt>
      <trkpt lat="46.61451" lon="5.86711">
        <ele>691</ele>
        <time>2015-03-27T12:53:30Z</time>
      </trkpt>
      <trkpt lat="46.61457" lon="5.86699">
        <ele>695</ele>
        <time>2015-03-27T12:54:05Z</time>
      </trkpt>
      <trkpt lat="46.61474" lon="5.86686">
        <ele>694</ele>
        <time>2015-03-27T12:54:21Z</time>
      </trkpt>
      <trkpt lat="46.61481" lon="5.86677">
        <ele>692</ele>
        <time>2015-03-27T12:54:33Z</time>
      </trkpt>
      <trkpt lat="46.61493" lon="5.86674">
        <ele>692</ele>
        <time>2015-03-27T12:54:51Z</time>
      </trkpt>
      <trkpt lat="46.61502" lon="5.8668">
        <ele>692</ele>
        <time>2015-03-27T12:55:01Z</time>
      </trkpt>
      <trkpt lat="46.61522" lon="5.86679">
        <ele>692</ele>
        <time>2015-03-27T12:55:22Z</time>
      </trkpt>
      <trkpt lat="46.61527" lon="5.86684">
        <ele>692</ele>
        <time>2015-03-27T12:55:38Z</time>
      </trkpt>
      <trkpt lat="46.61535" lon="5.86689">
        <ele>693</ele>
        <time>2015-03-27T12:55:46Z</time>
      </trkpt>
      <trkpt lat="46.61543" lon="5.8669">
        <ele>693</ele>
        <time>2015-03-27T12:55:56Z</time>
      </trkpt>
      <trkpt lat="46.6154" lon="5.86687">
        <ele>693</ele>
        <time>2015-03-27T12:56:28Z</time>
      </trkpt>
      <trkpt lat="46.61535" lon="5.86683">
        <ele>694</ele>
        <time>2015-03-27T12:56:49Z</time>
      </trkpt>
      <trkpt lat="46.61537" lon="5.86685">
        <ele>694</ele>
        <time>2015-03-27T12:57:28Z</time>
      </trkpt>
      <trkpt lat="46.61546" lon="5.86697">
        <ele>693</ele>
        <time>2015-03-27T12:57:50Z</time>
      </trkpt>
      <trkpt lat="46.61563" lon="5.86718">
        <ele>696</ele>
        <time>2015-03-27T12:58:30Z</time>
      </trkpt>
      <trkpt lat="46.61572" lon="5.86716">
        <ele>697</ele>
        <time>2015-03-27T12:58:43Z</time>
      </trkpt>
      <trkpt lat="46.61578" lon="5.86704">
        <ele>698</ele>
        <time>2015-03-27T12:58:58Z</time>
      </trkpt>
      <trkpt lat="46.6158" lon="5.8669">
        <ele>701</ele>
        <time>2015-03-27T12:59:08Z</time>
      </trkpt>
      <trkpt lat="46.61589" lon="5.86686">
        <ele>701</ele>
        <time>2015-03-27T12:59:19Z</time>
      </trkpt>
      <trkpt lat="46.6161" lon="5.86659">
        <ele>705</ele>
        <time>2015-03-27T12:59:56Z</time>
      </trkpt>
      <trkpt lat="46.6162" lon="5.86647">
        <ele>707</ele>
        <time>2015-03-27T13:00:13Z</time>
      </trkpt>
      <trkpt lat="46.61626" lon="5.86622">
        <ele>707</ele>
        <time>2015-03-27T13:00:35Z</time>
      </trkpt>
      <trkpt lat="46.6163" lon="5.86609">
        <ele>707</ele>
        <time>2015-03-27T13:00:49Z</time>
      </trkpt>
      <trkpt lat="46.61637" lon="5.86598">
        <ele>707</ele>
        <time>2015-03-27T13:01:04Z</time>
      </trkpt>
      <trkpt lat="46.61644" lon="5.86589">
        <ele>707</ele>
        <time>2015-03-27T13:01:16Z</time>
      </trkpt>
      <trkpt lat="46.61646" lon="5.86563">
        <ele>712</ele>
        <time>2015-03-27T13:01:40Z</time>
      </trkpt>
      <trkpt lat="46.61666" lon="5.86535">
        <ele>717</ele>
        <time>2015-03-27T13:02:16Z</time>
      </trkpt>
      <trkpt lat="46.61675" lon="5.86528">
        <ele>717</ele>
        <time>2015-03-27T13:02:27Z</time>
      </trkpt>
      <trkpt lat="46.61681" lon="5.86516">
        <ele>719</ele>
        <time>2015-03-27T13:02:37Z</time>
      </trkpt>
      <trkpt lat="46.61687" lon="5.86463">
        <ele>729</ele>
        <time>2015-03-27T13:03:18Z</time>
      </trkpt>
      <trkpt lat="46.61686" lon="5.86422">
        <ele>735</ele>
        <time>2015-03-27T13:03:54Z</time>
      </trkpt>
      <trkpt lat="46.61696" lon="5.86384">
        <ele>738</ele>
        <time>2015-03-27T13:04:32Z</time>
      </trkpt>
      <trkpt lat="46.61697" lon="5.86371">
        <ele>737</ele>
        <time>2015-03-27T13:04:42Z</time>
      </trkpt>
      <trkpt lat="46.61702" lon="5.86359">
        <ele>738</ele>
        <time>2015-03-27T13:04:53Z</time>
      </trkpt>
      <trkpt lat="46.61709" lon="5.8632">
        <ele>743</ele>
        <time>2015-03-27T13:05:25Z</time>
      </trkpt>
      <trkpt lat="46.61709" lon="5.86292">
        <ele>744</ele>
        <time>2015-03-27T13:05:46Z</time>
      </trkpt>
      <trkpt lat="46.61711" lon="5.86238">
        <ele>750</ele>
        <time>2015-03-27T13:06:24Z</time>
      </trkpt>
      <trkpt lat="46.6171" lon="5.862">
        <ele>755</ele>
        <time>2015-03-27T13:07:05Z</time>
      </trkpt>
      <trkpt lat="46.61723" lon="5.86192">
        <ele>758</ele>
        <time>2015-03-27T13:07:51Z</time>
      </trkpt>
      <trkpt lat="46.6172" lon="5.8619">
        <ele>754</ele>
        <time>2015-03-27T13:10:03Z</time>
      </trkpt>
      <trkpt lat="46.6172" lon="5.86181">
        <ele>757</ele>
        <time>2015-03-27T13:11:16Z</time>
      </trkpt>
      <trkpt lat="46.61722" lon="5.86167">
        <ele>760</ele>
        <time>2015-03-27T13:11:28Z</time>
      </trkpt>
      <trkpt lat="46.61718" lon="5.86138">
        <ele>763</ele>
        <time>2015-03-27T13:11:46Z</time>
      </trkpt>
      <trkpt lat="46.61715" lon="5.86125">
        <ele>763</ele>
        <time>2015-03-27T13:11:57Z</time>
      </trkpt>
      <trkpt lat="46.61709" lon="5.86115">
        <ele>764</ele>
        <time>2015-03-27T13:12:06Z</time>
      </trkpt>
      <trkpt lat="46.617" lon="5.86119">
        <ele>765</ele>
        <time>2015-03-27T13:12:18Z</time>
      </trkpt>
      <trkpt lat="46.61691" lon="5.86123">
        <ele>766</ele>
        <time>2015-03-27T13:12:26Z</time>
      </trkpt>
      <trkpt lat="46.61686" lon="5.86117">
        <ele>766</ele>
        <time>2015-03-27T13:12:43Z</time>
      </trkpt>
      <trkpt lat="46.61675" lon="5.86115">
        <ele>767</ele>
        <time>2015-03-27T13:13:17Z</time>
      </trkpt>
      <trkpt lat="46.61665" lon="5.86121">
        <ele>766</ele>
        <time>2015-03-27T13:13:35Z</time>
      </trkpt>
      <trkpt lat="46.61669" lon="5.86134">
        <ele>765</ele>
        <time>2015-03-27T13:13:44Z</time>
      </trkpt>
      <trkpt lat="46.6166" lon="5.86141">
        <ele>762</ele>
        <time>2015-03-27T13:13:59Z</time>
      </trkpt>
      <trkpt lat="46.61655" lon="5.86138">
        <ele>758</ele>
        <time>2015-03-27T13:14:53Z</time>
      </trkpt>
      <trkpt lat="46.61649" lon="5.86152">
        <ele>753</ele>
        <time>2015-03-27T13:15:14Z</time>
      </trkpt>
      <trkpt lat="46.61634" lon="5.86174">
        <ele>747</ele>
        <time>2015-03-27T13:15:43Z</time>
      </trkpt>
      <trkpt lat="46.61624" lon="5.86176">
        <ele>745</ele>
        <time>2015-03-27T13:15:54Z</time>
      </trkpt>
      <trkpt lat="46.61617" lon="5.86186">
        <ele>744</ele>
        <time>2015-03-27T13:16:00Z</time>
      </trkpt>
      <trkpt lat="46.61608" lon="5.86183">
        <ele>743</ele>
        <time>2015-03-27T13:16:09Z</time>
      </trkpt>
      <trkpt lat="46.61603" lon="5.86171">
        <ele>741</ele>
        <time>2015-03-27T13:16:23Z</time>
      </trkpt>
      <trkpt lat="46.61596" lon="5.86145">
        <ele>740</ele>
        <time>2015-03-27T13:16:48Z</time>
      </trkpt>
      <trkpt lat="46.61597" lon="5.86132">
        <ele>739</ele>
        <time>2015-03-27T13:16:58Z</time>
      </trkpt>
      <trkpt lat="46.61596" lon="5.86119">
        <ele>738</ele>
        <time>2015-03-27T13:17:11Z</time>
      </trkpt>
      <trkpt lat="46.61599" lon="5.86076">
        <ele>738</ele>
        <time>2015-03-27T13:17:45Z</time>
      </trkpt>
      <trkpt lat="46.61599" lon="5.86062">
        <ele>739</ele>
        <time>2015-03-27T13:17:55Z</time>
      </trkpt>
      <trkpt lat="46.61601" lon="5.86033">
        <ele>740</ele>
        <time>2015-03-27T13:18:16Z</time>
      </trkpt>
      <trkpt lat="46.61605" lon="5.86021">
        <ele>740</ele>
        <time>2015-03-27T13:18:26Z</time>
      </trkpt>
      <trkpt lat="46.61603" lon="5.85967">
        <ele>744</ele>
        <time>2015-03-27T13:19:04Z</time>
      </trkpt>
      <trkpt lat="46.61607" lon="5.85928">
        <ele>748</ele>
        <time>2015-03-27T13:19:38Z</time>
      </trkpt>
      <trkpt lat="46.6161" lon="5.85915">
        <ele>748</ele>
        <time>2015-03-27T13:19:49Z</time>
      </trkpt>
      <trkpt lat="46.61612" lon="5.85889">
        <ele>750</ele>
        <time>2015-03-27T13:20:07Z</time>
      </trkpt>
      <trkpt lat="46.61617" lon="5.85878">
        <ele>752</ele>
        <time>2015-03-27T13:20:16Z</time>
      </trkpt>
      <trkpt lat="46.61617" lon="5.85865">
        <ele>752</ele>
        <time>2015-03-27T13:20:26Z</time>
      </trkpt>
      <trkpt lat="46.6161" lon="5.85854">
        <ele>754</ele>
        <time>2015-03-27T13:20:38Z</time>
      </trkpt>
      <trkpt lat="46.61596" lon="5.85802">
        <ele>755</ele>
        <time>2015-03-27T13:21:14Z</time>
      </trkpt>
      <trkpt lat="46.61596" lon="5.85788">
        <ele>754</ele>
        <time>2015-03-27T13:21:25Z</time>
      </trkpt>
      <trkpt lat="46.61599" lon="5.85765">
        <ele>753</ele>
        <time>2015-03-27T13:21:49Z</time>
      </trkpt>
      <trkpt lat="46.61602" lon="5.85754">
        <ele>750</ele>
        <time>2015-03-27T13:23:53Z</time>
      </trkpt>
      <trkpt lat="46.61597" lon="5.85743">
        <ele>750</ele>
        <time>2015-03-27T13:24:04Z</time>
      </trkpt>
      <trkpt lat="46.61597" lon="5.85729">
        <ele>752</ele>
        <time>2015-03-27T13:24:16Z</time>
      </trkpt>
      <trkpt lat="46.61603" lon="5.85689">
        <ele>754</ele>
        <time>2015-03-27T13:24:45Z</time>
      </trkpt>
      <trkpt lat="46.616" lon="5.85675">
        <ele>754</ele>
        <time>2015-03-27T13:24:56Z</time>
      </trkpt>
      <trkpt lat="46.61594" lon="5.8565">
        <ele>755</ele>
        <time>2015-03-27T13:25:17Z</time>
      </trkpt>
      <trkpt lat="46.61591" lon="5.85623">
        <ele>757</ele>
        <time>2015-03-27T13:25:44Z</time>
      </trkpt>
      <trkpt lat="46.61587" lon="5.8561">
        <ele>757</ele>
        <time>2015-03-27T13:25:55Z</time>
      </trkpt>
      <trkpt lat="46.61585" lon="5.85569">
        <ele>756</ele>
        <time>2015-03-27T13:26:26Z</time>
      </trkpt>
      <trkpt lat="46.61587" lon="5.85554">
        <ele>755</ele>
        <time>2015-03-27T13:26:34Z</time>
      </trkpt>
      <trkpt lat="46.61585" lon="5.85541">
        <ele>754</ele>
        <time>2015-03-27T13:26:49Z</time>
      </trkpt>
      <trkpt lat="46.6158" lon="5.85499">
        <ele>751</ele>
        <time>2015-03-27T13:27:24Z</time>
      </trkpt>
      <trkpt lat="46.61584" lon="5.85487">
        <ele>750</ele>
        <time>2015-03-27T13:27:39Z</time>
      </trkpt>
      <trkpt lat="46.61584" lon="5.85459">
        <ele>750</ele>
        <time>2015-03-27T13:28:10Z</time>
      </trkpt>
      <trkpt lat="46.61585" lon="5.85445">
        <ele>749</ele>
        <time>2015-03-27T13:28:20Z</time>
      </trkpt>
      <trkpt lat="46.61583" lon="5.85433">
        <ele>749</ele>
        <time>2015-03-27T13:28:32Z</time>
      </trkpt>
      <trkpt lat="46.61584" lon="5.85429">
        <ele>749</ele>
        <time>2015-03-27T13:30:15Z</time>
      </trkpt>
      <trkpt lat="46.61579" lon="5.85419">
        <ele>748</ele>
        <time>2015-03-27T13:30:40Z</time>
      </trkpt>
      <trkpt lat="46.6158" lon="5.85413">
        <ele>748</ele>
        <time>2015-03-27T13:30:59Z</time>
      </trkpt>
      <trkpt lat="46.61582" lon="5.85395">
        <ele>747</ele>
        <time>2015-03-27T13:31:15Z</time>
      </trkpt>
      <trkpt lat="46.61583" lon="5.85385">
        <ele>744</ele>
        <time>2015-03-27T13:31:47Z</time>
      </trkpt>
      <trkpt lat="46.61581" lon="5.85375">
        <ele>744</ele>
        <time>2015-03-27T13:31:51Z</time>
      </trkpt>
      <trkpt lat="46.61586" lon="5.85367">
        <ele>753</ele>
        <time>2015-03-27T13:32:38Z</time>
      </trkpt>
      <trkpt lat="46.61587" lon="5.85354">
        <ele>753</ele>
        <time>2015-03-27T13:32:51Z</time>
      </trkpt>
      <trkpt lat="46.61595" lon="5.85313">
        <ele>751</ele>
        <time>2015-03-27T13:33:27Z</time>
      </trkpt>
      <trkpt lat="46.61597" lon="5.853">
        <ele>751</ele>
        <time>2015-03-27T13:33:38Z</time>
      </trkpt>
      <trkpt lat="46.61605" lon="5.85291">
        <ele>750</ele>
        <time>2015-03-27T13:33:52Z</time>
      </trkpt>
      <trkpt lat="46.61628" lon="5.85268">
        <ele>750</ele>
        <time>2015-03-27T13:34:20Z</time>
      </trkpt>
      <trkpt lat="46.61628" lon="5.85261">
        <ele>751</ele>
        <time>2015-03-27T13:34:37Z</time>
      </trkpt>
      <trkpt lat="46.61625" lon="5.85256">
        <ele>753</ele>
        <time>2015-03-27T13:35:23Z</time>
      </trkpt>
      <trkpt lat="46.61623" lon="5.85243">
        <ele>754</ele>
        <time>2015-03-27T13:35:34Z</time>
      </trkpt>
      <trkpt lat="46.61621" lon="5.8523">
        <ele>756</ele>
        <time>2015-03-27T13:35:49Z</time>
      </trkpt>
      <trkpt lat="46.61624" lon="5.85224">
        <ele>756</ele>
        <time>2015-03-27T13:36:00Z</time>
      </trkpt>
      <trkpt lat="46.61615" lon="5.85215">
        <ele>755</ele>
        <time>2015-03-27T13:36:10Z</time>
      </trkpt>
      <trkpt lat="46.61606" lon="5.85211">
        <ele>752</ele>
        <time>2015-03-27T13:36:20Z</time>
      </trkpt>
      <trkpt lat="46.61572" lon="5.85187">
        <ele>749</ele>
        <time>2015-03-27T13:36:59Z</time>
      </trkpt>
      <trkpt lat="46.61551" lon="5.8518">
        <ele>743</ele>
        <time>2015-03-27T13:37:39Z</time>
      </trkpt>
      <trkpt lat="46.6155" lon="5.85183">
        <ele>737</ele>
        <time>2015-03-27T13:39:05Z</time>
      </trkpt>
      <trkpt lat="46.61553" lon="5.8518">
        <ele>738</ele>
        <time>2015-03-27T13:40:45Z</time>
      </trkpt>
      <trkpt lat="46.61556" lon="5.85181">
        <ele>739</ele>
        <time>2015-03-27T13:41:35Z</time>
      </trkpt>
      <trkpt lat="46.61559" lon="5.85183">
        <ele>739</ele>
        <time>2015-03-27T13:41:48Z</time>
      </trkpt>
      <trkpt lat="46.6156" lon="5.85186">
        <ele>739</ele>
        <time>2015-03-27T13:42:11Z</time>
      </trkpt>
      <trkpt lat="46.61552" lon="5.85189">
        <ele>738</ele>
        <time>2015-03-27T13:42:58Z</time>
      </trkpt>
      <trkpt lat="46.61551" lon="5.85185">
        <ele>737</ele>
        <time>2015-03-27T13:46:49Z</time>
      </trkpt>
      <trkpt lat="46.61557" lon="5.85176">
        <ele>735</ele>
        <time>2015-03-27T13:52:53Z</time>
      </trkpt>
      <trkpt lat="46.61581" lon="5.85192">
        <ele>734</ele>
        <time>2015-03-27T13:57:44Z</time>
      </trkpt>
      <trkpt lat="46.61586" lon="5.85194">
        <ele>734</ele>
        <time>2015-03-27T13:57:51Z</time>
      </trkpt>
      <trkpt lat="46.6159" lon="5.85197">
        <ele>734</ele>
        <time>2015-03-27T13:58:01Z</time>
      </trkpt>
      <trkpt lat="46.61599" lon="5.85202">
        <ele>735</ele>
        <time>2015-03-27T13:58:08Z</time>
      </trkpt>
      <trkpt lat="46.61616" lon="5.85213">
        <ele>738</ele>
        <time>2015-03-27T13:58:25Z</time>
      </trkpt>
      <trkpt lat="46.61624" lon="5.85206">
        <ele>740</ele>
        <time>2015-03-27T13:58:35Z</time>
      </trkpt>
      <trkpt lat="46.61637" lon="5.85186">
        <ele>742</ele>
        <time>2015-03-27T13:58:51Z</time>
      </trkpt>
      <trkpt lat="46.61646" lon="5.8518">
        <ele>742</ele>
        <time>2015-03-27T13:59:04Z</time>
      </trkpt>
      <trkpt lat="46.61651" lon="5.85169">
        <ele>743</ele>
        <time>2015-03-27T13:59:16Z</time>
      </trkpt>
      <trkpt lat="46.61672" lon="5.85144">
        <ele>745</ele>
        <time>2015-03-27T13:59:47Z</time>
      </trkpt>
      <trkpt lat="46.61692" lon="5.85115">
        <ele>745</ele>
        <time>2015-03-27T14:00:17Z</time>
      </trkpt>
      <trkpt lat="46.61699" lon="5.85104">
        <ele>745</ele>
        <time>2015-03-27T14:00:25Z</time>
      </trkpt>
      <trkpt lat="46.61705" lon="5.85094">
        <ele>745</ele>
        <time>2015-03-27T14:00:33Z</time>
      </trkpt>
      <trkpt lat="46.61738" lon="5.85068">
        <ele>742</ele>
        <time>2015-03-27T14:01:11Z</time>
      </trkpt>
      <trkpt lat="46.61748" lon="5.85065">
        <ele>742</ele>
        <time>2015-03-27T14:01:20Z</time>
      </trkpt>
      <trkpt lat="46.61764" lon="5.8505">
        <ele>743</ele>
        <time>2015-03-27T14:01:36Z</time>
      </trkpt>
      <trkpt lat="46.61782" lon="5.85045">
        <ele>743</ele>
        <time>2015-03-27T14:01:53Z</time>
      </trkpt>
      <trkpt lat="46.61798" lon="5.85031">
        <ele>742</ele>
        <time>2015-03-27T14:02:11Z</time>
      </trkpt>
      <trkpt lat="46.61807" lon="5.85024">
        <ele>743</ele>
        <time>2015-03-27T14:02:20Z</time>
      </trkpt>
      <trkpt lat="46.61826" lon="5.85018">
        <ele>743</ele>
        <time>2015-03-27T14:02:38Z</time>
      </trkpt>
      <trkpt lat="46.61844" lon="5.8501">
        <ele>741</ele>
        <time>2015-03-27T14:02:57Z</time>
      </trkpt>
      <trkpt lat="46.61869" lon="5.84995">
        <ele>742</ele>
        <time>2015-03-27T14:03:28Z</time>
      </trkpt>
      <trkpt lat="46.61904" lon="5.84974">
        <ele>742</ele>
        <time>2015-03-27T14:04:01Z</time>
      </trkpt>
      <trkpt lat="46.61922" lon="5.84959">
        <ele>743</ele>
        <time>2015-03-27T14:04:16Z</time>
      </trkpt>
      <trkpt lat="46.61938" lon="5.84924">
        <ele>747</ele>
        <time>2015-03-27T14:04:39Z</time>
      </trkpt>
      <trkpt lat="46.6194" lon="5.84896">
        <ele>747</ele>
        <time>2015-03-27T14:04:57Z</time>
      </trkpt>
      <trkpt lat="46.6194" lon="5.84899">
        <ele>744</ele>
        <time>2015-03-27T14:05:30Z</time>
      </trkpt>
      <trkpt lat="46.61938" lon="5.84912">
        <ele>743</ele>
        <time>2015-03-27T14:05:37Z</time>
      </trkpt>
      <trkpt lat="46.61934" lon="5.84925">
        <ele>741</ele>
        <time>2015-03-27T14:05:46Z</time>
      </trkpt>
      <trkpt lat="46.61928" lon="5.84949">
        <ele>742</ele>
        <time>2015-03-27T14:06:04Z</time>
      </trkpt>
      <trkpt lat="46.61924" lon="5.84961">
        <ele>743</ele>
        <time>2015-03-27T14:06:12Z</time>
      </trkpt>
      <trkpt lat="46.61917" lon="5.84971">
        <ele>744</ele>
        <time>2015-03-27T14:06:25Z</time>
      </trkpt>
      <trkpt lat="46.61908" lon="5.84977">
        <ele>744</ele>
        <time>2015-03-27T14:06:31Z</time>
      </trkpt>
      <trkpt lat="46.61899" lon="5.84978">
        <ele>746</ele>
        <time>2015-03-27T14:06:42Z</time>
      </trkpt>
      <trkpt lat="46.61881" lon="5.84985">
        <ele>745</ele>
        <time>2015-03-27T14:06:58Z</time>
      </trkpt>
      <trkpt lat="46.61884" lon="5.84978">
        <ele>745</ele>
        <time>2015-03-27T14:07:22Z</time>
      </trkpt>
      <trkpt lat="46.61884" lon="5.84965">
        <ele>745</ele>
        <time>2015-03-27T14:07:31Z</time>
      </trkpt>
      <trkpt lat="46.61879" lon="5.84957">
        <ele>744</ele>
        <time>2015-03-27T14:07:34Z</time>
      </trkpt>
      <trkpt lat="46.61875" lon="5.84945">
        <ele>743</ele>
        <time>2015-03-27T14:07:44Z</time>
      </trkpt>
      <trkpt lat="46.61872" lon="5.84905">
        <ele>742</ele>
        <time>2015-03-27T14:08:28Z</time>
      </trkpt>
      <trkpt lat="46.61867" lon="5.84893">
        <ele>742</ele>
        <time>2015-03-27T14:08:46Z</time>
      </trkpt>
      <trkpt lat="46.61871" lon="5.84887">
        <ele>742</ele>
        <time>2015-03-27T14:09:09Z</time>
      </trkpt>
      <trkpt lat="46.61867" lon="5.84854">
        <ele>739</ele>
        <time>2015-03-27T14:09:58Z</time>
      </trkpt>
      <trkpt lat="46.61865" lon="5.84858">
        <ele>732</ele>
        <time>2015-03-27T14:11:08Z</time>
      </trkpt>
      <trkpt lat="46.61871" lon="5.84857">
        <ele>732</ele>
        <time>2015-03-27T14:12:13Z</time>
      </trkpt>
      <trkpt lat="46.61855" lon="5.84855">
        <ele>732</ele>
        <time>2015-03-27T14:12:19Z</time>
      </trkpt>
      <trkpt lat="46.61861" lon="5.84855">
        <ele>731</ele>
        <time>2015-03-27T14:12:39Z</time>
      </trkpt>
      <trkpt lat="46.6186" lon="5.84841">
        <ele>730</ele>
        <time>2015-03-27T14:12:56Z</time>
      </trkpt>
      <trkpt lat="46.61858" lon="5.84828">
        <ele>727</ele>
        <time>2015-03-27T14:13:01Z</time>
      </trkpt>
      <trkpt lat="46.61863" lon="5.84816">
        <ele>723</ele>
        <time>2015-03-27T14:13:16Z</time>
      </trkpt>
      <trkpt lat="46.61872" lon="5.84811">
        <ele>723</ele>
        <time>2015-03-27T14:13:26Z</time>
      </trkpt>
      <trkpt lat="46.61878" lon="5.84801">
        <ele>724</ele>
        <time>2015-03-27T14:13:37Z</time>
      </trkpt>
      <trkpt lat="46.61882" lon="5.84787">
        <ele>725</ele>
        <time>2015-03-27T14:13:46Z</time>
      </trkpt>
      <trkpt lat="46.61887" lon="5.84734">
        <ele>725</ele>
        <time>2015-03-27T14:14:26Z</time>
      </trkpt>
      <trkpt lat="46.61888" lon="5.84706">
        <ele>724</ele>
        <time>2015-03-27T14:14:44Z</time>
      </trkpt>
      <trkpt lat="46.61883" lon="5.84651">
        <ele>725</ele>
        <time>2015-03-27T14:15:17Z</time>
      </trkpt>
      <trkpt lat="46.61883" lon="5.84625">
        <ele>726</ele>
        <time>2015-03-27T14:15:37Z</time>
      </trkpt>
      <trkpt lat="46.61879" lon="5.84611">
        <ele>726</ele>
        <time>2015-03-27T14:15:47Z</time>
      </trkpt>
      <trkpt lat="46.61883" lon="5.8457">
        <ele>727</ele>
        <time>2015-03-27T14:16:23Z</time>
      </trkpt>
      <trkpt lat="46.61889" lon="5.84559">
        <ele>727</ele>
        <time>2015-03-27T14:16:30Z</time>
      </trkpt>
      <trkpt lat="46.61903" lon="5.84541">
        <ele>728</ele>
        <time>2015-03-27T14:16:47Z</time>
      </trkpt>
      <trkpt lat="46.6191" lon="5.84531">
        <ele>729</ele>
        <time>2015-03-27T14:16:58Z</time>
      </trkpt>
      <trkpt lat="46.6191" lon="5.84517">
        <ele>728</ele>
        <time>2015-03-27T14:17:07Z</time>
      </trkpt>
      <trkpt lat="46.6191" lon="5.84504">
        <ele>727</ele>
        <time>2015-03-27T14:17:17Z</time>
      </trkpt>
      <trkpt lat="46.61911" lon="5.8449">
        <ele>728</ele>
        <time>2015-03-27T14:17:25Z</time>
      </trkpt>
      <trkpt lat="46.6191" lon="5.84476">
        <ele>729</ele>
        <time>2015-03-27T14:17:33Z</time>
      </trkpt>
      <trkpt lat="46.6191" lon="5.84462">
        <ele>729</ele>
        <time>2015-03-27T14:17:42Z</time>
      </trkpt>
      <trkpt lat="46.61916" lon="5.84436">
        <ele>728</ele>
        <time>2015-03-27T14:18:01Z</time>
      </trkpt>
      <trkpt lat="46.6192" lon="5.84423">
        <ele>728</ele>
        <time>2015-03-27T14:18:12Z</time>
      </trkpt>
      <trkpt lat="46.61928" lon="5.84417">
        <ele>728</ele>
        <time>2015-03-27T14:18:20Z</time>
      </trkpt>
      <trkpt lat="46.61937" lon="5.84414">
        <ele>730</ele>
        <time>2015-03-27T14:18:31Z</time>
      </trkpt>
      <trkpt lat="46.61931" lon="5.8441">
        <ele>729</ele>
        <time>2015-03-27T14:19:22Z</time>
      </trkpt>
      <trkpt lat="46.61921" lon="5.84412">
        <ele>727</ele>
        <time>2015-03-27T14:19:33Z</time>
      </trkpt>
      <trkpt lat="46.61917" lon="5.84399">
        <ele>726</ele>
        <time>2015-03-27T14:19:41Z</time>
      </trkpt>
      <trkpt lat="46.61923" lon="5.84374">
        <ele>727</ele>
        <time>2015-03-27T14:20:09Z</time>
      </trkpt>
      <trkpt lat="46.61914" lon="5.84349">
        <ele>727</ele>
        <time>2015-03-27T14:20:26Z</time>
      </trkpt>
      <trkpt lat="46.61912" lon="5.84335">
        <ele>727</ele>
        <time>2015-03-27T14:20:37Z</time>
      </trkpt>
      <trkpt lat="46.61909" lon="5.84307">
        <ele>727</ele>
        <time>2015-03-27T14:20:55Z</time>
      </trkpt>
      <trkpt lat="46.61911" lon="5.84294">
        <ele>726</ele>
        <time>2015-03-27T14:21:05Z</time>
      </trkpt>
      <trkpt lat="46.61908" lon="5.8428">
        <ele>725</ele>
        <time>2015-03-27T14:21:17Z</time>
      </trkpt>
      <trkpt lat="46.61911" lon="5.84266">
        <ele>724</ele>
        <time>2015-03-27T14:21:26Z</time>
      </trkpt>
      <trkpt lat="46.61909" lon="5.84239">
        <ele>726</ele>
        <time>2015-03-27T14:21:44Z</time>
      </trkpt>
      <trkpt lat="46.61896" lon="5.84202">
        <ele>726</ele>
        <time>2015-03-27T14:22:07Z</time>
      </trkpt>
      <trkpt lat="46.6189" lon="5.84192">
        <ele>726</ele>
        <time>2015-03-27T14:22:19Z</time>
      </trkpt>
      <trkpt lat="46.61881" lon="5.84168">
        <ele>726</ele>
        <time>2015-03-27T14:22:37Z</time>
      </trkpt>
      <trkpt lat="46.61876" lon="5.84157">
        <ele>724</ele>
        <time>2015-03-27T14:22:48Z</time>
      </trkpt>
      <trkpt lat="46.61876" lon="5.84143">
        <ele>723</ele>
        <time>2015-03-27T14:22:56Z</time>
      </trkpt>
      <trkpt lat="46.61877" lon="5.8413">
        <ele>724</ele>
        <time>2015-03-27T14:23:06Z</time>
      </trkpt>
      <trkpt lat="46.61893" lon="5.84091">
        <ele>725</ele>
        <time>2015-03-27T14:23:39Z</time>
      </trkpt>
      <trkpt lat="46.61899" lon="5.84078">
        <ele>726</ele>
        <time>2015-03-27T14:23:49Z</time>
      </trkpt>
      <trkpt lat="46.61904" lon="5.84067">
        <ele>726</ele>
        <time>2015-03-27T14:23:59Z</time>
      </trkpt>
      <trkpt lat="46.61904" lon="5.84053">
        <ele>725</ele>
        <time>2015-03-27T14:24:08Z</time>
      </trkpt>
      <trkpt lat="46.61912" lon="5.84046">
        <ele>725</ele>
        <time>2015-03-27T14:24:23Z</time>
      </trkpt>
      <trkpt lat="46.61919" lon="5.84037">
        <ele>725</ele>
        <time>2015-03-27T14:24:33Z</time>
      </trkpt>
      <trkpt lat="46.61924" lon="5.84025">
        <ele>725</ele>
        <time>2015-03-27T14:24:42Z</time>
      </trkpt>
      <trkpt lat="46.61924" lon="5.84011">
        <ele>725</ele>
        <time>2015-03-27T14:25:00Z</time>
      </trkpt>
      <trkpt lat="46.61923" lon="5.83984">
        <ele>722</ele>
        <time>2015-03-27T14:25:21Z</time>
      </trkpt>
      <trkpt lat="46.6193" lon="5.8397">
        <ele>722</ele>
        <time>2015-03-27T14:25:40Z</time>
      </trkpt>
      <trkpt lat="46.6194" lon="5.83969">
        <ele>720</ele>
        <time>2015-03-27T14:26:50Z</time>
      </trkpt>
      <trkpt lat="46.6197" lon="5.8398">
        <ele>721</ele>
        <time>2015-03-27T14:27:25Z</time>
      </trkpt>
      <trkpt lat="46.61976" lon="5.83969">
        <ele>721</ele>
        <time>2015-03-27T14:27:34Z</time>
      </trkpt>
      <trkpt lat="46.61982" lon="5.83943">
        <ele>721</ele>
        <time>2015-03-27T14:27:54Z</time>
      </trkpt>
      <trkpt lat="46.61985" lon="5.83918">
        <ele>724</ele>
        <time>2015-03-27T14:28:28Z</time>
      </trkpt>
      <trkpt lat="46.61996" lon="5.8392">
        <ele>723</ele>
        <time>2015-03-27T14:28:52Z</time>
      </trkpt>
      <trkpt lat="46.62004" lon="5.83913">
        <ele>721</ele>
        <time>2015-03-27T14:29:02Z</time>
      </trkpt>
      <trkpt lat="46.62003" lon="5.839">
        <ele>721</ele>
        <time>2015-03-27T14:29:14Z</time>
      </trkpt>
      <trkpt lat="46.62004" lon="5.83886">
        <ele>719</ele>
        <time>2015-03-27T14:29:24Z</time>
      </trkpt>
      <trkpt lat="46.61999" lon="5.83875">
        <ele>719</ele>
        <time>2015-03-27T14:29:31Z</time>
      </trkpt>
      <trkpt lat="46.61979" lon="5.83827">
        <ele>722</ele>
        <time>2015-03-27T14:30:02Z</time>
      </trkpt>
      <trkpt lat="46.61974" lon="5.83814">
        <ele>724</ele>
        <time>2015-03-27T14:30:14Z</time>
      </trkpt>
      <trkpt lat="46.61973" lon="5.83807">
        <ele>724</ele>
        <time>2015-03-27T14:30:20Z</time>
      </trkpt>
      <trkpt lat="46.61975" lon="5.83801">
        <ele>723</ele>
        <time>2015-03-27T14:30:26Z</time>
      </trkpt>
      <trkpt lat="46.61972" lon="5.83787">
        <ele>722</ele>
        <time>2015-03-27T14:30:38Z</time>
      </trkpt>
      <trkpt lat="46.61974" lon="5.8378">
        <ele>722</ele>
        <time>2015-03-27T14:30:43Z</time>
      </trkpt>
      <trkpt lat="46.61975" lon="5.83774">
        <ele>721</ele>
        <time>2015-03-27T14:30:46Z</time>
      </trkpt>
      <trkpt lat="46.61979" lon="5.83769">
        <ele>720</ele>
        <time>2015-03-27T14:30:53Z</time>
      </trkpt>
      <trkpt lat="46.61979" lon="5.8376">
        <ele>720</ele>
        <time>2015-03-27T14:30:57Z</time>
      </trkpt>
      <trkpt lat="46.61977" lon="5.83724">
        <ele>714</ele>
        <time>2015-03-27T14:31:22Z</time>
      </trkpt>
      <trkpt lat="46.61982" lon="5.83696">
        <ele>713</ele>
        <time>2015-03-27T14:31:42Z</time>
      </trkpt>
      <trkpt lat="46.61981" lon="5.83689">
        <ele>713</ele>
        <time>2015-03-27T14:31:46Z</time>
      </trkpt>
      <trkpt lat="46.61981" lon="5.83663">
        <ele>713</ele>
        <time>2015-03-27T14:32:00Z</time>
      </trkpt>
      <trkpt lat="46.61977" lon="5.83635">
        <ele>712</ele>
        <time>2015-03-27T14:32:10Z</time>
      </trkpt>
      <trkpt lat="46.61979" lon="5.83621">
        <ele>711</ele>
        <time>2015-03-27T14:32:21Z</time>
      </trkpt>
      <trkpt lat="46.61985" lon="5.83611">
        <ele>711</ele>
        <time>2015-03-27T14:32:28Z</time>
      </trkpt>
      <trkpt lat="46.61985" lon="5.83596">
        <ele>711</ele>
        <time>2015-03-27T14:32:36Z</time>
      </trkpt>
      <trkpt lat="46.61987" lon="5.83582">
        <ele>710</ele>
        <time>2015-03-27T14:32:45Z</time>
      </trkpt>
      <trkpt lat="46.61989" lon="5.83569">
        <ele>709</ele>
        <time>2015-03-27T14:32:54Z</time>
      </trkpt>
      <trkpt lat="46.61989" lon="5.83555">
        <ele>708</ele>
        <time>2015-03-27T14:33:03Z</time>
      </trkpt>
      <trkpt lat="46.61993" lon="5.83549">
        <ele>707</ele>
        <time>2015-03-27T14:33:25Z</time>
      </trkpt>
      <trkpt lat="46.61997" lon="5.83536">
        <ele>707</ele>
        <time>2015-03-27T14:34:19Z</time>
      </trkpt>
      <trkpt lat="46.62001" lon="5.83523">
        <ele>710</ele>
        <time>2015-03-27T14:34:37Z</time>
      </trkpt>
      <trkpt lat="46.62005" lon="5.83511">
        <ele>711</ele>
        <time>2015-03-27T14:35:16Z</time>
      </trkpt>
      <trkpt lat="46.62012" lon="5.83502">
        <ele>712</ele>
        <time>2015-03-27T14:35:25Z</time>
      </trkpt>
      <trkpt lat="46.62017" lon="5.83491">
        <ele>712</ele>
        <time>2015-03-27T14:35:35Z</time>
      </trkpt>
      <trkpt lat="46.62018" lon="5.83478">
        <ele>712</ele>
        <time>2015-03-27T14:35:43Z</time>
      </trkpt>
      <trkpt lat="46.62044" lon="5.83435">
        <ele>713</ele>
        <time>2015-03-27T14:36:15Z</time>
      </trkpt>
      <trkpt lat="46.62075" lon="5.83398">
        <ele>714</ele>
        <time>2015-03-27T14:36:47Z</time>
      </trkpt>
      <trkpt lat="46.62076" lon="5.83387">
        <ele>714</ele>
        <time>2015-03-27T14:37:24Z</time>
      </trkpt>
      <trkpt lat="46.62079" lon="5.83387">
        <ele>716</ele>
        <time>2015-03-27T14:38:22Z</time>
      </trkpt>
      <trkpt lat="46.62083" lon="5.83386">
        <ele>715</ele>
        <time>2015-03-27T14:38:47Z</time>
      </trkpt>
      <trkpt lat="46.6209" lon="5.83376">
        <ele>715</ele>
        <time>2015-03-27T14:39:02Z</time>
      </trkpt>
      <trkpt lat="46.62101" lon="5.83362">
        <ele>715</ele>
        <time>2015-03-27T14:39:16Z</time>
      </trkpt>
      <trkpt lat="46.62108" lon="5.8335">
        <ele>714</ele>
        <time>2015-03-27T14:39:26Z</time>
      </trkpt>
      <trkpt lat="46.62126" lon="5.83327">
        <ele>714</ele>
        <time>2015-03-27T14:39:45Z</time>
      </trkpt>
      <trkpt lat="46.62134" lon="5.83318">
        <ele>713</ele>
        <time>2015-03-27T14:39:53Z</time>
      </trkpt>
      <trkpt lat="46.62176" lon="5.83288">
        <ele>713</ele>
        <time>2015-03-27T14:40:27Z</time>
      </trkpt>
      <trkpt lat="46.62197" lon="5.8326">
        <ele>711</ele>
        <time>2015-03-27T14:40:52Z</time>
      </trkpt>
      <trkpt lat="46.62201" lon="5.83246">
        <ele>711</ele>
        <time>2015-03-27T14:41:00Z</time>
      </trkpt>
      <trkpt lat="46.62202" lon="5.83217">
        <ele>709</ele>
        <time>2015-03-27T14:41:13Z</time>
      </trkpt>
      <trkpt lat="46.62194" lon="5.83162">
        <ele>705</ele>
        <time>2015-03-27T14:41:44Z</time>
      </trkpt>
      <trkpt lat="46.62194" lon="5.83155">
        <ele>705</ele>
        <time>2015-03-27T14:41:48Z</time>
      </trkpt>
      <trkpt lat="46.62192" lon="5.83148">
        <ele>704</ele>
        <time>2015-03-27T14:41:52Z</time>
      </trkpt>
      <trkpt lat="46.62191" lon="5.83145">
        <ele>704</ele>
        <time>2015-03-27T14:41:57Z</time>
      </trkpt>
      <trkpt lat="46.62189" lon="5.83129">
        <ele>703</ele>
        <time>2015-03-27T14:42:03Z</time>
      </trkpt>
      <trkpt lat="46.62191" lon="5.83126">
        <ele>703</ele>
        <time>2015-03-27T14:42:14Z</time>
      </trkpt>
      <trkpt lat="46.62192" lon="5.83118">
        <ele>702</ele>
        <time>2015-03-27T14:42:21Z</time>
      </trkpt>
      <trkpt lat="46.62191" lon="5.83111">
        <ele>702</ele>
        <time>2015-03-27T14:42:25Z</time>
      </trkpt>
      <trkpt lat="46.62195" lon="5.83099">
        <ele>702</ele>
        <time>2015-03-27T14:42:34Z</time>
      </trkpt>
      <trkpt lat="46.62221" lon="5.83041">
        <ele>699</ele>
        <time>2015-03-27T14:43:07Z</time>
      </trkpt>
      <trkpt lat="46.62228" lon="5.83031">
        <ele>698</ele>
        <time>2015-03-27T14:43:15Z</time>
      </trkpt>
      <trkpt lat="46.62234" lon="5.8302">
        <ele>698</ele>
        <time>2015-03-27T14:43:22Z</time>
      </trkpt>
      <trkpt lat="46.62262" lon="5.82981">
        <ele>694</ele>
        <time>2015-03-27T14:43:52Z</time>
      </trkpt>
      <trkpt lat="46.62268" lon="5.8297">
        <ele>694</ele>
        <time>2015-03-27T14:43:59Z</time>
      </trkpt>
      <trkpt lat="46.62275" lon="5.8296">
        <ele>693</ele>
        <time>2015-03-27T14:44:09Z</time>
      </trkpt>
      <trkpt lat="46.62293" lon="5.82953">
        <ele>691</ele>
        <time>2015-03-27T14:44:25Z</time>
      </trkpt>
      <trkpt lat="46.62305" lon="5.82942">
        <ele>690</ele>
        <time>2015-03-27T14:44:43Z</time>
      </trkpt>
      <trkpt lat="46.62314" lon="5.82939">
        <ele>689</ele>
        <time>2015-03-27T14:45:23Z</time>
      </trkpt>
      <trkpt lat="46.62325" lon="5.82931">
        <ele>686</ele>
        <time>2015-03-27T14:45:41Z</time>
      </trkpt>
      <trkpt lat="46.62334" lon="5.82897">
        <ele>676</ele>
        <time>2015-03-27T14:46:22Z</time>
      </trkpt>
      <trkpt lat="46.62339" lon="5.82886">
        <ele>675</ele>
        <time>2015-03-27T14:46:34Z</time>
      </trkpt>
      <trkpt lat="46.62348" lon="5.82884">
        <ele>674</ele>
        <time>2015-03-27T14:46:43Z</time>
      </trkpt>
      <trkpt lat="46.62357" lon="5.82887">
        <ele>673</ele>
        <time>2015-03-27T14:46:52Z</time>
      </trkpt>
      <trkpt lat="46.62365" lon="5.82895">
        <ele>672</ele>
        <time>2015-03-27T14:46:59Z</time>
      </trkpt>
      <trkpt lat="46.62418" lon="5.82927">
        <ele>671</ele>
        <time>2015-03-27T14:47:35Z</time>
      </trkpt>
      <trkpt lat="46.62432" lon="5.82934">
        <ele>671</ele>
        <time>2015-03-27T14:47:45Z</time>
      </trkpt>
      <trkpt lat="46.62451" lon="5.82946">
        <ele>667</ele>
        <time>2015-03-27T14:48:18Z</time>
      </trkpt>
      <trkpt lat="46.6246" lon="5.82948">
        <ele>666</ele>
        <time>2015-03-27T14:48:25Z</time>
      </trkpt>
      <trkpt lat="46.62468" lon="5.82954">
        <ele>666</ele>
        <time>2015-03-27T14:48:32Z</time>
      </trkpt>
      <trkpt lat="46.62496" lon="5.82961">
        <ele>665</ele>
        <time>2015-03-27T14:48:55Z</time>
      </trkpt>
      <trkpt lat="46.62515" lon="5.82955">
        <ele>664</ele>
        <time>2015-03-27T14:49:13Z</time>
      </trkpt>
      <trkpt lat="46.62551" lon="5.82936">
        <ele>659</ele>
        <time>2015-03-27T14:49:44Z</time>
      </trkpt>
      <trkpt lat="46.6257" lon="5.82927">
        <ele>659</ele>
        <time>2015-03-27T14:49:58Z</time>
      </trkpt>
      <trkpt lat="46.62592" lon="5.82899">
        <ele>663</ele>
        <time>2015-03-27T14:50:24Z</time>
      </trkpt>
      <trkpt lat="46.62619" lon="5.82863">
        <ele>664</ele>
        <time>2015-03-27T14:50:51Z</time>
      </trkpt>
      <trkpt lat="46.62626" lon="5.82854">
        <ele>664</ele>
        <time>2015-03-27T14:50:59Z</time>
      </trkpt>
      <trkpt lat="46.62636" lon="5.82839">
        <ele>662</ele>
        <time>2015-03-27T14:51:14Z</time>
      </trkpt>
    </trkseg>
  </trk>
  <trk>
    <name><![CDATA[J2b -Le Hérisson et ses cascades]]></name>
    <trkseg>
      <trkpt lat="46.62339" lon="5.82892">
        <ele>673</ele>
        <time>2019-04-01T16:15:26Z</time>
      </trkpt>
      <trkpt lat="46.62322" lon="5.82895">
        <ele>674</ele>
        <time>2019-04-01T16:16:26Z</time>
      </trkpt>
      <trkpt lat="46.62315" lon="5.82895">
        <ele>674</ele>
        <time>2019-04-01T16:17:26Z</time>
      </trkpt>
      <trkpt lat="46.62307" lon="5.82899">
        <ele>674</ele>
        <time>2019-04-01T16:18:26Z</time>
      </trkpt>
      <trkpt lat="46.62289" lon="5.82912">
        <ele>675</ele>
        <time>2019-04-01T16:19:26Z</time>
      </trkpt>
      <trkpt lat="46.62273" lon="5.82921">
        <ele>675</ele>
        <time>2019-04-01T16:20:26Z</time>
      </trkpt>
      <trkpt lat="46.62262" lon="5.82929">
        <ele>676</ele>
        <time>2019-04-01T16:21:26Z</time>
      </trkpt>
      <trkpt lat="46.62255" lon="5.82936">
        <ele>677</ele>
        <time>2019-04-01T16:22:26Z</time>
      </trkpt>
      <trkpt lat="46.62238" lon="5.82955">
        <ele>679</ele>
        <time>2019-04-01T16:23:26Z</time>
      </trkpt>
      <trkpt lat="46.62223" lon="5.8298">
        <ele>681</ele>
        <time>2019-04-01T16:24:26Z</time>
      </trkpt>
      <trkpt lat="46.62215" lon="5.82967">
        <ele>679</ele>
        <time>2019-04-01T16:25:26Z</time>
      </trkpt>
      <trkpt lat="46.62192" lon="5.82925">
        <ele>674</ele>
        <time>2019-04-01T16:26:26Z</time>
      </trkpt>
      <trkpt lat="46.62184" lon="5.82913">
        <ele>673</ele>
        <time>2019-04-01T16:27:26Z</time>
      </trkpt>
      <trkpt lat="46.62177" lon="5.8292">
        <ele>673</ele>
        <time>2019-04-01T16:28:26Z</time>
      </trkpt>
      <trkpt lat="46.62167" lon="5.8293">
        <ele>674</ele>
        <time>2019-04-01T16:29:26Z</time>
      </trkpt>
      <trkpt lat="46.62153" lon="5.82947">
        <ele>675</ele>
        <time>2019-04-01T16:30:26Z</time>
      </trkpt>
      <trkpt lat="46.62141" lon="5.82961">
        <ele>677</ele>
        <time>2019-04-01T16:31:26Z</time>
      </trkpt>
      <trkpt lat="46.62132" lon="5.82964">
        <ele>678</ele>
        <time>2019-04-01T16:32:26Z</time>
      </trkpt>
      <trkpt lat="46.62125" lon="5.82965">
        <ele>678</ele>
        <time>2019-04-01T16:33:26Z</time>
      </trkpt>
      <trkpt lat="46.62116" lon="5.82961">
        <ele>679</ele>
        <time>2019-04-01T16:34:26Z</time>
      </trkpt>
      <trkpt lat="46.62109" lon="5.82959">
        <ele>679</ele>
        <time>2019-04-01T16:35:26Z</time>
      </trkpt>
      <trkpt lat="46.62096" lon="5.82961">
        <ele>680</ele>
        <time>2019-04-01T16:36:26Z</time>
      </trkpt>
      <trkpt lat="46.6208" lon="5.82971">
        <ele>681</ele>
        <time>2019-04-01T16:37:26Z</time>
      </trkpt>
      <trkpt lat="46.62068" lon="5.82974">
        <ele>681</ele>
        <time>2019-04-01T16:38:26Z</time>
      </trkpt>
      <trkpt lat="46.62054" lon="5.82975">
        <ele>681</ele>
        <time>2019-04-01T16:39:26Z</time>
      </trkpt>
      <trkpt lat="46.62043" lon="5.82976">
        <ele>681</ele>
        <time>2019-04-01T16:40:26Z</time>
      </trkpt>
      <trkpt lat="46.62027" lon="5.82974">
        <ele>681</ele>
        <time>2019-04-01T16:41:26Z</time>
      </trkpt>
      <trkpt lat="46.62019" lon="5.82975">
        <ele>681</ele>
        <time>2019-04-01T16:42:26Z</time>
      </trkpt>
      <trkpt lat="46.62012" lon="5.82976">
        <ele>682</ele>
        <time>2019-04-01T16:43:26Z</time>
      </trkpt>
      <trkpt lat="46.62004" lon="5.8298">
        <ele>682</ele>
        <time>2019-04-01T16:44:26Z</time>
      </trkpt>
      <trkpt lat="46.61994" lon="5.82985">
        <ele>682</ele>
        <time>2019-04-01T16:45:26Z</time>
      </trkpt>
      <trkpt lat="46.61981" lon="5.82995">
        <ele>681</ele>
        <time>2019-04-01T16:46:26Z</time>
      </trkpt>
      <trkpt lat="46.61963" lon="5.83002">
        <ele>680</ele>
        <time>2019-04-01T16:47:26Z</time>
      </trkpt>
      <trkpt lat="46.6194" lon="5.8301">
        <ele>679</ele>
        <time>2019-04-01T16:48:26Z</time>
      </trkpt>
      <trkpt lat="46.61926" lon="5.83017">
        <ele>678</ele>
        <time>2019-04-01T16:49:26Z</time>
      </trkpt>
      <trkpt lat="46.61909" lon="5.83031">
        <ele>675</ele>
        <time>2019-04-01T16:50:26Z</time>
      </trkpt>
      <trkpt lat="46.6189" lon="5.83046">
        <ele>670</ele>
        <time>2019-04-01T16:51:26Z</time>
      </trkpt>
      <trkpt lat="46.61875" lon="5.83061">
        <ele>666</ele>
        <time>2019-04-01T16:52:26Z</time>
      </trkpt>
      <trkpt lat="46.61863" lon="5.83077">
        <ele>664</ele>
        <time>2019-04-01T16:53:26Z</time>
      </trkpt>
      <trkpt lat="46.61858" lon="5.83085">
        <ele>664</ele>
        <time>2019-04-01T16:54:26Z</time>
      </trkpt>
      <trkpt lat="46.61852" lon="5.83101">
        <ele>664</ele>
        <time>2019-04-01T16:55:26Z</time>
      </trkpt>
      <trkpt lat="46.61844" lon="5.83124">
        <ele>666</ele>
        <time>2019-04-01T16:56:26Z</time>
      </trkpt>
      <trkpt lat="46.61834" lon="5.83147">
        <ele>667</ele>
        <time>2019-04-01T16:57:26Z</time>
      </trkpt>
      <trkpt lat="46.61789" lon="5.83253">
        <ele>656</ele>
        <time>2019-04-01T16:58:26Z</time>
      </trkpt>
      <trkpt lat="46.61782" lon="5.83271">
        <ele>654</ele>
        <time>2019-04-01T16:59:26Z</time>
      </trkpt>
      <trkpt lat="46.61772" lon="5.8329">
        <ele>652</ele>
        <time>2019-04-01T17:00:26Z</time>
      </trkpt>
      <trkpt lat="46.61763" lon="5.8331">
        <ele>651</ele>
        <time>2019-04-01T17:01:26Z</time>
      </trkpt>
      <trkpt lat="46.61756" lon="5.83325">
        <ele>650</ele>
        <time>2019-04-01T17:02:26Z</time>
      </trkpt>
      <trkpt lat="46.61755" lon="5.83333">
        <ele>651</ele>
        <time>2019-04-01T17:03:26Z</time>
      </trkpt>
      <trkpt lat="46.61745" lon="5.83375">
        <ele>651</ele>
        <time>2019-04-01T17:04:26Z</time>
      </trkpt>
      <trkpt lat="46.61742" lon="5.83385">
        <ele>651</ele>
        <time>2019-04-01T17:05:26Z</time>
      </trkpt>
      <trkpt lat="46.61737" lon="5.83398">
        <ele>649</ele>
        <time>2019-04-01T17:06:26Z</time>
      </trkpt>
      <trkpt lat="46.6173" lon="5.83415">
        <ele>648</ele>
        <time>2019-04-01T17:07:26Z</time>
      </trkpt>
      <trkpt lat="46.61722" lon="5.8343">
        <ele>644</ele>
        <time>2019-04-01T17:08:26Z</time>
      </trkpt>
      <trkpt lat="46.61715" lon="5.83443">
        <ele>641</ele>
        <time>2019-04-01T17:09:26Z</time>
      </trkpt>
      <trkpt lat="46.6171" lon="5.83453">
        <ele>639</ele>
        <time>2019-04-01T17:10:26Z</time>
      </trkpt>
      <trkpt lat="46.61704" lon="5.83471">
        <ele>636</ele>
        <time>2019-04-01T17:11:26Z</time>
      </trkpt>
      <trkpt lat="46.61703" lon="5.8348">
        <ele>636</ele>
        <time>2019-04-01T17:12:26Z</time>
      </trkpt>
      <trkpt lat="46.61701" lon="5.83496">
        <ele>636</ele>
        <time>2019-04-01T17:13:26Z</time>
      </trkpt>
      <trkpt lat="46.617" lon="5.83511">
        <ele>636</ele>
        <time>2019-04-01T17:14:26Z</time>
      </trkpt>
      <trkpt lat="46.617" lon="5.83528">
        <ele>636</ele>
        <time>2019-04-01T17:15:26Z</time>
      </trkpt>
      <trkpt lat="46.61702" lon="5.83542">
        <ele>637</ele>
        <time>2019-04-01T17:16:26Z</time>
      </trkpt>
      <trkpt lat="46.61706" lon="5.83561">
        <ele>639</ele>
        <time>2019-04-01T17:17:26Z</time>
      </trkpt>
      <trkpt lat="46.61707" lon="5.83578">
        <ele>640</ele>
        <time>2019-04-01T17:18:26Z</time>
      </trkpt>
      <trkpt lat="46.61707" lon="5.83589">
        <ele>641</ele>
        <time>2019-04-01T17:19:26Z</time>
      </trkpt>
      <trkpt lat="46.61704" lon="5.83604">
        <ele>640</ele>
        <time>2019-04-01T17:20:26Z</time>
      </trkpt>
      <trkpt lat="46.61682" lon="5.83655">
        <ele>633</ele>
        <time>2019-04-01T17:21:26Z</time>
      </trkpt>
      <trkpt lat="46.6168" lon="5.83666">
        <ele>633</ele>
        <time>2019-04-01T17:22:26Z</time>
      </trkpt>
      <trkpt lat="46.6168" lon="5.83678">
        <ele>633</ele>
        <time>2019-04-01T17:23:26Z</time>
      </trkpt>
      <trkpt lat="46.6168" lon="5.83701">
        <ele>633</ele>
        <time>2019-04-01T17:24:26Z</time>
      </trkpt>
      <trkpt lat="46.61678" lon="5.83712">
        <ele>632</ele>
        <time>2019-04-01T17:25:26Z</time>
      </trkpt>
      <trkpt lat="46.61676" lon="5.83721">
        <ele>631</ele>
        <time>2019-04-01T17:26:26Z</time>
      </trkpt>
      <trkpt lat="46.61674" lon="5.83737">
        <ele>630</ele>
        <time>2019-04-01T17:27:26Z</time>
      </trkpt>
      <trkpt lat="46.61673" lon="5.83748">
        <ele>629</ele>
        <time>2019-04-01T17:28:26Z</time>
      </trkpt>
      <trkpt lat="46.61674" lon="5.83779">
        <ele>629</ele>
        <time>2019-04-01T17:29:26Z</time>
      </trkpt>
      <trkpt lat="46.61674" lon="5.83794">
        <ele>628</ele>
        <time>2019-04-01T17:30:26Z</time>
      </trkpt>
      <trkpt lat="46.61672" lon="5.83868">
        <ele>625</ele>
        <time>2019-04-01T17:31:26Z</time>
      </trkpt>
      <trkpt lat="46.61659" lon="5.83999">
        <ele>607</ele>
        <time>2019-04-01T17:32:26Z</time>
      </trkpt>
      <trkpt lat="46.6165" lon="5.84181">
        <ele>589</ele>
        <time>2019-04-01T17:33:26Z</time>
      </trkpt>
      <trkpt lat="46.61657" lon="5.84296">
        <ele>591</ele>
        <time>2019-04-01T17:34:26Z</time>
      </trkpt>
      <trkpt lat="46.61639" lon="5.84403">
        <ele>581</ele>
        <time>2019-04-01T17:35:26Z</time>
      </trkpt>
      <trkpt lat="46.61622" lon="5.84508">
        <ele>574</ele>
        <time>2019-04-01T17:36:26Z</time>
      </trkpt>
      <trkpt lat="46.61594" lon="5.84601">
        <ele>568</ele>
        <time>2019-04-01T17:37:26Z</time>
      </trkpt>
      <trkpt lat="46.61579" lon="5.84645">
        <ele>565</ele>
        <time>2019-04-01T17:38:26Z</time>
      </trkpt>
      <trkpt lat="46.61543" lon="5.84688">
        <ele>553</ele>
        <time>2019-04-01T17:39:26Z</time>
      </trkpt>
      <trkpt lat="46.6152" lon="5.84746">
        <ele>549</ele>
        <time>2019-04-01T17:40:26Z</time>
      </trkpt>
      <trkpt lat="46.61499" lon="5.84782">
        <ele>545</ele>
        <time>2019-04-01T17:41:26Z</time>
      </trkpt>
      <trkpt lat="46.61479" lon="5.84815">
        <ele>546</ele>
        <time>2019-04-01T17:42:26Z</time>
      </trkpt>
      <trkpt lat="46.61445" lon="5.84846">
        <ele>540</ele>
        <time>2019-04-01T17:43:26Z</time>
      </trkpt>
      <trkpt lat="46.61416" lon="5.84849">
        <ele>529</ele>
        <time>2019-04-01T17:44:26Z</time>
      </trkpt>
      <trkpt lat="46.61408" lon="5.84864">
        <ele>533</ele>
        <time>2019-04-01T17:45:26Z</time>
      </trkpt>
      <trkpt lat="46.61394" lon="5.84904">
        <ele>540</ele>
        <time>2019-04-01T17:46:26Z</time>
      </trkpt>
      <trkpt lat="46.61385" lon="5.84917">
        <ele>541</ele>
        <time>2019-04-01T17:47:26Z</time>
      </trkpt>
      <trkpt lat="46.61381" lon="5.84923">
        <ele>541</ele>
        <time>2019-04-01T17:48:26Z</time>
      </trkpt>
      <trkpt lat="46.61376" lon="5.84939">
        <ele>542</ele>
        <time>2019-04-01T17:49:26Z</time>
      </trkpt>
      <trkpt lat="46.61369" lon="5.84958">
        <ele>543</ele>
        <time>2019-04-01T17:50:26Z</time>
      </trkpt>
      <trkpt lat="46.61361" lon="5.84982">
        <ele>543</ele>
        <time>2019-04-01T17:51:26Z</time>
      </trkpt>
      <trkpt lat="46.61354" lon="5.85008">
        <ele>543</ele>
        <time>2019-04-01T17:52:26Z</time>
      </trkpt>
      <trkpt lat="46.61347" lon="5.85034">
        <ele>542</ele>
        <time>2019-04-01T17:53:26Z</time>
      </trkpt>
      <trkpt lat="46.6134" lon="5.85054">
        <ele>540</ele>
        <time>2019-04-01T17:54:26Z</time>
      </trkpt>
      <trkpt lat="46.61337" lon="5.85072">
        <ele>539</ele>
        <time>2019-04-01T17:55:26Z</time>
      </trkpt>
      <trkpt lat="46.61332" lon="5.85091">
        <ele>540</ele>
        <time>2019-04-01T17:56:26Z</time>
      </trkpt>
      <trkpt lat="46.6133" lon="5.85093">
        <ele>541</ele>
        <time>2019-04-01T17:57:26Z</time>
      </trkpt>
      <trkpt lat="46.61332" lon="5.8513">
        <ele>543</ele>
        <time>2019-04-01T17:58:26Z</time>
      </trkpt>
      <trkpt lat="46.61335" lon="5.85143">
        <ele>544</ele>
        <time>2019-04-01T17:59:26Z</time>
      </trkpt>
      <trkpt lat="46.61344" lon="5.85166">
        <ele>550</ele>
        <time>2019-04-01T18:00:26Z</time>
      </trkpt>
      <trkpt lat="46.61361" lon="5.85212">
        <ele>559</ele>
        <time>2019-04-01T18:01:26Z</time>
      </trkpt>
      <trkpt lat="46.6138" lon="5.85256">
        <ele>565</ele>
        <time>2019-04-01T18:02:26Z</time>
      </trkpt>
      <trkpt lat="46.61398" lon="5.85336">
        <ele>571</ele>
        <time>2019-04-01T18:03:26Z</time>
      </trkpt>
      <trkpt lat="46.61402" lon="5.85372">
        <ele>577</ele>
        <time>2019-04-01T18:04:26Z</time>
      </trkpt>
      <trkpt lat="46.61408" lon="5.854">
        <ele>581</ele>
        <time>2019-04-01T18:05:26Z</time>
      </trkpt>
      <trkpt lat="46.6142" lon="5.85392">
        <ele>580</ele>
        <time>2019-04-01T18:06:26Z</time>
      </trkpt>
      <trkpt lat="46.61427" lon="5.85359">
        <ele>582</ele>
        <time>2019-04-01T18:07:26Z</time>
      </trkpt>
      <trkpt lat="46.61437" lon="5.85354">
        <ele>590</ele>
        <time>2019-04-01T18:08:26Z</time>
      </trkpt>
      <trkpt lat="46.61445" lon="5.85362">
        <ele>598</ele>
        <time>2019-04-01T18:09:26Z</time>
      </trkpt>
      <trkpt lat="46.61443" lon="5.85386">
        <ele>599</ele>
        <time>2019-04-01T18:10:26Z</time>
      </trkpt>
      <trkpt lat="46.61437" lon="5.85416">
        <ele>597</ele>
        <time>2019-04-01T18:11:26Z</time>
      </trkpt>
      <trkpt lat="46.61428" lon="5.85451">
        <ele>598</ele>
        <time>2019-04-01T18:12:26Z</time>
      </trkpt>
      <trkpt lat="46.61416" lon="5.85494">
        <ele>601</ele>
        <time>2019-04-01T18:13:26Z</time>
      </trkpt>
      <trkpt lat="46.6141" lon="5.85536">
        <ele>610</ele>
        <time>2019-04-01T18:14:26Z</time>
      </trkpt>
      <trkpt lat="46.61402" lon="5.85566">
        <ele>618</ele>
        <time>2019-04-01T18:15:26Z</time>
      </trkpt>
      <trkpt lat="46.61383" lon="5.85578">
        <ele>627</ele>
        <time>2019-04-01T18:16:26Z</time>
      </trkpt>
      <trkpt lat="46.61373" lon="5.85586">
        <ele>632</ele>
        <time>2019-04-01T18:17:26Z</time>
      </trkpt>
      <trkpt lat="46.61374" lon="5.85609">
        <ele>637</ele>
        <time>2019-04-01T18:18:26Z</time>
      </trkpt>
      <trkpt lat="46.61385" lon="5.85639">
        <ele>640</ele>
        <time>2019-04-01T18:19:26Z</time>
      </trkpt>
      <trkpt lat="46.61393" lon="5.85685">
        <ele>645</ele>
        <time>2019-04-01T18:20:26Z</time>
      </trkpt>
      <trkpt lat="46.61393" lon="5.85747">
        <ele>654</ele>
        <time>2019-04-01T18:21:26Z</time>
      </trkpt>
      <trkpt lat="46.61408" lon="5.85835">
        <ele>658</ele>
        <time>2019-04-01T18:22:26Z</time>
      </trkpt>
      <trkpt lat="46.61421" lon="5.85904">
        <ele>675</ele>
        <time>2019-04-01T18:23:26Z</time>
      </trkpt>
      <trkpt lat="46.61456" lon="5.86013">
        <ele>700</ele>
        <time>2019-04-01T18:24:26Z</time>
      </trkpt>
      <trkpt lat="46.61472" lon="5.86103">
        <ele>713</ele>
        <time>2019-04-01T18:25:26Z</time>
      </trkpt>
      <trkpt lat="46.61484" lon="5.86163">
        <ele>711</ele>
        <time>2019-04-01T18:26:26Z</time>
      </trkpt>
      <trkpt lat="46.61485" lon="5.8617">
        <ele>710</ele>
        <time>2019-04-01T18:27:26Z</time>
      </trkpt>
      <trkpt lat="46.61494" lon="5.86249">
        <ele>711</ele>
        <time>2019-04-01T18:28:26Z</time>
      </trkpt>
      <trkpt lat="46.61504" lon="5.86407">
        <ele>710</ele>
        <time>2019-04-01T18:29:26Z</time>
      </trkpt>
      <trkpt lat="46.61498" lon="5.86465">
        <ele>710</ele>
        <time>2019-04-01T18:30:26Z</time>
      </trkpt>
      <trkpt lat="46.61493" lon="5.86499">
        <ele>711</ele>
        <time>2019-04-01T18:31:26Z</time>
      </trkpt>
      <trkpt lat="46.61492" lon="5.8654">
        <ele>711</ele>
        <time>2019-04-01T18:32:26Z</time>
      </trkpt>
      <trkpt lat="46.61501" lon="5.86626">
        <ele>706</ele>
        <time>2019-04-01T18:33:26Z</time>
      </trkpt>
      <trkpt lat="46.61499" lon="5.86648">
        <ele>705</ele>
        <time>2019-04-01T18:34:26Z</time>
      </trkpt>
      <trkpt lat="46.61483" lon="5.86688">
        <ele>709</ele>
        <time>2019-04-01T18:35:26Z</time>
      </trkpt>
      <trkpt lat="46.61465" lon="5.86723">
        <ele>713</ele>
        <time>2019-04-01T18:36:26Z</time>
      </trkpt>
      <trkpt lat="46.6144" lon="5.86764">
        <ele>717</ele>
        <time>2019-04-01T18:37:26Z</time>
      </trkpt>
      <trkpt lat="46.6142" lon="5.86803">
        <ele>717</ele>
        <time>2019-04-01T18:38:26Z</time>
      </trkpt>
      <trkpt lat="46.614" lon="5.86817">
        <ele>719</ele>
        <time>2019-04-01T18:39:26Z</time>
      </trkpt>
      <trkpt lat="46.61388" lon="5.86825">
        <ele>721</ele>
        <time>2019-04-01T18:40:26Z</time>
      </trkpt>
      <trkpt lat="46.6139" lon="5.86859">
        <ele>718</ele>
        <time>2019-04-01T18:41:26Z</time>
      </trkpt>
      <trkpt lat="46.61381" lon="5.86883">
        <ele>719</ele>
        <time>2019-04-01T18:42:26Z</time>
      </trkpt>
      <trkpt lat="46.61365" lon="5.86915">
        <ele>720</ele>
        <time>2019-04-01T18:43:26Z</time>
      </trkpt>
      <trkpt lat="46.61339" lon="5.86987">
        <ele>723</ele>
        <time>2019-04-01T18:44:26Z</time>
      </trkpt>
      <trkpt lat="46.61333" lon="5.87041">
        <ele>725</ele>
        <time>2019-04-01T18:45:26Z</time>
      </trkpt>
      <trkpt lat="46.61327" lon="5.87155">
        <ele>724</ele>
        <time>2019-04-01T18:46:26Z</time>
      </trkpt>
      <trkpt lat="46.61326" lon="5.87221">
        <ele>725</ele>
        <time>2019-04-01T18:47:26Z</time>
      </trkpt>
      <trkpt lat="46.61332" lon="5.87273">
        <ele>726</ele>
        <time>2019-04-01T18:48:26Z</time>
      </trkpt>
      <trkpt lat="46.61349" lon="5.87331">
        <ele>728</ele>
        <time>2019-04-01T18:49:26Z</time>
      </trkpt>
      <trkpt lat="46.6136" lon="5.87357">
        <ele>728</ele>
        <time>2019-04-01T18:50:26Z</time>
      </trkpt>
      <trkpt lat="46.61367" lon="5.87384">
        <ele>728</ele>
        <time>2019-04-01T18:51:26Z</time>
      </trkpt>
      <trkpt lat="46.61365" lon="5.8741">
        <ele>729</ele>
        <time>2019-04-01T18:52:26Z</time>
      </trkpt>
      <trkpt lat="46.61354" lon="5.87439">
        <ele>728</ele>
        <time>2019-04-01T18:53:26Z</time>
      </trkpt>
      <trkpt lat="46.61338" lon="5.87468">
        <ele>727</ele>
        <time>2019-04-01T18:54:26Z</time>
      </trkpt>
      <trkpt lat="46.61321" lon="5.87492">
        <ele>729</ele>
        <time>2019-04-01T18:55:26Z</time>
      </trkpt>
      <trkpt lat="46.61296" lon="5.87526">
        <ele>735</ele>
        <time>2019-04-01T18:56:26Z</time>
      </trkpt>
      <trkpt lat="46.61279" lon="5.87553">
        <ele>739</ele>
        <time>2019-04-01T18:57:26Z</time>
      </trkpt>
      <trkpt lat="46.61273" lon="5.87587">
        <ele>739</ele>
        <time>2019-04-01T18:58:26Z</time>
      </trkpt>
      <trkpt lat="46.61265" lon="5.87624">
        <ele>739</ele>
        <time>2019-04-01T18:59:26Z</time>
      </trkpt>
      <trkpt lat="46.6126" lon="5.87666">
        <ele>739</ele>
        <time>2019-04-01T19:00:26Z</time>
      </trkpt>
      <trkpt lat="46.61248" lon="5.87706">
        <ele>738</ele>
        <time>2019-04-01T19:01:26Z</time>
      </trkpt>
      <trkpt lat="46.61237" lon="5.87738">
        <ele>739</ele>
        <time>2019-04-01T19:02:26Z</time>
      </trkpt>
      <trkpt lat="46.61222" lon="5.8777">
        <ele>740</ele>
        <time>2019-04-01T19:03:26Z</time>
      </trkpt>
      <trkpt lat="46.61211" lon="5.87796">
        <ele>741</ele>
        <time>2019-04-01T19:04:26Z</time>
      </trkpt>
      <trkpt lat="46.61201" lon="5.87804">
        <ele>743</ele>
        <time>2019-04-01T19:05:26Z</time>
      </trkpt>
      <trkpt lat="46.61189" lon="5.87803">
        <ele>746</ele>
        <time>2019-04-01T19:06:26Z</time>
      </trkpt>
      <trkpt lat="46.61186" lon="5.87843">
        <ele>742</ele>
        <time>2019-04-01T19:07:26Z</time>
      </trkpt>
      <trkpt lat="46.61186" lon="5.87887">
        <ele>737</ele>
        <time>2019-04-01T19:08:26Z</time>
      </trkpt>
      <trkpt lat="46.61183" lon="5.87929">
        <ele>734</ele>
        <time>2019-04-01T19:09:26Z</time>
      </trkpt>
      <trkpt lat="46.61166" lon="5.87963">
        <ele>733</ele>
        <time>2019-04-01T19:10:26Z</time>
      </trkpt>
      <trkpt lat="46.61153" lon="5.87986">
        <ele>733</ele>
        <time>2019-04-01T19:11:26Z</time>
      </trkpt>
      <trkpt lat="46.61129" lon="5.8803">
        <ele>735</ele>
        <time>2019-04-01T19:12:26Z</time>
      </trkpt>
      <trkpt lat="46.61126" lon="5.88036">
        <ele>736</ele>
        <time>2019-04-01T19:13:26Z</time>
      </trkpt>
      <trkpt lat="46.61115" lon="5.88043">
        <ele>737</ele>
        <time>2019-04-01T19:14:26Z</time>
      </trkpt>
      <trkpt lat="46.61102" lon="5.8805">
        <ele>739</ele>
        <time>2019-04-01T19:15:26Z</time>
      </trkpt>
      <trkpt lat="46.61087" lon="5.88065">
        <ele>741</ele>
        <time>2019-04-01T19:16:26Z</time>
      </trkpt>
      <trkpt lat="46.61081" lon="5.88077">
        <ele>741</ele>
        <time>2019-04-01T19:17:26Z</time>
      </trkpt>
      <trkpt lat="46.61074" lon="5.88111">
        <ele>742</ele>
        <time>2019-04-01T19:18:26Z</time>
      </trkpt>
      <trkpt lat="46.61078" lon="5.88129">
        <ele>741</ele>
        <time>2019-04-01T19:19:26Z</time>
      </trkpt>
      <trkpt lat="46.61084" lon="5.88144">
        <ele>741</ele>
        <time>2019-04-01T19:20:26Z</time>
      </trkpt>
      <trkpt lat="46.61095" lon="5.88152">
        <ele>739</ele>
        <time>2019-04-01T19:21:26Z</time>
      </trkpt>
      <trkpt lat="46.61122" lon="5.88175">
        <ele>736</ele>
        <time>2019-04-01T19:22:26Z</time>
      </trkpt>
      <trkpt lat="46.61133" lon="5.88192">
        <ele>735</ele>
        <time>2019-04-01T19:23:26Z</time>
      </trkpt>
      <trkpt lat="46.61144" lon="5.88212">
        <ele>734</ele>
        <time>2019-04-01T19:24:26Z</time>
      </trkpt>
      <trkpt lat="46.6115" lon="5.88235">
        <ele>734</ele>
        <time>2019-04-01T19:25:26Z</time>
      </trkpt>
      <trkpt lat="46.61161" lon="5.88265">
        <ele>735</ele>
        <time>2019-04-01T19:26:26Z</time>
      </trkpt>
      <trkpt lat="46.61163" lon="5.88273">
        <ele>735</ele>
        <time>2019-04-01T19:27:26Z</time>
      </trkpt>
      <trkpt lat="46.61164" lon="5.88282">
        <ele>736</ele>
        <time>2019-04-01T19:28:26Z</time>
      </trkpt>
      <trkpt lat="46.61164" lon="5.88294">
        <ele>737</ele>
        <time>2019-04-01T19:29:26Z</time>
      </trkpt>
      <trkpt lat="46.6116" lon="5.88309">
        <ele>740</ele>
        <time>2019-04-01T19:30:26Z</time>
      </trkpt>
      <trkpt lat="46.61156" lon="5.88318">
        <ele>742</ele>
        <time>2019-04-01T19:31:26Z</time>
      </trkpt>
      <trkpt lat="46.61153" lon="5.88322">
        <ele>743</ele>
        <time>2019-04-01T19:32:26Z</time>
      </trkpt>
      <trkpt lat="46.6116" lon="5.88326">
        <ele>742</ele>
        <time>2019-04-01T19:33:26Z</time>
      </trkpt>
      <trkpt lat="46.61188" lon="5.88349">
        <ele>744</ele>
        <time>2019-04-01T19:34:26Z</time>
      </trkpt>
      <trkpt lat="46.61196" lon="5.88351">
        <ele>744</ele>
        <time>2019-04-01T19:35:26Z</time>
      </trkpt>
      <trkpt lat="46.61214" lon="5.8836">
        <ele>746</ele>
        <time>2019-04-01T19:36:26Z</time>
      </trkpt>
      <trkpt lat="46.6122" lon="5.88367">
        <ele>747</ele>
        <time>2019-04-01T19:37:26Z</time>
      </trkpt>
      <trkpt lat="46.61225" lon="5.88373">
        <ele>748</ele>
        <time>2019-04-01T19:38:26Z</time>
      </trkpt>
      <trkpt lat="46.6123" lon="5.88377">
        <ele>749</ele>
        <time>2019-04-01T19:39:26Z</time>
      </trkpt>
      <trkpt lat="46.61237" lon="5.8838">
        <ele>749</ele>
        <time>2019-04-01T19:40:26Z</time>
      </trkpt>
      <trkpt lat="46.61245" lon="5.88383">
        <ele>750</ele>
        <time>2019-04-01T19:41:26Z</time>
      </trkpt>
      <trkpt lat="46.61253" lon="5.88385">
        <ele>750</ele>
        <time>2019-04-01T19:42:26Z</time>
      </trkpt>
      <trkpt lat="46.6126" lon="5.88385">
        <ele>749</ele>
        <time>2019-04-01T19:43:26Z</time>
      </trkpt>
      <trkpt lat="46.61267" lon="5.88382">
        <ele>748</ele>
        <time>2019-04-01T19:44:26Z</time>
      </trkpt>
      <trkpt lat="46.61275" lon="5.88375">
        <ele>747</ele>
        <time>2019-04-01T19:45:26Z</time>
      </trkpt>
      <trkpt lat="46.61283" lon="5.88367">
        <ele>745</ele>
        <time>2019-04-01T19:46:26Z</time>
      </trkpt>
      <trkpt lat="46.61293" lon="5.88356">
        <ele>742</ele>
        <time>2019-04-01T19:47:26Z</time>
      </trkpt>
      <trkpt lat="46.61301" lon="5.88353">
        <ele>742</ele>
        <time>2019-04-01T19:48:26Z</time>
      </trkpt>
      <trkpt lat="46.61311" lon="5.88349">
        <ele>741</ele>
        <time>2019-04-01T19:49:26Z</time>
      </trkpt>
      <trkpt lat="46.6132" lon="5.88347">
        <ele>741</ele>
        <time>2019-04-01T19:50:26Z</time>
      </trkpt>
      <trkpt lat="46.61328" lon="5.88345">
        <ele>740</ele>
        <time>2019-04-01T19:51:26Z</time>
      </trkpt>
      <trkpt lat="46.61338" lon="5.88337">
        <ele>740</ele>
        <time>2019-04-01T19:52:26Z</time>
      </trkpt>
      <trkpt lat="46.61358" lon="5.88325">
        <ele>740</ele>
        <time>2019-04-01T19:53:26Z</time>
      </trkpt>
      <trkpt lat="46.61375" lon="5.88309">
        <ele>741</ele>
        <time>2019-04-01T19:54:26Z</time>
      </trkpt>
      <trkpt lat="46.61381" lon="5.88304">
        <ele>742</ele>
        <time>2019-04-01T19:55:26Z</time>
      </trkpt>
      <trkpt lat="46.61389" lon="5.88294">
        <ele>742</ele>
        <time>2019-04-01T19:56:26Z</time>
      </trkpt>
      <trkpt lat="46.61394" lon="5.88291">
        <ele>743</ele>
        <time>2019-04-01T19:57:26Z</time>
      </trkpt>
      <trkpt lat="46.6141" lon="5.88282">
        <ele>745</ele>
        <time>2019-04-01T19:58:26Z</time>
      </trkpt>
      <trkpt lat="46.61418" lon="5.88279">
        <ele>746</ele>
        <time>2019-04-01T19:59:26Z</time>
      </trkpt>
      <trkpt lat="46.61457" lon="5.88257">
        <ele>749</ele>
        <time>2019-04-01T20:00:26Z</time>
      </trkpt>
      <trkpt lat="46.61466" lon="5.88252">
        <ele>750</ele>
        <time>2019-04-01T20:01:26Z</time>
      </trkpt>
      <trkpt lat="46.61486" lon="5.88239">
        <ele>752</ele>
        <time>2019-04-01T20:02:26Z</time>
      </trkpt>
      <trkpt lat="46.6152" lon="5.88216">
        <ele>756</ele>
        <time>2019-04-01T20:03:26Z</time>
      </trkpt>
      <trkpt lat="46.61528" lon="5.88208">
        <ele>756</ele>
        <time>2019-04-01T20:04:26Z</time>
      </trkpt>
      <trkpt lat="46.61542" lon="5.88195">
        <ele>758</ele>
        <time>2019-04-01T20:05:26Z</time>
      </trkpt>
      <trkpt lat="46.61548" lon="5.88192">
        <ele>758</ele>
        <time>2019-04-01T20:06:26Z</time>
      </trkpt>
      <trkpt lat="46.61562" lon="5.88189">
        <ele>759</ele>
        <time>2019-04-01T20:07:26Z</time>
      </trkpt>
      <trkpt lat="46.61579" lon="5.88182">
        <ele>760</ele>
        <time>2019-04-01T20:08:26Z</time>
      </trkpt>
      <trkpt lat="46.61597" lon="5.88173">
        <ele>761</ele>
        <time>2019-04-01T20:09:26Z</time>
      </trkpt>
      <trkpt lat="46.61632" lon="5.88153">
        <ele>764</ele>
        <time>2019-04-01T20:10:26Z</time>
      </trkpt>
      <trkpt lat="46.61642" lon="5.8815">
        <ele>765</ele>
        <time>2019-04-01T20:11:26Z</time>
      </trkpt>
      <trkpt lat="46.61651" lon="5.88145">
        <ele>765</ele>
        <time>2019-04-01T20:12:26Z</time>
      </trkpt>
      <trkpt lat="46.61677" lon="5.88126">
        <ele>767</ele>
        <time>2019-04-01T20:13:26Z</time>
      </trkpt>
      <trkpt lat="46.61688" lon="5.8812">
        <ele>768</ele>
        <time>2019-04-01T20:14:26Z</time>
      </trkpt>
      <trkpt lat="46.61695" lon="5.88122">
        <ele>768</ele>
        <time>2019-04-01T20:15:26Z</time>
      </trkpt>
      <trkpt lat="46.61707" lon="5.88129">
        <ele>768</ele>
        <time>2019-04-01T20:16:26Z</time>
      </trkpt>
      <trkpt lat="46.61718" lon="5.88133">
        <ele>768</ele>
        <time>2019-04-01T20:17:26Z</time>
      </trkpt>
      <trkpt lat="46.61727" lon="5.88134">
        <ele>769</ele>
        <time>2019-04-01T20:18:26Z</time>
      </trkpt>
      <trkpt lat="46.61731" lon="5.88134">
        <ele>769</ele>
        <time>2019-04-01T20:19:26Z</time>
      </trkpt>
      <trkpt lat="46.61742" lon="5.88127">
        <ele>770</ele>
        <time>2019-04-01T20:20:26Z</time>
      </trkpt>
      <trkpt lat="46.61745" lon="5.88124">
        <ele>770</ele>
        <time>2019-04-01T20:21:26Z</time>
      </trkpt>
      <trkpt lat="46.61746" lon="5.88123">
        <ele>770</ele>
        <time>2019-04-01T20:22:26Z</time>
      </trkpt>
      <trkpt lat="46.61753" lon="5.8812">
        <ele>770</ele>
        <time>2019-04-01T20:23:26Z</time>
      </trkpt>
      <trkpt lat="46.6176" lon="5.88121">
        <ele>771</ele>
        <time>2019-04-01T20:24:26Z</time>
      </trkpt>
      <trkpt lat="46.61776" lon="5.88127">
        <ele>771</ele>
        <time>2019-04-01T20:25:26Z</time>
      </trkpt>
      <trkpt lat="46.61805" lon="5.88149">
        <ele>772</ele>
        <time>2019-04-01T20:26:26Z</time>
      </trkpt>
      <trkpt lat="46.61813" lon="5.88145">
        <ele>773</ele>
        <time>2019-04-01T20:27:26Z</time>
      </trkpt>
      <trkpt lat="46.61819" lon="5.88135">
        <ele>774</ele>
        <time>2019-04-01T20:28:26Z</time>
      </trkpt>
      <trkpt lat="46.61819" lon="5.8812">
        <ele>774</ele>
        <time>2019-04-01T20:29:26Z</time>
      </trkpt>
      <trkpt lat="46.61815" lon="5.88075">
        <ele>776</ele>
        <time>2019-04-01T20:30:26Z</time>
      </trkpt>
      <trkpt lat="46.61808" lon="5.88036">
        <ele>774</ele>
        <time>2019-04-01T20:31:26Z</time>
      </trkpt>
      <trkpt lat="46.61805" lon="5.88">
        <ele>772</ele>
        <time>2019-04-01T20:32:26Z</time>
      </trkpt>
      <trkpt lat="46.61802" lon="5.87975">
        <ele>772</ele>
        <time>2019-04-01T20:33:26Z</time>
      </trkpt>
      <trkpt lat="46.6179" lon="5.87976">
        <ele>771</ele>
        <time>2019-04-01T20:34:26Z</time>
      </trkpt>
      <trkpt lat="46.61782" lon="5.87978">
        <ele>769</ele>
        <time>2019-04-01T20:35:26Z</time>
      </trkpt>
      <trkpt lat="46.61757" lon="5.87985">
        <ele>766</ele>
        <time>2019-04-01T20:36:26Z</time>
      </trkpt>
      <trkpt lat="46.61736" lon="5.8799">
        <ele>765</ele>
        <time>2019-04-01T20:37:26Z</time>
      </trkpt>
      <trkpt lat="46.61726" lon="5.87985">
        <ele>765</ele>
        <time>2019-04-01T20:38:26Z</time>
      </trkpt>
      <trkpt lat="46.61721" lon="5.8798">
        <ele>764</ele>
        <time>2019-04-01T20:39:26Z</time>
      </trkpt>
      <trkpt lat="46.61714" lon="5.8797">
        <ele>763</ele>
        <time>2019-04-01T20:40:26Z</time>
      </trkpt>
      <trkpt lat="46.61707" lon="5.87958">
        <ele>762</ele>
        <time>2019-04-01T20:41:26Z</time>
      </trkpt>
      <trkpt lat="46.61697" lon="5.87928">
        <ele>758</ele>
        <time>2019-04-01T20:42:26Z</time>
      </trkpt>
      <trkpt lat="46.61687" lon="5.87905">
        <ele>756</ele>
        <time>2019-04-01T20:43:26Z</time>
      </trkpt>
      <trkpt lat="46.61657" lon="5.87827">
        <ele>753</ele>
        <time>2019-04-01T20:44:26Z</time>
      </trkpt>
      <trkpt lat="46.61652" lon="5.87818">
        <ele>753</ele>
        <time>2019-04-01T20:45:26Z</time>
      </trkpt>
      <trkpt lat="46.61636" lon="5.87804">
        <ele>753</ele>
        <time>2019-04-01T20:46:26Z</time>
      </trkpt>
      <trkpt lat="46.61639" lon="5.8779">
        <ele>754</ele>
        <time>2019-04-01T20:47:26Z</time>
      </trkpt>
      <trkpt lat="46.61603" lon="5.87694">
        <ele>753</ele>
        <time>2019-04-01T20:48:26Z</time>
      </trkpt>
      <trkpt lat="46.61571" lon="5.87638">
        <ele>749</ele>
        <time>2019-04-01T20:49:26Z</time>
      </trkpt>
      <trkpt lat="46.61509" lon="5.87586">
        <ele>742</ele>
        <time>2019-04-01T20:50:26Z</time>
      </trkpt>
      <trkpt lat="46.6141" lon="5.87557">
        <ele>732</ele>
        <time>2019-04-01T20:51:26Z</time>
      </trkpt>
      <trkpt lat="46.61396" lon="5.87544">
        <ele>731</ele>
        <time>2019-04-01T20:52:26Z</time>
      </trkpt>
      <trkpt lat="46.61391" lon="5.87534">
        <ele>730</ele>
        <time>2019-04-01T20:53:26Z</time>
      </trkpt>
      <trkpt lat="46.6139" lon="5.87528">
        <ele>729</ele>
        <time>2019-04-01T20:54:26Z</time>
      </trkpt>
      <trkpt lat="46.61389" lon="5.87523">
        <ele>729</ele>
        <time>2019-04-01T20:55:26Z</time>
      </trkpt>
      <trkpt lat="46.6139" lon="5.87517">
        <ele>729</ele>
        <time>2019-04-01T20:56:26Z</time>
      </trkpt>
      <trkpt lat="46.61392" lon="5.87507">
        <ele>728</ele>
        <time>2019-04-01T20:57:26Z</time>
      </trkpt>
      <trkpt lat="46.61387" lon="5.87514">
        <ele>728</ele>
        <time>2019-04-01T20:58:26Z</time>
      </trkpt>
      <trkpt lat="46.61381" lon="5.8752">
        <ele>728</ele>
        <time>2019-04-01T20:59:26Z</time>
      </trkpt>
      <trkpt lat="46.61377" lon="5.87523">
        <ele>728</ele>
        <time>2019-04-01T21:00:26Z</time>
      </trkpt>
      <trkpt lat="46.6137" lon="5.87524">
        <ele>728</ele>
        <time>2019-04-01T21:01:26Z</time>
      </trkpt>
      <trkpt lat="46.61354" lon="5.87521">
        <ele>727</ele>
        <time>2019-04-01T21:02:26Z</time>
      </trkpt>
      <trkpt lat="46.61342" lon="5.87474">
        <ele>727</ele>
        <time>2019-04-01T21:03:26Z</time>
      </trkpt>
      <trkpt lat="46.6137" lon="5.87416">
        <ele>729</ele>
        <time>2019-04-01T21:04:26Z</time>
      </trkpt>
      <trkpt lat="46.61371" lon="5.87378">
        <ele>728</ele>
        <time>2019-04-01T21:05:26Z</time>
      </trkpt>
      <trkpt lat="46.61337" lon="5.87274">
        <ele>725</ele>
        <time>2019-04-01T21:06:26Z</time>
      </trkpt>
      <trkpt lat="46.6133" lon="5.87221">
        <ele>724</ele>
        <time>2019-04-01T21:07:26Z</time>
      </trkpt>
      <trkpt lat="46.61343" lon="5.8699">
        <ele>723</ele>
        <time>2019-04-01T21:08:26Z</time>
      </trkpt>
      <trkpt lat="46.61395" lon="5.86862">
        <ele>717</ele>
        <time>2019-04-01T21:09:26Z</time>
      </trkpt>
      <trkpt lat="46.61392" lon="5.86831">
        <ele>719</ele>
        <time>2019-04-01T21:10:26Z</time>
      </trkpt>
      <trkpt lat="46.61413" lon="5.86824">
        <ele>716</ele>
        <time>2019-04-01T21:11:26Z</time>
      </trkpt>
      <trkpt lat="46.61476" lon="5.86713">
        <ele>710</ele>
        <time>2019-04-01T21:12:26Z</time>
      </trkpt>
      <trkpt lat="46.61503" lon="5.86649">
        <ele>705</ele>
        <time>2019-04-01T21:13:26Z</time>
      </trkpt>
      <trkpt lat="46.61523" lon="5.86653">
        <ele>706</ele>
        <time>2019-04-01T21:14:26Z</time>
      </trkpt>
      <trkpt lat="46.61544" lon="5.86638">
        <ele>707</ele>
        <time>2019-04-01T21:15:26Z</time>
      </trkpt>
      <trkpt lat="46.61579" lon="5.86557">
        <ele>711</ele>
        <time>2019-04-01T21:16:26Z</time>
      </trkpt>
      <trkpt lat="46.61607" lon="5.86518">
        <ele>717</ele>
        <time>2019-04-01T21:17:26Z</time>
      </trkpt>
      <trkpt lat="46.61626" lon="5.86472">
        <ele>723</ele>
        <time>2019-04-01T21:18:26Z</time>
      </trkpt>
      <trkpt lat="46.61655" lon="5.86356">
        <ele>737</ele>
        <time>2019-04-01T21:19:26Z</time>
      </trkpt>
      <trkpt lat="46.61663" lon="5.8633">
        <ele>742</ele>
        <time>2019-04-01T21:20:26Z</time>
      </trkpt>
      <trkpt lat="46.61672" lon="5.86273">
        <ele>748</ele>
        <time>2019-04-01T21:21:26Z</time>
      </trkpt>
      <trkpt lat="46.61675" lon="5.86244">
        <ele>750</ele>
        <time>2019-04-01T21:22:26Z</time>
      </trkpt>
      <trkpt lat="46.61683" lon="5.86225">
        <ele>753</ele>
        <time>2019-04-01T21:23:26Z</time>
      </trkpt>
      <trkpt lat="46.61692" lon="5.86193">
        <ele>757</ele>
        <time>2019-04-01T21:24:26Z</time>
      </trkpt>
      <trkpt lat="46.6169" lon="5.86178">
        <ele>757</ele>
        <time>2019-04-01T21:25:26Z</time>
      </trkpt>
      <trkpt lat="46.61676" lon="5.86165">
        <ele>755</ele>
        <time>2019-04-01T21:26:26Z</time>
      </trkpt>
      <trkpt lat="46.61661" lon="5.86143">
        <ele>753</ele>
        <time>2019-04-01T21:27:26Z</time>
      </trkpt>
      <trkpt lat="46.61646" lon="5.8614">
        <ele>748</ele>
        <time>2019-04-01T21:28:26Z</time>
      </trkpt>
      <trkpt lat="46.6164" lon="5.8617">
        <ele>744</ele>
        <time>2019-04-01T21:29:26Z</time>
      </trkpt>
      <trkpt lat="46.61615" lon="5.86205">
        <ele>733</ele>
        <time>2019-04-01T21:30:26Z</time>
      </trkpt>
      <trkpt lat="46.61602" lon="5.86202">
        <ele>729</ele>
        <time>2019-04-01T21:31:26Z</time>
      </trkpt>
      <trkpt lat="46.61592" lon="5.86141">
        <ele>731</ele>
        <time>2019-04-01T21:32:26Z</time>
      </trkpt>
      <trkpt lat="46.61593" lon="5.86066">
        <ele>735</ele>
        <time>2019-04-01T21:33:26Z</time>
      </trkpt>
      <trkpt lat="46.61597" lon="5.85952">
        <ele>739</ele>
        <time>2019-04-01T21:34:26Z</time>
      </trkpt>
      <trkpt lat="46.61615" lon="5.8583">
        <ele>754</ele>
        <time>2019-04-01T21:35:26Z</time>
      </trkpt>
      <trkpt lat="46.61606" lon="5.858">
        <ele>752</ele>
        <time>2019-04-01T21:36:26Z</time>
      </trkpt>
      <trkpt lat="46.61605" lon="5.85769">
        <ele>753</ele>
        <time>2019-04-01T21:37:26Z</time>
      </trkpt>
      <trkpt lat="46.61616" lon="5.85727">
        <ele>757</ele>
        <time>2019-04-01T21:38:26Z</time>
      </trkpt>
      <trkpt lat="46.61612" lon="5.85697">
        <ele>757</ele>
        <time>2019-04-01T21:39:26Z</time>
      </trkpt>
      <trkpt lat="46.61596" lon="5.85647">
        <ele>755</ele>
        <time>2019-04-01T21:40:26Z</time>
      </trkpt>
      <trkpt lat="46.61585" lon="5.85601">
        <ele>752</ele>
        <time>2019-04-01T21:41:26Z</time>
      </trkpt>
      <trkpt lat="46.61583" lon="5.85569">
        <ele>747</ele>
        <time>2019-04-01T21:42:26Z</time>
      </trkpt>
      <trkpt lat="46.61582" lon="5.85535">
        <ele>738</ele>
        <time>2019-04-01T21:43:26Z</time>
      </trkpt>
      <trkpt lat="46.61585" lon="5.85461">
        <ele>727</ele>
        <time>2019-04-01T21:44:26Z</time>
      </trkpt>
      <trkpt lat="46.616" lon="5.85327">
        <ele>725</ele>
        <time>2019-04-01T21:45:26Z</time>
      </trkpt>
      <trkpt lat="46.61615" lon="5.85291">
        <ele>734</ele>
        <time>2019-04-01T21:46:26Z</time>
      </trkpt>
      <trkpt lat="46.61634" lon="5.85271">
        <ele>745</ele>
        <time>2019-04-01T21:47:26Z</time>
      </trkpt>
      <trkpt lat="46.61653" lon="5.85252">
        <ele>753</ele>
        <time>2019-04-01T21:48:26Z</time>
      </trkpt>
      <trkpt lat="46.61673" lon="5.85215">
        <ele>758</ele>
        <time>2019-04-01T21:49:26Z</time>
      </trkpt>
      <trkpt lat="46.61656" lon="5.85212">
        <ele>752</ele>
        <time>2019-04-01T21:50:26Z</time>
      </trkpt>
      <trkpt lat="46.61638" lon="5.85228">
        <ele>744</ele>
        <time>2019-04-01T21:51:26Z</time>
      </trkpt>
      <trkpt lat="46.61633" lon="5.8521">
        <ele>742</ele>
        <time>2019-04-01T21:52:26Z</time>
      </trkpt>
      <trkpt lat="46.61634" lon="5.85178">
        <ele>741</ele>
        <time>2019-04-01T21:53:26Z</time>
      </trkpt>
      <trkpt lat="46.61641" lon="5.85152">
        <ele>741</ele>
        <time>2019-04-01T21:54:26Z</time>
      </trkpt>
      <trkpt lat="46.61652" lon="5.85122">
        <ele>741</ele>
        <time>2019-04-01T21:55:26Z</time>
      </trkpt>
      <trkpt lat="46.61676" lon="5.851">
        <ele>744</ele>
        <time>2019-04-01T21:56:26Z</time>
      </trkpt>
      <trkpt lat="46.61723" lon="5.85058">
        <ele>742</ele>
        <time>2019-04-01T21:57:26Z</time>
      </trkpt>
      <trkpt lat="46.61778" lon="5.85038">
        <ele>746</ele>
        <time>2019-04-01T21:58:26Z</time>
      </trkpt>
      <trkpt lat="46.61834" lon="5.85015">
        <ele>750</ele>
        <time>2019-04-01T21:59:26Z</time>
      </trkpt>
      <trkpt lat="46.61851" lon="5.84988">
        <ele>749</ele>
        <time>2019-04-01T22:00:26Z</time>
      </trkpt>
      <trkpt lat="46.61861" lon="5.84929">
        <ele>742</ele>
        <time>2019-04-01T22:01:26Z</time>
      </trkpt>
      <trkpt lat="46.61856" lon="5.84891">
        <ele>736</ele>
        <time>2019-04-01T22:02:26Z</time>
      </trkpt>
      <trkpt lat="46.61868" lon="5.84842">
        <ele>731</ele>
        <time>2019-04-01T22:03:26Z</time>
      </trkpt>
      <trkpt lat="46.61859" lon="5.84831">
        <ele>728</ele>
        <time>2019-04-01T22:04:26Z</time>
      </trkpt>
      <trkpt lat="46.61861" lon="5.84811">
        <ele>728</ele>
        <time>2019-04-01T22:05:26Z</time>
      </trkpt>
      <trkpt lat="46.61874" lon="5.848">
        <ele>730</ele>
        <time>2019-04-01T22:06:26Z</time>
      </trkpt>
      <trkpt lat="46.61881" lon="5.84767">
        <ele>730</ele>
        <time>2019-04-01T22:07:26Z</time>
      </trkpt>
      <trkpt lat="46.61884" lon="5.8473">
        <ele>729</ele>
        <time>2019-04-01T22:08:26Z</time>
      </trkpt>
      <trkpt lat="46.61874" lon="5.84699">
        <ele>726</ele>
        <time>2019-04-01T22:09:26Z</time>
      </trkpt>
      <trkpt lat="46.6188" lon="5.84674">
        <ele>726</ele>
        <time>2019-04-01T22:10:26Z</time>
      </trkpt>
      <trkpt lat="46.61867" lon="5.84612">
        <ele>723</ele>
        <time>2019-04-01T22:11:26Z</time>
      </trkpt>
      <trkpt lat="46.61871" lon="5.8457">
        <ele>723</ele>
        <time>2019-04-01T22:12:26Z</time>
      </trkpt>
      <trkpt lat="46.61921" lon="5.84475">
        <ele>731</ele>
        <time>2019-04-01T22:13:26Z</time>
      </trkpt>
      <trkpt lat="46.61926" lon="5.84431">
        <ele>733</ele>
        <time>2019-04-01T22:14:26Z</time>
      </trkpt>
      <trkpt lat="46.61923" lon="5.8438">
        <ele>733</ele>
        <time>2019-04-01T22:15:26Z</time>
      </trkpt>
      <trkpt lat="46.61907" lon="5.84294">
        <ele>731</ele>
        <time>2019-04-01T22:16:26Z</time>
      </trkpt>
      <trkpt lat="46.61907" lon="5.84224">
        <ele>730</ele>
        <time>2019-04-01T22:17:26Z</time>
      </trkpt>
      <trkpt lat="46.61919" lon="5.84183">
        <ele>730</ele>
        <time>2019-04-01T22:18:26Z</time>
      </trkpt>
      <trkpt lat="46.61903" lon="5.84176">
        <ele>728</ele>
        <time>2019-04-01T22:19:26Z</time>
      </trkpt>
      <trkpt lat="46.6188" lon="5.84147">
        <ele>725</ele>
        <time>2019-04-01T22:20:26Z</time>
      </trkpt>
      <trkpt lat="46.61878" lon="5.84116">
        <ele>723</ele>
        <time>2019-04-01T22:21:26Z</time>
      </trkpt>
      <trkpt lat="46.61891" lon="5.84069">
        <ele>723</ele>
        <time>2019-04-01T22:22:26Z</time>
      </trkpt>
      <trkpt lat="46.61901" lon="5.84059">
        <ele>724</ele>
        <time>2019-04-01T22:23:26Z</time>
      </trkpt>
      <trkpt lat="46.61915" lon="5.84035">
        <ele>724</ele>
        <time>2019-04-01T22:24:26Z</time>
      </trkpt>
      <trkpt lat="46.61921" lon="5.84021">
        <ele>724</ele>
        <time>2019-04-01T22:25:26Z</time>
      </trkpt>
      <trkpt lat="46.61931" lon="5.83984">
        <ele>723</ele>
        <time>2019-04-01T22:26:26Z</time>
      </trkpt>
      <trkpt lat="46.61969" lon="5.83993">
        <ele>725</ele>
        <time>2019-04-01T22:27:26Z</time>
      </trkpt>
      <trkpt lat="46.61974" lon="5.83959">
        <ele>724</ele>
        <time>2019-04-01T22:28:26Z</time>
      </trkpt>
      <trkpt lat="46.61976" lon="5.83942">
        <ele>724</ele>
        <time>2019-04-01T22:29:26Z</time>
      </trkpt>
      <trkpt lat="46.61983" lon="5.83933">
        <ele>725</ele>
        <time>2019-04-01T22:30:26Z</time>
      </trkpt>
      <trkpt lat="46.6199" lon="5.83907">
        <ele>724</ele>
        <time>2019-04-01T22:31:26Z</time>
      </trkpt>
      <trkpt lat="46.61984" lon="5.8388">
        <ele>722</ele>
        <time>2019-04-01T22:32:26Z</time>
      </trkpt>
      <trkpt lat="46.61978" lon="5.83838">
        <ele>719</ele>
        <time>2019-04-01T22:33:26Z</time>
      </trkpt>
      <trkpt lat="46.61978" lon="5.83799">
        <ele>716</ele>
        <time>2019-04-01T22:34:26Z</time>
      </trkpt>
      <trkpt lat="46.61974" lon="5.83755">
        <ele>712</ele>
        <time>2019-04-01T22:35:26Z</time>
      </trkpt>
      <trkpt lat="46.61978" lon="5.83727">
        <ele>712</ele>
        <time>2019-04-01T22:36:26Z</time>
      </trkpt>
      <trkpt lat="46.61979" lon="5.83707">
        <ele>711</ele>
        <time>2019-04-01T22:37:26Z</time>
      </trkpt>
      <trkpt lat="46.6198" lon="5.83695">
        <ele>710</ele>
        <time>2019-04-01T22:38:26Z</time>
      </trkpt>
      <trkpt lat="46.6198" lon="5.83667">
        <ele>709</ele>
        <time>2019-04-01T22:39:26Z</time>
      </trkpt>
      <trkpt lat="46.61979" lon="5.83656">
        <ele>709</ele>
        <time>2019-04-01T22:40:26Z</time>
      </trkpt>
      <trkpt lat="46.61974" lon="5.83628">
        <ele>707</ele>
        <time>2019-04-01T22:41:26Z</time>
      </trkpt>
      <trkpt lat="46.61979" lon="5.83624">
        <ele>708</ele>
        <time>2019-04-01T22:42:26Z</time>
      </trkpt>
      <trkpt lat="46.61982" lon="5.83622">
        <ele>708</ele>
        <time>2019-04-01T22:43:26Z</time>
      </trkpt>
      <trkpt lat="46.61985" lon="5.83594">
        <ele>707</ele>
        <time>2019-04-01T22:44:26Z</time>
      </trkpt>
      <trkpt lat="46.61992" lon="5.83549">
        <ele>707</ele>
        <time>2019-04-01T22:45:26Z</time>
      </trkpt>
      <trkpt lat="46.61995" lon="5.83537">
        <ele>707</ele>
        <time>2019-04-01T22:46:26Z</time>
      </trkpt>
      <trkpt lat="46.6201" lon="5.83498">
        <ele>708</ele>
        <time>2019-04-01T22:47:26Z</time>
      </trkpt>
      <trkpt lat="46.62027" lon="5.83464">
        <ele>707</ele>
        <time>2019-04-01T22:48:26Z</time>
      </trkpt>
      <trkpt lat="46.62032" lon="5.83456">
        <ele>707</ele>
        <time>2019-04-01T22:49:26Z</time>
      </trkpt>
      <trkpt lat="46.62048" lon="5.83429">
        <ele>707</ele>
        <time>2019-04-01T22:50:26Z</time>
      </trkpt>
      <trkpt lat="46.62059" lon="5.83414">
        <ele>707</ele>
        <time>2019-04-01T22:51:26Z</time>
      </trkpt>
      <trkpt lat="46.62067" lon="5.83405">
        <ele>708</ele>
        <time>2019-04-01T22:52:26Z</time>
      </trkpt>
      <trkpt lat="46.62074" lon="5.83394">
        <ele>708</ele>
        <time>2019-04-01T22:53:26Z</time>
      </trkpt>
      <trkpt lat="46.62084" lon="5.83377">
        <ele>708</ele>
        <time>2019-04-01T22:54:26Z</time>
      </trkpt>
      <trkpt lat="46.621" lon="5.83358">
        <ele>708</ele>
        <time>2019-04-01T22:55:26Z</time>
      </trkpt>
      <trkpt lat="46.62107" lon="5.83337">
        <ele>707</ele>
        <time>2019-04-01T22:56:26Z</time>
      </trkpt>
      <trkpt lat="46.62118" lon="5.83319">
        <ele>707</ele>
        <time>2019-04-01T22:57:26Z</time>
      </trkpt>
      <trkpt lat="46.62157" lon="5.83304">
        <ele>709</ele>
        <time>2019-04-01T22:58:26Z</time>
      </trkpt>
      <trkpt lat="46.6218" lon="5.83284">
        <ele>709</ele>
        <time>2019-04-01T22:59:26Z</time>
      </trkpt>
      <trkpt lat="46.62197" lon="5.83252">
        <ele>707</ele>
        <time>2019-04-01T23:00:26Z</time>
      </trkpt>
      <trkpt lat="46.62202" lon="5.83216">
        <ele>703</ele>
        <time>2019-04-01T23:01:26Z</time>
      </trkpt>
      <trkpt lat="46.62196" lon="5.83168">
        <ele>698</ele>
        <time>2019-04-01T23:02:26Z</time>
      </trkpt>
      <trkpt lat="46.62197" lon="5.83125">
        <ele>693</ele>
        <time>2019-04-01T23:03:26Z</time>
      </trkpt>
      <trkpt lat="46.62211" lon="5.83078">
        <ele>690</ele>
        <time>2019-04-01T23:04:26Z</time>
      </trkpt>
      <trkpt lat="46.62225" lon="5.83054">
        <ele>690</ele>
        <time>2019-04-01T23:05:26Z</time>
      </trkpt>
      <trkpt lat="46.62252" lon="5.83009">
        <ele>687</ele>
        <time>2019-04-01T23:06:26Z</time>
      </trkpt>
      <trkpt lat="46.62282" lon="5.82968">
        <ele>683</ele>
        <time>2019-04-01T23:07:26Z</time>
      </trkpt>
      <trkpt lat="46.62308" lon="5.82952">
        <ele>681</ele>
        <time>2019-04-01T23:08:26Z</time>
      </trkpt>
      <trkpt lat="46.62337" lon="5.82936">
        <ele>679</ele>
        <time>2019-04-01T23:09:26Z</time>
      </trkpt>
      <trkpt lat="46.6234" lon="5.82898">
        <ele>674</ele>
        <time>2019-04-01T23:10:26Z</time>
      </trkpt>
    </trkseg>
  </trk>
  <trk>
    <name><![CDATA[J3a - Pic de l'Aigle et belvedere des 4 lacs _C]]></name>
    <trkseg>
      <trkpt lat="46.61385" lon="5.90296">
        <ele>945.11</ele>
        <time>2019-11-12T09:00:52Z</time>
      </trkpt>
      <trkpt lat="46.61399" lon="5.90286">
        <ele>948.2</ele>
        <time>2019-11-12T09:01:10Z</time>
      </trkpt>
      <trkpt lat="46.61402" lon="5.90283">
        <ele>949.6</ele>
        <time>2019-11-12T09:01:16Z</time>
      </trkpt>
      <trkpt lat="46.61403" lon="5.90282">
        <ele>949.18</ele>
        <time>2019-11-12T09:01:18Z</time>
      </trkpt>
      <trkpt lat="46.61412" lon="5.9028">
        <ele>952.02</ele>
        <time>2019-11-12T09:01:42Z</time>
      </trkpt>
      <trkpt lat="46.61417" lon="5.90281">
        <ele>954.77</ele>
        <time>2019-11-12T09:02:00Z</time>
      </trkpt>
      <trkpt lat="46.61425" lon="5.90279">
        <ele>957.02</ele>
        <time>2019-11-12T09:02:16Z</time>
      </trkpt>
      <trkpt lat="46.61429" lon="5.9028">
        <ele>960.06</ele>
        <time>2019-11-12T09:02:31Z</time>
      </trkpt>
      <trkpt lat="46.61431" lon="5.9028">
        <ele>960.83</ele>
        <time>2019-11-12T09:02:38Z</time>
      </trkpt>
      <trkpt lat="46.61437" lon="5.90273">
        <ele>964.36</ele>
        <time>2019-11-12T09:03:04Z</time>
      </trkpt>
      <trkpt lat="46.61434" lon="5.90261">
        <ele>967.4</ele>
        <time>2019-11-12T09:03:22Z</time>
      </trkpt>
      <trkpt lat="46.61434" lon="5.90252">
        <ele>967.41</ele>
        <time>2019-11-12T09:03:44Z</time>
      </trkpt>
      <trkpt lat="46.61436" lon="5.90247">
        <ele>970.47</ele>
        <time>2019-11-12T09:04:06Z</time>
      </trkpt>
      <trkpt lat="46.61446" lon="5.90237">
        <ele>973.7</ele>
        <time>2019-11-12T09:04:29Z</time>
      </trkpt>
      <trkpt lat="46.61453" lon="5.90232">
        <ele>976.8</ele>
        <time>2019-11-12T09:04:46Z</time>
      </trkpt>
      <trkpt lat="46.61458" lon="5.90228">
        <ele>979.44</ele>
        <time>2019-11-12T09:05:07Z</time>
      </trkpt>
      <trkpt lat="46.61463" lon="5.90225">
        <ele>982.52</ele>
        <time>2019-11-12T09:05:20Z</time>
      </trkpt>
      <trkpt lat="46.61464" lon="5.90224">
        <ele>984.3</ele>
        <time>2019-11-12T09:05:39Z</time>
      </trkpt>
      <trkpt lat="46.61469" lon="5.90216">
        <ele>986.21</ele>
        <time>2019-11-12T09:05:58Z</time>
      </trkpt>
      <trkpt lat="46.61467" lon="5.9022">
        <ele>987.81</ele>
        <time>2019-11-12T09:06:12Z</time>
      </trkpt>
      <trkpt lat="46.61469" lon="5.90229">
        <ele>990.7</ele>
        <time>2019-11-12T09:06:35Z</time>
      </trkpt>
      <trkpt lat="46.61472" lon="5.90232">
        <ele>992.94</ele>
        <time>2019-11-12T09:06:57Z</time>
      </trkpt>
      <trkpt lat="46.61472" lon="5.90235">
        <ele>993.47</ele>
        <time>2019-11-12T09:07:27Z</time>
      </trkpt>
      <trkpt lat="46.61473" lon="5.90236">
        <ele>992.94</ele>
        <time>2019-11-12T09:07:51Z</time>
      </trkpt>
      <trkpt lat="46.61473" lon="5.90235">
        <ele>992.09</ele>
        <time>2019-11-12T09:08:12Z</time>
      </trkpt>
      <trkpt lat="46.61472" lon="5.90234">
        <ele>992.65</ele>
        <time>2019-11-12T09:08:35Z</time>
      </trkpt>
      <trkpt lat="46.61472" lon="5.90233">
        <ele>992.5</ele>
        <time>2019-11-12T09:09:01Z</time>
      </trkpt>
      <trkpt lat="46.61472" lon="5.90235">
        <ele>991.77</ele>
        <time>2019-11-12T09:09:24Z</time>
      </trkpt>
      <trkpt lat="46.61474" lon="5.90236">
        <ele>992.28</ele>
        <time>2019-11-12T09:09:48Z</time>
      </trkpt>
      <trkpt lat="46.61473" lon="5.90236">
        <ele>991.54</ele>
        <time>2019-11-12T09:10:16Z</time>
      </trkpt>
      <trkpt lat="46.61473" lon="5.90237">
        <ele>991.28</ele>
        <time>2019-11-12T09:10:54Z</time>
      </trkpt>
      <trkpt lat="46.61474" lon="5.90238">
        <ele>990.72</ele>
        <time>2019-11-12T09:11:19Z</time>
      </trkpt>
      <trkpt lat="46.61477" lon="5.90235">
        <ele>990.46</ele>
        <time>2019-11-12T09:11:40Z</time>
      </trkpt>
      <trkpt lat="46.61476" lon="5.90239">
        <ele>990.5</ele>
        <time>2019-11-12T09:12:08Z</time>
      </trkpt>
      <trkpt lat="46.61477" lon="5.90241">
        <ele>990.27</ele>
        <time>2019-11-12T09:12:35Z</time>
      </trkpt>
      <trkpt lat="46.61476" lon="5.90237">
        <ele>990.31</ele>
        <time>2019-11-12T09:12:54Z</time>
      </trkpt>
      <trkpt lat="46.61477" lon="5.90235">
        <ele>990.12</ele>
        <time>2019-11-12T09:13:14Z</time>
      </trkpt>
      <trkpt lat="46.61477" lon="5.90233">
        <ele>989.89</ele>
        <time>2019-11-12T09:13:31Z</time>
      </trkpt>
      <trkpt lat="46.61476" lon="5.90234">
        <ele>990.32</ele>
        <time>2019-11-12T09:13:49Z</time>
      </trkpt>
      <trkpt lat="46.61475" lon="5.90234">
        <ele>989.77</ele>
        <time>2019-11-12T09:14:11Z</time>
      </trkpt>
      <trkpt lat="46.61475" lon="5.90235">
        <ele>989.52</ele>
        <time>2019-11-12T09:14:39Z</time>
      </trkpt>
      <trkpt lat="46.61475" lon="5.90236">
        <ele>989.38</ele>
        <time>2019-11-12T09:15:10Z</time>
      </trkpt>
      <trkpt lat="46.61475" lon="5.90236">
        <ele>989.26</ele>
        <time>2019-11-12T09:15:49Z</time>
      </trkpt>
      <trkpt lat="46.61474" lon="5.90236">
        <ele>989.7</ele>
        <time>2019-11-12T09:16:17Z</time>
      </trkpt>
      <trkpt lat="46.61474" lon="5.90238">
        <ele>988.76</ele>
        <time>2019-11-12T09:16:49Z</time>
      </trkpt>
      <trkpt lat="46.61474" lon="5.90235">
        <ele>988.66</ele>
        <time>2019-11-12T09:17:16Z</time>
      </trkpt>
      <trkpt lat="46.61474" lon="5.90235">
        <ele>989.63</ele>
        <time>2019-11-12T09:17:34Z</time>
      </trkpt>
      <trkpt lat="46.61475" lon="5.90233">
        <ele>988.96</ele>
        <time>2019-11-12T09:18:00Z</time>
      </trkpt>
      <trkpt lat="46.61475" lon="5.90235">
        <ele>988.52</ele>
        <time>2019-11-12T09:18:19Z</time>
      </trkpt>
      <trkpt lat="46.61475" lon="5.90236">
        <ele>989.91</ele>
        <time>2019-11-12T09:18:49Z</time>
      </trkpt>
      <trkpt lat="46.61473" lon="5.90235">
        <ele>989.07</ele>
        <time>2019-11-12T09:19:07Z</time>
      </trkpt>
      <trkpt lat="46.61474" lon="5.90235">
        <ele>989.13</ele>
        <time>2019-11-12T09:19:30Z</time>
      </trkpt>
      <trkpt lat="46.61475" lon="5.90237">
        <ele>988.88</ele>
        <time>2019-11-12T09:19:46Z</time>
      </trkpt>
      <trkpt lat="46.61475" lon="5.9024">
        <ele>989.62</ele>
        <time>2019-11-12T09:19:50Z</time>
      </trkpt>
      <trkpt lat="46.61484" lon="5.90249">
        <ele>989.81</ele>
        <time>2019-11-12T09:20:08Z</time>
      </trkpt>
      <trkpt lat="46.61489" lon="5.9025">
        <ele>991.37</ele>
        <time>2019-11-12T09:20:12Z</time>
      </trkpt>
      <trkpt lat="46.61491" lon="5.9025">
        <ele>991.41</ele>
        <time>2019-11-12T09:20:14Z</time>
      </trkpt>
      <trkpt lat="46.61502" lon="5.90254">
        <ele>990.66</ele>
        <time>2019-11-12T09:20:31Z</time>
      </trkpt>
      <trkpt lat="46.61505" lon="5.90267">
        <ele>988.97</ele>
        <time>2019-11-12T09:20:47Z</time>
      </trkpt>
      <trkpt lat="46.61506" lon="5.90268">
        <ele>987.63</ele>
        <time>2019-11-12T09:20:50Z</time>
      </trkpt>
      <trkpt lat="46.6152" lon="5.90276">
        <ele>988</ele>
        <time>2019-11-12T09:21:08Z</time>
      </trkpt>
      <trkpt lat="46.61522" lon="5.90277">
        <ele>988.58</ele>
        <time>2019-11-12T09:21:11Z</time>
      </trkpt>
      <trkpt lat="46.61529" lon="5.90284">
        <ele>991.27</ele>
        <time>2019-11-12T09:21:24Z</time>
      </trkpt>
      <trkpt lat="46.61532" lon="5.90295">
        <ele>991.64</ele>
        <time>2019-11-12T09:21:44Z</time>
      </trkpt>
      <trkpt lat="46.61536" lon="5.90299">
        <ele>992</ele>
        <time>2019-11-12T09:22:03Z</time>
      </trkpt>
      <trkpt lat="46.61546" lon="5.90312">
        <ele>990.03</ele>
        <time>2019-11-12T09:22:23Z</time>
      </trkpt>
      <trkpt lat="46.61555" lon="5.90324">
        <ele>986.83</ele>
        <time>2019-11-12T09:22:38Z</time>
      </trkpt>
      <trkpt lat="46.61561" lon="5.90329">
        <ele>984.95</ele>
        <time>2019-11-12T09:22:59Z</time>
      </trkpt>
      <trkpt lat="46.61569" lon="5.90339">
        <ele>981.71</ele>
        <time>2019-11-12T09:23:19Z</time>
      </trkpt>
      <trkpt lat="46.61578" lon="5.90351">
        <ele>982.27</ele>
        <time>2019-11-12T09:23:36Z</time>
      </trkpt>
      <trkpt lat="46.61589" lon="5.90367">
        <ele>982.06</ele>
        <time>2019-11-12T09:23:54Z</time>
      </trkpt>
      <trkpt lat="46.616" lon="5.90385">
        <ele>980.56</ele>
        <time>2019-11-12T09:24:15Z</time>
      </trkpt>
      <trkpt lat="46.61606" lon="5.9039">
        <ele>979.36</ele>
        <time>2019-11-12T09:24:25Z</time>
      </trkpt>
      <trkpt lat="46.61613" lon="5.90399">
        <ele>976.95</ele>
        <time>2019-11-12T09:24:48Z</time>
      </trkpt>
      <trkpt lat="46.61622" lon="5.90406">
        <ele>975.54</ele>
        <time>2019-11-12T09:25:02Z</time>
      </trkpt>
      <trkpt lat="46.61633" lon="5.90419">
        <ele>973.78</ele>
        <time>2019-11-12T09:25:23Z</time>
      </trkpt>
      <trkpt lat="46.61648" lon="5.90435">
        <ele>974.12</ele>
        <time>2019-11-12T09:25:45Z</time>
      </trkpt>
      <trkpt lat="46.61671" lon="5.90448">
        <ele>974.35</ele>
        <time>2019-11-12T09:26:03Z</time>
      </trkpt>
      <trkpt lat="46.61681" lon="5.90447">
        <ele>972.9</ele>
        <time>2019-11-12T09:26:16Z</time>
      </trkpt>
      <trkpt lat="46.61689" lon="5.90438">
        <ele>970.59</ele>
        <time>2019-11-12T09:26:34Z</time>
      </trkpt>
      <trkpt lat="46.617" lon="5.90431">
        <ele>967.84</ele>
        <time>2019-11-12T09:26:53Z</time>
      </trkpt>
      <trkpt lat="46.61708" lon="5.90425">
        <ele>966.57</ele>
        <time>2019-11-12T09:27:10Z</time>
      </trkpt>
      <trkpt lat="46.6171" lon="5.9042">
        <ele>965.25</ele>
        <time>2019-11-12T09:27:17Z</time>
      </trkpt>
      <trkpt lat="46.61724" lon="5.90406">
        <ele>962.33</ele>
        <time>2019-11-12T09:27:38Z</time>
      </trkpt>
      <trkpt lat="46.61738" lon="5.90401">
        <ele>963.18</ele>
        <time>2019-11-12T09:27:54Z</time>
      </trkpt>
      <trkpt lat="46.61751" lon="5.90405">
        <ele>965.37</ele>
        <time>2019-11-12T09:28:12Z</time>
      </trkpt>
      <trkpt lat="46.61767" lon="5.90411">
        <ele>966.17</ele>
        <time>2019-11-12T09:28:28Z</time>
      </trkpt>
      <trkpt lat="46.61789" lon="5.90418">
        <ele>967.52</ele>
        <time>2019-11-12T09:28:49Z</time>
      </trkpt>
      <trkpt lat="46.61805" lon="5.90427">
        <ele>967.26</ele>
        <time>2019-11-12T09:29:09Z</time>
      </trkpt>
      <trkpt lat="46.61821" lon="5.90438">
        <ele>967.23</ele>
        <time>2019-11-12T09:29:29Z</time>
      </trkpt>
      <trkpt lat="46.61836" lon="5.90457">
        <ele>964.88</ele>
        <time>2019-11-12T09:29:48Z</time>
      </trkpt>
      <trkpt lat="46.61845" lon="5.90469">
        <ele>961.77</ele>
        <time>2019-11-12T09:30:03Z</time>
      </trkpt>
      <trkpt lat="46.61851" lon="5.90481">
        <ele>958.66</ele>
        <time>2019-11-12T09:30:17Z</time>
      </trkpt>
      <trkpt lat="46.61852" lon="5.90486">
        <ele>957.65</ele>
        <time>2019-11-12T09:30:23Z</time>
      </trkpt>
      <trkpt lat="46.61857" lon="5.90495">
        <ele>954.67</ele>
        <time>2019-11-12T09:30:36Z</time>
      </trkpt>
      <trkpt lat="46.61859" lon="5.905">
        <ele>953.86</ele>
        <time>2019-11-12T09:30:41Z</time>
      </trkpt>
      <trkpt lat="46.61861" lon="5.90511">
        <ele>953.03</ele>
        <time>2019-11-12T09:30:48Z</time>
      </trkpt>
      <trkpt lat="46.61875" lon="5.90527">
        <ele>951.17</ele>
        <time>2019-11-12T09:31:04Z</time>
      </trkpt>
      <trkpt lat="46.61888" lon="5.90537">
        <ele>950.65</ele>
        <time>2019-11-12T09:31:21Z</time>
      </trkpt>
      <trkpt lat="46.61899" lon="5.90555">
        <ele>950.74</ele>
        <time>2019-11-12T09:31:39Z</time>
      </trkpt>
      <trkpt lat="46.61907" lon="5.90566">
        <ele>950.93</ele>
        <time>2019-11-12T09:31:54Z</time>
      </trkpt>
      <trkpt lat="46.61917" lon="5.90583">
        <ele>951.86</ele>
        <time>2019-11-12T09:32:14Z</time>
      </trkpt>
      <trkpt lat="46.61934" lon="5.90596">
        <ele>952.81</ele>
        <time>2019-11-12T09:32:33Z</time>
      </trkpt>
      <trkpt lat="46.61945" lon="5.90608">
        <ele>952.28</ele>
        <time>2019-11-12T09:32:51Z</time>
      </trkpt>
      <trkpt lat="46.61958" lon="5.90622">
        <ele>949.77</ele>
        <time>2019-11-12T09:33:09Z</time>
      </trkpt>
      <trkpt lat="46.61965" lon="5.90639">
        <ele>946.48</ele>
        <time>2019-11-12T09:33:25Z</time>
      </trkpt>
      <trkpt lat="46.61965" lon="5.90639">
        <ele>946.27</ele>
        <time>2019-11-12T09:33:26Z</time>
      </trkpt>
      <trkpt lat="46.61971" lon="5.90645">
        <ele>944.5</ele>
        <time>2019-11-12T09:33:35Z</time>
      </trkpt>
      <trkpt lat="46.61976" lon="5.90647">
        <ele>945.32</ele>
        <time>2019-11-12T09:33:40Z</time>
      </trkpt>
      <trkpt lat="46.61992" lon="5.90659">
        <ele>943.42</ele>
        <time>2019-11-12T09:34:02Z</time>
      </trkpt>
      <trkpt lat="46.62006" lon="5.90676">
        <ele>944.92</ele>
        <time>2019-11-12T09:34:22Z</time>
      </trkpt>
      <trkpt lat="46.62021" lon="5.90682">
        <ele>946.99</ele>
        <time>2019-11-12T09:34:41Z</time>
      </trkpt>
      <trkpt lat="46.6204" lon="5.90697">
        <ele>946.48</ele>
        <time>2019-11-12T09:34:59Z</time>
      </trkpt>
      <trkpt lat="46.62044" lon="5.90724">
        <ele>945.81</ele>
        <time>2019-11-12T09:35:19Z</time>
      </trkpt>
      <trkpt lat="46.62052" lon="5.90741">
        <ele>944.05</ele>
        <time>2019-11-12T09:35:33Z</time>
      </trkpt>
      <trkpt lat="46.62061" lon="5.90757">
        <ele>944.3</ele>
        <time>2019-11-12T09:35:48Z</time>
      </trkpt>
      <trkpt lat="46.62054" lon="5.90781">
        <ele>941.49</ele>
        <time>2019-11-12T09:36:07Z</time>
      </trkpt>
      <trkpt lat="46.62052" lon="5.90787">
        <ele>940.22</ele>
        <time>2019-11-12T09:36:12Z</time>
      </trkpt>
      <trkpt lat="46.62052" lon="5.90788">
        <ele>939.73</ele>
        <time>2019-11-12T09:36:16Z</time>
      </trkpt>
      <trkpt lat="46.62047" lon="5.90804">
        <ele>937.95</ele>
        <time>2019-11-12T09:36:39Z</time>
      </trkpt>
      <trkpt lat="46.62048" lon="5.90809">
        <ele>935.3</ele>
        <time>2019-11-12T09:36:51Z</time>
      </trkpt>
      <trkpt lat="46.62048" lon="5.90819">
        <ele>933.1</ele>
        <time>2019-11-12T09:37:11Z</time>
      </trkpt>
      <trkpt lat="46.62042" lon="5.9084">
        <ele>933.52</ele>
        <time>2019-11-12T09:37:30Z</time>
      </trkpt>
      <trkpt lat="46.62031" lon="5.90862">
        <ele>932.84</ele>
        <time>2019-11-12T09:37:50Z</time>
      </trkpt>
      <trkpt lat="46.62013" lon="5.90876">
        <ele>931.05</ele>
        <time>2019-11-12T09:38:11Z</time>
      </trkpt>
      <trkpt lat="46.62005" lon="5.90894">
        <ele>929.9</ele>
        <time>2019-11-12T09:38:25Z</time>
      </trkpt>
      <trkpt lat="46.62004" lon="5.90898">
        <ele>929.01</ele>
        <time>2019-11-12T09:38:27Z</time>
      </trkpt>
      <trkpt lat="46.62001" lon="5.909">
        <ele>928.66</ele>
        <time>2019-11-12T09:38:34Z</time>
      </trkpt>
      <trkpt lat="46.6199" lon="5.90912">
        <ele>925.63</ele>
        <time>2019-11-12T09:38:54Z</time>
      </trkpt>
      <trkpt lat="46.61982" lon="5.90919">
        <ele>923.08</ele>
        <time>2019-11-12T09:39:15Z</time>
      </trkpt>
      <trkpt lat="46.61985" lon="5.90937">
        <ele>920.45</ele>
        <time>2019-11-12T09:39:38Z</time>
      </trkpt>
      <trkpt lat="46.61995" lon="5.9095">
        <ele>918.12</ele>
        <time>2019-11-12T09:39:57Z</time>
      </trkpt>
      <trkpt lat="46.62006" lon="5.90966">
        <ele>914.87</ele>
        <time>2019-11-12T09:40:13Z</time>
      </trkpt>
      <trkpt lat="46.62022" lon="5.90961">
        <ele>917.53</ele>
        <time>2019-11-12T09:40:30Z</time>
      </trkpt>
      <trkpt lat="46.62029" lon="5.90961">
        <ele>918.58</ele>
        <time>2019-11-12T09:40:41Z</time>
      </trkpt>
      <trkpt lat="46.62031" lon="5.90962">
        <ele>918.31</ele>
        <time>2019-11-12T09:40:43Z</time>
      </trkpt>
      <trkpt lat="46.62041" lon="5.90963">
        <ele>916.73</ele>
        <time>2019-11-12T09:41:02Z</time>
      </trkpt>
      <trkpt lat="46.6206" lon="5.90951">
        <ele>916.07</ele>
        <time>2019-11-12T09:41:22Z</time>
      </trkpt>
      <trkpt lat="46.62062" lon="5.90952">
        <ele>915.93</ele>
        <time>2019-11-12T09:41:24Z</time>
      </trkpt>
      <trkpt lat="46.62073" lon="5.90952">
        <ele>914.33</ele>
        <time>2019-11-12T09:41:45Z</time>
      </trkpt>
      <trkpt lat="46.6209" lon="5.90937">
        <ele>912.64</ele>
        <time>2019-11-12T09:42:09Z</time>
      </trkpt>
      <trkpt lat="46.62109" lon="5.90927">
        <ele>909.96</ele>
        <time>2019-11-12T09:42:29Z</time>
      </trkpt>
      <trkpt lat="46.62112" lon="5.90923">
        <ele>909.51</ele>
        <time>2019-11-12T09:42:34Z</time>
      </trkpt>
      <trkpt lat="46.6212" lon="5.90921">
        <ele>908.99</ele>
        <time>2019-11-12T09:42:48Z</time>
      </trkpt>
      <trkpt lat="46.62124" lon="5.90919">
        <ele>907.92</ele>
        <time>2019-11-12T09:43:01Z</time>
      </trkpt>
      <trkpt lat="46.62136" lon="5.90901">
        <ele>904.7</ele>
        <time>2019-11-12T09:43:23Z</time>
      </trkpt>
      <trkpt lat="46.62138" lon="5.90898">
        <ele>904.35</ele>
        <time>2019-11-12T09:43:26Z</time>
      </trkpt>
      <trkpt lat="46.62153" lon="5.90892">
        <ele>902.72</ele>
        <time>2019-11-12T09:43:44Z</time>
      </trkpt>
      <trkpt lat="46.62158" lon="5.90884">
        <ele>902.65</ele>
        <time>2019-11-12T09:44:14Z</time>
      </trkpt>
      <trkpt lat="46.62157" lon="5.90891">
        <ele>902.49</ele>
        <time>2019-11-12T09:44:43Z</time>
      </trkpt>
      <trkpt lat="46.62156" lon="5.90889">
        <ele>902.06</ele>
        <time>2019-11-12T09:45:07Z</time>
      </trkpt>
      <trkpt lat="46.62154" lon="5.90888">
        <ele>902.22</ele>
        <time>2019-11-12T09:45:35Z</time>
      </trkpt>
      <trkpt lat="46.62157" lon="5.90886">
        <ele>900.34</ele>
        <time>2019-11-12T09:46:00Z</time>
      </trkpt>
      <trkpt lat="46.62175" lon="5.90888">
        <ele>902.64</ele>
        <time>2019-11-12T09:46:21Z</time>
      </trkpt>
      <trkpt lat="46.62196" lon="5.90885">
        <ele>903.54</ele>
        <time>2019-11-12T09:46:42Z</time>
      </trkpt>
      <trkpt lat="46.62212" lon="5.90892">
        <ele>903.36</ele>
        <time>2019-11-12T09:46:56Z</time>
      </trkpt>
      <trkpt lat="46.62223" lon="5.90907">
        <ele>902.36</ele>
        <time>2019-11-12T09:47:18Z</time>
      </trkpt>
      <trkpt lat="46.62233" lon="5.9093">
        <ele>905.06</ele>
        <time>2019-11-12T09:47:39Z</time>
      </trkpt>
      <trkpt lat="46.62233" lon="5.90932">
        <ele>905.1</ele>
        <time>2019-11-12T09:47:42Z</time>
      </trkpt>
      <trkpt lat="46.62237" lon="5.90944">
        <ele>907.71</ele>
        <time>2019-11-12T09:47:55Z</time>
      </trkpt>
      <trkpt lat="46.62246" lon="5.90944">
        <ele>908.15</ele>
        <time>2019-11-12T09:48:20Z</time>
      </trkpt>
      <trkpt lat="46.62252" lon="5.90955">
        <ele>908.85</ele>
        <time>2019-11-12T09:48:52Z</time>
      </trkpt>
      <trkpt lat="46.62266" lon="5.90958">
        <ele>910.67</ele>
        <time>2019-11-12T09:49:12Z</time>
      </trkpt>
      <trkpt lat="46.62279" lon="5.9097">
        <ele>909.4</ele>
        <time>2019-11-12T09:49:32Z</time>
      </trkpt>
      <trkpt lat="46.62298" lon="5.90979">
        <ele>908.22</ele>
        <time>2019-11-12T09:49:53Z</time>
      </trkpt>
      <trkpt lat="46.62312" lon="5.9099">
        <ele>909.55</ele>
        <time>2019-11-12T09:50:16Z</time>
      </trkpt>
      <trkpt lat="46.62319" lon="5.90992">
        <ele>912.74</ele>
        <time>2019-11-12T09:50:28Z</time>
      </trkpt>
      <trkpt lat="46.62336" lon="5.90987">
        <ele>913.95</ele>
        <time>2019-11-12T09:50:47Z</time>
      </trkpt>
      <trkpt lat="46.62339" lon="5.90985">
        <ele>913.9</ele>
        <time>2019-11-12T09:50:51Z</time>
      </trkpt>
      <trkpt lat="46.6235" lon="5.90983">
        <ele>911.47</ele>
        <time>2019-11-12T09:51:11Z</time>
      </trkpt>
      <trkpt lat="46.62354" lon="5.90983">
        <ele>911.27</ele>
        <time>2019-11-12T09:51:32Z</time>
      </trkpt>
      <trkpt lat="46.62355" lon="5.90978">
        <ele>912.58</ele>
        <time>2019-11-12T09:51:47Z</time>
      </trkpt>
      <trkpt lat="46.62356" lon="5.90978">
        <ele>912.77</ele>
        <time>2019-11-12T09:52:13Z</time>
      </trkpt>
      <trkpt lat="46.62356" lon="5.90976">
        <ele>911.76</ele>
        <time>2019-11-12T09:52:39Z</time>
      </trkpt>
      <trkpt lat="46.62358" lon="5.90976">
        <ele>912</ele>
        <time>2019-11-12T09:53:08Z</time>
      </trkpt>
      <trkpt lat="46.62356" lon="5.90977">
        <ele>912.45</ele>
        <time>2019-11-12T09:53:38Z</time>
      </trkpt>
      <trkpt lat="46.62357" lon="5.90977">
        <ele>912.73</ele>
        <time>2019-11-12T09:54:05Z</time>
      </trkpt>
      <trkpt lat="46.62356" lon="5.90976">
        <ele>912.86</ele>
        <time>2019-11-12T09:54:33Z</time>
      </trkpt>
      <trkpt lat="46.62357" lon="5.90975">
        <ele>913.54</ele>
        <time>2019-11-12T09:55:02Z</time>
      </trkpt>
      <trkpt lat="46.62366" lon="5.90987">
        <ele>912.36</ele>
        <time>2019-11-12T09:55:23Z</time>
      </trkpt>
      <trkpt lat="46.62373" lon="5.91">
        <ele>912.41</ele>
        <time>2019-11-12T09:55:40Z</time>
      </trkpt>
      <trkpt lat="46.62379" lon="5.91013">
        <ele>910.88</ele>
        <time>2019-11-12T09:55:57Z</time>
      </trkpt>
      <trkpt lat="46.62387" lon="5.91024">
        <ele>909.69</ele>
        <time>2019-11-12T09:56:17Z</time>
      </trkpt>
      <trkpt lat="46.62402" lon="5.91046">
        <ele>910.73</ele>
        <time>2019-11-12T09:56:40Z</time>
      </trkpt>
      <trkpt lat="46.62414" lon="5.91061">
        <ele>912.67</ele>
        <time>2019-11-12T09:57:01Z</time>
      </trkpt>
      <trkpt lat="46.62428" lon="5.91076">
        <ele>913.29</ele>
        <time>2019-11-12T09:57:19Z</time>
      </trkpt>
      <trkpt lat="46.62442" lon="5.91087">
        <ele>913.18</ele>
        <time>2019-11-12T09:57:36Z</time>
      </trkpt>
      <trkpt lat="46.62447" lon="5.91087">
        <ele>911.9</ele>
        <time>2019-11-12T09:57:50Z</time>
      </trkpt>
      <trkpt lat="46.62452" lon="5.91084">
        <ele>912.11</ele>
        <time>2019-11-12T09:58:07Z</time>
      </trkpt>
      <trkpt lat="46.62454" lon="5.91083">
        <ele>911.12</ele>
        <time>2019-11-12T09:58:29Z</time>
      </trkpt>
      <trkpt lat="46.6246" lon="5.91094">
        <ele>909.69</ele>
        <time>2019-11-12T09:58:51Z</time>
      </trkpt>
      <trkpt lat="46.62468" lon="5.9111">
        <ele>907.68</ele>
        <time>2019-11-12T09:59:09Z</time>
      </trkpt>
      <trkpt lat="46.62471" lon="5.91116">
        <ele>906.99</ele>
        <time>2019-11-12T09:59:17Z</time>
      </trkpt>
      <trkpt lat="46.62484" lon="5.91136">
        <ele>906.18</ele>
        <time>2019-11-12T09:59:39Z</time>
      </trkpt>
      <trkpt lat="46.62493" lon="5.9114">
        <ele>904.61</ele>
        <time>2019-11-12T09:59:55Z</time>
      </trkpt>
      <trkpt lat="46.62498" lon="5.91149">
        <ele>902.77</ele>
        <time>2019-11-12T10:00:18Z</time>
      </trkpt>
      <trkpt lat="46.625" lon="5.91151">
        <ele>903.03</ele>
        <time>2019-11-12T10:00:33Z</time>
      </trkpt>
      <trkpt lat="46.62516" lon="5.91177">
        <ele>904.48</ele>
        <time>2019-11-12T10:01:11Z</time>
      </trkpt>
      <trkpt lat="46.62518" lon="5.91178">
        <ele>904</ele>
        <time>2019-11-12T10:01:27Z</time>
      </trkpt>
      <trkpt lat="46.62526" lon="5.91184">
        <ele>905.77</ele>
        <time>2019-11-12T10:01:43Z</time>
      </trkpt>
      <trkpt lat="46.6253" lon="5.91186">
        <ele>906.01</ele>
        <time>2019-11-12T10:02:00Z</time>
      </trkpt>
      <trkpt lat="46.62531" lon="5.91183">
        <ele>905.42</ele>
        <time>2019-11-12T10:02:29Z</time>
      </trkpt>
      <trkpt lat="46.62534" lon="5.91194">
        <ele>905.55</ele>
        <time>2019-11-12T10:02:53Z</time>
      </trkpt>
      <trkpt lat="46.62538" lon="5.91205">
        <ele>902.43</ele>
        <time>2019-11-12T10:03:06Z</time>
      </trkpt>
      <trkpt lat="46.62539" lon="5.91212">
        <ele>900.23</ele>
        <time>2019-11-12T10:03:15Z</time>
      </trkpt>
      <trkpt lat="46.62541" lon="5.91216">
        <ele>899.21</ele>
        <time>2019-11-12T10:03:18Z</time>
      </trkpt>
      <trkpt lat="46.62542" lon="5.91221">
        <ele>899.04</ele>
        <time>2019-11-12T10:03:20Z</time>
      </trkpt>
      <trkpt lat="46.62548" lon="5.91234">
        <ele>896.96</ele>
        <time>2019-11-12T10:03:36Z</time>
      </trkpt>
      <trkpt lat="46.62554" lon="5.91247">
        <ele>893.78</ele>
        <time>2019-11-12T10:03:50Z</time>
      </trkpt>
      <trkpt lat="46.62561" lon="5.91256">
        <ele>892.29</ele>
        <time>2019-11-12T10:04:01Z</time>
      </trkpt>
      <trkpt lat="46.6257" lon="5.91265">
        <ele>890.61</ele>
        <time>2019-11-12T10:04:24Z</time>
      </trkpt>
      <trkpt lat="46.62576" lon="5.91275">
        <ele>894.11</ele>
        <time>2019-11-12T10:04:44Z</time>
      </trkpt>
      <trkpt lat="46.62579" lon="5.91276">
        <ele>890.08</ele>
        <time>2019-11-12T10:04:47Z</time>
      </trkpt>
      <trkpt lat="46.62579" lon="5.91276">
        <ele>890.79</ele>
        <time>2019-11-12T10:04:48Z</time>
      </trkpt>
      <trkpt lat="46.62593" lon="5.91292">
        <ele>891.54</ele>
        <time>2019-11-12T10:05:06Z</time>
      </trkpt>
      <trkpt lat="46.62602" lon="5.91298">
        <ele>894.9</ele>
        <time>2019-11-12T10:05:22Z</time>
      </trkpt>
      <trkpt lat="46.62606" lon="5.913">
        <ele>896.03</ele>
        <time>2019-11-12T10:05:27Z</time>
      </trkpt>
      <trkpt lat="46.62613" lon="5.91306">
        <ele>899.55</ele>
        <time>2019-11-12T10:05:40Z</time>
      </trkpt>
      <trkpt lat="46.62621" lon="5.91314">
        <ele>899.58</ele>
        <time>2019-11-12T10:06:01Z</time>
      </trkpt>
      <trkpt lat="46.62621" lon="5.91313">
        <ele>900.54</ele>
        <time>2019-11-12T10:06:20Z</time>
      </trkpt>
      <trkpt lat="46.62623" lon="5.91311">
        <ele>900.16</ele>
        <time>2019-11-12T10:06:43Z</time>
      </trkpt>
      <trkpt lat="46.62624" lon="5.91311">
        <ele>900.41</ele>
        <time>2019-11-12T10:07:04Z</time>
      </trkpt>
      <trkpt lat="46.62624" lon="5.9131">
        <ele>900.59</ele>
        <time>2019-11-12T10:07:32Z</time>
      </trkpt>
      <trkpt lat="46.62622" lon="5.91312">
        <ele>902.73</ele>
        <time>2019-11-12T10:08:01Z</time>
      </trkpt>
      <trkpt lat="46.62618" lon="5.91316">
        <ele>905.77</ele>
        <time>2019-11-12T10:08:19Z</time>
      </trkpt>
      <trkpt lat="46.62616" lon="5.91328">
        <ele>908.9</ele>
        <time>2019-11-12T10:08:35Z</time>
      </trkpt>
      <trkpt lat="46.62616" lon="5.91338">
        <ele>910.36</ele>
        <time>2019-11-12T10:08:48Z</time>
      </trkpt>
      <trkpt lat="46.62616" lon="5.91345">
        <ele>910.29</ele>
        <time>2019-11-12T10:09:18Z</time>
      </trkpt>
      <trkpt lat="46.62615" lon="5.91345">
        <ele>910.18</ele>
        <time>2019-11-12T10:09:42Z</time>
      </trkpt>
      <trkpt lat="46.62614" lon="5.91345">
        <ele>910.3</ele>
        <time>2019-11-12T10:10:05Z</time>
      </trkpt>
      <trkpt lat="46.62612" lon="5.91342">
        <ele>911</ele>
        <time>2019-11-12T10:10:41Z</time>
      </trkpt>
      <trkpt lat="46.62612" lon="5.91343">
        <ele>910.78</ele>
        <time>2019-11-12T10:11:03Z</time>
      </trkpt>
      <trkpt lat="46.62613" lon="5.91344">
        <ele>911.31</ele>
        <time>2019-11-12T10:11:33Z</time>
      </trkpt>
      <trkpt lat="46.62613" lon="5.91345">
        <ele>911.52</ele>
        <time>2019-11-12T10:12:03Z</time>
      </trkpt>
      <trkpt lat="46.62614" lon="5.91344">
        <ele>911.52</ele>
        <time>2019-11-12T10:12:32Z</time>
      </trkpt>
      <trkpt lat="46.62614" lon="5.91344">
        <ele>912.34</ele>
        <time>2019-11-12T10:13:13Z</time>
      </trkpt>
      <trkpt lat="46.62614" lon="5.91344">
        <ele>912.47</ele>
        <time>2019-11-12T10:13:43Z</time>
      </trkpt>
      <trkpt lat="46.62613" lon="5.91346">
        <ele>913.82</ele>
        <time>2019-11-12T10:14:17Z</time>
      </trkpt>
      <trkpt lat="46.62613" lon="5.91345">
        <ele>913.7</ele>
        <time>2019-11-12T10:14:41Z</time>
      </trkpt>
      <trkpt lat="46.62612" lon="5.91348">
        <ele>913.73</ele>
        <time>2019-11-12T10:15:05Z</time>
      </trkpt>
      <trkpt lat="46.62614" lon="5.91346">
        <ele>914.28</ele>
        <time>2019-11-12T10:15:32Z</time>
      </trkpt>
      <trkpt lat="46.62617" lon="5.91353">
        <ele>913.28</ele>
        <time>2019-11-12T10:16:03Z</time>
      </trkpt>
      <trkpt lat="46.62619" lon="5.9136">
        <ele>911.98</ele>
        <time>2019-11-12T10:16:16Z</time>
      </trkpt>
      <trkpt lat="46.62622" lon="5.91385">
        <ele>911.2</ele>
        <time>2019-11-12T10:16:38Z</time>
      </trkpt>
      <trkpt lat="46.62614" lon="5.91411">
        <ele>913.65</ele>
        <time>2019-11-12T10:16:58Z</time>
      </trkpt>
      <trkpt lat="46.62603" lon="5.91432">
        <ele>916.4</ele>
        <time>2019-11-12T10:17:19Z</time>
      </trkpt>
      <trkpt lat="46.62613" lon="5.9144">
        <ele>919.98</ele>
        <time>2019-11-12T10:17:37Z</time>
      </trkpt>
      <trkpt lat="46.62619" lon="5.91449">
        <ele>921.76</ele>
        <time>2019-11-12T10:17:56Z</time>
      </trkpt>
      <trkpt lat="46.62626" lon="5.91458">
        <ele>923.15</ele>
        <time>2019-11-12T10:18:16Z</time>
      </trkpt>
      <trkpt lat="46.6264" lon="5.91469">
        <ele>926.18</ele>
        <time>2019-11-12T10:18:36Z</time>
      </trkpt>
      <trkpt lat="46.62648" lon="5.91473">
        <ele>928.29</ele>
        <time>2019-11-12T10:18:55Z</time>
      </trkpt>
      <trkpt lat="46.62656" lon="5.91481">
        <ele>931.33</ele>
        <time>2019-11-12T10:19:08Z</time>
      </trkpt>
      <trkpt lat="46.62663" lon="5.91494">
        <ele>931.74</ele>
        <time>2019-11-12T10:19:27Z</time>
      </trkpt>
      <trkpt lat="46.62665" lon="5.91491">
        <ele>931.55</ele>
        <time>2019-11-12T10:19:41Z</time>
      </trkpt>
      <trkpt lat="46.62674" lon="5.91489">
        <ele>931.38</ele>
        <time>2019-11-12T10:20:03Z</time>
      </trkpt>
      <trkpt lat="46.62679" lon="5.91496">
        <ele>928.67</ele>
        <time>2019-11-12T10:20:22Z</time>
      </trkpt>
      <trkpt lat="46.62682" lon="5.91497">
        <ele>928.9</ele>
        <time>2019-11-12T10:20:40Z</time>
      </trkpt>
      <trkpt lat="46.62688" lon="5.91506">
        <ele>929.61</ele>
        <time>2019-11-12T10:20:59Z</time>
      </trkpt>
      <trkpt lat="46.62691" lon="5.91515">
        <ele>929.12</ele>
        <time>2019-11-12T10:21:18Z</time>
      </trkpt>
      <trkpt lat="46.62694" lon="5.9151">
        <ele>926.04</ele>
        <time>2019-11-12T10:21:30Z</time>
      </trkpt>
      <trkpt lat="46.62698" lon="5.9151">
        <ele>923.36</ele>
        <time>2019-11-12T10:21:39Z</time>
      </trkpt>
      <trkpt lat="46.62705" lon="5.91509">
        <ele>920.13</ele>
        <time>2019-11-12T10:21:55Z</time>
      </trkpt>
      <trkpt lat="46.62718" lon="5.91509">
        <ele>917.23</ele>
        <time>2019-11-12T10:22:15Z</time>
      </trkpt>
      <trkpt lat="46.62732" lon="5.91504">
        <ele>915.3</ele>
        <time>2019-11-12T10:22:33Z</time>
      </trkpt>
      <trkpt lat="46.62739" lon="5.91506">
        <ele>912.19</ele>
        <time>2019-11-12T10:22:48Z</time>
      </trkpt>
      <trkpt lat="46.62746" lon="5.91512">
        <ele>909.77</ele>
        <time>2019-11-12T10:23:06Z</time>
      </trkpt>
      <trkpt lat="46.62749" lon="5.91513">
        <ele>907.81</ele>
        <time>2019-11-12T10:23:28Z</time>
      </trkpt>
      <trkpt lat="46.62753" lon="5.91518">
        <ele>904.46</ele>
        <time>2019-11-12T10:23:42Z</time>
      </trkpt>
      <trkpt lat="46.62763" lon="5.91525">
        <ele>904.4</ele>
        <time>2019-11-12T10:23:59Z</time>
      </trkpt>
      <trkpt lat="46.62771" lon="5.91541">
        <ele>905.4</ele>
        <time>2019-11-12T10:24:18Z</time>
      </trkpt>
      <trkpt lat="46.62782" lon="5.91559">
        <ele>904.49</ele>
        <time>2019-11-12T10:24:38Z</time>
      </trkpt>
      <trkpt lat="46.62788" lon="5.91571">
        <ele>904.58</ele>
        <time>2019-11-12T10:24:52Z</time>
      </trkpt>
      <trkpt lat="46.62789" lon="5.91573">
        <ele>904.65</ele>
        <time>2019-11-12T10:24:59Z</time>
      </trkpt>
      <trkpt lat="46.62795" lon="5.91594">
        <ele>904.14</ele>
        <time>2019-11-12T10:25:22Z</time>
      </trkpt>
      <trkpt lat="46.62799" lon="5.91602">
        <ele>902.88</ele>
        <time>2019-11-12T10:25:39Z</time>
      </trkpt>
      <trkpt lat="46.62803" lon="5.91604">
        <ele>904.06</ele>
        <time>2019-11-12T10:26:08Z</time>
      </trkpt>
      <trkpt lat="46.62806" lon="5.91614">
        <ele>907.11</ele>
        <time>2019-11-12T10:26:26Z</time>
      </trkpt>
      <trkpt lat="46.62815" lon="5.91634">
        <ele>906.36</ele>
        <time>2019-11-12T10:26:42Z</time>
      </trkpt>
      <trkpt lat="46.62821" lon="5.91648">
        <ele>906.34</ele>
        <time>2019-11-12T10:27:06Z</time>
      </trkpt>
      <trkpt lat="46.62826" lon="5.91657">
        <ele>906.45</ele>
        <time>2019-11-12T10:27:18Z</time>
      </trkpt>
      <trkpt lat="46.62837" lon="5.9167">
        <ele>905.62</ele>
        <time>2019-11-12T10:27:37Z</time>
      </trkpt>
      <trkpt lat="46.62842" lon="5.91673">
        <ele>901.99</ele>
        <time>2019-11-12T10:27:49Z</time>
      </trkpt>
      <trkpt lat="46.62849" lon="5.91674">
        <ele>898.88</ele>
        <time>2019-11-12T10:28:04Z</time>
      </trkpt>
      <trkpt lat="46.62869" lon="5.91692">
        <ele>899.37</ele>
        <time>2019-11-12T10:28:28Z</time>
      </trkpt>
      <trkpt lat="46.62882" lon="5.91712">
        <ele>898.29</ele>
        <time>2019-11-12T10:28:50Z</time>
      </trkpt>
      <trkpt lat="46.62893" lon="5.91731">
        <ele>896.14</ele>
        <time>2019-11-12T10:29:11Z</time>
      </trkpt>
      <trkpt lat="46.62905" lon="5.91748">
        <ele>895.26</ele>
        <time>2019-11-12T10:29:30Z</time>
      </trkpt>
      <trkpt lat="46.62911" lon="5.91771">
        <ele>893.42</ele>
        <time>2019-11-12T10:29:51Z</time>
      </trkpt>
      <trkpt lat="46.62918" lon="5.91795">
        <ele>894.77</ele>
        <time>2019-11-12T10:30:11Z</time>
      </trkpt>
      <trkpt lat="46.62917" lon="5.91801">
        <ele>895.05</ele>
        <time>2019-11-12T10:30:29Z</time>
      </trkpt>
      <trkpt lat="46.62918" lon="5.91802">
        <ele>893.68</ele>
        <time>2019-11-12T10:30:52Z</time>
      </trkpt>
      <trkpt lat="46.6292" lon="5.91801">
        <ele>892.9</ele>
        <time>2019-11-12T10:31:14Z</time>
      </trkpt>
      <trkpt lat="46.62921" lon="5.91799">
        <ele>891.56</ele>
        <time>2019-11-12T10:31:41Z</time>
      </trkpt>
      <trkpt lat="46.62925" lon="5.91798">
        <ele>890.89</ele>
        <time>2019-11-12T10:32:08Z</time>
      </trkpt>
      <trkpt lat="46.62924" lon="5.91795">
        <ele>890.34</ele>
        <time>2019-11-12T10:32:28Z</time>
      </trkpt>
      <trkpt lat="46.62931" lon="5.91798">
        <ele>888.8</ele>
        <time>2019-11-12T10:32:55Z</time>
      </trkpt>
      <trkpt lat="46.62938" lon="5.91802">
        <ele>887.38</ele>
        <time>2019-11-12T10:33:22Z</time>
      </trkpt>
      <trkpt lat="46.62939" lon="5.91809">
        <ele>887.01</ele>
        <time>2019-11-12T10:33:40Z</time>
      </trkpt>
      <trkpt lat="46.62947" lon="5.91821">
        <ele>885.12</ele>
        <time>2019-11-12T10:34:02Z</time>
      </trkpt>
      <trkpt lat="46.62965" lon="5.91844">
        <ele>882.83</ele>
        <time>2019-11-12T10:34:21Z</time>
      </trkpt>
      <trkpt lat="46.62968" lon="5.91854">
        <ele>883.07</ele>
        <time>2019-11-12T10:34:38Z</time>
      </trkpt>
      <trkpt lat="46.62971" lon="5.91861">
        <ele>881.03</ele>
        <time>2019-11-12T10:34:49Z</time>
      </trkpt>
      <trkpt lat="46.62971" lon="5.91867">
        <ele>879.63</ele>
        <time>2019-11-12T10:34:55Z</time>
      </trkpt>
      <trkpt lat="46.62972" lon="5.91871">
        <ele>878.13</ele>
        <time>2019-11-12T10:35:01Z</time>
      </trkpt>
      <trkpt lat="46.62974" lon="5.91875">
        <ele>876.01</ele>
        <time>2019-11-12T10:35:18Z</time>
      </trkpt>
      <trkpt lat="46.6298" lon="5.91891">
        <ele>871.78</ele>
        <time>2019-11-12T10:35:40Z</time>
      </trkpt>
      <trkpt lat="46.62988" lon="5.91905">
        <ele>871.54</ele>
        <time>2019-11-12T10:35:58Z</time>
      </trkpt>
      <trkpt lat="46.62998" lon="5.9191">
        <ele>871.32</ele>
        <time>2019-11-12T10:36:14Z</time>
      </trkpt>
      <trkpt lat="46.62997" lon="5.91911">
        <ele>871.07</ele>
        <time>2019-11-12T10:36:22Z</time>
      </trkpt>
      <trkpt lat="46.63005" lon="5.9192">
        <ele>871.69</ele>
        <time>2019-11-12T10:36:48Z</time>
      </trkpt>
      <trkpt lat="46.63022" lon="5.91933">
        <ele>872.39</ele>
        <time>2019-11-12T10:37:07Z</time>
      </trkpt>
      <trkpt lat="46.6303" lon="5.91942">
        <ele>872.21</ele>
        <time>2019-11-12T10:37:19Z</time>
      </trkpt>
      <trkpt lat="46.63034" lon="5.91948">
        <ele>869.41</ele>
        <time>2019-11-12T10:37:40Z</time>
      </trkpt>
      <trkpt lat="46.63039" lon="5.91947">
        <ele>868.22</ele>
        <time>2019-11-12T10:37:47Z</time>
      </trkpt>
      <trkpt lat="46.63046" lon="5.91952">
        <ele>867.23</ele>
        <time>2019-11-12T10:38:05Z</time>
      </trkpt>
      <trkpt lat="46.63056" lon="5.91961">
        <ele>866.16</ele>
        <time>2019-11-12T10:38:29Z</time>
      </trkpt>
      <trkpt lat="46.63063" lon="5.91964">
        <ele>865.33</ele>
        <time>2019-11-12T10:38:53Z</time>
      </trkpt>
      <trkpt lat="46.6307" lon="5.9197">
        <ele>866.15</ele>
        <time>2019-11-12T10:39:12Z</time>
      </trkpt>
      <trkpt lat="46.6308" lon="5.91978">
        <ele>867.41</ele>
        <time>2019-11-12T10:39:30Z</time>
      </trkpt>
      <trkpt lat="46.63093" lon="5.91989">
        <ele>866.59</ele>
        <time>2019-11-12T10:39:52Z</time>
      </trkpt>
      <trkpt lat="46.63101" lon="5.91997">
        <ele>864.47</ele>
        <time>2019-11-12T10:40:15Z</time>
      </trkpt>
      <trkpt lat="46.63109" lon="5.92008">
        <ele>862.96</ele>
        <time>2019-11-12T10:40:34Z</time>
      </trkpt>
      <trkpt lat="46.63121" lon="5.9202">
        <ele>861</ele>
        <time>2019-11-12T10:40:54Z</time>
      </trkpt>
      <trkpt lat="46.63124" lon="5.92022">
        <ele>861.49</ele>
        <time>2019-11-12T10:41:03Z</time>
      </trkpt>
      <trkpt lat="46.63125" lon="5.92026">
        <ele>862</ele>
        <time>2019-11-12T10:41:07Z</time>
      </trkpt>
      <trkpt lat="46.6313" lon="5.92052">
        <ele>860.73</ele>
        <time>2019-11-12T10:41:29Z</time>
      </trkpt>
      <trkpt lat="46.63133" lon="5.92061">
        <ele>861.8</ele>
        <time>2019-11-12T10:41:41Z</time>
      </trkpt>
      <trkpt lat="46.63141" lon="5.92071">
        <ele>861.92</ele>
        <time>2019-11-12T10:42:02Z</time>
      </trkpt>
      <trkpt lat="46.63148" lon="5.92076">
        <ele>863.33</ele>
        <time>2019-11-12T10:42:23Z</time>
      </trkpt>
      <trkpt lat="46.63148" lon="5.92072">
        <ele>863.35</ele>
        <time>2019-11-12T10:42:48Z</time>
      </trkpt>
      <trkpt lat="46.63149" lon="5.92069">
        <ele>863.63</ele>
        <time>2019-11-12T10:43:12Z</time>
      </trkpt>
      <trkpt lat="46.63159" lon="5.92076">
        <ele>865.46</ele>
        <time>2019-11-12T10:43:30Z</time>
      </trkpt>
      <trkpt lat="46.63169" lon="5.92088">
        <ele>866.17</ele>
        <time>2019-11-12T10:43:48Z</time>
      </trkpt>
      <trkpt lat="46.63177" lon="5.92102">
        <ele>865.92</ele>
        <time>2019-11-12T10:44:06Z</time>
      </trkpt>
      <trkpt lat="46.63185" lon="5.92123">
        <ele>864.52</ele>
        <time>2019-11-12T10:44:27Z</time>
      </trkpt>
      <trkpt lat="46.63185" lon="5.92124">
        <ele>864.23</ele>
        <time>2019-11-12T10:44:28Z</time>
      </trkpt>
      <trkpt lat="46.63187" lon="5.92136">
        <ele>862.72</ele>
        <time>2019-11-12T10:44:45Z</time>
      </trkpt>
      <trkpt lat="46.63197" lon="5.92154">
        <ele>860.76</ele>
        <time>2019-11-12T10:45:00Z</time>
      </trkpt>
      <trkpt lat="46.63201" lon="5.92163">
        <ele>859.26</ele>
        <time>2019-11-12T10:45:19Z</time>
      </trkpt>
      <trkpt lat="46.63203" lon="5.92172">
        <ele>856.84</ele>
        <time>2019-11-12T10:45:38Z</time>
      </trkpt>
      <trkpt lat="46.63207" lon="5.92185">
        <ele>858.16</ele>
        <time>2019-11-12T10:45:59Z</time>
      </trkpt>
      <trkpt lat="46.63203" lon="5.92188">
        <ele>857.48</ele>
        <time>2019-11-12T10:46:25Z</time>
      </trkpt>
      <trkpt lat="46.63209" lon="5.92195">
        <ele>860.74</ele>
        <time>2019-11-12T10:46:46Z</time>
      </trkpt>
      <trkpt lat="46.63216" lon="5.922">
        <ele>863.81</ele>
        <time>2019-11-12T10:47:03Z</time>
      </trkpt>
      <trkpt lat="46.63223" lon="5.92212">
        <ele>865</ele>
        <time>2019-11-12T10:47:21Z</time>
      </trkpt>
      <trkpt lat="46.63236" lon="5.92226">
        <ele>863.97</ele>
        <time>2019-11-12T10:47:43Z</time>
      </trkpt>
      <trkpt lat="46.63249" lon="5.92235">
        <ele>861.3</ele>
        <time>2019-11-12T10:48:03Z</time>
      </trkpt>
      <trkpt lat="46.63253" lon="5.92241">
        <ele>860.82</ele>
        <time>2019-11-12T10:48:11Z</time>
      </trkpt>
      <trkpt lat="46.6326" lon="5.92254">
        <ele>858.65</ele>
        <time>2019-11-12T10:48:32Z</time>
      </trkpt>
      <trkpt lat="46.63263" lon="5.92256">
        <ele>858.33</ele>
        <time>2019-11-12T10:48:56Z</time>
      </trkpt>
      <trkpt lat="46.63266" lon="5.92255">
        <ele>856.43</ele>
        <time>2019-11-12T10:49:11Z</time>
      </trkpt>
      <trkpt lat="46.63274" lon="5.92259">
        <ele>854.32</ele>
        <time>2019-11-12T10:49:29Z</time>
      </trkpt>
      <trkpt lat="46.63274" lon="5.92263">
        <ele>852.65</ele>
        <time>2019-11-12T10:49:54Z</time>
      </trkpt>
      <trkpt lat="46.63279" lon="5.92268">
        <ele>849.57</ele>
        <time>2019-11-12T10:50:05Z</time>
      </trkpt>
      <trkpt lat="46.63293" lon="5.92285">
        <ele>848.8</ele>
        <time>2019-11-12T10:50:25Z</time>
      </trkpt>
      <trkpt lat="46.63296" lon="5.92287">
        <ele>847.99</ele>
        <time>2019-11-12T10:50:27Z</time>
      </trkpt>
      <trkpt lat="46.63303" lon="5.92302">
        <ele>849.49</ele>
        <time>2019-11-12T10:50:44Z</time>
      </trkpt>
      <trkpt lat="46.63308" lon="5.92319">
        <ele>848.06</ele>
        <time>2019-11-12T10:51:06Z</time>
      </trkpt>
      <trkpt lat="46.63315" lon="5.92329">
        <ele>847.12</ele>
        <time>2019-11-12T10:51:25Z</time>
      </trkpt>
      <trkpt lat="46.63317" lon="5.9233">
        <ele>843.34</ele>
        <time>2019-11-12T10:51:42Z</time>
      </trkpt>
      <trkpt lat="46.63313" lon="5.92323">
        <ele>843.55</ele>
        <time>2019-11-12T10:52:07Z</time>
      </trkpt>
      <trkpt lat="46.63311" lon="5.92313">
        <ele>842.16</ele>
        <time>2019-11-12T10:52:28Z</time>
      </trkpt>
      <trkpt lat="46.6332" lon="5.92322">
        <ele>839.61</ele>
        <time>2019-11-12T10:52:52Z</time>
      </trkpt>
      <trkpt lat="46.6332" lon="5.92321">
        <ele>836.55</ele>
        <time>2019-11-12T10:53:10Z</time>
      </trkpt>
      <trkpt lat="46.63317" lon="5.9231">
        <ele>833.32</ele>
        <time>2019-11-12T10:53:23Z</time>
      </trkpt>
      <trkpt lat="46.63322" lon="5.92311">
        <ele>829.66</ele>
        <time>2019-11-12T10:53:36Z</time>
      </trkpt>
      <trkpt lat="46.63324" lon="5.92313">
        <ele>827.69</ele>
        <time>2019-11-12T10:53:43Z</time>
      </trkpt>
      <trkpt lat="46.63328" lon="5.92313">
        <ele>827.37</ele>
        <time>2019-11-12T10:53:50Z</time>
      </trkpt>
      <trkpt lat="46.63335" lon="5.92315">
        <ele>826.22</ele>
        <time>2019-11-12T10:54:12Z</time>
      </trkpt>
      <trkpt lat="46.63336" lon="5.92317">
        <ele>826.26</ele>
        <time>2019-11-12T10:54:41Z</time>
      </trkpt>
      <trkpt lat="46.63333" lon="5.92317">
        <ele>826.91</ele>
        <time>2019-11-12T10:55:08Z</time>
      </trkpt>
      <trkpt lat="46.63337" lon="5.9232">
        <ele>824.92</ele>
        <time>2019-11-12T10:55:33Z</time>
      </trkpt>
      <trkpt lat="46.63346" lon="5.92324">
        <ele>822.09</ele>
        <time>2019-11-12T10:55:47Z</time>
      </trkpt>
      <trkpt lat="46.63353" lon="5.92315">
        <ele>820.13</ele>
        <time>2019-11-12T10:56:08Z</time>
      </trkpt>
      <trkpt lat="46.63354" lon="5.92321">
        <ele>819.54</ele>
        <time>2019-11-12T10:56:28Z</time>
      </trkpt>
      <trkpt lat="46.63356" lon="5.92323">
        <ele>816.8</ele>
        <time>2019-11-12T10:56:51Z</time>
      </trkpt>
      <trkpt lat="46.63355" lon="5.92325">
        <ele>816.9</ele>
        <time>2019-11-12T10:57:13Z</time>
      </trkpt>
      <trkpt lat="46.63362" lon="5.92324">
        <ele>814.69</ele>
        <time>2019-11-12T10:57:34Z</time>
      </trkpt>
      <trkpt lat="46.63363" lon="5.92323">
        <ele>811.21</ele>
        <time>2019-11-12T10:57:52Z</time>
      </trkpt>
      <trkpt lat="46.63366" lon="5.92323">
        <ele>809.68</ele>
        <time>2019-11-12T10:58:02Z</time>
      </trkpt>
      <trkpt lat="46.63371" lon="5.92324">
        <ele>808.28</ele>
        <time>2019-11-12T10:58:08Z</time>
      </trkpt>
      <trkpt lat="46.63383" lon="5.92331">
        <ele>805.54</ele>
        <time>2019-11-12T10:58:23Z</time>
      </trkpt>
      <trkpt lat="46.63388" lon="5.92334">
        <ele>803.7</ele>
        <time>2019-11-12T10:58:31Z</time>
      </trkpt>
      <trkpt lat="46.63394" lon="5.92333">
        <ele>800.29</ele>
        <time>2019-11-12T10:58:49Z</time>
      </trkpt>
      <trkpt lat="46.63399" lon="5.92332">
        <ele>797.06</ele>
        <time>2019-11-12T10:59:01Z</time>
      </trkpt>
      <trkpt lat="46.63406" lon="5.92334">
        <ele>794.05</ele>
        <time>2019-11-12T10:59:12Z</time>
      </trkpt>
      <trkpt lat="46.63413" lon="5.92335">
        <ele>791.36</ele>
        <time>2019-11-12T10:59:28Z</time>
      </trkpt>
      <trkpt lat="46.63416" lon="5.92326">
        <ele>788.32</ele>
        <time>2019-11-12T10:59:46Z</time>
      </trkpt>
      <trkpt lat="46.6342" lon="5.92314">
        <ele>785.73</ele>
        <time>2019-11-12T11:00:05Z</time>
      </trkpt>
      <trkpt lat="46.63424" lon="5.92309">
        <ele>783.79</ele>
        <time>2019-11-12T11:00:28Z</time>
      </trkpt>
      <trkpt lat="46.63431" lon="5.9231">
        <ele>780.51</ele>
        <time>2019-11-12T11:00:40Z</time>
      </trkpt>
      <trkpt lat="46.63432" lon="5.92301">
        <ele>777.54</ele>
        <time>2019-11-12T11:00:55Z</time>
      </trkpt>
      <trkpt lat="46.63432" lon="5.92297">
        <ele>778.04</ele>
        <time>2019-11-12T11:01:01Z</time>
      </trkpt>
      <trkpt lat="46.63427" lon="5.92287">
        <ele>777.86</ele>
        <time>2019-11-12T11:01:27Z</time>
      </trkpt>
      <trkpt lat="46.63426" lon="5.92283">
        <ele>778.35</ele>
        <time>2019-11-12T11:01:54Z</time>
      </trkpt>
      <trkpt lat="46.63423" lon="5.92294">
        <ele>778.48</ele>
        <time>2019-11-12T11:02:15Z</time>
      </trkpt>
      <trkpt lat="46.63425" lon="5.923">
        <ele>779.22</ele>
        <time>2019-11-12T11:02:44Z</time>
      </trkpt>
      <trkpt lat="46.63416" lon="5.92312">
        <ele>780.08</ele>
        <time>2019-11-12T11:03:08Z</time>
      </trkpt>
      <trkpt lat="46.63419" lon="5.92311">
        <ele>780.03</ele>
        <time>2019-11-12T11:03:36Z</time>
      </trkpt>
      <trkpt lat="46.63422" lon="5.92305">
        <ele>780.31</ele>
        <time>2019-11-12T11:04:00Z</time>
      </trkpt>
      <trkpt lat="46.63425" lon="5.92291">
        <ele>780.65</ele>
        <time>2019-11-12T11:04:28Z</time>
      </trkpt>
      <trkpt lat="46.63425" lon="5.92291">
        <ele>780.34</ele>
        <time>2019-11-12T11:04:47Z</time>
      </trkpt>
      <trkpt lat="46.63426" lon="5.92295">
        <ele>780.74</ele>
        <time>2019-11-12T11:05:06Z</time>
      </trkpt>
      <trkpt lat="46.63424" lon="5.92289">
        <ele>780.14</ele>
        <time>2019-11-12T11:05:30Z</time>
      </trkpt>
      <trkpt lat="46.6342" lon="5.92283">
        <ele>779.52</ele>
        <time>2019-11-12T11:05:36Z</time>
      </trkpt>
      <trkpt lat="46.63416" lon="5.92276">
        <ele>779.01</ele>
        <time>2019-11-12T11:05:42Z</time>
      </trkpt>
      <trkpt lat="46.63416" lon="5.92273">
        <ele>779.44</ele>
        <time>2019-11-12T11:05:53Z</time>
      </trkpt>
      <trkpt lat="46.6342" lon="5.92277">
        <ele>776.59</ele>
        <time>2019-11-12T11:06:09Z</time>
      </trkpt>
      <trkpt lat="46.63428" lon="5.92284">
        <ele>774.65</ele>
        <time>2019-11-12T11:06:27Z</time>
      </trkpt>
      <trkpt lat="46.63433" lon="5.92286">
        <ele>772.86</ele>
        <time>2019-11-12T11:06:36Z</time>
      </trkpt>
      <trkpt lat="46.63438" lon="5.92287">
        <ele>772.41</ele>
        <time>2019-11-12T11:06:45Z</time>
      </trkpt>
      <trkpt lat="46.63441" lon="5.92289">
        <ele>772.54</ele>
        <time>2019-11-12T11:07:14Z</time>
      </trkpt>
      <trkpt lat="46.63441" lon="5.92289">
        <ele>772.23</ele>
        <time>2019-11-12T11:07:16Z</time>
      </trkpt>
      <trkpt lat="46.63445" lon="5.92289">
        <ele>771.82</ele>
        <time>2019-11-12T11:07:41Z</time>
      </trkpt>
      <trkpt lat="46.63458" lon="5.92284">
        <ele>769.5</ele>
        <time>2019-11-12T11:08:01Z</time>
      </trkpt>
      <trkpt lat="46.63463" lon="5.9228">
        <ele>768.13</ele>
        <time>2019-11-12T11:08:21Z</time>
      </trkpt>
      <trkpt lat="46.63466" lon="5.92274">
        <ele>766.74</ele>
        <time>2019-11-12T11:08:38Z</time>
      </trkpt>
      <trkpt lat="46.63478" lon="5.9227">
        <ele>764.16</ele>
        <time>2019-11-12T11:08:55Z</time>
      </trkpt>
      <trkpt lat="46.63484" lon="5.92258">
        <ele>761.33</ele>
        <time>2019-11-12T11:09:11Z</time>
      </trkpt>
      <trkpt lat="46.63488" lon="5.92251">
        <ele>760.38</ele>
        <time>2019-11-12T11:09:26Z</time>
      </trkpt>
      <trkpt lat="46.63487" lon="5.92256">
        <ele>761.14</ele>
        <time>2019-11-12T11:09:47Z</time>
      </trkpt>
      <trkpt lat="46.63486" lon="5.92217">
        <ele>761.29</ele>
        <time>2019-11-12T11:10:08Z</time>
      </trkpt>
      <trkpt lat="46.63486" lon="5.92216">
        <ele>760.85</ele>
        <time>2019-11-12T11:10:09Z</time>
      </trkpt>
      <trkpt lat="46.63479" lon="5.92199">
        <ele>761.8</ele>
        <time>2019-11-12T11:10:25Z</time>
      </trkpt>
      <trkpt lat="46.63476" lon="5.92194">
        <ele>761.88</ele>
        <time>2019-11-12T11:10:29Z</time>
      </trkpt>
      <trkpt lat="46.63468" lon="5.92184">
        <ele>762.87</ele>
        <time>2019-11-12T11:10:43Z</time>
      </trkpt>
      <trkpt lat="46.63457" lon="5.92162">
        <ele>762.41</ele>
        <time>2019-11-12T11:11:03Z</time>
      </trkpt>
      <trkpt lat="46.63455" lon="5.92159">
        <ele>762.35</ele>
        <time>2019-11-12T11:11:07Z</time>
      </trkpt>
      <trkpt lat="46.63444" lon="5.92142">
        <ele>764.06</ele>
        <time>2019-11-12T11:11:22Z</time>
      </trkpt>
      <trkpt lat="46.63439" lon="5.92122">
        <ele>764.27</ele>
        <time>2019-11-12T11:11:36Z</time>
      </trkpt>
      <trkpt lat="46.63438" lon="5.92122">
        <ele>764.03</ele>
        <time>2019-11-12T11:11:38Z</time>
      </trkpt>
      <trkpt lat="46.63436" lon="5.92116">
        <ele>764.32</ele>
        <time>2019-11-12T11:11:43Z</time>
      </trkpt>
      <trkpt lat="46.63434" lon="5.92114">
        <ele>763.51</ele>
        <time>2019-11-12T11:11:57Z</time>
      </trkpt>
      <trkpt lat="46.63443" lon="5.92126">
        <ele>764.17</ele>
        <time>2019-11-12T11:12:11Z</time>
      </trkpt>
      <trkpt lat="46.63446" lon="5.92117">
        <ele>763.84</ele>
        <time>2019-11-12T11:12:18Z</time>
      </trkpt>
      <trkpt lat="46.63441" lon="5.92106">
        <ele>763.8</ele>
        <time>2019-11-12T11:12:28Z</time>
      </trkpt>
      <trkpt lat="46.6344" lon="5.92104">
        <ele>763.92</ele>
        <time>2019-11-12T11:12:30Z</time>
      </trkpt>
      <trkpt lat="46.63429" lon="5.92087">
        <ele>764.59</ele>
        <time>2019-11-12T11:12:44Z</time>
      </trkpt>
      <trkpt lat="46.63429" lon="5.92086">
        <ele>764.17</ele>
        <time>2019-11-12T11:12:45Z</time>
      </trkpt>
      <trkpt lat="46.6342" lon="5.92071">
        <ele>765.98</ele>
        <time>2019-11-12T11:12:58Z</time>
      </trkpt>
      <trkpt lat="46.63414" lon="5.92058">
        <ele>765.19</ele>
        <time>2019-11-12T11:13:09Z</time>
      </trkpt>
      <trkpt lat="46.63407" lon="5.92037">
        <ele>766.83</ele>
        <time>2019-11-12T11:13:24Z</time>
      </trkpt>
      <trkpt lat="46.63402" lon="5.92007">
        <ele>767.11</ele>
        <time>2019-11-12T11:13:42Z</time>
      </trkpt>
      <trkpt lat="46.63401" lon="5.91985">
        <ele>767.26</ele>
        <time>2019-11-12T11:13:55Z</time>
      </trkpt>
      <trkpt lat="46.63401" lon="5.91949">
        <ele>767.91</ele>
        <time>2019-11-12T11:14:18Z</time>
      </trkpt>
      <trkpt lat="46.63401" lon="5.91949">
        <ele>767.87</ele>
        <time>2019-11-12T11:14:36Z</time>
      </trkpt>
      <trkpt lat="46.63401" lon="5.91949">
        <ele>767.85</ele>
        <time>2019-11-12T11:15:00Z</time>
      </trkpt>
      <trkpt lat="46.63398" lon="5.91948">
        <ele>768.31</ele>
        <time>2019-11-12T11:15:10Z</time>
      </trkpt>
      <trkpt lat="46.63395" lon="5.91947">
        <ele>767.83</ele>
        <time>2019-11-12T11:15:12Z</time>
      </trkpt>
      <trkpt lat="46.6339" lon="5.91943">
        <ele>767.89</ele>
        <time>2019-11-12T11:15:16Z</time>
      </trkpt>
      <trkpt lat="46.63381" lon="5.91936">
        <ele>767.45</ele>
        <time>2019-11-12T11:15:23Z</time>
      </trkpt>
      <trkpt lat="46.63373" lon="5.9193">
        <ele>767.99</ele>
        <time>2019-11-12T11:15:33Z</time>
      </trkpt>
      <trkpt lat="46.63369" lon="5.91938">
        <ele>767.67</ele>
        <time>2019-11-12T11:15:41Z</time>
      </trkpt>
      <trkpt lat="46.63358" lon="5.91941">
        <ele>766.78</ele>
        <time>2019-11-12T11:15:51Z</time>
      </trkpt>
      <trkpt lat="46.6335" lon="5.91933">
        <ele>766.87</ele>
        <time>2019-11-12T11:15:59Z</time>
      </trkpt>
      <trkpt lat="46.63341" lon="5.91932">
        <ele>766.69</ele>
        <time>2019-11-12T11:16:05Z</time>
      </trkpt>
      <trkpt lat="46.63329" lon="5.91923">
        <ele>765.83</ele>
        <time>2019-11-12T11:16:16Z</time>
      </trkpt>
      <trkpt lat="46.63323" lon="5.91918">
        <ele>766.19</ele>
        <time>2019-11-12T11:16:22Z</time>
      </trkpt>
      <trkpt lat="46.63313" lon="5.9191">
        <ele>765.79</ele>
        <time>2019-11-12T11:16:32Z</time>
      </trkpt>
      <trkpt lat="46.63309" lon="5.91898">
        <ele>765.67</ele>
        <time>2019-11-12T11:16:45Z</time>
      </trkpt>
      <trkpt lat="46.63308" lon="5.91892">
        <ele>766.2</ele>
        <time>2019-11-12T11:16:49Z</time>
      </trkpt>
      <trkpt lat="46.63305" lon="5.91883">
        <ele>766.21</ele>
        <time>2019-11-12T11:17:04Z</time>
      </trkpt>
      <trkpt lat="46.63306" lon="5.9189">
        <ele>765.61</ele>
        <time>2019-11-12T11:17:09Z</time>
      </trkpt>
      <trkpt lat="46.63305" lon="5.91901">
        <ele>766.34</ele>
        <time>2019-11-12T11:17:22Z</time>
      </trkpt>
      <trkpt lat="46.63305" lon="5.91899">
        <ele>765.81</ele>
        <time>2019-11-12T11:17:39Z</time>
      </trkpt>
      <trkpt lat="46.63305" lon="5.919">
        <ele>766.13</ele>
        <time>2019-11-12T11:18:11Z</time>
      </trkpt>
      <trkpt lat="46.63305" lon="5.91897">
        <ele>766.19</ele>
        <time>2019-11-12T11:18:50Z</time>
      </trkpt>
      <trkpt lat="46.63308" lon="5.9191">
        <ele>765.83</ele>
        <time>2019-11-12T11:19:11Z</time>
      </trkpt>
      <trkpt lat="46.63317" lon="5.9192">
        <ele>766.73</ele>
        <time>2019-11-12T11:19:22Z</time>
      </trkpt>
      <trkpt lat="46.6334" lon="5.91935">
        <ele>767.41</ele>
        <time>2019-11-12T11:19:36Z</time>
      </trkpt>
      <trkpt lat="46.63345" lon="5.91938">
        <ele>767.31</ele>
        <time>2019-11-12T11:19:41Z</time>
      </trkpt>
      <trkpt lat="46.63347" lon="5.9194">
        <ele>767.27</ele>
        <time>2019-11-12T11:19:43Z</time>
      </trkpt>
      <trkpt lat="46.63364" lon="5.91946">
        <ele>767.95</ele>
        <time>2019-11-12T11:19:55Z</time>
      </trkpt>
      <trkpt lat="46.63377" lon="5.91935">
        <ele>768.35</ele>
        <time>2019-11-12T11:20:09Z</time>
      </trkpt>
      <trkpt lat="46.63396" lon="5.9194">
        <ele>768.45</ele>
        <time>2019-11-12T11:20:23Z</time>
      </trkpt>
      <trkpt lat="46.63402" lon="5.91942">
        <ele>768.46</ele>
        <time>2019-11-12T11:20:35Z</time>
      </trkpt>
      <trkpt lat="46.63405" lon="5.91942">
        <ele>768.47</ele>
        <time>2019-11-12T11:21:06Z</time>
      </trkpt>
      <trkpt lat="46.63409" lon="5.91942">
        <ele>769.16</ele>
        <time>2019-11-12T11:21:23Z</time>
      </trkpt>
      <trkpt lat="46.63408" lon="5.91936">
        <ele>770.31</ele>
        <time>2019-11-12T11:21:45Z</time>
      </trkpt>
      <trkpt lat="46.63416" lon="5.91933">
        <ele>771.58</ele>
        <time>2019-11-12T11:22:04Z</time>
      </trkpt>
      <trkpt lat="46.63424" lon="5.91937">
        <ele>771.6</ele>
        <time>2019-11-12T11:22:22Z</time>
      </trkpt>
      <trkpt lat="46.63446" lon="5.91937">
        <ele>772.53</ele>
        <time>2019-11-12T11:22:43Z</time>
      </trkpt>
      <trkpt lat="46.63451" lon="5.91931">
        <ele>773.4</ele>
        <time>2019-11-12T11:22:49Z</time>
      </trkpt>
      <trkpt lat="46.63455" lon="5.91927">
        <ele>774.05</ele>
        <time>2019-11-12T11:22:52Z</time>
      </trkpt>
      <trkpt lat="46.63463" lon="5.91918">
        <ele>774.43</ele>
        <time>2019-11-12T11:23:00Z</time>
      </trkpt>
      <trkpt lat="46.63467" lon="5.91897">
        <ele>776.47</ele>
        <time>2019-11-12T11:23:17Z</time>
      </trkpt>
      <trkpt lat="46.63467" lon="5.91896">
        <ele>776.01</ele>
        <time>2019-11-12T11:23:18Z</time>
      </trkpt>
      <trkpt lat="46.6347" lon="5.9188">
        <ele>776.94</ele>
        <time>2019-11-12T11:23:34Z</time>
      </trkpt>
      <trkpt lat="46.63473" lon="5.91868">
        <ele>778.68</ele>
        <time>2019-11-12T11:23:46Z</time>
      </trkpt>
      <trkpt lat="46.63485" lon="5.9185">
        <ele>778.46</ele>
        <time>2019-11-12T11:24:06Z</time>
      </trkpt>
      <trkpt lat="46.63493" lon="5.91833">
        <ele>778.51</ele>
        <time>2019-11-12T11:24:15Z</time>
      </trkpt>
      <trkpt lat="46.63501" lon="5.91816">
        <ele>779.82</ele>
        <time>2019-11-12T11:24:30Z</time>
      </trkpt>
      <trkpt lat="46.63512" lon="5.91803">
        <ele>780.33</ele>
        <time>2019-11-12T11:24:46Z</time>
      </trkpt>
      <trkpt lat="46.6353" lon="5.91784">
        <ele>780.87</ele>
        <time>2019-11-12T11:25:05Z</time>
      </trkpt>
      <trkpt lat="46.63548" lon="5.91772">
        <ele>780.98</ele>
        <time>2019-11-12T11:25:25Z</time>
      </trkpt>
      <trkpt lat="46.6357" lon="5.91762">
        <ele>779.91</ele>
        <time>2019-11-12T11:25:47Z</time>
      </trkpt>
      <trkpt lat="46.63582" lon="5.91752">
        <ele>779.35</ele>
        <time>2019-11-12T11:25:58Z</time>
      </trkpt>
      <trkpt lat="46.63594" lon="5.91734">
        <ele>778.25</ele>
        <time>2019-11-12T11:26:10Z</time>
      </trkpt>
      <trkpt lat="46.63598" lon="5.91718">
        <ele>777.36</ele>
        <time>2019-11-12T11:26:21Z</time>
      </trkpt>
      <trkpt lat="46.63601" lon="5.91703">
        <ele>776.82</ele>
        <time>2019-11-12T11:26:29Z</time>
      </trkpt>
      <trkpt lat="46.63606" lon="5.91688">
        <ele>776.42</ele>
        <time>2019-11-12T11:26:36Z</time>
      </trkpt>
      <trkpt lat="46.6361" lon="5.91669">
        <ele>776.18</ele>
        <time>2019-11-12T11:26:48Z</time>
      </trkpt>
      <trkpt lat="46.63612" lon="5.91658">
        <ele>775.97</ele>
        <time>2019-11-12T11:26:54Z</time>
      </trkpt>
      <trkpt lat="46.63613" lon="5.91647">
        <ele>775.76</ele>
        <time>2019-11-12T11:26:57Z</time>
      </trkpt>
      <trkpt lat="46.63616" lon="5.91638">
        <ele>775.92</ele>
        <time>2019-11-12T11:27:00Z</time>
      </trkpt>
      <trkpt lat="46.63616" lon="5.91628">
        <ele>775.93</ele>
        <time>2019-11-12T11:27:05Z</time>
      </trkpt>
      <trkpt lat="46.63624" lon="5.91606">
        <ele>775.88</ele>
        <time>2019-11-12T11:27:16Z</time>
      </trkpt>
      <trkpt lat="46.63636" lon="5.9158">
        <ele>776.28</ele>
        <time>2019-11-12T11:27:35Z</time>
      </trkpt>
      <trkpt lat="46.63641" lon="5.91567">
        <ele>776.17</ele>
        <time>2019-11-12T11:27:48Z</time>
      </trkpt>
      <trkpt lat="46.63641" lon="5.91565">
        <ele>776.16</ele>
        <time>2019-11-12T11:27:49Z</time>
      </trkpt>
      <trkpt lat="46.63643" lon="5.91563">
        <ele>777.01</ele>
        <time>2019-11-12T11:27:51Z</time>
      </trkpt>
      <trkpt lat="46.63645" lon="5.91557">
        <ele>776.31</ele>
        <time>2019-11-12T11:27:55Z</time>
      </trkpt>
      <trkpt lat="46.63649" lon="5.91549">
        <ele>776.17</ele>
        <time>2019-11-12T11:28:00Z</time>
      </trkpt>
      <trkpt lat="46.63653" lon="5.91536">
        <ele>776.25</ele>
        <time>2019-11-12T11:28:09Z</time>
      </trkpt>
      <trkpt lat="46.63655" lon="5.91531">
        <ele>776.32</ele>
        <time>2019-11-12T11:28:13Z</time>
      </trkpt>
      <trkpt lat="46.63659" lon="5.91511">
        <ele>775.65</ele>
        <time>2019-11-12T11:28:24Z</time>
      </trkpt>
      <trkpt lat="46.63661" lon="5.91489">
        <ele>775.24</ele>
        <time>2019-11-12T11:28:38Z</time>
      </trkpt>
      <trkpt lat="46.63661" lon="5.91486">
        <ele>775.1</ele>
        <time>2019-11-12T11:28:40Z</time>
      </trkpt>
      <trkpt lat="46.6366" lon="5.91476">
        <ele>775.01</ele>
        <time>2019-11-12T11:28:52Z</time>
      </trkpt>
      <trkpt lat="46.6366" lon="5.91469">
        <ele>775.27</ele>
        <time>2019-11-12T11:29:03Z</time>
      </trkpt>
      <trkpt lat="46.63662" lon="5.91463">
        <ele>776.07</ele>
        <time>2019-11-12T11:29:19Z</time>
      </trkpt>
      <trkpt lat="46.63665" lon="5.91455">
        <ele>776.23</ele>
        <time>2019-11-12T11:29:25Z</time>
      </trkpt>
      <trkpt lat="46.63674" lon="5.91437">
        <ele>775.55</ele>
        <time>2019-11-12T11:29:39Z</time>
      </trkpt>
      <trkpt lat="46.63684" lon="5.91424">
        <ele>775.88</ele>
        <time>2019-11-12T11:29:52Z</time>
      </trkpt>
      <trkpt lat="46.63698" lon="5.91415">
        <ele>775.51</ele>
        <time>2019-11-12T11:30:07Z</time>
      </trkpt>
      <trkpt lat="46.6371" lon="5.91408">
        <ele>773.28</ele>
        <time>2019-11-12T11:30:19Z</time>
      </trkpt>
      <trkpt lat="46.63721" lon="5.91383">
        <ele>771.32</ele>
        <time>2019-11-12T11:30:36Z</time>
      </trkpt>
      <trkpt lat="46.63726" lon="5.91366">
        <ele>769.32</ele>
        <time>2019-11-12T11:30:49Z</time>
      </trkpt>
      <trkpt lat="46.63728" lon="5.91363">
        <ele>769.34</ele>
        <time>2019-11-12T11:30:51Z</time>
      </trkpt>
      <trkpt lat="46.63734" lon="5.91352">
        <ele>769.35</ele>
        <time>2019-11-12T11:31:00Z</time>
      </trkpt>
      <trkpt lat="46.63719" lon="5.91369">
        <ele>766.76</ele>
        <time>2019-11-12T11:31:18Z</time>
      </trkpt>
      <trkpt lat="46.63717" lon="5.91357">
        <ele>765.36</ele>
        <time>2019-11-12T11:31:32Z</time>
      </trkpt>
      <trkpt lat="46.63716" lon="5.9134">
        <ele>764.33</ele>
        <time>2019-11-12T11:31:38Z</time>
      </trkpt>
      <trkpt lat="46.63735" lon="5.91317">
        <ele>760.65</ele>
        <time>2019-11-12T11:31:55Z</time>
      </trkpt>
      <trkpt lat="46.63724" lon="5.91308">
        <ele>760.15</ele>
        <time>2019-11-12T11:32:11Z</time>
      </trkpt>
      <trkpt lat="46.63732" lon="5.91301">
        <ele>760.55</ele>
        <time>2019-11-12T11:32:25Z</time>
      </trkpt>
      <trkpt lat="46.63804" lon="5.91283">
        <ele>760.57</ele>
        <time>2019-11-12T11:32:33Z</time>
      </trkpt>
      <trkpt lat="46.63837" lon="5.91299">
        <ele>761.58</ele>
        <time>2019-11-12T11:32:46Z</time>
      </trkpt>
      <trkpt lat="46.63875" lon="5.91328">
        <ele>759.69</ele>
        <time>2019-11-12T11:33:06Z</time>
      </trkpt>
      <trkpt lat="46.63899" lon="5.91353">
        <ele>758.35</ele>
        <time>2019-11-12T11:33:11Z</time>
      </trkpt>
      <trkpt lat="46.63907" lon="5.91354">
        <ele>756.98</ele>
        <time>2019-11-12T11:33:23Z</time>
      </trkpt>
      <trkpt lat="46.63935" lon="5.91423">
        <ele>753.61</ele>
        <time>2019-11-12T11:33:37Z</time>
      </trkpt>
      <trkpt lat="46.63975" lon="5.91467">
        <ele>750.23</ele>
        <time>2019-11-12T11:33:57Z</time>
      </trkpt>
      <trkpt lat="46.64026" lon="5.91538">
        <ele>750.14</ele>
        <time>2019-11-12T11:33:58Z</time>
      </trkpt>
      <trkpt lat="46.64057" lon="5.91576">
        <ele>747.12</ele>
        <time>2019-11-12T11:34:13Z</time>
      </trkpt>
      <trkpt lat="46.64081" lon="5.9159">
        <ele>744.06</ele>
        <time>2019-11-12T11:34:28Z</time>
      </trkpt>
      <trkpt lat="46.64087" lon="5.91594">
        <ele>744.08</ele>
        <time>2019-11-12T11:34:29Z</time>
      </trkpt>
      <trkpt lat="46.64093" lon="5.91592">
        <ele>744.13</ele>
        <time>2019-11-12T11:34:37Z</time>
      </trkpt>
      <trkpt lat="46.64132" lon="5.91655">
        <ele>742.92</ele>
        <time>2019-11-12T11:34:52Z</time>
      </trkpt>
      <trkpt lat="46.64188" lon="5.91738">
        <ele>739.65</ele>
        <time>2019-11-12T11:35:04Z</time>
      </trkpt>
      <trkpt lat="46.64202" lon="5.91759">
        <ele>737.94</ele>
        <time>2019-11-12T11:35:22Z</time>
      </trkpt>
      <trkpt lat="46.64252" lon="5.91787">
        <ele>736.28</ele>
        <time>2019-11-12T11:35:36Z</time>
      </trkpt>
      <trkpt lat="46.64337" lon="5.91871">
        <ele>737.34</ele>
        <time>2019-11-12T11:35:53Z</time>
      </trkpt>
      <trkpt lat="46.64373" lon="5.91912">
        <ele>737.93</ele>
        <time>2019-11-12T11:36:10Z</time>
      </trkpt>
      <trkpt lat="46.64401" lon="5.91929">
        <ele>738.03</ele>
        <time>2019-11-12T11:36:32Z</time>
      </trkpt>
      <trkpt lat="46.64436" lon="5.91944">
        <ele>738.8</ele>
        <time>2019-11-12T11:36:55Z</time>
      </trkpt>
      <trkpt lat="46.64451" lon="5.91943">
        <ele>743.46</ele>
        <time>2019-11-12T11:42:14Z</time>
      </trkpt>
      <trkpt lat="46.64477" lon="5.91953">
        <ele>743.2</ele>
        <time>2019-11-12T11:42:36Z</time>
      </trkpt>
      <trkpt lat="46.64488" lon="5.91914">
        <ele>745.15</ele>
        <time>2019-11-12T11:43:31Z</time>
      </trkpt>
      <trkpt lat="46.64515" lon="5.91832">
        <ele>744.48</ele>
        <time>2019-11-12T11:43:35Z</time>
      </trkpt>
      <trkpt lat="46.64542" lon="5.91788">
        <ele>744.38</ele>
        <time>2019-11-12T11:43:53Z</time>
      </trkpt>
      <trkpt lat="46.64569" lon="5.91756">
        <ele>744.68</ele>
        <time>2019-11-12T11:44:08Z</time>
      </trkpt>
      <trkpt lat="46.64612" lon="5.91686">
        <ele>744.23</ele>
        <time>2019-11-12T11:44:14Z</time>
      </trkpt>
      <trkpt lat="46.64622" lon="5.9167">
        <ele>744.49</ele>
        <time>2019-11-12T11:44:17Z</time>
      </trkpt>
      <trkpt lat="46.64639" lon="5.91622">
        <ele>744.98</ele>
        <time>2019-11-12T11:45:21Z</time>
      </trkpt>
      <trkpt lat="46.64643" lon="5.91496">
        <ele>745.34</ele>
        <time>2019-11-12T11:46:07Z</time>
      </trkpt>
      <trkpt lat="46.64632" lon="5.91468">
        <ele>749.95</ele>
        <time>2019-11-12T12:10:45Z</time>
      </trkpt>
      <trkpt lat="46.64588" lon="5.91432">
        <ele>750.01</ele>
        <time>2019-11-12T12:10:47Z</time>
      </trkpt>
      <trkpt lat="46.64544" lon="5.91391">
        <ele>750.33</ele>
        <time>2019-11-12T12:10:52Z</time>
      </trkpt>
      <trkpt lat="46.64498" lon="5.91337">
        <ele>750.72</ele>
        <time>2019-11-12T12:11:03Z</time>
      </trkpt>
      <trkpt lat="46.64496" lon="5.91309">
        <ele>750.08</ele>
        <time>2019-11-12T12:11:20Z</time>
      </trkpt>
      <trkpt lat="46.64497" lon="5.91292">
        <ele>749.38</ele>
        <time>2019-11-12T12:11:37Z</time>
      </trkpt>
      <trkpt lat="46.64506" lon="5.91191">
        <ele>747.52</ele>
        <time>2019-11-12T12:11:55Z</time>
      </trkpt>
      <trkpt lat="46.64498" lon="5.91137">
        <ele>745.58</ele>
        <time>2019-11-12T12:12:13Z</time>
      </trkpt>
      <trkpt lat="46.64483" lon="5.91076">
        <ele>745.55</ele>
        <time>2019-11-12T12:12:32Z</time>
      </trkpt>
      <trkpt lat="46.64463" lon="5.90996">
        <ele>744.49</ele>
        <time>2019-11-12T12:12:49Z</time>
      </trkpt>
      <trkpt lat="46.64447" lon="5.90929">
        <ele>743.61</ele>
        <time>2019-11-12T12:13:09Z</time>
      </trkpt>
      <trkpt lat="46.64423" lon="5.90813">
        <ele>742.39</ele>
        <time>2019-11-12T12:13:29Z</time>
      </trkpt>
      <trkpt lat="46.64422" lon="5.90791">
        <ele>742.13</ele>
        <time>2019-11-12T12:13:48Z</time>
      </trkpt>
      <trkpt lat="46.64419" lon="5.90724">
        <ele>742.08</ele>
        <time>2019-11-12T12:13:54Z</time>
      </trkpt>
      <trkpt lat="46.6441" lon="5.90659">
        <ele>741.86</ele>
        <time>2019-11-12T12:14:09Z</time>
      </trkpt>
      <trkpt lat="46.64395" lon="5.90603">
        <ele>741.79</ele>
        <time>2019-11-12T12:14:28Z</time>
      </trkpt>
      <trkpt lat="46.64395" lon="5.90568">
        <ele>741.41</ele>
        <time>2019-11-12T12:14:29Z</time>
      </trkpt>
      <trkpt lat="46.64398" lon="5.90534">
        <ele>741.18</ele>
        <time>2019-11-12T12:14:35Z</time>
      </trkpt>
      <trkpt lat="46.64396" lon="5.90475">
        <ele>742.15</ele>
        <time>2019-11-12T12:14:49Z</time>
      </trkpt>
      <trkpt lat="46.6439" lon="5.90453">
        <ele>742.28</ele>
        <time>2019-11-12T12:14:55Z</time>
      </trkpt>
      <trkpt lat="46.64376" lon="5.90399">
        <ele>743.46</ele>
        <time>2019-11-12T12:15:03Z</time>
      </trkpt>
      <trkpt lat="46.64365" lon="5.90389">
        <ele>744.72</ele>
        <time>2019-11-12T12:15:13Z</time>
      </trkpt>
      <trkpt lat="46.64303" lon="5.90386">
        <ele>744.89</ele>
        <time>2019-11-12T12:15:17Z</time>
      </trkpt>
      <trkpt lat="46.64291" lon="5.90391">
        <ele>744.69</ele>
        <time>2019-11-12T12:15:22Z</time>
      </trkpt>
      <trkpt lat="46.6428" lon="5.90406">
        <ele>745.86</ele>
        <time>2019-11-12T12:15:36Z</time>
      </trkpt>
      <trkpt lat="46.64261" lon="5.90424">
        <ele>745.81</ele>
        <time>2019-11-12T12:15:41Z</time>
      </trkpt>
      <trkpt lat="46.64248" lon="5.90434">
        <ele>746.48</ele>
        <time>2019-11-12T12:15:54Z</time>
      </trkpt>
      <trkpt lat="46.64242" lon="5.90421">
        <ele>747.96</ele>
        <time>2019-11-12T12:16:07Z</time>
      </trkpt>
      <trkpt lat="46.64238" lon="5.90411">
        <ele>749.26</ele>
        <time>2019-11-12T12:16:16Z</time>
      </trkpt>
      <trkpt lat="46.64236" lon="5.90407">
        <ele>749.12</ele>
        <time>2019-11-12T12:16:19Z</time>
      </trkpt>
      <trkpt lat="46.64235" lon="5.90401">
        <ele>749.75</ele>
        <time>2019-11-12T12:16:23Z</time>
      </trkpt>
      <trkpt lat="46.64233" lon="5.90394">
        <ele>750.03</ele>
        <time>2019-11-12T12:16:27Z</time>
      </trkpt>
      <trkpt lat="46.64233" lon="5.9039">
        <ele>750.56</ele>
        <time>2019-11-12T12:16:30Z</time>
      </trkpt>
      <trkpt lat="46.6423" lon="5.90366">
        <ele>751.57</ele>
        <time>2019-11-12T12:16:45Z</time>
      </trkpt>
      <trkpt lat="46.64228" lon="5.90357">
        <ele>750.18</ele>
        <time>2019-11-12T12:16:51Z</time>
      </trkpt>
      <trkpt lat="46.64226" lon="5.9035">
        <ele>753.08</ele>
        <time>2019-11-12T12:16:56Z</time>
      </trkpt>
      <trkpt lat="46.64221" lon="5.90348">
        <ele>753.14</ele>
        <time>2019-11-12T12:17:08Z</time>
      </trkpt>
      <trkpt lat="46.64216" lon="5.90344">
        <ele>753.17</ele>
        <time>2019-11-12T12:17:14Z</time>
      </trkpt>
      <trkpt lat="46.64209" lon="5.90337">
        <ele>754.2</ele>
        <time>2019-11-12T12:17:22Z</time>
      </trkpt>
      <trkpt lat="46.64198" lon="5.9033">
        <ele>754.9</ele>
        <time>2019-11-12T12:17:35Z</time>
      </trkpt>
      <trkpt lat="46.64181" lon="5.90323">
        <ele>756.38</ele>
        <time>2019-11-12T12:17:51Z</time>
      </trkpt>
      <trkpt lat="46.64171" lon="5.90318">
        <ele>756.75</ele>
        <time>2019-11-12T12:18:02Z</time>
      </trkpt>
      <trkpt lat="46.64155" lon="5.90309">
        <ele>759.59</ele>
        <time>2019-11-12T12:18:19Z</time>
      </trkpt>
      <trkpt lat="46.64144" lon="5.90301">
        <ele>762.79</ele>
        <time>2019-11-12T12:18:37Z</time>
      </trkpt>
      <trkpt lat="46.64133" lon="5.90291">
        <ele>765.56</ele>
        <time>2019-11-12T12:18:59Z</time>
      </trkpt>
      <trkpt lat="46.64128" lon="5.90279">
        <ele>766.53</ele>
        <time>2019-11-12T12:19:20Z</time>
      </trkpt>
      <trkpt lat="46.6412" lon="5.9027">
        <ele>768.73</ele>
        <time>2019-11-12T12:19:40Z</time>
      </trkpt>
      <trkpt lat="46.64112" lon="5.90261">
        <ele>771.32</ele>
        <time>2019-11-12T12:20:01Z</time>
      </trkpt>
      <trkpt lat="46.64103" lon="5.90248">
        <ele>773.27</ele>
        <time>2019-11-12T12:20:18Z</time>
      </trkpt>
      <trkpt lat="46.64093" lon="5.90233">
        <ele>775.88</ele>
        <time>2019-11-12T12:20:37Z</time>
      </trkpt>
      <trkpt lat="46.64087" lon="5.90219">
        <ele>777.88</ele>
        <time>2019-11-12T12:20:58Z</time>
      </trkpt>
      <trkpt lat="46.64088" lon="5.90219">
        <ele>778.19</ele>
        <time>2019-11-12T12:21:23Z</time>
      </trkpt>
      <trkpt lat="46.64085" lon="5.90223">
        <ele>777.61</ele>
        <time>2019-11-12T12:21:45Z</time>
      </trkpt>
      <trkpt lat="46.64079" lon="5.90215">
        <ele>780.22</ele>
        <time>2019-11-12T12:21:59Z</time>
      </trkpt>
      <trkpt lat="46.64073" lon="5.90191">
        <ele>779.9</ele>
        <time>2019-11-12T12:22:18Z</time>
      </trkpt>
      <trkpt lat="46.64064" lon="5.90179">
        <ele>780.54</ele>
        <time>2019-11-12T12:22:34Z</time>
      </trkpt>
      <trkpt lat="46.64058" lon="5.90174">
        <ele>781.86</ele>
        <time>2019-11-12T12:22:40Z</time>
      </trkpt>
      <trkpt lat="46.64054" lon="5.90168">
        <ele>782.19</ele>
        <time>2019-11-12T12:22:44Z</time>
      </trkpt>
      <trkpt lat="46.64047" lon="5.90148">
        <ele>783.47</ele>
        <time>2019-11-12T12:22:59Z</time>
      </trkpt>
      <trkpt lat="46.64041" lon="5.90127">
        <ele>783.4</ele>
        <time>2019-11-12T12:23:15Z</time>
      </trkpt>
      <trkpt lat="46.64037" lon="5.90119">
        <ele>783.67</ele>
        <time>2019-11-12T12:23:22Z</time>
      </trkpt>
      <trkpt lat="46.64026" lon="5.901">
        <ele>784.47</ele>
        <time>2019-11-12T12:23:38Z</time>
      </trkpt>
      <trkpt lat="46.64017" lon="5.90088">
        <ele>780.81</ele>
        <time>2019-11-12T12:23:49Z</time>
      </trkpt>
      <trkpt lat="46.64016" lon="5.90087">
        <ele>780.82</ele>
        <time>2019-11-12T12:23:50Z</time>
      </trkpt>
      <trkpt lat="46.64014" lon="5.90087">
        <ele>784.53</ele>
        <time>2019-11-12T12:23:55Z</time>
      </trkpt>
      <trkpt lat="46.64014" lon="5.90087">
        <ele>784.43</ele>
        <time>2019-11-12T12:23:56Z</time>
      </trkpt>
      <trkpt lat="46.64005" lon="5.90081">
        <ele>784.54</ele>
        <time>2019-11-12T12:24:10Z</time>
      </trkpt>
      <trkpt lat="46.63996" lon="5.90075">
        <ele>786.57</ele>
        <time>2019-11-12T12:24:22Z</time>
      </trkpt>
      <trkpt lat="46.63987" lon="5.90065">
        <ele>786.95</ele>
        <time>2019-11-12T12:24:36Z</time>
      </trkpt>
      <trkpt lat="46.6398" lon="5.90058">
        <ele>787.33</ele>
        <time>2019-11-12T12:24:53Z</time>
      </trkpt>
      <trkpt lat="46.63978" lon="5.90057">
        <ele>787.87</ele>
        <time>2019-11-12T12:24:55Z</time>
      </trkpt>
      <trkpt lat="46.63976" lon="5.90055">
        <ele>787.95</ele>
        <time>2019-11-12T12:24:57Z</time>
      </trkpt>
      <trkpt lat="46.63973" lon="5.90053">
        <ele>787.93</ele>
        <time>2019-11-12T12:25:00Z</time>
      </trkpt>
      <trkpt lat="46.63958" lon="5.90044">
        <ele>789.05</ele>
        <time>2019-11-12T12:25:17Z</time>
      </trkpt>
      <trkpt lat="46.63944" lon="5.90032">
        <ele>789.14</ele>
        <time>2019-11-12T12:25:31Z</time>
      </trkpt>
      <trkpt lat="46.63943" lon="5.90031">
        <ele>789.11</ele>
        <time>2019-11-12T12:25:33Z</time>
      </trkpt>
      <trkpt lat="46.63938" lon="5.90027">
        <ele>789.26</ele>
        <time>2019-11-12T12:25:38Z</time>
      </trkpt>
      <trkpt lat="46.63929" lon="5.90026">
        <ele>788.96</ele>
        <time>2019-11-12T12:25:51Z</time>
      </trkpt>
      <trkpt lat="46.63915" lon="5.90021">
        <ele>787.93</ele>
        <time>2019-11-12T12:26:04Z</time>
      </trkpt>
      <trkpt lat="46.63894" lon="5.9002">
        <ele>786.91</ele>
        <time>2019-11-12T12:26:22Z</time>
      </trkpt>
      <trkpt lat="46.63876" lon="5.9001">
        <ele>785.51</ele>
        <time>2019-11-12T12:26:40Z</time>
      </trkpt>
      <trkpt lat="46.63864" lon="5.90005">
        <ele>785.65</ele>
        <time>2019-11-12T12:26:53Z</time>
      </trkpt>
      <trkpt lat="46.63853" lon="5.89999">
        <ele>785</ele>
        <time>2019-11-12T12:27:04Z</time>
      </trkpt>
      <trkpt lat="46.6384" lon="5.89992">
        <ele>784.42</ele>
        <time>2019-11-12T12:27:18Z</time>
      </trkpt>
      <trkpt lat="46.63838" lon="5.89991">
        <ele>784.25</ele>
        <time>2019-11-12T12:27:20Z</time>
      </trkpt>
      <trkpt lat="46.63824" lon="5.89982">
        <ele>783.57</ele>
        <time>2019-11-12T12:27:36Z</time>
      </trkpt>
      <trkpt lat="46.63803" lon="5.89977">
        <ele>783.07</ele>
        <time>2019-11-12T12:27:53Z</time>
      </trkpt>
      <trkpt lat="46.63798" lon="5.89975">
        <ele>783.44</ele>
        <time>2019-11-12T12:27:58Z</time>
      </trkpt>
      <trkpt lat="46.63775" lon="5.89967">
        <ele>781.77</ele>
        <time>2019-11-12T12:28:16Z</time>
      </trkpt>
      <trkpt lat="46.63759" lon="5.89963">
        <ele>780.26</ele>
        <time>2019-11-12T12:28:30Z</time>
      </trkpt>
      <trkpt lat="46.6375" lon="5.89954">
        <ele>778.55</ele>
        <time>2019-11-12T12:28:45Z</time>
      </trkpt>
      <trkpt lat="46.6375" lon="5.89953">
        <ele>778.55</ele>
        <time>2019-11-12T12:28:46Z</time>
      </trkpt>
      <trkpt lat="46.63749" lon="5.89954">
        <ele>780.33</ele>
        <time>2019-11-12T12:28:52Z</time>
      </trkpt>
      <trkpt lat="46.6375" lon="5.89955">
        <ele>779.83</ele>
        <time>2019-11-12T12:29:09Z</time>
      </trkpt>
      <trkpt lat="46.63751" lon="5.89956">
        <ele>780.09</ele>
        <time>2019-11-12T12:29:25Z</time>
      </trkpt>
      <trkpt lat="46.63751" lon="5.89955">
        <ele>779.61</ele>
        <time>2019-11-12T12:29:27Z</time>
      </trkpt>
      <trkpt lat="46.63752" lon="5.89948">
        <ele>779.34</ele>
        <time>2019-11-12T12:29:31Z</time>
      </trkpt>
      <trkpt lat="46.63758" lon="5.8993">
        <ele>778.85</ele>
        <time>2019-11-12T12:29:48Z</time>
      </trkpt>
      <trkpt lat="46.63759" lon="5.89918">
        <ele>777.93</ele>
        <time>2019-11-12T12:30:03Z</time>
      </trkpt>
      <trkpt lat="46.6376" lon="5.89906">
        <ele>778.3</ele>
        <time>2019-11-12T12:30:11Z</time>
      </trkpt>
      <trkpt lat="46.63764" lon="5.89873">
        <ele>778.8</ele>
        <time>2019-11-12T12:30:30Z</time>
      </trkpt>
      <trkpt lat="46.63765" lon="5.89859">
        <ele>779.63</ele>
        <time>2019-11-12T12:30:41Z</time>
      </trkpt>
      <trkpt lat="46.63766" lon="5.89836">
        <ele>781.16</ele>
        <time>2019-11-12T12:30:56Z</time>
      </trkpt>
      <trkpt lat="46.63766" lon="5.89829">
        <ele>781.07</ele>
        <time>2019-11-12T12:31:01Z</time>
      </trkpt>
      <trkpt lat="46.63766" lon="5.89825">
        <ele>781.87</ele>
        <time>2019-11-12T12:31:04Z</time>
      </trkpt>
      <trkpt lat="46.63766" lon="5.89821">
        <ele>781.92</ele>
        <time>2019-11-12T12:31:06Z</time>
      </trkpt>
      <trkpt lat="46.63762" lon="5.89805">
        <ele>781.9</ele>
        <time>2019-11-12T12:31:18Z</time>
      </trkpt>
      <trkpt lat="46.63754" lon="5.89795">
        <ele>781.59</ele>
        <time>2019-11-12T12:31:27Z</time>
      </trkpt>
      <trkpt lat="46.63739" lon="5.8979">
        <ele>779.32</ele>
        <time>2019-11-12T12:31:43Z</time>
      </trkpt>
      <trkpt lat="46.63727" lon="5.89785">
        <ele>779.08</ele>
        <time>2019-11-12T12:31:56Z</time>
      </trkpt>
      <trkpt lat="46.63721" lon="5.89776">
        <ele>779.21</ele>
        <time>2019-11-12T12:32:03Z</time>
      </trkpt>
      <trkpt lat="46.6371" lon="5.89757">
        <ele>778.99</ele>
        <time>2019-11-12T12:32:19Z</time>
      </trkpt>
      <trkpt lat="46.63702" lon="5.89743">
        <ele>780.17</ele>
        <time>2019-11-12T12:32:34Z</time>
      </trkpt>
      <trkpt lat="46.63701" lon="5.89743">
        <ele>780.25</ele>
        <time>2019-11-12T12:32:35Z</time>
      </trkpt>
      <trkpt lat="46.6369" lon="5.89737">
        <ele>781.2</ele>
        <time>2019-11-12T12:32:48Z</time>
      </trkpt>
      <trkpt lat="46.63678" lon="5.89731">
        <ele>781.29</ele>
        <time>2019-11-12T12:33:04Z</time>
      </trkpt>
      <trkpt lat="46.6367" lon="5.89727">
        <ele>781.71</ele>
        <time>2019-11-12T12:33:12Z</time>
      </trkpt>
      <trkpt lat="46.63665" lon="5.89723">
        <ele>781.81</ele>
        <time>2019-11-12T12:33:17Z</time>
      </trkpt>
      <trkpt lat="46.63649" lon="5.8971">
        <ele>781.48</ele>
        <time>2019-11-12T12:33:34Z</time>
      </trkpt>
      <trkpt lat="46.63632" lon="5.89704">
        <ele>781.93</ele>
        <time>2019-11-12T12:33:49Z</time>
      </trkpt>
      <trkpt lat="46.63623" lon="5.89705">
        <ele>780.28</ele>
        <time>2019-11-12T12:34:00Z</time>
      </trkpt>
      <trkpt lat="46.63608" lon="5.89704">
        <ele>779.85</ele>
        <time>2019-11-12T12:34:15Z</time>
      </trkpt>
      <trkpt lat="46.6359" lon="5.89705">
        <ele>778.14</ele>
        <time>2019-11-12T12:34:31Z</time>
      </trkpt>
      <trkpt lat="46.63569" lon="5.89701">
        <ele>777.62</ele>
        <time>2019-11-12T12:34:48Z</time>
      </trkpt>
      <trkpt lat="46.6355" lon="5.89701">
        <ele>775.33</ele>
        <time>2019-11-12T12:35:06Z</time>
      </trkpt>
      <trkpt lat="46.63526" lon="5.89703">
        <ele>774.64</ele>
        <time>2019-11-12T12:35:25Z</time>
      </trkpt>
      <trkpt lat="46.63501" lon="5.89709">
        <ele>772.52</ele>
        <time>2019-11-12T12:35:46Z</time>
      </trkpt>
      <trkpt lat="46.63484" lon="5.89716">
        <ele>771.13</ele>
        <time>2019-11-12T12:36:01Z</time>
      </trkpt>
      <trkpt lat="46.63463" lon="5.89721">
        <ele>769.39</ele>
        <time>2019-11-12T12:36:19Z</time>
      </trkpt>
      <trkpt lat="46.63456" lon="5.89722">
        <ele>769.83</ele>
        <time>2019-11-12T12:36:25Z</time>
      </trkpt>
      <trkpt lat="46.63444" lon="5.89709">
        <ele>768.99</ele>
        <time>2019-11-12T12:36:39Z</time>
      </trkpt>
      <trkpt lat="46.63432" lon="5.89687">
        <ele>768.57</ele>
        <time>2019-11-12T12:36:55Z</time>
      </trkpt>
      <trkpt lat="46.63425" lon="5.89673">
        <ele>768.78</ele>
        <time>2019-11-12T12:37:04Z</time>
      </trkpt>
      <trkpt lat="46.63418" lon="5.89661">
        <ele>768.62</ele>
        <time>2019-11-12T12:37:14Z</time>
      </trkpt>
      <trkpt lat="46.63409" lon="5.89635">
        <ele>767.17</ele>
        <time>2019-11-12T12:37:33Z</time>
      </trkpt>
      <trkpt lat="46.63408" lon="5.89632">
        <ele>765.98</ele>
        <time>2019-11-12T12:37:35Z</time>
      </trkpt>
      <trkpt lat="46.63404" lon="5.8961">
        <ele>765.58</ele>
        <time>2019-11-12T12:37:51Z</time>
      </trkpt>
      <trkpt lat="46.63402" lon="5.89584">
        <ele>764.72</ele>
        <time>2019-11-12T12:38:07Z</time>
      </trkpt>
      <trkpt lat="46.63404" lon="5.89548">
        <ele>764.13</ele>
        <time>2019-11-12T12:38:26Z</time>
      </trkpt>
      <trkpt lat="46.63406" lon="5.89521">
        <ele>762.8</ele>
        <time>2019-11-12T12:38:41Z</time>
      </trkpt>
      <trkpt lat="46.63408" lon="5.89489">
        <ele>761.53</ele>
        <time>2019-11-12T12:38:59Z</time>
      </trkpt>
      <trkpt lat="46.634" lon="5.89459">
        <ele>760.51</ele>
        <time>2019-11-12T12:39:20Z</time>
      </trkpt>
      <trkpt lat="46.634" lon="5.89458">
        <ele>760.22</ele>
        <time>2019-11-12T12:39:21Z</time>
      </trkpt>
      <trkpt lat="46.63392" lon="5.89434">
        <ele>759.73</ele>
        <time>2019-11-12T12:39:37Z</time>
      </trkpt>
      <trkpt lat="46.63386" lon="5.89419">
        <ele>759.57</ele>
        <time>2019-11-12T12:39:49Z</time>
      </trkpt>
      <trkpt lat="46.63379" lon="5.89397">
        <ele>760.37</ele>
        <time>2019-11-12T12:40:04Z</time>
      </trkpt>
      <trkpt lat="46.63371" lon="5.89378">
        <ele>760.43</ele>
        <time>2019-11-12T12:40:18Z</time>
      </trkpt>
      <trkpt lat="46.63363" lon="5.89351">
        <ele>760.64</ele>
        <time>2019-11-12T12:40:32Z</time>
      </trkpt>
      <trkpt lat="46.63357" lon="5.89333">
        <ele>760.39</ele>
        <time>2019-11-12T12:40:44Z</time>
      </trkpt>
      <trkpt lat="46.63339" lon="5.89318">
        <ele>761.12</ele>
        <time>2019-11-12T12:41:02Z</time>
      </trkpt>
      <trkpt lat="46.63323" lon="5.89315">
        <ele>761.11</ele>
        <time>2019-11-12T12:41:17Z</time>
      </trkpt>
      <trkpt lat="46.63313" lon="5.89311">
        <ele>762.44</ele>
        <time>2019-11-12T12:41:25Z</time>
      </trkpt>
      <trkpt lat="46.63297" lon="5.89297">
        <ele>761.98</ele>
        <time>2019-11-12T12:41:42Z</time>
      </trkpt>
      <trkpt lat="46.63282" lon="5.89277">
        <ele>762.27</ele>
        <time>2019-11-12T12:41:59Z</time>
      </trkpt>
      <trkpt lat="46.63281" lon="5.89276">
        <ele>762.63</ele>
        <time>2019-11-12T12:42:00Z</time>
      </trkpt>
      <trkpt lat="46.63275" lon="5.89268">
        <ele>763.94</ele>
        <time>2019-11-12T12:42:08Z</time>
      </trkpt>
      <trkpt lat="46.63263" lon="5.89247">
        <ele>763.93</ele>
        <time>2019-11-12T12:42:24Z</time>
      </trkpt>
      <trkpt lat="46.63261" lon="5.8924">
        <ele>765.13</ele>
        <time>2019-11-12T12:42:29Z</time>
      </trkpt>
      <trkpt lat="46.63257" lon="5.89213">
        <ele>764.69</ele>
        <time>2019-11-12T12:42:47Z</time>
      </trkpt>
      <trkpt lat="46.63255" lon="5.89189">
        <ele>764.9</ele>
        <time>2019-11-12T12:43:01Z</time>
      </trkpt>
      <trkpt lat="46.63253" lon="5.89175">
        <ele>765.23</ele>
        <time>2019-11-12T12:43:18Z</time>
      </trkpt>
      <trkpt lat="46.63248" lon="5.89173">
        <ele>764.73</ele>
        <time>2019-11-12T12:43:22Z</time>
      </trkpt>
      <trkpt lat="46.63228" lon="5.8916">
        <ele>765.21</ele>
        <time>2019-11-12T12:43:42Z</time>
      </trkpt>
      <trkpt lat="46.63225" lon="5.89159">
        <ele>764.73</ele>
        <time>2019-11-12T12:43:45Z</time>
      </trkpt>
      <trkpt lat="46.6321" lon="5.89146">
        <ele>765.18</ele>
        <time>2019-11-12T12:44:01Z</time>
      </trkpt>
      <trkpt lat="46.63194" lon="5.89126">
        <ele>764.71</ele>
        <time>2019-11-12T12:44:20Z</time>
      </trkpt>
      <trkpt lat="46.63184" lon="5.8911">
        <ele>765.12</ele>
        <time>2019-11-12T12:44:35Z</time>
      </trkpt>
      <trkpt lat="46.63173" lon="5.8909">
        <ele>765.73</ele>
        <time>2019-11-12T12:44:52Z</time>
      </trkpt>
      <trkpt lat="46.63163" lon="5.89071">
        <ele>767.04</ele>
        <time>2019-11-12T12:45:09Z</time>
      </trkpt>
      <trkpt lat="46.63154" lon="5.89052">
        <ele>767.88</ele>
        <time>2019-11-12T12:45:25Z</time>
      </trkpt>
      <trkpt lat="46.63141" lon="5.8903">
        <ele>767.74</ele>
        <time>2019-11-12T12:45:44Z</time>
      </trkpt>
      <trkpt lat="46.63131" lon="5.89005">
        <ele>768.97</ele>
        <time>2019-11-12T12:46:03Z</time>
      </trkpt>
      <trkpt lat="46.63122" lon="5.88985">
        <ele>770.03</ele>
        <time>2019-11-12T12:46:19Z</time>
      </trkpt>
      <trkpt lat="46.6312" lon="5.88983">
        <ele>769.2</ele>
        <time>2019-11-12T12:46:21Z</time>
      </trkpt>
      <trkpt lat="46.63106" lon="5.88971">
        <ele>769.19</ele>
        <time>2019-11-12T12:46:37Z</time>
      </trkpt>
      <trkpt lat="46.63096" lon="5.88959">
        <ele>769.73</ele>
        <time>2019-11-12T12:46:51Z</time>
      </trkpt>
      <trkpt lat="46.63084" lon="5.88945">
        <ele>769.39</ele>
        <time>2019-11-12T12:47:06Z</time>
      </trkpt>
      <trkpt lat="46.63069" lon="5.88924">
        <ele>770.33</ele>
        <time>2019-11-12T12:47:26Z</time>
      </trkpt>
      <trkpt lat="46.63056" lon="5.88906">
        <ele>771.04</ele>
        <time>2019-11-12T12:47:45Z</time>
      </trkpt>
      <trkpt lat="46.63046" lon="5.88884">
        <ele>771.49</ele>
        <time>2019-11-12T12:48:06Z</time>
      </trkpt>
      <trkpt lat="46.63031" lon="5.88869">
        <ele>772.22</ele>
        <time>2019-11-12T12:48:24Z</time>
      </trkpt>
      <trkpt lat="46.63017" lon="5.88851">
        <ele>772.52</ele>
        <time>2019-11-12T12:48:44Z</time>
      </trkpt>
      <trkpt lat="46.63003" lon="5.8884">
        <ele>772.15</ele>
        <time>2019-11-12T12:49:02Z</time>
      </trkpt>
      <trkpt lat="46.62989" lon="5.88819">
        <ele>772.71</ele>
        <time>2019-11-12T12:49:23Z</time>
      </trkpt>
      <trkpt lat="46.62978" lon="5.88815">
        <ele>773.75</ele>
        <time>2019-11-12T12:49:40Z</time>
      </trkpt>
      <trkpt lat="46.62972" lon="5.88808">
        <ele>773.13</ele>
        <time>2019-11-12T12:49:56Z</time>
      </trkpt>
      <trkpt lat="46.62957" lon="5.8879">
        <ele>774.63</ele>
        <time>2019-11-12T12:50:16Z</time>
      </trkpt>
      <trkpt lat="46.62943" lon="5.88775">
        <ele>775.23</ele>
        <time>2019-11-12T12:50:35Z</time>
      </trkpt>
      <trkpt lat="46.62932" lon="5.88761">
        <ele>776.21</ele>
        <time>2019-11-12T12:50:51Z</time>
      </trkpt>
      <trkpt lat="46.62917" lon="5.8875">
        <ele>775.99</ele>
        <time>2019-11-12T12:51:11Z</time>
      </trkpt>
      <trkpt lat="46.62906" lon="5.88737">
        <ele>776.52</ele>
        <time>2019-11-12T12:51:30Z</time>
      </trkpt>
      <trkpt lat="46.62892" lon="5.88727">
        <ele>776.47</ele>
        <time>2019-11-12T12:51:48Z</time>
      </trkpt>
      <trkpt lat="46.62885" lon="5.88714">
        <ele>777.64</ele>
        <time>2019-11-12T12:52:04Z</time>
      </trkpt>
      <trkpt lat="46.62885" lon="5.88708">
        <ele>778.04</ele>
        <time>2019-11-12T12:52:27Z</time>
      </trkpt>
      <trkpt lat="46.62881" lon="5.88705">
        <ele>777.85</ele>
        <time>2019-11-12T12:52:55Z</time>
      </trkpt>
      <trkpt lat="46.62884" lon="5.88706">
        <ele>777.29</ele>
        <time>2019-11-12T12:53:19Z</time>
      </trkpt>
      <trkpt lat="46.62883" lon="5.88709">
        <ele>776.97</ele>
        <time>2019-11-12T12:53:42Z</time>
      </trkpt>
      <trkpt lat="46.6287" lon="5.887">
        <ele>776.98</ele>
        <time>2019-11-12T12:54:00Z</time>
      </trkpt>
      <trkpt lat="46.62854" lon="5.88682">
        <ele>777.61</ele>
        <time>2019-11-12T12:54:18Z</time>
      </trkpt>
      <trkpt lat="46.62853" lon="5.8868">
        <ele>777.78</ele>
        <time>2019-11-12T12:54:19Z</time>
      </trkpt>
      <trkpt lat="46.62849" lon="5.88675">
        <ele>778.38</ele>
        <time>2019-11-12T12:54:23Z</time>
      </trkpt>
      <trkpt lat="46.62834" lon="5.88663">
        <ele>778.75</ele>
        <time>2019-11-12T12:54:38Z</time>
      </trkpt>
      <trkpt lat="46.62829" lon="5.88658">
        <ele>779.27</ele>
        <time>2019-11-12T12:55:03Z</time>
      </trkpt>
      <trkpt lat="46.62825" lon="5.88663">
        <ele>778.95</ele>
        <time>2019-11-12T12:55:26Z</time>
      </trkpt>
      <trkpt lat="46.62821" lon="5.88667">
        <ele>778.81</ele>
        <time>2019-11-12T12:55:55Z</time>
      </trkpt>
      <trkpt lat="46.62821" lon="5.88666">
        <ele>778.83</ele>
        <time>2019-11-12T12:56:17Z</time>
      </trkpt>
      <trkpt lat="46.62822" lon="5.88666">
        <ele>778.83</ele>
        <time>2019-11-12T12:56:37Z</time>
      </trkpt>
      <trkpt lat="46.62821" lon="5.88661">
        <ele>778.2</ele>
        <time>2019-11-12T12:56:58Z</time>
      </trkpt>
      <trkpt lat="46.62815" lon="5.88647">
        <ele>779.19</ele>
        <time>2019-11-12T12:57:14Z</time>
      </trkpt>
      <trkpt lat="46.62818" lon="5.88633">
        <ele>779.79</ele>
        <time>2019-11-12T12:57:31Z</time>
      </trkpt>
      <trkpt lat="46.62811" lon="5.88621">
        <ele>779.88</ele>
        <time>2019-11-12T12:57:47Z</time>
      </trkpt>
      <trkpt lat="46.62797" lon="5.88614">
        <ele>779.54</ele>
        <time>2019-11-12T12:58:06Z</time>
      </trkpt>
      <trkpt lat="46.62785" lon="5.88613">
        <ele>778.51</ele>
        <time>2019-11-12T12:58:22Z</time>
      </trkpt>
      <trkpt lat="46.62773" lon="5.88601">
        <ele>779.48</ele>
        <time>2019-11-12T12:58:37Z</time>
      </trkpt>
      <trkpt lat="46.62761" lon="5.88586">
        <ele>779.93</ele>
        <time>2019-11-12T12:58:52Z</time>
      </trkpt>
      <trkpt lat="46.62752" lon="5.88576">
        <ele>779.79</ele>
        <time>2019-11-12T12:59:09Z</time>
      </trkpt>
      <trkpt lat="46.62734" lon="5.8856">
        <ele>780.31</ele>
        <time>2019-11-12T12:59:30Z</time>
      </trkpt>
      <trkpt lat="46.62719" lon="5.88548">
        <ele>779.5</ele>
        <time>2019-11-12T12:59:47Z</time>
      </trkpt>
      <trkpt lat="46.62705" lon="5.8853">
        <ele>780.47</ele>
        <time>2019-11-12T13:00:06Z</time>
      </trkpt>
      <trkpt lat="46.62689" lon="5.88516">
        <ele>780.52</ele>
        <time>2019-11-12T13:00:24Z</time>
      </trkpt>
      <trkpt lat="46.62687" lon="5.88512">
        <ele>780.37</ele>
        <time>2019-11-12T13:00:27Z</time>
      </trkpt>
      <trkpt lat="46.62671" lon="5.88491">
        <ele>780.11</ele>
        <time>2019-11-12T13:00:45Z</time>
      </trkpt>
      <trkpt lat="46.62658" lon="5.88474">
        <ele>780.07</ele>
        <time>2019-11-12T13:01:01Z</time>
      </trkpt>
      <trkpt lat="46.62653" lon="5.88467">
        <ele>779.87</ele>
        <time>2019-11-12T13:01:06Z</time>
      </trkpt>
      <trkpt lat="46.62642" lon="5.88453">
        <ele>779.74</ele>
        <time>2019-11-12T13:01:19Z</time>
      </trkpt>
      <trkpt lat="46.62626" lon="5.88437">
        <ele>779.51</ele>
        <time>2019-11-12T13:01:37Z</time>
      </trkpt>
      <trkpt lat="46.62622" lon="5.88434">
        <ele>780.66</ele>
        <time>2019-11-12T13:01:42Z</time>
      </trkpt>
      <trkpt lat="46.62619" lon="5.88432">
        <ele>780.21</ele>
        <time>2019-11-12T13:01:46Z</time>
      </trkpt>
      <trkpt lat="46.62615" lon="5.8843">
        <ele>780.29</ele>
        <time>2019-11-12T13:01:50Z</time>
      </trkpt>
      <trkpt lat="46.6261" lon="5.88427">
        <ele>780.53</ele>
        <time>2019-11-12T13:01:55Z</time>
      </trkpt>
      <trkpt lat="46.62602" lon="5.88414">
        <ele>780.49</ele>
        <time>2019-11-12T13:02:08Z</time>
      </trkpt>
      <trkpt lat="46.62595" lon="5.88395">
        <ele>780.09</ele>
        <time>2019-11-12T13:02:22Z</time>
      </trkpt>
      <trkpt lat="46.62587" lon="5.88384">
        <ele>780.67</ele>
        <time>2019-11-12T13:02:34Z</time>
      </trkpt>
      <trkpt lat="46.62586" lon="5.88383">
        <ele>780.35</ele>
        <time>2019-11-12T13:02:35Z</time>
      </trkpt>
      <trkpt lat="46.62575" lon="5.88369">
        <ele>780.37</ele>
        <time>2019-11-12T13:02:49Z</time>
      </trkpt>
      <trkpt lat="46.62562" lon="5.88357">
        <ele>779.56</ele>
        <time>2019-11-12T13:03:03Z</time>
      </trkpt>
      <trkpt lat="46.62547" lon="5.8835">
        <ele>780.68</ele>
        <time>2019-11-12T13:03:17Z</time>
      </trkpt>
      <trkpt lat="46.6254" lon="5.88344">
        <ele>781.99</ele>
        <time>2019-11-12T13:03:34Z</time>
      </trkpt>
      <trkpt lat="46.62532" lon="5.88333">
        <ele>781.97</ele>
        <time>2019-11-12T13:03:43Z</time>
      </trkpt>
      <trkpt lat="46.6253" lon="5.88329">
        <ele>782.35</ele>
        <time>2019-11-12T13:03:46Z</time>
      </trkpt>
      <trkpt lat="46.62525" lon="5.88322">
        <ele>781.86</ele>
        <time>2019-11-12T13:03:52Z</time>
      </trkpt>
      <trkpt lat="46.62517" lon="5.88315">
        <ele>782.84</ele>
        <time>2019-11-12T13:04:06Z</time>
      </trkpt>
      <trkpt lat="46.6251" lon="5.88309">
        <ele>783.7</ele>
        <time>2019-11-12T13:04:15Z</time>
      </trkpt>
      <trkpt lat="46.625" lon="5.88298">
        <ele>784.64</ele>
        <time>2019-11-12T13:04:29Z</time>
      </trkpt>
      <trkpt lat="46.6249" lon="5.88285">
        <ele>784.58</ele>
        <time>2019-11-12T13:04:45Z</time>
      </trkpt>
      <trkpt lat="46.62488" lon="5.88283">
        <ele>784.52</ele>
        <time>2019-11-12T13:04:48Z</time>
      </trkpt>
      <trkpt lat="46.62474" lon="5.8827">
        <ele>784.64</ele>
        <time>2019-11-12T13:05:02Z</time>
      </trkpt>
      <trkpt lat="46.62464" lon="5.88253">
        <ele>786.02</ele>
        <time>2019-11-12T13:05:18Z</time>
      </trkpt>
      <trkpt lat="46.62452" lon="5.88239">
        <ele>787.05</ele>
        <time>2019-11-12T13:05:33Z</time>
      </trkpt>
      <trkpt lat="46.6244" lon="5.88217">
        <ele>787.05</ele>
        <time>2019-11-12T13:05:50Z</time>
      </trkpt>
      <trkpt lat="46.62424" lon="5.882">
        <ele>788.31</ele>
        <time>2019-11-12T13:06:09Z</time>
      </trkpt>
      <trkpt lat="46.62409" lon="5.88189">
        <ele>787.95</ele>
        <time>2019-11-12T13:06:25Z</time>
      </trkpt>
      <trkpt lat="46.62392" lon="5.88173">
        <ele>787.79</ele>
        <time>2019-11-12T13:06:43Z</time>
      </trkpt>
      <trkpt lat="46.62378" lon="5.88166">
        <ele>787.69</ele>
        <time>2019-11-12T13:06:56Z</time>
      </trkpt>
      <trkpt lat="46.62356" lon="5.88159">
        <ele>787.71</ele>
        <time>2019-11-12T13:07:16Z</time>
      </trkpt>
      <trkpt lat="46.62341" lon="5.88157">
        <ele>787.19</ele>
        <time>2019-11-12T13:07:28Z</time>
      </trkpt>
      <trkpt lat="46.62325" lon="5.88156">
        <ele>786.31</ele>
        <time>2019-11-12T13:07:42Z</time>
      </trkpt>
      <trkpt lat="46.62321" lon="5.88152">
        <ele>785.87</ele>
        <time>2019-11-12T13:08:01Z</time>
      </trkpt>
      <trkpt lat="46.62305" lon="5.88148">
        <ele>784.23</ele>
        <time>2019-11-12T13:08:18Z</time>
      </trkpt>
      <trkpt lat="46.62302" lon="5.88143">
        <ele>785.03</ele>
        <time>2019-11-12T13:08:37Z</time>
      </trkpt>
      <trkpt lat="46.62298" lon="5.88142">
        <ele>784.45</ele>
        <time>2019-11-12T13:09:00Z</time>
      </trkpt>
      <trkpt lat="46.62297" lon="5.88142">
        <ele>784.91</ele>
        <time>2019-11-12T13:09:23Z</time>
      </trkpt>
      <trkpt lat="46.62287" lon="5.88148">
        <ele>783.21</ele>
        <time>2019-11-12T13:09:44Z</time>
      </trkpt>
      <trkpt lat="46.62282" lon="5.8815">
        <ele>783.16</ele>
        <time>2019-11-12T13:09:49Z</time>
      </trkpt>
      <trkpt lat="46.62265" lon="5.88154">
        <ele>781.55</ele>
        <time>2019-11-12T13:10:05Z</time>
      </trkpt>
      <trkpt lat="46.62259" lon="5.88155">
        <ele>781.66</ele>
        <time>2019-11-12T13:10:10Z</time>
      </trkpt>
      <trkpt lat="46.62249" lon="5.88158">
        <ele>780.73</ele>
        <time>2019-11-12T13:10:20Z</time>
      </trkpt>
      <trkpt lat="46.62232" lon="5.88161">
        <ele>779.76</ele>
        <time>2019-11-12T13:10:36Z</time>
      </trkpt>
      <trkpt lat="46.62212" lon="5.88164">
        <ele>777.56</ele>
        <time>2019-11-12T13:10:53Z</time>
      </trkpt>
      <trkpt lat="46.62194" lon="5.88167">
        <ele>776.63</ele>
        <time>2019-11-12T13:11:08Z</time>
      </trkpt>
      <trkpt lat="46.62174" lon="5.88172">
        <ele>774.35</ele>
        <time>2019-11-12T13:11:25Z</time>
      </trkpt>
      <trkpt lat="46.62154" lon="5.88175">
        <ele>773.53</ele>
        <time>2019-11-12T13:11:42Z</time>
      </trkpt>
      <trkpt lat="46.62151" lon="5.88175">
        <ele>773.47</ele>
        <time>2019-11-12T13:11:44Z</time>
      </trkpt>
      <trkpt lat="46.62145" lon="5.88178">
        <ele>773.59</ele>
        <time>2019-11-12T13:11:50Z</time>
      </trkpt>
      <trkpt lat="46.62132" lon="5.88175">
        <ele>771.6</ele>
        <time>2019-11-12T13:12:01Z</time>
      </trkpt>
      <trkpt lat="46.62108" lon="5.88167">
        <ele>770.32</ele>
        <time>2019-11-12T13:12:20Z</time>
      </trkpt>
      <trkpt lat="46.62084" lon="5.88166">
        <ele>767.89</ele>
        <time>2019-11-12T13:12:39Z</time>
      </trkpt>
      <trkpt lat="46.62063" lon="5.88164">
        <ele>767.99</ele>
        <time>2019-11-12T13:12:55Z</time>
      </trkpt>
      <trkpt lat="46.62045" lon="5.88158">
        <ele>766.19</ele>
        <time>2019-11-12T13:13:11Z</time>
      </trkpt>
      <trkpt lat="46.62042" lon="5.88157">
        <ele>764.8</ele>
        <time>2019-11-12T13:13:14Z</time>
      </trkpt>
      <trkpt lat="46.6202" lon="5.88148">
        <ele>763.67</ele>
        <time>2019-11-12T13:13:31Z</time>
      </trkpt>
      <trkpt lat="46.61997" lon="5.88141">
        <ele>764.16</ele>
        <time>2019-11-12T13:13:51Z</time>
      </trkpt>
      <trkpt lat="46.6199" lon="5.88135">
        <ele>763.08</ele>
        <time>2019-11-12T13:13:58Z</time>
      </trkpt>
      <trkpt lat="46.61972" lon="5.8813">
        <ele>762.53</ele>
        <time>2019-11-12T13:14:14Z</time>
      </trkpt>
      <trkpt lat="46.61964" lon="5.88127">
        <ele>762.45</ele>
        <time>2019-11-12T13:14:27Z</time>
      </trkpt>
      <trkpt lat="46.6194" lon="5.88117">
        <ele>761.25</ele>
        <time>2019-11-12T13:14:49Z</time>
      </trkpt>
      <trkpt lat="46.61924" lon="5.88119">
        <ele>760.47</ele>
        <time>2019-11-12T13:15:04Z</time>
      </trkpt>
      <trkpt lat="46.61918" lon="5.8812">
        <ele>760.52</ele>
        <time>2019-11-12T13:15:09Z</time>
      </trkpt>
      <trkpt lat="46.61902" lon="5.88118">
        <ele>760.34</ele>
        <time>2019-11-12T13:15:24Z</time>
      </trkpt>
      <trkpt lat="46.6188" lon="5.88112">
        <ele>759.45</ele>
        <time>2019-11-12T13:15:43Z</time>
      </trkpt>
      <trkpt lat="46.61874" lon="5.88112">
        <ele>759.24</ele>
        <time>2019-11-12T13:15:49Z</time>
      </trkpt>
      <trkpt lat="46.61865" lon="5.88114">
        <ele>758.82</ele>
        <time>2019-11-12T13:16:05Z</time>
      </trkpt>
      <trkpt lat="46.61853" lon="5.88115">
        <ele>758.33</ele>
        <time>2019-11-12T13:16:23Z</time>
      </trkpt>
      <trkpt lat="46.6183" lon="5.88123">
        <ele>756.71</ele>
        <time>2019-11-12T13:16:43Z</time>
      </trkpt>
      <trkpt lat="46.61825" lon="5.8815">
        <ele>755.64</ele>
        <time>2019-11-12T13:17:01Z</time>
      </trkpt>
      <trkpt lat="46.61825" lon="5.88161">
        <ele>755.52</ele>
        <time>2019-11-12T13:17:15Z</time>
      </trkpt>
      <trkpt lat="46.61825" lon="5.88159">
        <ele>755.98</ele>
        <time>2019-11-12T13:17:33Z</time>
      </trkpt>
      <trkpt lat="46.61825" lon="5.88187">
        <ele>755.16</ele>
        <time>2019-11-12T13:18:04Z</time>
      </trkpt>
      <trkpt lat="46.61824" lon="5.88197">
        <ele>755.89</ele>
        <time>2019-11-12T13:20:47Z</time>
      </trkpt>
      <trkpt lat="46.61816" lon="5.88205">
        <ele>755.84</ele>
        <time>2019-11-12T13:20:56Z</time>
      </trkpt>
      <trkpt lat="46.61808" lon="5.88212">
        <ele>756.24</ele>
        <time>2019-11-12T13:21:06Z</time>
      </trkpt>
      <trkpt lat="46.61805" lon="5.88215">
        <ele>756.09</ele>
        <time>2019-11-12T13:21:52Z</time>
      </trkpt>
      <trkpt lat="46.61809" lon="5.88213">
        <ele>755.94</ele>
        <time>2019-11-12T13:21:58Z</time>
      </trkpt>
      <trkpt lat="46.61822" lon="5.88203">
        <ele>756.25</ele>
        <time>2019-11-12T13:22:14Z</time>
      </trkpt>
      <trkpt lat="46.61825" lon="5.88199">
        <ele>755.96</ele>
        <time>2019-11-12T13:22:27Z</time>
      </trkpt>
      <trkpt lat="46.61829" lon="5.88183">
        <ele>755.98</ele>
        <time>2019-11-12T13:22:42Z</time>
      </trkpt>
      <trkpt lat="46.61829" lon="5.88173">
        <ele>756.9</ele>
        <time>2019-11-12T13:23:19Z</time>
      </trkpt>
      <trkpt lat="46.61827" lon="5.88171">
        <ele>757.26</ele>
        <time>2019-11-12T13:24:49Z</time>
      </trkpt>
      <trkpt lat="46.61825" lon="5.88156">
        <ele>758.19</ele>
        <time>2019-11-12T13:25:02Z</time>
      </trkpt>
      <trkpt lat="46.61825" lon="5.88148">
        <ele>757.67</ele>
        <time>2019-11-12T13:25:08Z</time>
      </trkpt>
      <trkpt lat="46.61835" lon="5.88116">
        <ele>759.92</ele>
        <time>2019-11-12T13:25:30Z</time>
      </trkpt>
      <trkpt lat="46.61848" lon="5.88115">
        <ele>762.07</ele>
        <time>2019-11-12T13:25:45Z</time>
      </trkpt>
      <trkpt lat="46.61857" lon="5.88118">
        <ele>761.84</ele>
        <time>2019-11-12T13:25:54Z</time>
      </trkpt>
      <trkpt lat="46.61863" lon="5.88122">
        <ele>761.98</ele>
        <time>2019-11-12T13:26:00Z</time>
      </trkpt>
      <trkpt lat="46.61866" lon="5.88125">
        <ele>761.91</ele>
        <time>2019-11-12T13:26:03Z</time>
      </trkpt>
      <trkpt lat="46.61881" lon="5.88144">
        <ele>761.85</ele>
        <time>2019-11-12T13:26:19Z</time>
      </trkpt>
      <trkpt lat="46.61888" lon="5.88153">
        <ele>761.53</ele>
        <time>2019-11-12T13:26:33Z</time>
      </trkpt>
      <trkpt lat="46.61897" lon="5.88161">
        <ele>761.23</ele>
        <time>2019-11-12T13:26:47Z</time>
      </trkpt>
      <trkpt lat="46.61903" lon="5.88169">
        <ele>761.27</ele>
        <time>2019-11-12T13:26:54Z</time>
      </trkpt>
      <trkpt lat="46.61907" lon="5.88192">
        <ele>760.38</ele>
        <time>2019-11-12T13:27:10Z</time>
      </trkpt>
      <trkpt lat="46.61907" lon="5.88197">
        <ele>759.57</ele>
        <time>2019-11-12T13:27:16Z</time>
      </trkpt>
      <trkpt lat="46.6191" lon="5.88212">
        <ele>760.69</ele>
        <time>2019-11-12T13:27:31Z</time>
      </trkpt>
      <trkpt lat="46.61907" lon="5.88224">
        <ele>760.17</ele>
        <time>2019-11-12T13:27:44Z</time>
      </trkpt>
      <trkpt lat="46.61904" lon="5.8824">
        <ele>760.79</ele>
        <time>2019-11-12T13:28:00Z</time>
      </trkpt>
      <trkpt lat="46.619" lon="5.88262">
        <ele>761.92</ele>
        <time>2019-11-12T13:28:18Z</time>
      </trkpt>
      <trkpt lat="46.61897" lon="5.88275">
        <ele>763.09</ele>
        <time>2019-11-12T13:28:36Z</time>
      </trkpt>
      <trkpt lat="46.61891" lon="5.88288">
        <ele>763.95</ele>
        <time>2019-11-12T13:28:47Z</time>
      </trkpt>
      <trkpt lat="46.61881" lon="5.88307">
        <ele>766.02</ele>
        <time>2019-11-12T13:29:06Z</time>
      </trkpt>
      <trkpt lat="46.61874" lon="5.88325">
        <ele>767.58</ele>
        <time>2019-11-12T13:29:23Z</time>
      </trkpt>
      <trkpt lat="46.61862" lon="5.88344">
        <ele>770.04</ele>
        <time>2019-11-12T13:29:39Z</time>
      </trkpt>
      <trkpt lat="46.61848" lon="5.8836">
        <ele>771.54</ele>
        <time>2019-11-12T13:29:55Z</time>
      </trkpt>
      <trkpt lat="46.61833" lon="5.88371">
        <ele>774.18</ele>
        <time>2019-11-12T13:30:11Z</time>
      </trkpt>
      <trkpt lat="46.61818" lon="5.88387">
        <ele>775.73</ele>
        <time>2019-11-12T13:30:30Z</time>
      </trkpt>
      <trkpt lat="46.61815" lon="5.88396">
        <ele>775.72</ele>
        <time>2019-11-12T13:30:35Z</time>
      </trkpt>
      <trkpt lat="46.61816" lon="5.88415">
        <ele>774.13</ele>
        <time>2019-11-12T13:30:52Z</time>
      </trkpt>
      <trkpt lat="46.61818" lon="5.88435">
        <ele>772.7</ele>
        <time>2019-11-12T13:31:10Z</time>
      </trkpt>
      <trkpt lat="46.61817" lon="5.88442">
        <ele>771.96</ele>
        <time>2019-11-12T13:31:18Z</time>
      </trkpt>
      <trkpt lat="46.61816" lon="5.88445">
        <ele>773.17</ele>
        <time>2019-11-12T13:31:20Z</time>
      </trkpt>
      <trkpt lat="46.61813" lon="5.8846">
        <ele>772.12</ele>
        <time>2019-11-12T13:31:40Z</time>
      </trkpt>
      <trkpt lat="46.61815" lon="5.88485">
        <ele>771.74</ele>
        <time>2019-11-12T13:31:58Z</time>
      </trkpt>
      <trkpt lat="46.61814" lon="5.88515">
        <ele>771.71</ele>
        <time>2019-11-12T13:32:17Z</time>
      </trkpt>
      <trkpt lat="46.61817" lon="5.88543">
        <ele>770.55</ele>
        <time>2019-11-12T13:32:35Z</time>
      </trkpt>
      <trkpt lat="46.61815" lon="5.88574">
        <ele>767.15</ele>
        <time>2019-11-12T13:32:52Z</time>
      </trkpt>
      <trkpt lat="46.61815" lon="5.88576">
        <ele>767.13</ele>
        <time>2019-11-12T13:32:53Z</time>
      </trkpt>
      <trkpt lat="46.61812" lon="5.88594">
        <ele>769.48</ele>
        <time>2019-11-12T13:33:00Z</time>
      </trkpt>
      <trkpt lat="46.61812" lon="5.886">
        <ele>769.68</ele>
        <time>2019-11-12T13:33:03Z</time>
      </trkpt>
      <trkpt lat="46.61811" lon="5.8862">
        <ele>768.14</ele>
        <time>2019-11-12T13:33:13Z</time>
      </trkpt>
      <trkpt lat="46.61819" lon="5.88639">
        <ele>767.81</ele>
        <time>2019-11-12T13:33:25Z</time>
      </trkpt>
      <trkpt lat="46.61825" lon="5.88642">
        <ele>767.56</ele>
        <time>2019-11-12T13:33:54Z</time>
      </trkpt>
      <trkpt lat="46.61825" lon="5.88643">
        <ele>767</ele>
        <time>2019-11-12T13:33:55Z</time>
      </trkpt>
      <trkpt lat="46.61825" lon="5.88647">
        <ele>767</ele>
        <time>2019-11-12T13:33:57Z</time>
      </trkpt>
      <trkpt lat="46.61826" lon="5.88654">
        <ele>768.04</ele>
        <time>2019-11-12T13:34:02Z</time>
      </trkpt>
      <trkpt lat="46.61829" lon="5.88653">
        <ele>766.47</ele>
        <time>2019-11-12T13:34:16Z</time>
      </trkpt>
      <trkpt lat="46.61829" lon="5.88653">
        <ele>767.35</ele>
        <time>2019-11-12T13:34:45Z</time>
      </trkpt>
      <trkpt lat="46.61829" lon="5.88655">
        <ele>767.17</ele>
        <time>2019-11-12T13:34:57Z</time>
      </trkpt>
      <trkpt lat="46.61831" lon="5.8866">
        <ele>767.56</ele>
        <time>2019-11-12T13:35:06Z</time>
      </trkpt>
      <trkpt lat="46.61832" lon="5.88672">
        <ele>766.97</ele>
        <time>2019-11-12T13:35:15Z</time>
      </trkpt>
      <trkpt lat="46.61834" lon="5.88682">
        <ele>766.44</ele>
        <time>2019-11-12T13:35:22Z</time>
      </trkpt>
      <trkpt lat="46.61841" lon="5.88722">
        <ele>764.51</ele>
        <time>2019-11-12T13:35:43Z</time>
      </trkpt>
      <trkpt lat="46.61838" lon="5.88748">
        <ele>763.38</ele>
        <time>2019-11-12T13:35:57Z</time>
      </trkpt>
      <trkpt lat="46.61841" lon="5.88776">
        <ele>762.41</ele>
        <time>2019-11-12T13:36:13Z</time>
      </trkpt>
      <trkpt lat="46.61844" lon="5.88801">
        <ele>761.26</ele>
        <time>2019-11-12T13:36:29Z</time>
      </trkpt>
      <trkpt lat="46.61841" lon="5.88814">
        <ele>760.88</ele>
        <time>2019-11-12T13:36:46Z</time>
      </trkpt>
      <trkpt lat="46.6184" lon="5.88818">
        <ele>761.23</ele>
        <time>2019-11-12T13:37:04Z</time>
      </trkpt>
      <trkpt lat="46.61837" lon="5.88827">
        <ele>760.89</ele>
        <time>2019-11-12T13:37:20Z</time>
      </trkpt>
      <trkpt lat="46.61836" lon="5.88854">
        <ele>761.06</ele>
        <time>2019-11-12T13:37:38Z</time>
      </trkpt>
      <trkpt lat="46.61834" lon="5.8888">
        <ele>760.82</ele>
        <time>2019-11-12T13:37:53Z</time>
      </trkpt>
      <trkpt lat="46.61832" lon="5.889">
        <ele>761.24</ele>
        <time>2019-11-12T13:38:08Z</time>
      </trkpt>
      <trkpt lat="46.6183" lon="5.88913">
        <ele>761.76</ele>
        <time>2019-11-12T13:38:21Z</time>
      </trkpt>
      <trkpt lat="46.61828" lon="5.88925">
        <ele>761.72</ele>
        <time>2019-11-12T13:38:34Z</time>
      </trkpt>
      <trkpt lat="46.61827" lon="5.8893">
        <ele>762.07</ele>
        <time>2019-11-12T13:38:38Z</time>
      </trkpt>
      <trkpt lat="46.61825" lon="5.88936">
        <ele>761.13</ele>
        <time>2019-11-12T13:38:43Z</time>
      </trkpt>
      <trkpt lat="46.61818" lon="5.88951">
        <ele>761.8</ele>
        <time>2019-11-12T13:38:58Z</time>
      </trkpt>
      <trkpt lat="46.61812" lon="5.88957">
        <ele>759.28</ele>
        <time>2019-11-12T13:39:08Z</time>
      </trkpt>
      <trkpt lat="46.61807" lon="5.88965">
        <ele>761.28</ele>
        <time>2019-11-12T13:39:15Z</time>
      </trkpt>
      <trkpt lat="46.61796" lon="5.88976">
        <ele>761.47</ele>
        <time>2019-11-12T13:39:30Z</time>
      </trkpt>
      <trkpt lat="46.61787" lon="5.88988">
        <ele>762.11</ele>
        <time>2019-11-12T13:39:46Z</time>
      </trkpt>
      <trkpt lat="46.61778" lon="5.88994">
        <ele>761.49</ele>
        <time>2019-11-12T13:40:00Z</time>
      </trkpt>
      <trkpt lat="46.61773" lon="5.88994">
        <ele>761.82</ele>
        <time>2019-11-12T13:40:04Z</time>
      </trkpt>
      <trkpt lat="46.61761" lon="5.88986">
        <ele>761.22</ele>
        <time>2019-11-12T13:40:20Z</time>
      </trkpt>
      <trkpt lat="46.61741" lon="5.88971">
        <ele>761.82</ele>
        <time>2019-11-12T13:40:39Z</time>
      </trkpt>
      <trkpt lat="46.61723" lon="5.88965">
        <ele>761.9</ele>
        <time>2019-11-12T13:40:55Z</time>
      </trkpt>
      <trkpt lat="46.61714" lon="5.88958">
        <ele>762.04</ele>
        <time>2019-11-12T13:41:02Z</time>
      </trkpt>
      <trkpt lat="46.61696" lon="5.88958">
        <ele>761.41</ele>
        <time>2019-11-12T13:41:20Z</time>
      </trkpt>
      <trkpt lat="46.61681" lon="5.88961">
        <ele>760.97</ele>
        <time>2019-11-12T13:41:34Z</time>
      </trkpt>
      <trkpt lat="46.61662" lon="5.88971">
        <ele>761.15</ele>
        <time>2019-11-12T13:41:52Z</time>
      </trkpt>
      <trkpt lat="46.61646" lon="5.88991">
        <ele>760.97</ele>
        <time>2019-11-12T13:42:11Z</time>
      </trkpt>
      <trkpt lat="46.61642" lon="5.89011">
        <ele>761.25</ele>
        <time>2019-11-12T13:42:22Z</time>
      </trkpt>
      <trkpt lat="46.61642" lon="5.8904">
        <ele>760.99</ele>
        <time>2019-11-12T13:42:41Z</time>
      </trkpt>
      <trkpt lat="46.61641" lon="5.89066">
        <ele>761.08</ele>
        <time>2019-11-12T13:42:58Z</time>
      </trkpt>
      <trkpt lat="46.61636" lon="5.89084">
        <ele>761.12</ele>
        <time>2019-11-12T13:43:07Z</time>
      </trkpt>
      <trkpt lat="46.61628" lon="5.89097">
        <ele>761.52</ele>
        <time>2019-11-12T13:43:15Z</time>
      </trkpt>
      <trkpt lat="46.61609" lon="5.89104">
        <ele>762.23</ele>
        <time>2019-11-12T13:43:31Z</time>
      </trkpt>
      <trkpt lat="46.61604" lon="5.89102">
        <ele>763.03</ele>
        <time>2019-11-12T13:43:35Z</time>
      </trkpt>
      <trkpt lat="46.61592" lon="5.89097">
        <ele>763.69</ele>
        <time>2019-11-12T13:43:45Z</time>
      </trkpt>
      <trkpt lat="46.61581" lon="5.89093">
        <ele>764.34</ele>
        <time>2019-11-12T13:43:55Z</time>
      </trkpt>
      <trkpt lat="46.61574" lon="5.89094">
        <ele>763.87</ele>
        <time>2019-11-12T13:44:01Z</time>
      </trkpt>
      <trkpt lat="46.61551" lon="5.89103">
        <ele>764.35</ele>
        <time>2019-11-12T13:44:24Z</time>
      </trkpt>
      <trkpt lat="46.61544" lon="5.89102">
        <ele>763.95</ele>
        <time>2019-11-12T13:44:38Z</time>
      </trkpt>
      <trkpt lat="46.61527" lon="5.89115">
        <ele>764.12</ele>
        <time>2019-11-12T13:44:56Z</time>
      </trkpt>
      <trkpt lat="46.61519" lon="5.89123">
        <ele>763.79</ele>
        <time>2019-11-12T13:45:10Z</time>
      </trkpt>
      <trkpt lat="46.61517" lon="5.89124">
        <ele>763.84</ele>
        <time>2019-11-12T13:45:27Z</time>
      </trkpt>
      <trkpt lat="46.6151" lon="5.89132">
        <ele>764.49</ele>
        <time>2019-11-12T13:45:44Z</time>
      </trkpt>
      <trkpt lat="46.61509" lon="5.89132">
        <ele>764.24</ele>
        <time>2019-11-12T13:45:45Z</time>
      </trkpt>
      <trkpt lat="46.61505" lon="5.89132">
        <ele>764.57</ele>
        <time>2019-11-12T13:45:49Z</time>
      </trkpt>
      <trkpt lat="46.61497" lon="5.89133">
        <ele>765.32</ele>
        <time>2019-11-12T13:46:01Z</time>
      </trkpt>
      <trkpt lat="46.615" lon="5.89139">
        <ele>765.68</ele>
        <time>2019-11-12T13:46:13Z</time>
      </trkpt>
      <trkpt lat="46.6148" lon="5.89139">
        <ele>768.41</ele>
        <time>2019-11-12T13:46:33Z</time>
      </trkpt>
      <trkpt lat="46.61477" lon="5.89141">
        <ele>769.78</ele>
        <time>2019-11-12T13:46:36Z</time>
      </trkpt>
      <trkpt lat="46.61469" lon="5.89145">
        <ele>770.13</ele>
        <time>2019-11-12T13:46:44Z</time>
      </trkpt>
      <trkpt lat="46.61462" lon="5.89148">
        <ele>769.74</ele>
        <time>2019-11-12T13:46:51Z</time>
      </trkpt>
      <trkpt lat="46.61444" lon="5.89151">
        <ele>769.57</ele>
        <time>2019-11-12T13:47:06Z</time>
      </trkpt>
      <trkpt lat="46.61432" lon="5.89155">
        <ele>769.15</ele>
        <time>2019-11-12T13:47:21Z</time>
      </trkpt>
      <trkpt lat="46.61413" lon="5.89163">
        <ele>773.22</ele>
        <time>2019-11-12T13:47:38Z</time>
      </trkpt>
      <trkpt lat="46.6141" lon="5.89163">
        <ele>773.33</ele>
        <time>2019-11-12T13:47:41Z</time>
      </trkpt>
      <trkpt lat="46.61407" lon="5.89167">
        <ele>773.71</ele>
        <time>2019-11-12T13:47:46Z</time>
      </trkpt>
      <trkpt lat="46.61404" lon="5.89171">
        <ele>773.83</ele>
        <time>2019-11-12T13:47:51Z</time>
      </trkpt>
      <trkpt lat="46.61394" lon="5.89186">
        <ele>775.6</ele>
        <time>2019-11-12T13:48:05Z</time>
      </trkpt>
      <trkpt lat="46.61382" lon="5.89196">
        <ele>777.74</ele>
        <time>2019-11-12T13:48:23Z</time>
      </trkpt>
      <trkpt lat="46.61368" lon="5.89209">
        <ele>778.61</ele>
        <time>2019-11-12T13:48:39Z</time>
      </trkpt>
      <trkpt lat="46.61355" lon="5.89222">
        <ele>780.36</ele>
        <time>2019-11-12T13:48:54Z</time>
      </trkpt>
      <trkpt lat="46.61348" lon="5.89232">
        <ele>780.25</ele>
        <time>2019-11-12T13:49:05Z</time>
      </trkpt>
      <trkpt lat="46.61338" lon="5.89249">
        <ele>782.85</ele>
        <time>2019-11-12T13:49:20Z</time>
      </trkpt>
      <trkpt lat="46.61337" lon="5.8925">
        <ele>783.05</ele>
        <time>2019-11-12T13:49:21Z</time>
      </trkpt>
      <trkpt lat="46.6133" lon="5.8926">
        <ele>783.31</ele>
        <time>2019-11-12T13:49:32Z</time>
      </trkpt>
      <trkpt lat="46.61324" lon="5.89277">
        <ele>785.95</ele>
        <time>2019-11-12T13:49:48Z</time>
      </trkpt>
      <trkpt lat="46.61318" lon="5.89297">
        <ele>788.8</ele>
        <time>2019-11-12T13:50:09Z</time>
      </trkpt>
      <trkpt lat="46.61316" lon="5.89323">
        <ele>788.59</ele>
        <time>2019-11-12T13:50:28Z</time>
      </trkpt>
      <trkpt lat="46.61322" lon="5.8934">
        <ele>787.81</ele>
        <time>2019-11-12T13:50:47Z</time>
      </trkpt>
      <trkpt lat="46.61333" lon="5.89353">
        <ele>787</ele>
        <time>2019-11-12T13:51:01Z</time>
      </trkpt>
      <trkpt lat="46.61334" lon="5.8937">
        <ele>786.89</ele>
        <time>2019-11-12T13:51:22Z</time>
      </trkpt>
      <trkpt lat="46.61333" lon="5.89368">
        <ele>787.6</ele>
        <time>2019-11-12T13:51:56Z</time>
      </trkpt>
      <trkpt lat="46.61324" lon="5.89364">
        <ele>786.18</ele>
        <time>2019-11-12T13:52:19Z</time>
      </trkpt>
      <trkpt lat="46.61323" lon="5.89363">
        <ele>786.96</ele>
        <time>2019-11-12T13:52:48Z</time>
      </trkpt>
      <trkpt lat="46.61326" lon="5.89362">
        <ele>787.61</ele>
        <time>2019-11-12T13:53:13Z</time>
      </trkpt>
      <trkpt lat="46.61327" lon="5.89362">
        <ele>787.39</ele>
        <time>2019-11-12T13:53:33Z</time>
      </trkpt>
      <trkpt lat="46.61335" lon="5.89384">
        <ele>788.11</ele>
        <time>2019-11-12T13:53:50Z</time>
      </trkpt>
      <trkpt lat="46.61342" lon="5.89405">
        <ele>789.29</ele>
        <time>2019-11-12T13:54:05Z</time>
      </trkpt>
      <trkpt lat="46.61344" lon="5.89428">
        <ele>790.31</ele>
        <time>2019-11-12T13:54:25Z</time>
      </trkpt>
      <trkpt lat="46.61332" lon="5.89451">
        <ele>792.97</ele>
        <time>2019-11-12T13:54:45Z</time>
      </trkpt>
      <trkpt lat="46.61318" lon="5.89458">
        <ele>794.67</ele>
        <time>2019-11-12T13:55:02Z</time>
      </trkpt>
      <trkpt lat="46.61304" lon="5.89464">
        <ele>797.77</ele>
        <time>2019-11-12T13:55:21Z</time>
      </trkpt>
      <trkpt lat="46.61293" lon="5.89472">
        <ele>798.96</ele>
        <time>2019-11-12T13:55:32Z</time>
      </trkpt>
      <trkpt lat="46.61291" lon="5.89485">
        <ele>801.25</ele>
        <time>2019-11-12T13:55:45Z</time>
      </trkpt>
      <trkpt lat="46.61289" lon="5.89509">
        <ele>802.07</ele>
        <time>2019-11-12T13:55:59Z</time>
      </trkpt>
      <trkpt lat="46.61289" lon="5.89507">
        <ele>801.32</ele>
        <time>2019-11-12T13:56:15Z</time>
      </trkpt>
      <trkpt lat="46.61293" lon="5.89521">
        <ele>801.98</ele>
        <time>2019-11-12T13:56:26Z</time>
      </trkpt>
      <trkpt lat="46.61299" lon="5.89543">
        <ele>803.13</ele>
        <time>2019-11-12T13:56:44Z</time>
      </trkpt>
      <trkpt lat="46.61302" lon="5.89549">
        <ele>802.39</ele>
        <time>2019-11-12T13:56:49Z</time>
      </trkpt>
      <trkpt lat="46.61309" lon="5.89565">
        <ele>802.54</ele>
        <time>2019-11-12T13:57:04Z</time>
      </trkpt>
      <trkpt lat="46.61315" lon="5.89572">
        <ele>801.06</ele>
        <time>2019-11-12T13:57:19Z</time>
      </trkpt>
      <trkpt lat="46.61325" lon="5.89587">
        <ele>800.35</ele>
        <time>2019-11-12T13:57:36Z</time>
      </trkpt>
      <trkpt lat="46.61335" lon="5.89607">
        <ele>798.95</ele>
        <time>2019-11-12T13:57:56Z</time>
      </trkpt>
      <trkpt lat="46.6135" lon="5.89635">
        <ele>798.24</ele>
        <time>2019-11-12T13:58:15Z</time>
      </trkpt>
      <trkpt lat="46.61353" lon="5.8964">
        <ele>797.98</ele>
        <time>2019-11-12T13:58:19Z</time>
      </trkpt>
      <trkpt lat="46.61357" lon="5.89666">
        <ele>797.06</ele>
        <time>2019-11-12T13:58:35Z</time>
      </trkpt>
      <trkpt lat="46.61352" lon="5.89677">
        <ele>797.33</ele>
        <time>2019-11-12T13:58:41Z</time>
      </trkpt>
      <trkpt lat="46.61343" lon="5.89707">
        <ele>798.37</ele>
        <time>2019-11-12T13:59:00Z</time>
      </trkpt>
      <trkpt lat="46.6133" lon="5.89731">
        <ele>800.19</ele>
        <time>2019-11-12T13:59:17Z</time>
      </trkpt>
      <trkpt lat="46.61327" lon="5.89737">
        <ele>799.97</ele>
        <time>2019-11-12T13:59:27Z</time>
      </trkpt>
      <trkpt lat="46.61309" lon="5.89756">
        <ele>803.1</ele>
        <time>2019-11-12T13:59:43Z</time>
      </trkpt>
      <trkpt lat="46.61294" lon="5.89771">
        <ele>804.13</ele>
        <time>2019-11-12T14:00:01Z</time>
      </trkpt>
      <trkpt lat="46.6128" lon="5.89789">
        <ele>806.81</ele>
        <time>2019-11-12T14:00:23Z</time>
      </trkpt>
      <trkpt lat="46.61268" lon="5.89808">
        <ele>808.44</ele>
        <time>2019-11-12T14:00:43Z</time>
      </trkpt>
      <trkpt lat="46.61259" lon="5.89818">
        <ele>809.64</ele>
        <time>2019-11-12T14:00:53Z</time>
      </trkpt>
      <trkpt lat="46.61244" lon="5.89841">
        <ele>811.26</ele>
        <time>2019-11-12T14:01:12Z</time>
      </trkpt>
      <trkpt lat="46.61229" lon="5.89854">
        <ele>813.12</ele>
        <time>2019-11-12T14:01:34Z</time>
      </trkpt>
      <trkpt lat="46.61221" lon="5.89867">
        <ele>815.01</ele>
        <time>2019-11-12T14:01:53Z</time>
      </trkpt>
      <trkpt lat="46.61204" lon="5.89879">
        <ele>815.89</ele>
        <time>2019-11-12T14:02:08Z</time>
      </trkpt>
      <trkpt lat="46.61189" lon="5.89883">
        <ele>817.11</ele>
        <time>2019-11-12T14:02:19Z</time>
      </trkpt>
      <trkpt lat="46.61189" lon="5.89885">
        <ele>816.67</ele>
        <time>2019-11-12T14:02:21Z</time>
      </trkpt>
      <trkpt lat="46.61188" lon="5.89886">
        <ele>817.25</ele>
        <time>2019-11-12T14:02:23Z</time>
      </trkpt>
      <trkpt lat="46.61173" lon="5.89897">
        <ele>819.54</ele>
        <time>2019-11-12T14:02:42Z</time>
      </trkpt>
      <trkpt lat="46.6117" lon="5.89911">
        <ele>819.93</ele>
        <time>2019-11-12T14:02:54Z</time>
      </trkpt>
      <trkpt lat="46.61168" lon="5.89917">
        <ele>821.2</ele>
        <time>2019-11-12T14:02:59Z</time>
      </trkpt>
      <trkpt lat="46.61163" lon="5.89919">
        <ele>820.9</ele>
        <time>2019-11-12T14:03:17Z</time>
      </trkpt>
      <trkpt lat="46.61161" lon="5.8992">
        <ele>820.99</ele>
        <time>2019-11-12T14:03:41Z</time>
      </trkpt>
      <trkpt lat="46.61162" lon="5.8992">
        <ele>821.31</ele>
        <time>2019-11-12T14:04:00Z</time>
      </trkpt>
      <trkpt lat="46.61162" lon="5.89926">
        <ele>822.03</ele>
        <time>2019-11-12T14:04:14Z</time>
      </trkpt>
      <trkpt lat="46.61161" lon="5.89932">
        <ele>822.25</ele>
        <time>2019-11-12T14:04:37Z</time>
      </trkpt>
      <trkpt lat="46.61159" lon="5.89937">
        <ele>822.48</ele>
        <time>2019-11-12T14:05:02Z</time>
      </trkpt>
      <trkpt lat="46.61159" lon="5.89941">
        <ele>823.12</ele>
        <time>2019-11-12T14:05:28Z</time>
      </trkpt>
      <trkpt lat="46.61156" lon="5.89956">
        <ele>824.79</ele>
        <time>2019-11-12T14:05:48Z</time>
      </trkpt>
      <trkpt lat="46.6115" lon="5.89976">
        <ele>827.61</ele>
        <time>2019-11-12T14:06:07Z</time>
      </trkpt>
      <trkpt lat="46.61149" lon="5.89991">
        <ele>829.59</ele>
        <time>2019-11-12T14:06:21Z</time>
      </trkpt>
      <trkpt lat="46.6115" lon="5.90012">
        <ele>832.55</ele>
        <time>2019-11-12T14:06:38Z</time>
      </trkpt>
      <trkpt lat="46.61147" lon="5.90038">
        <ele>835.43</ele>
        <time>2019-11-12T14:06:57Z</time>
      </trkpt>
      <trkpt lat="46.61148" lon="5.90044">
        <ele>836.86</ele>
        <time>2019-11-12T14:07:05Z</time>
      </trkpt>
      <trkpt lat="46.6115" lon="5.90064">
        <ele>839.38</ele>
        <time>2019-11-12T14:07:23Z</time>
      </trkpt>
      <trkpt lat="46.61152" lon="5.90092">
        <ele>841.69</ele>
        <time>2019-11-12T14:07:46Z</time>
      </trkpt>
      <trkpt lat="46.6115" lon="5.90097">
        <ele>841.75</ele>
        <time>2019-11-12T14:07:49Z</time>
      </trkpt>
      <trkpt lat="46.61143" lon="5.90109">
        <ele>843.14</ele>
        <time>2019-11-12T14:08:03Z</time>
      </trkpt>
      <trkpt lat="46.61136" lon="5.90122">
        <ele>845.57</ele>
        <time>2019-11-12T14:08:25Z</time>
      </trkpt>
      <trkpt lat="46.61125" lon="5.90141">
        <ele>847.74</ele>
        <time>2019-11-12T14:08:44Z</time>
      </trkpt>
      <trkpt lat="46.61117" lon="5.90152">
        <ele>849.42</ele>
        <time>2019-11-12T14:09:07Z</time>
      </trkpt>
      <trkpt lat="46.61107" lon="5.90164">
        <ele>850.37</ele>
        <time>2019-11-12T14:09:25Z</time>
      </trkpt>
      <trkpt lat="46.61103" lon="5.9014">
        <ele>869.9</ele>
      </trkpt>
      <trkpt lat="46.61128" lon="5.90142">
        <ele>872.4</ele>
      </trkpt>
      <trkpt lat="46.61142" lon="5.90143">
        <ele>874.6</ele>
      </trkpt>
      <trkpt lat="46.61147" lon="5.9014">
        <ele>874.8</ele>
      </trkpt>
      <trkpt lat="46.6115" lon="5.90138">
        <ele>874.8</ele>
      </trkpt>
      <trkpt lat="46.61167" lon="5.90129">
        <ele>889.9</ele>
      </trkpt>
      <trkpt lat="46.61186" lon="5.90118">
        <ele>890.6</ele>
      </trkpt>
      <trkpt lat="46.61199" lon="5.9011">
        <ele>892.3</ele>
      </trkpt>
      <trkpt lat="46.61201" lon="5.9012">
        <ele>893.6</ele>
      </trkpt>
      <trkpt lat="46.61204" lon="5.90131">
        <ele>894.8</ele>
      </trkpt>
      <trkpt lat="46.61207" lon="5.90147">
        <ele>896</ele>
      </trkpt>
      <trkpt lat="46.61217" lon="5.90151">
        <ele>898.2</ele>
      </trkpt>
      <trkpt lat="46.61229" lon="5.90155">
        <ele>901.3</ele>
      </trkpt>
      <trkpt lat="46.6123" lon="5.90155">
        <ele>901.6</ele>
      </trkpt>
      <trkpt lat="46.61231" lon="5.90158">
        <ele>902.2</ele>
      </trkpt>
      <trkpt lat="46.61241" lon="5.90175">
        <ele>911.1</ele>
      </trkpt>
      <trkpt lat="46.61248" lon="5.90173">
        <ele>911.2</ele>
      </trkpt>
      <trkpt lat="46.61265" lon="5.90167">
        <ele>919.7</ele>
      </trkpt>
      <trkpt lat="46.61274" lon="5.9018">
        <ele>924.2</ele>
      </trkpt>
      <trkpt lat="46.61287" lon="5.90199">
        <ele>928.6</ele>
      </trkpt>
      <trkpt lat="46.6129" lon="5.90199">
        <ele>929</ele>
      </trkpt>
      <trkpt lat="46.61305" lon="5.902">
        <ele>931</ele>
      </trkpt>
      <trkpt lat="46.61311" lon="5.902">
        <ele>931.7</ele>
      </trkpt>
      <trkpt lat="46.61334" lon="5.90215">
        <ele>943.3</ele>
      </trkpt>
      <trkpt lat="46.61338" lon="5.90218">
        <ele>943.4</ele>
      </trkpt>
      <trkpt lat="46.6136" lon="5.90194">
        <ele>943.9</ele>
      </trkpt>
      <trkpt lat="46.61366" lon="5.90218">
        <ele>945.2</ele>
      </trkpt>
      <trkpt lat="46.61375" lon="5.9024">
        <ele>947</ele>
      </trkpt>
      <trkpt lat="46.61386" lon="5.90267">
        <ele>949.2</ele>
      </trkpt>
      <trkpt lat="46.61416" lon="5.90275">
        <ele>951.9</ele>
      </trkpt>
      <trkpt lat="46.61393" lon="5.9029">
        <ele>948.4</ele>
      </trkpt>
      <trkpt lat="46.6138" lon="5.90298">
        <ele>946.7</ele>
      </trkpt>
    </trkseg>
  </trk>
  <trk>
    <name><![CDATA[J3b - Pic de l'Aigle et belvedere des 4 lacs _C]]></name>
    <trkseg>
      <trkpt lat="46.62227" lon="5.90652">
        <ele>912.86</ele>
        <time>2019-11-12T10:03:50Z</time>
      </trkpt>
      <trkpt lat="46.62261" lon="5.90713">
        <ele>913.54</ele>
        <time>2019-11-12T10:04:01Z</time>
      </trkpt>
      <trkpt lat="46.62291" lon="5.90762">
        <ele>909.69</ele>
        <time>2019-11-12T10:07:04Z</time>
      </trkpt>
      <trkpt lat="46.6236" lon="5.90822">
        <ele>890.61</ele>
        <time>2019-11-12T10:16:03Z</time>
      </trkpt>
      <trkpt lat="46.62454" lon="5.90889">
        <ele>894.11</ele>
        <time>2019-11-12T10:16:16Z</time>
      </trkpt>
      <trkpt lat="46.62483" lon="5.90925">
        <ele>890.08</ele>
        <time>2019-11-12T10:16:38Z</time>
      </trkpt>
      <trkpt lat="46.62529" lon="5.90969">
        <ele>928.29</ele>
        <time>2019-11-12T10:27:49Z</time>
      </trkpt>
      <trkpt lat="46.62576" lon="5.91071">
        <ele>904.58</ele>
        <time>2019-11-12T10:34:55Z</time>
      </trkpt>
      <trkpt lat="46.6264" lon="5.91131">
        <ele>904.14</ele>
        <time>2019-11-12T10:35:18Z</time>
      </trkpt>
      <trkpt lat="46.62736" lon="5.91232">
        <ele>906.34</ele>
        <time>2019-11-12T10:36:48Z</time>
      </trkpt>
      <trkpt lat="46.62769" lon="5.9127">
        <ele>906.45</ele>
        <time>2019-11-12T10:37:07Z</time>
      </trkpt>
      <trkpt lat="46.62867" lon="5.91361">
        <ele>905.62</ele>
        <time>2019-11-12T10:37:19Z</time>
      </trkpt>
      <trkpt lat="46.62978" lon="5.91497">
        <ele>871.78</ele>
        <time>2019-11-12T10:44:45Z</time>
      </trkpt>
      <trkpt lat="46.63047" lon="5.91629">
        <ele>865.92</ele>
        <time>2019-11-12T10:53:23Z</time>
      </trkpt>
      <trkpt lat="46.63161" lon="5.91832">
        <ele>864.52</ele>
        <time>2019-11-12T10:53:36Z</time>
      </trkpt>
      <trkpt lat="46.63192" lon="5.91847">
        <ele>864.23</ele>
        <time>2019-11-12T10:53:43Z</time>
      </trkpt>
      <trkpt lat="46.63234" lon="5.91852">
        <ele>862.72</ele>
        <time>2019-11-12T10:53:50Z</time>
      </trkpt>
      <trkpt lat="46.63247" lon="5.91848">
        <ele>860.76</ele>
        <time>2019-11-12T10:54:12Z</time>
      </trkpt>
      <trkpt lat="46.63268" lon="5.91869">
        <ele>859.26</ele>
        <time>2019-11-12T10:54:41Z</time>
      </trkpt>
      <trkpt lat="46.63305" lon="5.91901">
        <ele>766.34</ele>
        <time>2019-11-12T11:25:25Z</time>
      </trkpt>
      <trkpt lat="46.63305" lon="5.91899">
        <ele>765.81</ele>
        <time>2019-11-12T11:25:47Z</time>
      </trkpt>
      <trkpt lat="46.63305" lon="5.919">
        <ele>766.13</ele>
        <time>2019-11-12T11:25:58Z</time>
      </trkpt>
      <trkpt lat="46.63305" lon="5.91897">
        <ele>766.19</ele>
        <time>2019-11-12T11:26:10Z</time>
      </trkpt>
      <trkpt lat="46.63308" lon="5.9191">
        <ele>765.83</ele>
        <time>2019-11-12T11:26:21Z</time>
      </trkpt>
      <trkpt lat="46.63317" lon="5.9192">
        <ele>766.73</ele>
        <time>2019-11-12T11:26:29Z</time>
      </trkpt>
      <trkpt lat="46.6334" lon="5.91935">
        <ele>767.41</ele>
        <time>2019-11-12T11:26:36Z</time>
      </trkpt>
      <trkpt lat="46.63345" lon="5.91938">
        <ele>767.31</ele>
        <time>2019-11-12T11:26:48Z</time>
      </trkpt>
      <trkpt lat="46.63347" lon="5.9194">
        <ele>767.27</ele>
        <time>2019-11-12T11:26:54Z</time>
      </trkpt>
      <trkpt lat="46.63364" lon="5.91946">
        <ele>767.95</ele>
        <time>2019-11-12T11:26:57Z</time>
      </trkpt>
      <trkpt lat="46.63377" lon="5.91935">
        <ele>768.35</ele>
        <time>2019-11-12T11:27:00Z</time>
      </trkpt>
      <trkpt lat="46.63396" lon="5.9194">
        <ele>768.45</ele>
        <time>2019-11-12T11:27:05Z</time>
      </trkpt>
      <trkpt lat="46.63402" lon="5.91942">
        <ele>768.46</ele>
        <time>2019-11-12T11:27:16Z</time>
      </trkpt>
      <trkpt lat="46.63405" lon="5.91942">
        <ele>768.47</ele>
        <time>2019-11-12T11:27:35Z</time>
      </trkpt>
      <trkpt lat="46.63409" lon="5.91942">
        <ele>769.16</ele>
        <time>2019-11-12T11:27:48Z</time>
      </trkpt>
      <trkpt lat="46.63408" lon="5.91936">
        <ele>770.31</ele>
        <time>2019-11-12T11:27:49Z</time>
      </trkpt>
      <trkpt lat="46.63416" lon="5.91933">
        <ele>771.58</ele>
        <time>2019-11-12T11:27:51Z</time>
      </trkpt>
      <trkpt lat="46.63424" lon="5.91937">
        <ele>771.6</ele>
        <time>2019-11-12T11:27:55Z</time>
      </trkpt>
      <trkpt lat="46.63451" lon="5.91931">
        <ele>773.4</ele>
        <time>2019-11-12T11:28:09Z</time>
      </trkpt>
      <trkpt lat="46.63455" lon="5.91927">
        <ele>774.05</ele>
        <time>2019-11-12T11:28:13Z</time>
      </trkpt>
      <trkpt lat="46.63463" lon="5.91918">
        <ele>774.43</ele>
        <time>2019-11-12T11:28:24Z</time>
      </trkpt>
      <trkpt lat="46.63467" lon="5.91897">
        <ele>776.47</ele>
        <time>2019-11-12T11:28:38Z</time>
      </trkpt>
      <trkpt lat="46.63467" lon="5.91896">
        <ele>776.01</ele>
        <time>2019-11-12T11:28:40Z</time>
      </trkpt>
      <trkpt lat="46.6347" lon="5.9188">
        <ele>776.94</ele>
        <time>2019-11-12T11:28:52Z</time>
      </trkpt>
      <trkpt lat="46.63473" lon="5.91868">
        <ele>778.68</ele>
        <time>2019-11-12T11:29:03Z</time>
      </trkpt>
      <trkpt lat="46.63485" lon="5.9185">
        <ele>778.46</ele>
        <time>2019-11-12T11:29:19Z</time>
      </trkpt>
      <trkpt lat="46.63493" lon="5.91833">
        <ele>778.51</ele>
        <time>2019-11-12T11:29:25Z</time>
      </trkpt>
      <trkpt lat="46.63501" lon="5.91816">
        <ele>779.82</ele>
        <time>2019-11-12T11:29:39Z</time>
      </trkpt>
      <trkpt lat="46.63512" lon="5.91803">
        <ele>780.33</ele>
        <time>2019-11-12T11:29:52Z</time>
      </trkpt>
      <trkpt lat="46.6353" lon="5.91784">
        <ele>780.87</ele>
        <time>2019-11-12T11:30:07Z</time>
      </trkpt>
      <trkpt lat="46.63548" lon="5.91772">
        <ele>780.98</ele>
        <time>2019-11-12T11:30:19Z</time>
      </trkpt>
      <trkpt lat="46.6357" lon="5.91762">
        <ele>779.91</ele>
        <time>2019-11-12T11:31:18Z</time>
      </trkpt>
      <trkpt lat="46.63582" lon="5.91752">
        <ele>779.35</ele>
        <time>2019-11-12T11:32:46Z</time>
      </trkpt>
      <trkpt lat="46.63594" lon="5.91734">
        <ele>778.25</ele>
        <time>2019-11-12T11:33:06Z</time>
      </trkpt>
      <trkpt lat="46.63598" lon="5.91718">
        <ele>777.36</ele>
        <time>2019-11-12T11:33:11Z</time>
      </trkpt>
      <trkpt lat="46.63601" lon="5.91703">
        <ele>776.82</ele>
        <time>2019-11-12T11:33:23Z</time>
      </trkpt>
      <trkpt lat="46.63606" lon="5.91688">
        <ele>776.42</ele>
        <time>2019-11-12T11:33:37Z</time>
      </trkpt>
      <trkpt lat="46.6361" lon="5.91669">
        <ele>776.18</ele>
        <time>2019-11-12T11:33:57Z</time>
      </trkpt>
      <trkpt lat="46.63612" lon="5.91658">
        <ele>775.97</ele>
        <time>2019-11-12T11:33:58Z</time>
      </trkpt>
      <trkpt lat="46.63613" lon="5.91647">
        <ele>775.76</ele>
        <time>2019-11-12T11:34:13Z</time>
      </trkpt>
      <trkpt lat="46.63616" lon="5.91638">
        <ele>775.92</ele>
        <time>2019-11-12T11:34:28Z</time>
      </trkpt>
      <trkpt lat="46.63616" lon="5.91628">
        <ele>775.93</ele>
        <time>2019-11-12T11:34:29Z</time>
      </trkpt>
      <trkpt lat="46.63624" lon="5.91606">
        <ele>775.88</ele>
        <time>2019-11-12T11:34:37Z</time>
      </trkpt>
      <trkpt lat="46.63636" lon="5.9158">
        <ele>776.28</ele>
        <time>2019-11-12T11:34:52Z</time>
      </trkpt>
      <trkpt lat="46.63641" lon="5.91567">
        <ele>776.17</ele>
        <time>2019-11-12T11:35:04Z</time>
      </trkpt>
      <trkpt lat="46.63641" lon="5.91565">
        <ele>776.16</ele>
        <time>2019-11-12T11:35:22Z</time>
      </trkpt>
      <trkpt lat="46.63643" lon="5.91563">
        <ele>777.01</ele>
        <time>2019-11-12T11:35:36Z</time>
      </trkpt>
      <trkpt lat="46.63645" lon="5.91557">
        <ele>776.31</ele>
        <time>2019-11-12T11:35:53Z</time>
      </trkpt>
      <trkpt lat="46.63649" lon="5.91549">
        <ele>776.17</ele>
        <time>2019-11-12T11:36:10Z</time>
      </trkpt>
      <trkpt lat="46.63653" lon="5.91536">
        <ele>776.25</ele>
        <time>2019-11-12T11:36:32Z</time>
      </trkpt>
      <trkpt lat="46.63655" lon="5.91531">
        <ele>776.32</ele>
        <time>2019-11-12T11:36:55Z</time>
      </trkpt>
      <trkpt lat="46.63659" lon="5.91511">
        <ele>775.65</ele>
        <time>2019-11-12T11:42:14Z</time>
      </trkpt>
      <trkpt lat="46.63661" lon="5.91489">
        <ele>775.24</ele>
        <time>2019-11-12T11:42:36Z</time>
      </trkpt>
      <trkpt lat="46.63661" lon="5.91486">
        <ele>775.1</ele>
        <time>2019-11-12T11:43:31Z</time>
      </trkpt>
      <trkpt lat="46.6366" lon="5.91476">
        <ele>775.01</ele>
        <time>2019-11-12T11:43:35Z</time>
      </trkpt>
      <trkpt lat="46.6366" lon="5.91469">
        <ele>775.27</ele>
        <time>2019-11-12T11:43:53Z</time>
      </trkpt>
      <trkpt lat="46.63662" lon="5.91463">
        <ele>776.07</ele>
        <time>2019-11-12T11:44:08Z</time>
      </trkpt>
      <trkpt lat="46.63665" lon="5.91455">
        <ele>776.23</ele>
        <time>2019-11-12T11:44:14Z</time>
      </trkpt>
      <trkpt lat="46.63674" lon="5.91437">
        <ele>775.55</ele>
        <time>2019-11-12T11:44:17Z</time>
      </trkpt>
      <trkpt lat="46.63684" lon="5.91424">
        <ele>775.88</ele>
        <time>2019-11-12T11:45:21Z</time>
      </trkpt>
      <trkpt lat="46.63698" lon="5.91415">
        <ele>775.51</ele>
        <time>2019-11-12T11:46:07Z</time>
      </trkpt>
      <trkpt lat="46.6371" lon="5.91408">
        <ele>773.28</ele>
        <time>2019-11-12T12:10:45Z</time>
      </trkpt>
      <trkpt lat="46.6371" lon="5.91388">
        <ele>793.9</ele>
        <time>2019-11-12T12:10:47Z</time>
      </trkpt>
      <trkpt lat="46.63715" lon="5.91378">
        <ele>784.8</ele>
        <time>2019-11-12T12:10:52Z</time>
      </trkpt>
      <trkpt lat="46.63715" lon="5.91376">
        <ele>793.6</ele>
        <time>2019-11-12T12:11:03Z</time>
      </trkpt>
      <trkpt lat="46.63719" lon="5.91369">
        <ele>766.76</ele>
        <time>2019-11-12T12:11:20Z</time>
      </trkpt>
      <trkpt lat="46.63722" lon="5.91357">
        <ele>792.9</ele>
        <time>2019-11-12T12:11:37Z</time>
      </trkpt>
      <trkpt lat="46.63729" lon="5.91342">
        <ele>792.2</ele>
        <time>2019-11-12T12:11:55Z</time>
      </trkpt>
      <trkpt lat="46.63738" lon="5.91329">
        <ele>789.7</ele>
        <time>2019-11-12T12:12:13Z</time>
      </trkpt>
      <trkpt lat="46.63746" lon="5.91325">
        <ele>789.7</ele>
        <time>2019-11-12T12:12:32Z</time>
      </trkpt>
      <trkpt lat="46.63753" lon="5.91311">
        <ele>778.3</ele>
        <time>2019-11-12T12:12:49Z</time>
      </trkpt>
      <trkpt lat="46.63755" lon="5.91302">
        <ele>785.4</ele>
        <time>2019-11-12T12:13:09Z</time>
      </trkpt>
      <trkpt lat="46.63763" lon="5.91291">
        <ele>776.4</ele>
        <time>2019-11-12T12:13:29Z</time>
      </trkpt>
      <trkpt lat="46.63781" lon="5.9128">
        <ele>775.8</ele>
        <time>2019-11-12T12:13:48Z</time>
      </trkpt>
      <trkpt lat="46.63796" lon="5.91289">
        <ele>783.5</ele>
        <time>2019-11-12T12:13:54Z</time>
      </trkpt>
      <trkpt lat="46.63803" lon="5.91298">
        <ele>776.9</ele>
        <time>2019-11-12T12:14:09Z</time>
      </trkpt>
      <trkpt lat="46.63837" lon="5.91299">
        <ele>761.58</ele>
        <time>2019-11-12T12:14:28Z</time>
      </trkpt>
      <trkpt lat="46.63859" lon="5.91309">
        <ele>773.4</ele>
        <time>2019-11-12T12:14:29Z</time>
      </trkpt>
      <trkpt lat="46.63875" lon="5.91328">
        <ele>759.69</ele>
        <time>2019-11-12T12:14:35Z</time>
      </trkpt>
      <trkpt lat="46.63899" lon="5.91353">
        <ele>758.35</ele>
        <time>2019-11-12T12:14:49Z</time>
      </trkpt>
      <trkpt lat="46.63907" lon="5.91354">
        <ele>756.98</ele>
        <time>2019-11-12T12:14:55Z</time>
      </trkpt>
      <trkpt lat="46.63935" lon="5.91423">
        <ele>753.61</ele>
        <time>2019-11-12T12:15:03Z</time>
      </trkpt>
      <trkpt lat="46.63975" lon="5.91467">
        <ele>750.23</ele>
        <time>2019-11-12T12:15:13Z</time>
      </trkpt>
      <trkpt lat="46.64026" lon="5.91538">
        <ele>750.14</ele>
        <time>2019-11-12T12:15:17Z</time>
      </trkpt>
      <trkpt lat="46.64057" lon="5.91576">
        <ele>747.12</ele>
        <time>2019-11-12T12:15:22Z</time>
      </trkpt>
      <trkpt lat="46.64081" lon="5.9159">
        <ele>744.06</ele>
        <time>2019-11-12T12:15:36Z</time>
      </trkpt>
      <trkpt lat="46.64087" lon="5.91594">
        <ele>744.08</ele>
        <time>2019-11-12T12:15:41Z</time>
      </trkpt>
      <trkpt lat="46.64093" lon="5.91592">
        <ele>744.13</ele>
        <time>2019-11-12T12:15:54Z</time>
      </trkpt>
      <trkpt lat="46.64132" lon="5.91655">
        <ele>742.92</ele>
        <time>2019-11-12T12:16:07Z</time>
      </trkpt>
      <trkpt lat="46.64188" lon="5.91738">
        <ele>739.65</ele>
        <time>2019-11-12T12:16:16Z</time>
      </trkpt>
      <trkpt lat="46.64202" lon="5.91759">
        <ele>737.94</ele>
        <time>2019-11-12T12:16:19Z</time>
      </trkpt>
      <trkpt lat="46.64252" lon="5.91787">
        <ele>736.28</ele>
        <time>2019-11-12T12:16:23Z</time>
      </trkpt>
      <trkpt lat="46.64337" lon="5.91871">
        <ele>737.34</ele>
        <time>2019-11-12T12:16:27Z</time>
      </trkpt>
      <trkpt lat="46.64373" lon="5.91912">
        <ele>737.93</ele>
        <time>2019-11-12T12:16:30Z</time>
      </trkpt>
      <trkpt lat="46.64401" lon="5.91929">
        <ele>738.03</ele>
        <time>2019-11-12T12:16:45Z</time>
      </trkpt>
      <trkpt lat="46.64436" lon="5.91944">
        <ele>738.8</ele>
        <time>2019-11-12T12:16:51Z</time>
      </trkpt>
      <trkpt lat="46.64451" lon="5.91943">
        <ele>743.46</ele>
        <time>2019-11-12T12:16:56Z</time>
      </trkpt>
      <trkpt lat="46.64477" lon="5.91953">
        <ele>743.2</ele>
        <time>2019-11-12T12:17:08Z</time>
      </trkpt>
      <trkpt lat="46.64488" lon="5.91914">
        <ele>745.15</ele>
        <time>2019-11-12T12:17:14Z</time>
      </trkpt>
      <trkpt lat="46.64515" lon="5.91832">
        <ele>744.48</ele>
        <time>2019-11-12T12:17:22Z</time>
      </trkpt>
      <trkpt lat="46.64542" lon="5.91788">
        <ele>744.38</ele>
        <time>2019-11-12T12:17:35Z</time>
      </trkpt>
      <trkpt lat="46.64569" lon="5.91756">
        <ele>744.68</ele>
        <time>2019-11-12T12:17:51Z</time>
      </trkpt>
      <trkpt lat="46.64612" lon="5.91686">
        <ele>744.23</ele>
        <time>2019-11-12T12:18:02Z</time>
      </trkpt>
      <trkpt lat="46.64622" lon="5.9167">
        <ele>744.49</ele>
        <time>2019-11-12T12:18:19Z</time>
      </trkpt>
      <trkpt lat="46.64639" lon="5.91622">
        <ele>744.98</ele>
        <time>2019-11-12T12:18:37Z</time>
      </trkpt>
      <trkpt lat="46.64643" lon="5.91496">
        <ele>745.34</ele>
        <time>2019-11-12T12:18:59Z</time>
      </trkpt>
      <trkpt lat="46.64632" lon="5.91468">
        <ele>749.95</ele>
        <time>2019-11-12T12:19:20Z</time>
      </trkpt>
      <trkpt lat="46.64588" lon="5.91432">
        <ele>750.01</ele>
        <time>2019-11-12T12:19:40Z</time>
      </trkpt>
      <trkpt lat="46.64544" lon="5.91391">
        <ele>750.33</ele>
        <time>2019-11-12T12:20:01Z</time>
      </trkpt>
      <trkpt lat="46.64498" lon="5.91337">
        <ele>750.72</ele>
        <time>2019-11-12T12:20:18Z</time>
      </trkpt>
      <trkpt lat="46.64496" lon="5.91309">
        <ele>750.08</ele>
        <time>2019-11-12T12:20:37Z</time>
      </trkpt>
      <trkpt lat="46.64497" lon="5.91292">
        <ele>749.38</ele>
        <time>2019-11-12T12:20:58Z</time>
      </trkpt>
      <trkpt lat="46.64506" lon="5.91191">
        <ele>747.52</ele>
        <time>2019-11-12T12:21:23Z</time>
      </trkpt>
      <trkpt lat="46.64498" lon="5.91137">
        <ele>745.58</ele>
        <time>2019-11-12T12:21:45Z</time>
      </trkpt>
      <trkpt lat="46.64483" lon="5.91076">
        <ele>745.55</ele>
        <time>2019-11-12T12:21:59Z</time>
      </trkpt>
      <trkpt lat="46.64463" lon="5.90996">
        <ele>744.49</ele>
        <time>2019-11-12T12:22:18Z</time>
      </trkpt>
      <trkpt lat="46.64447" lon="5.90929">
        <ele>743.61</ele>
        <time>2019-11-12T12:22:34Z</time>
      </trkpt>
      <trkpt lat="46.64423" lon="5.90813">
        <ele>742.39</ele>
        <time>2019-11-12T12:22:40Z</time>
      </trkpt>
      <trkpt lat="46.64422" lon="5.90791">
        <ele>742.13</ele>
        <time>2019-11-12T12:22:44Z</time>
      </trkpt>
      <trkpt lat="46.64419" lon="5.90724">
        <ele>742.08</ele>
        <time>2019-11-12T12:22:59Z</time>
      </trkpt>
      <trkpt lat="46.6441" lon="5.90659">
        <ele>741.86</ele>
        <time>2019-11-12T12:23:15Z</time>
      </trkpt>
      <trkpt lat="46.64395" lon="5.90603">
        <ele>741.79</ele>
        <time>2019-11-12T12:23:22Z</time>
      </trkpt>
      <trkpt lat="46.64395" lon="5.90568">
        <ele>741.41</ele>
        <time>2019-11-12T12:23:38Z</time>
      </trkpt>
      <trkpt lat="46.64398" lon="5.90534">
        <ele>741.18</ele>
        <time>2019-11-12T12:23:49Z</time>
      </trkpt>
      <trkpt lat="46.64396" lon="5.90475">
        <ele>742.15</ele>
        <time>2019-11-12T12:23:50Z</time>
      </trkpt>
      <trkpt lat="46.6439" lon="5.90453">
        <ele>742.28</ele>
        <time>2019-11-12T12:23:55Z</time>
      </trkpt>
      <trkpt lat="46.64376" lon="5.90399">
        <ele>743.46</ele>
        <time>2019-11-12T12:23:56Z</time>
      </trkpt>
      <trkpt lat="46.64365" lon="5.90389">
        <ele>744.72</ele>
        <time>2019-11-12T12:24:10Z</time>
      </trkpt>
      <trkpt lat="46.64303" lon="5.90386">
        <ele>744.89</ele>
        <time>2019-11-12T12:24:22Z</time>
      </trkpt>
      <trkpt lat="46.64291" lon="5.90391">
        <ele>744.69</ele>
        <time>2019-11-12T12:24:36Z</time>
      </trkpt>
      <trkpt lat="46.6428" lon="5.90406">
        <ele>745.86</ele>
        <time>2019-11-12T12:24:53Z</time>
      </trkpt>
      <trkpt lat="46.64261" lon="5.90424">
        <ele>745.81</ele>
        <time>2019-11-12T12:24:55Z</time>
      </trkpt>
      <trkpt lat="46.64248" lon="5.90434">
        <ele>746.48</ele>
        <time>2019-11-12T12:24:57Z</time>
      </trkpt>
      <trkpt lat="46.64242" lon="5.90421">
        <ele>747.96</ele>
        <time>2019-11-12T12:25:00Z</time>
      </trkpt>
      <trkpt lat="46.64238" lon="5.90411">
        <ele>749.26</ele>
        <time>2019-11-12T12:25:17Z</time>
      </trkpt>
      <trkpt lat="46.64236" lon="5.90407">
        <ele>749.12</ele>
        <time>2019-11-12T12:25:31Z</time>
      </trkpt>
      <trkpt lat="46.64235" lon="5.90401">
        <ele>749.75</ele>
        <time>2019-11-12T12:25:33Z</time>
      </trkpt>
      <trkpt lat="46.64233" lon="5.90394">
        <ele>750.03</ele>
        <time>2019-11-12T12:25:38Z</time>
      </trkpt>
      <trkpt lat="46.64233" lon="5.9039">
        <ele>750.56</ele>
        <time>2019-11-12T12:25:51Z</time>
      </trkpt>
      <trkpt lat="46.6423" lon="5.90366">
        <ele>751.57</ele>
        <time>2019-11-12T12:26:04Z</time>
      </trkpt>
      <trkpt lat="46.64228" lon="5.90357">
        <ele>750.18</ele>
        <time>2019-11-12T12:26:22Z</time>
      </trkpt>
      <trkpt lat="46.64226" lon="5.9035">
        <ele>753.08</ele>
        <time>2019-11-12T12:26:40Z</time>
      </trkpt>
      <trkpt lat="46.64221" lon="5.90348">
        <ele>753.14</ele>
        <time>2019-11-12T12:26:53Z</time>
      </trkpt>
      <trkpt lat="46.64216" lon="5.90344">
        <ele>753.17</ele>
        <time>2019-11-12T12:27:04Z</time>
      </trkpt>
      <trkpt lat="46.64209" lon="5.90337">
        <ele>754.2</ele>
        <time>2019-11-12T12:27:18Z</time>
      </trkpt>
      <trkpt lat="46.64198" lon="5.9033">
        <ele>754.9</ele>
        <time>2019-11-12T12:27:20Z</time>
      </trkpt>
      <trkpt lat="46.64181" lon="5.90323">
        <ele>756.38</ele>
        <time>2019-11-12T12:27:36Z</time>
      </trkpt>
      <trkpt lat="46.64171" lon="5.90318">
        <ele>756.75</ele>
        <time>2019-11-12T12:27:53Z</time>
      </trkpt>
      <trkpt lat="46.64155" lon="5.90309">
        <ele>759.59</ele>
        <time>2019-11-12T12:27:58Z</time>
      </trkpt>
      <trkpt lat="46.64144" lon="5.90301">
        <ele>762.79</ele>
        <time>2019-11-12T12:28:16Z</time>
      </trkpt>
      <trkpt lat="46.64133" lon="5.90291">
        <ele>765.56</ele>
        <time>2019-11-12T12:28:30Z</time>
      </trkpt>
      <trkpt lat="46.64128" lon="5.90279">
        <ele>766.53</ele>
        <time>2019-11-12T12:28:45Z</time>
      </trkpt>
      <trkpt lat="46.6412" lon="5.9027">
        <ele>768.73</ele>
        <time>2019-11-12T12:28:46Z</time>
      </trkpt>
      <trkpt lat="46.64112" lon="5.90261">
        <ele>771.32</ele>
        <time>2019-11-12T12:28:52Z</time>
      </trkpt>
      <trkpt lat="46.64103" lon="5.90248">
        <ele>773.27</ele>
        <time>2019-11-12T12:29:09Z</time>
      </trkpt>
      <trkpt lat="46.64093" lon="5.90233">
        <ele>775.88</ele>
        <time>2019-11-12T12:29:25Z</time>
      </trkpt>
      <trkpt lat="46.64087" lon="5.90219">
        <ele>777.88</ele>
        <time>2019-11-12T12:29:27Z</time>
      </trkpt>
      <trkpt lat="46.64088" lon="5.90219">
        <ele>778.19</ele>
        <time>2019-11-12T12:29:31Z</time>
      </trkpt>
      <trkpt lat="46.64085" lon="5.90223">
        <ele>777.61</ele>
        <time>2019-11-12T12:29:48Z</time>
      </trkpt>
      <trkpt lat="46.64079" lon="5.90215">
        <ele>780.22</ele>
        <time>2019-11-12T12:30:03Z</time>
      </trkpt>
      <trkpt lat="46.64073" lon="5.90191">
        <ele>779.9</ele>
        <time>2019-11-12T12:30:11Z</time>
      </trkpt>
      <trkpt lat="46.64064" lon="5.90179">
        <ele>780.54</ele>
        <time>2019-11-12T12:30:30Z</time>
      </trkpt>
      <trkpt lat="46.64058" lon="5.90174">
        <ele>781.86</ele>
        <time>2019-11-12T12:30:41Z</time>
      </trkpt>
      <trkpt lat="46.64054" lon="5.90168">
        <ele>782.19</ele>
        <time>2019-11-12T12:30:56Z</time>
      </trkpt>
      <trkpt lat="46.64047" lon="5.90148">
        <ele>783.47</ele>
        <time>2019-11-12T12:31:01Z</time>
      </trkpt>
      <trkpt lat="46.64041" lon="5.90127">
        <ele>783.4</ele>
        <time>2019-11-12T12:31:04Z</time>
      </trkpt>
      <trkpt lat="46.64037" lon="5.90119">
        <ele>783.67</ele>
        <time>2019-11-12T12:31:06Z</time>
      </trkpt>
      <trkpt lat="46.64026" lon="5.901">
        <ele>784.47</ele>
        <time>2019-11-12T12:31:18Z</time>
      </trkpt>
      <trkpt lat="46.64017" lon="5.90088">
        <ele>780.81</ele>
        <time>2019-11-12T12:31:27Z</time>
      </trkpt>
      <trkpt lat="46.64016" lon="5.90087">
        <ele>780.82</ele>
        <time>2019-11-12T12:31:43Z</time>
      </trkpt>
      <trkpt lat="46.64014" lon="5.90087">
        <ele>784.53</ele>
        <time>2019-11-12T12:31:56Z</time>
      </trkpt>
      <trkpt lat="46.64014" lon="5.90087">
        <ele>784.43</ele>
        <time>2019-11-12T12:32:03Z</time>
      </trkpt>
      <trkpt lat="46.64005" lon="5.90081">
        <ele>784.54</ele>
        <time>2019-11-12T12:32:19Z</time>
      </trkpt>
      <trkpt lat="46.63996" lon="5.90075">
        <ele>786.57</ele>
        <time>2019-11-12T12:32:34Z</time>
      </trkpt>
      <trkpt lat="46.63987" lon="5.90065">
        <ele>786.95</ele>
        <time>2019-11-12T12:32:35Z</time>
      </trkpt>
      <trkpt lat="46.6398" lon="5.90058">
        <ele>787.33</ele>
        <time>2019-11-12T12:32:48Z</time>
      </trkpt>
      <trkpt lat="46.63978" lon="5.90057">
        <ele>787.87</ele>
        <time>2019-11-12T12:33:04Z</time>
      </trkpt>
      <trkpt lat="46.63976" lon="5.90055">
        <ele>787.95</ele>
        <time>2019-11-12T12:33:12Z</time>
      </trkpt>
      <trkpt lat="46.63973" lon="5.90053">
        <ele>787.93</ele>
        <time>2019-11-12T12:33:17Z</time>
      </trkpt>
      <trkpt lat="46.63958" lon="5.90044">
        <ele>789.05</ele>
        <time>2019-11-12T12:33:34Z</time>
      </trkpt>
      <trkpt lat="46.63944" lon="5.90032">
        <ele>789.14</ele>
        <time>2019-11-12T12:33:49Z</time>
      </trkpt>
      <trkpt lat="46.63943" lon="5.90031">
        <ele>789.11</ele>
        <time>2019-11-12T12:34:00Z</time>
      </trkpt>
      <trkpt lat="46.63938" lon="5.90027">
        <ele>789.26</ele>
        <time>2019-11-12T12:34:15Z</time>
      </trkpt>
      <trkpt lat="46.63929" lon="5.90026">
        <ele>788.96</ele>
        <time>2019-11-12T12:34:31Z</time>
      </trkpt>
      <trkpt lat="46.63915" lon="5.90021">
        <ele>787.93</ele>
        <time>2019-11-12T12:34:48Z</time>
      </trkpt>
      <trkpt lat="46.63894" lon="5.9002">
        <ele>786.91</ele>
        <time>2019-11-12T12:35:06Z</time>
      </trkpt>
      <trkpt lat="46.63876" lon="5.9001">
        <ele>785.51</ele>
        <time>2019-11-12T12:35:25Z</time>
      </trkpt>
      <trkpt lat="46.63864" lon="5.90005">
        <ele>785.65</ele>
        <time>2019-11-12T12:35:46Z</time>
      </trkpt>
      <trkpt lat="46.63853" lon="5.89999">
        <ele>785</ele>
        <time>2019-11-12T12:36:01Z</time>
      </trkpt>
      <trkpt lat="46.6384" lon="5.89992">
        <ele>784.42</ele>
        <time>2019-11-12T12:36:19Z</time>
      </trkpt>
      <trkpt lat="46.63838" lon="5.89991">
        <ele>784.25</ele>
        <time>2019-11-12T12:36:25Z</time>
      </trkpt>
      <trkpt lat="46.63824" lon="5.89982">
        <ele>783.57</ele>
        <time>2019-11-12T12:36:39Z</time>
      </trkpt>
      <trkpt lat="46.63803" lon="5.89977">
        <ele>783.07</ele>
        <time>2019-11-12T12:36:55Z</time>
      </trkpt>
      <trkpt lat="46.63798" lon="5.89975">
        <ele>783.44</ele>
        <time>2019-11-12T12:37:04Z</time>
      </trkpt>
      <trkpt lat="46.63775" lon="5.89967">
        <ele>781.77</ele>
        <time>2019-11-12T12:37:14Z</time>
      </trkpt>
      <trkpt lat="46.63759" lon="5.89963">
        <ele>780.26</ele>
        <time>2019-11-12T12:37:33Z</time>
      </trkpt>
      <trkpt lat="46.6375" lon="5.89954">
        <ele>778.55</ele>
        <time>2019-11-12T12:37:35Z</time>
      </trkpt>
      <trkpt lat="46.6375" lon="5.89953">
        <ele>778.55</ele>
        <time>2019-11-12T12:37:51Z</time>
      </trkpt>
      <trkpt lat="46.63749" lon="5.89954">
        <ele>780.33</ele>
        <time>2019-11-12T12:38:07Z</time>
      </trkpt>
      <trkpt lat="46.6375" lon="5.89955">
        <ele>779.83</ele>
        <time>2019-11-12T12:38:26Z</time>
      </trkpt>
      <trkpt lat="46.63751" lon="5.89956">
        <ele>780.09</ele>
        <time>2019-11-12T12:38:41Z</time>
      </trkpt>
      <trkpt lat="46.63751" lon="5.89955">
        <ele>779.61</ele>
        <time>2019-11-12T12:38:59Z</time>
      </trkpt>
      <trkpt lat="46.63752" lon="5.89948">
        <ele>779.34</ele>
        <time>2019-11-12T12:39:20Z</time>
      </trkpt>
      <trkpt lat="46.63758" lon="5.8993">
        <ele>778.85</ele>
        <time>2019-11-12T12:39:21Z</time>
      </trkpt>
      <trkpt lat="46.63759" lon="5.89918">
        <ele>777.93</ele>
        <time>2019-11-12T12:39:37Z</time>
      </trkpt>
      <trkpt lat="46.6376" lon="5.89906">
        <ele>778.3</ele>
        <time>2019-11-12T12:39:49Z</time>
      </trkpt>
      <trkpt lat="46.63764" lon="5.89873">
        <ele>778.8</ele>
        <time>2019-11-12T12:40:04Z</time>
      </trkpt>
      <trkpt lat="46.63765" lon="5.89859">
        <ele>779.63</ele>
        <time>2019-11-12T12:40:18Z</time>
      </trkpt>
      <trkpt lat="46.63766" lon="5.89836">
        <ele>781.16</ele>
        <time>2019-11-12T12:40:32Z</time>
      </trkpt>
      <trkpt lat="46.63766" lon="5.89829">
        <ele>781.07</ele>
        <time>2019-11-12T12:40:44Z</time>
      </trkpt>
      <trkpt lat="46.63766" lon="5.89825">
        <ele>781.87</ele>
        <time>2019-11-12T12:41:02Z</time>
      </trkpt>
      <trkpt lat="46.63766" lon="5.89821">
        <ele>781.92</ele>
        <time>2019-11-12T12:41:17Z</time>
      </trkpt>
      <trkpt lat="46.63762" lon="5.89805">
        <ele>781.9</ele>
        <time>2019-11-12T12:41:25Z</time>
      </trkpt>
      <trkpt lat="46.63754" lon="5.89795">
        <ele>781.59</ele>
        <time>2019-11-12T12:41:42Z</time>
      </trkpt>
      <trkpt lat="46.63739" lon="5.8979">
        <ele>779.32</ele>
        <time>2019-11-12T12:41:59Z</time>
      </trkpt>
      <trkpt lat="46.63727" lon="5.89785">
        <ele>779.08</ele>
        <time>2019-11-12T12:42:00Z</time>
      </trkpt>
      <trkpt lat="46.63721" lon="5.89776">
        <ele>779.21</ele>
        <time>2019-11-12T12:42:08Z</time>
      </trkpt>
      <trkpt lat="46.6371" lon="5.89757">
        <ele>778.99</ele>
        <time>2019-11-12T12:42:24Z</time>
      </trkpt>
      <trkpt lat="46.63702" lon="5.89743">
        <ele>780.17</ele>
        <time>2019-11-12T12:42:29Z</time>
      </trkpt>
      <trkpt lat="46.63701" lon="5.89743">
        <ele>780.25</ele>
        <time>2019-11-12T12:42:47Z</time>
      </trkpt>
      <trkpt lat="46.6369" lon="5.89737">
        <ele>781.2</ele>
        <time>2019-11-12T12:43:01Z</time>
      </trkpt>
      <trkpt lat="46.63678" lon="5.89731">
        <ele>781.29</ele>
        <time>2019-11-12T12:43:18Z</time>
      </trkpt>
      <trkpt lat="46.6367" lon="5.89727">
        <ele>781.71</ele>
        <time>2019-11-12T12:43:22Z</time>
      </trkpt>
      <trkpt lat="46.63665" lon="5.89723">
        <ele>781.81</ele>
        <time>2019-11-12T12:43:42Z</time>
      </trkpt>
      <trkpt lat="46.63649" lon="5.8971">
        <ele>781.48</ele>
        <time>2019-11-12T12:43:45Z</time>
      </trkpt>
      <trkpt lat="46.63632" lon="5.89704">
        <ele>781.93</ele>
        <time>2019-11-12T12:44:01Z</time>
      </trkpt>
      <trkpt lat="46.63623" lon="5.89705">
        <ele>780.28</ele>
        <time>2019-11-12T12:44:20Z</time>
      </trkpt>
      <trkpt lat="46.63608" lon="5.89704">
        <ele>779.85</ele>
        <time>2019-11-12T12:44:35Z</time>
      </trkpt>
      <trkpt lat="46.6359" lon="5.89705">
        <ele>778.14</ele>
        <time>2019-11-12T12:44:52Z</time>
      </trkpt>
      <trkpt lat="46.63569" lon="5.89701">
        <ele>777.62</ele>
        <time>2019-11-12T12:45:09Z</time>
      </trkpt>
      <trkpt lat="46.6355" lon="5.89701">
        <ele>775.33</ele>
        <time>2019-11-12T12:45:25Z</time>
      </trkpt>
      <trkpt lat="46.63526" lon="5.89703">
        <ele>774.64</ele>
        <time>2019-11-12T12:45:44Z</time>
      </trkpt>
      <trkpt lat="46.63501" lon="5.89709">
        <ele>772.52</ele>
        <time>2019-11-12T12:46:03Z</time>
      </trkpt>
      <trkpt lat="46.63484" lon="5.89716">
        <ele>771.13</ele>
        <time>2019-11-12T12:46:19Z</time>
      </trkpt>
      <trkpt lat="46.63463" lon="5.89721">
        <ele>769.39</ele>
        <time>2019-11-12T12:46:21Z</time>
      </trkpt>
      <trkpt lat="46.63456" lon="5.89722">
        <ele>769.83</ele>
        <time>2019-11-12T12:46:37Z</time>
      </trkpt>
      <trkpt lat="46.63444" lon="5.89709">
        <ele>768.99</ele>
        <time>2019-11-12T12:46:51Z</time>
      </trkpt>
      <trkpt lat="46.63432" lon="5.89687">
        <ele>768.57</ele>
        <time>2019-11-12T12:47:06Z</time>
      </trkpt>
      <trkpt lat="46.63425" lon="5.89673">
        <ele>768.78</ele>
        <time>2019-11-12T12:47:26Z</time>
      </trkpt>
      <trkpt lat="46.63418" lon="5.89661">
        <ele>768.62</ele>
        <time>2019-11-12T12:47:45Z</time>
      </trkpt>
      <trkpt lat="46.63409" lon="5.89635">
        <ele>767.17</ele>
        <time>2019-11-12T12:48:06Z</time>
      </trkpt>
      <trkpt lat="46.63408" lon="5.89632">
        <ele>765.98</ele>
        <time>2019-11-12T12:48:24Z</time>
      </trkpt>
      <trkpt lat="46.63404" lon="5.8961">
        <ele>765.58</ele>
        <time>2019-11-12T12:48:44Z</time>
      </trkpt>
      <trkpt lat="46.63402" lon="5.89584">
        <ele>764.72</ele>
        <time>2019-11-12T12:49:02Z</time>
      </trkpt>
      <trkpt lat="46.63404" lon="5.89548">
        <ele>764.13</ele>
        <time>2019-11-12T12:49:23Z</time>
      </trkpt>
      <trkpt lat="46.63406" lon="5.89521">
        <ele>762.8</ele>
        <time>2019-11-12T12:49:40Z</time>
      </trkpt>
      <trkpt lat="46.63408" lon="5.89489">
        <ele>761.53</ele>
        <time>2019-11-12T12:49:56Z</time>
      </trkpt>
      <trkpt lat="46.634" lon="5.89459">
        <ele>760.51</ele>
        <time>2019-11-12T12:50:16Z</time>
      </trkpt>
      <trkpt lat="46.634" lon="5.89458">
        <ele>760.22</ele>
        <time>2019-11-12T12:50:35Z</time>
      </trkpt>
      <trkpt lat="46.63392" lon="5.89434">
        <ele>759.73</ele>
        <time>2019-11-12T12:50:51Z</time>
      </trkpt>
      <trkpt lat="46.63386" lon="5.89419">
        <ele>759.57</ele>
        <time>2019-11-12T12:51:11Z</time>
      </trkpt>
      <trkpt lat="46.63379" lon="5.89397">
        <ele>760.37</ele>
        <time>2019-11-12T12:51:30Z</time>
      </trkpt>
      <trkpt lat="46.63371" lon="5.89378">
        <ele>760.43</ele>
        <time>2019-11-12T12:51:48Z</time>
      </trkpt>
      <trkpt lat="46.63363" lon="5.89351">
        <ele>760.64</ele>
        <time>2019-11-12T12:52:04Z</time>
      </trkpt>
      <trkpt lat="46.63357" lon="5.89333">
        <ele>760.39</ele>
        <time>2019-11-12T12:52:27Z</time>
      </trkpt>
      <trkpt lat="46.63339" lon="5.89318">
        <ele>761.12</ele>
        <time>2019-11-12T12:52:55Z</time>
      </trkpt>
      <trkpt lat="46.63323" lon="5.89315">
        <ele>761.11</ele>
        <time>2019-11-12T12:53:19Z</time>
      </trkpt>
      <trkpt lat="46.63313" lon="5.89311">
        <ele>762.44</ele>
        <time>2019-11-12T12:53:42Z</time>
      </trkpt>
      <trkpt lat="46.63297" lon="5.89297">
        <ele>761.98</ele>
        <time>2019-11-12T12:54:00Z</time>
      </trkpt>
      <trkpt lat="46.63282" lon="5.89277">
        <ele>762.27</ele>
        <time>2019-11-12T12:54:18Z</time>
      </trkpt>
      <trkpt lat="46.63281" lon="5.89276">
        <ele>762.63</ele>
        <time>2019-11-12T12:54:19Z</time>
      </trkpt>
      <trkpt lat="46.63275" lon="5.89268">
        <ele>763.94</ele>
        <time>2019-11-12T12:54:23Z</time>
      </trkpt>
      <trkpt lat="46.63263" lon="5.89247">
        <ele>763.93</ele>
        <time>2019-11-12T12:54:38Z</time>
      </trkpt>
      <trkpt lat="46.63261" lon="5.8924">
        <ele>765.13</ele>
        <time>2019-11-12T12:55:03Z</time>
      </trkpt>
      <trkpt lat="46.63257" lon="5.89213">
        <ele>764.69</ele>
        <time>2019-11-12T12:55:26Z</time>
      </trkpt>
      <trkpt lat="46.63255" lon="5.89189">
        <ele>764.9</ele>
        <time>2019-11-12T12:55:55Z</time>
      </trkpt>
      <trkpt lat="46.63253" lon="5.89175">
        <ele>765.23</ele>
        <time>2019-11-12T12:56:17Z</time>
      </trkpt>
      <trkpt lat="46.63248" lon="5.89173">
        <ele>764.73</ele>
        <time>2019-11-12T12:56:37Z</time>
      </trkpt>
      <trkpt lat="46.63228" lon="5.8916">
        <ele>765.21</ele>
        <time>2019-11-12T12:56:58Z</time>
      </trkpt>
      <trkpt lat="46.63225" lon="5.89159">
        <ele>764.73</ele>
        <time>2019-11-12T12:57:14Z</time>
      </trkpt>
      <trkpt lat="46.6321" lon="5.89146">
        <ele>765.18</ele>
        <time>2019-11-12T12:57:31Z</time>
      </trkpt>
      <trkpt lat="46.63194" lon="5.89126">
        <ele>764.71</ele>
        <time>2019-11-12T12:57:47Z</time>
      </trkpt>
      <trkpt lat="46.63184" lon="5.8911">
        <ele>765.12</ele>
        <time>2019-11-12T12:58:06Z</time>
      </trkpt>
      <trkpt lat="46.63173" lon="5.8909">
        <ele>765.73</ele>
        <time>2019-11-12T12:58:22Z</time>
      </trkpt>
      <trkpt lat="46.63163" lon="5.89071">
        <ele>767.04</ele>
        <time>2019-11-12T12:58:37Z</time>
      </trkpt>
      <trkpt lat="46.63154" lon="5.89052">
        <ele>767.88</ele>
        <time>2019-11-12T12:58:52Z</time>
      </trkpt>
      <trkpt lat="46.63141" lon="5.8903">
        <ele>767.74</ele>
        <time>2019-11-12T12:59:09Z</time>
      </trkpt>
      <trkpt lat="46.63131" lon="5.89005">
        <ele>768.97</ele>
        <time>2019-11-12T12:59:30Z</time>
      </trkpt>
      <trkpt lat="46.63122" lon="5.88985">
        <ele>770.03</ele>
        <time>2019-11-12T12:59:47Z</time>
      </trkpt>
      <trkpt lat="46.6312" lon="5.88983">
        <ele>769.2</ele>
        <time>2019-11-12T13:00:06Z</time>
      </trkpt>
      <trkpt lat="46.63106" lon="5.88971">
        <ele>769.19</ele>
        <time>2019-11-12T13:00:24Z</time>
      </trkpt>
      <trkpt lat="46.63096" lon="5.88959">
        <ele>769.73</ele>
        <time>2019-11-12T13:00:27Z</time>
      </trkpt>
      <trkpt lat="46.63084" lon="5.88945">
        <ele>769.39</ele>
        <time>2019-11-12T13:00:45Z</time>
      </trkpt>
      <trkpt lat="46.63069" lon="5.88924">
        <ele>770.33</ele>
        <time>2019-11-12T13:01:01Z</time>
      </trkpt>
      <trkpt lat="46.63056" lon="5.88906">
        <ele>771.04</ele>
        <time>2019-11-12T13:01:06Z</time>
      </trkpt>
      <trkpt lat="46.63046" lon="5.88884">
        <ele>771.49</ele>
        <time>2019-11-12T13:01:19Z</time>
      </trkpt>
      <trkpt lat="46.63031" lon="5.88869">
        <ele>772.22</ele>
        <time>2019-11-12T13:01:37Z</time>
      </trkpt>
      <trkpt lat="46.63017" lon="5.88851">
        <ele>772.52</ele>
        <time>2019-11-12T13:01:42Z</time>
      </trkpt>
      <trkpt lat="46.63003" lon="5.8884">
        <ele>772.15</ele>
        <time>2019-11-12T13:01:46Z</time>
      </trkpt>
      <trkpt lat="46.62989" lon="5.88819">
        <ele>772.71</ele>
        <time>2019-11-12T13:01:50Z</time>
      </trkpt>
      <trkpt lat="46.62978" lon="5.88815">
        <ele>773.75</ele>
        <time>2019-11-12T13:01:55Z</time>
      </trkpt>
      <trkpt lat="46.62972" lon="5.88808">
        <ele>773.13</ele>
        <time>2019-11-12T13:02:08Z</time>
      </trkpt>
      <trkpt lat="46.62957" lon="5.8879">
        <ele>774.63</ele>
        <time>2019-11-12T13:02:22Z</time>
      </trkpt>
      <trkpt lat="46.62943" lon="5.88775">
        <ele>775.23</ele>
        <time>2019-11-12T13:02:34Z</time>
      </trkpt>
      <trkpt lat="46.62932" lon="5.88761">
        <ele>776.21</ele>
        <time>2019-11-12T13:02:35Z</time>
      </trkpt>
      <trkpt lat="46.62917" lon="5.8875">
        <ele>775.99</ele>
        <time>2019-11-12T13:02:49Z</time>
      </trkpt>
      <trkpt lat="46.62906" lon="5.88737">
        <ele>776.52</ele>
        <time>2019-11-12T13:03:03Z</time>
      </trkpt>
      <trkpt lat="46.62892" lon="5.88727">
        <ele>776.47</ele>
        <time>2019-11-12T13:03:17Z</time>
      </trkpt>
      <trkpt lat="46.62885" lon="5.88714">
        <ele>777.64</ele>
        <time>2019-11-12T13:03:34Z</time>
      </trkpt>
      <trkpt lat="46.62885" lon="5.88708">
        <ele>778.04</ele>
        <time>2019-11-12T13:03:43Z</time>
      </trkpt>
      <trkpt lat="46.62881" lon="5.88705">
        <ele>777.85</ele>
        <time>2019-11-12T13:03:46Z</time>
      </trkpt>
      <trkpt lat="46.62884" lon="5.88706">
        <ele>777.29</ele>
        <time>2019-11-12T13:03:52Z</time>
      </trkpt>
      <trkpt lat="46.62883" lon="5.88709">
        <ele>776.97</ele>
        <time>2019-11-12T13:04:06Z</time>
      </trkpt>
      <trkpt lat="46.6287" lon="5.887">
        <ele>776.98</ele>
        <time>2019-11-12T13:04:15Z</time>
      </trkpt>
      <trkpt lat="46.62854" lon="5.88682">
        <ele>777.61</ele>
        <time>2019-11-12T13:04:29Z</time>
      </trkpt>
      <trkpt lat="46.62853" lon="5.8868">
        <ele>777.78</ele>
        <time>2019-11-12T13:04:45Z</time>
      </trkpt>
      <trkpt lat="46.62849" lon="5.88675">
        <ele>778.38</ele>
        <time>2019-11-12T13:04:48Z</time>
      </trkpt>
      <trkpt lat="46.62834" lon="5.88663">
        <ele>778.75</ele>
        <time>2019-11-12T13:05:02Z</time>
      </trkpt>
      <trkpt lat="46.62829" lon="5.88658">
        <ele>779.27</ele>
        <time>2019-11-12T13:05:18Z</time>
      </trkpt>
      <trkpt lat="46.62825" lon="5.88663">
        <ele>778.95</ele>
        <time>2019-11-12T13:05:33Z</time>
      </trkpt>
      <trkpt lat="46.62821" lon="5.88667">
        <ele>778.81</ele>
        <time>2019-11-12T13:05:50Z</time>
      </trkpt>
      <trkpt lat="46.62821" lon="5.88666">
        <ele>778.83</ele>
        <time>2019-11-12T13:06:09Z</time>
      </trkpt>
      <trkpt lat="46.62822" lon="5.88666">
        <ele>778.83</ele>
        <time>2019-11-12T13:06:25Z</time>
      </trkpt>
      <trkpt lat="46.62821" lon="5.88661">
        <ele>778.2</ele>
        <time>2019-11-12T13:06:43Z</time>
      </trkpt>
      <trkpt lat="46.62815" lon="5.88647">
        <ele>779.19</ele>
        <time>2019-11-12T13:06:56Z</time>
      </trkpt>
      <trkpt lat="46.62818" lon="5.88633">
        <ele>779.79</ele>
        <time>2019-11-12T13:07:16Z</time>
      </trkpt>
      <trkpt lat="46.62811" lon="5.88621">
        <ele>779.88</ele>
        <time>2019-11-12T13:07:28Z</time>
      </trkpt>
      <trkpt lat="46.62797" lon="5.88614">
        <ele>779.54</ele>
        <time>2019-11-12T13:07:42Z</time>
      </trkpt>
      <trkpt lat="46.62785" lon="5.88613">
        <ele>778.51</ele>
        <time>2019-11-12T13:08:01Z</time>
      </trkpt>
      <trkpt lat="46.62773" lon="5.88601">
        <ele>779.48</ele>
        <time>2019-11-12T13:08:18Z</time>
      </trkpt>
      <trkpt lat="46.62761" lon="5.88586">
        <ele>779.93</ele>
        <time>2019-11-12T13:08:37Z</time>
      </trkpt>
      <trkpt lat="46.62752" lon="5.88576">
        <ele>779.79</ele>
        <time>2019-11-12T13:09:00Z</time>
      </trkpt>
      <trkpt lat="46.62734" lon="5.8856">
        <ele>780.31</ele>
        <time>2019-11-12T13:09:23Z</time>
      </trkpt>
      <trkpt lat="46.62719" lon="5.88548">
        <ele>779.5</ele>
        <time>2019-11-12T13:09:44Z</time>
      </trkpt>
      <trkpt lat="46.62705" lon="5.8853">
        <ele>780.47</ele>
        <time>2019-11-12T13:09:49Z</time>
      </trkpt>
      <trkpt lat="46.62689" lon="5.88516">
        <ele>780.52</ele>
        <time>2019-11-12T13:10:05Z</time>
      </trkpt>
      <trkpt lat="46.62687" lon="5.88512">
        <ele>780.37</ele>
        <time>2019-11-12T13:10:10Z</time>
      </trkpt>
      <trkpt lat="46.62671" lon="5.88491">
        <ele>780.11</ele>
        <time>2019-11-12T13:10:20Z</time>
      </trkpt>
      <trkpt lat="46.62658" lon="5.88474">
        <ele>780.07</ele>
        <time>2019-11-12T13:10:36Z</time>
      </trkpt>
      <trkpt lat="46.62653" lon="5.88467">
        <ele>779.87</ele>
        <time>2019-11-12T13:10:53Z</time>
      </trkpt>
      <trkpt lat="46.62642" lon="5.88453">
        <ele>779.74</ele>
        <time>2019-11-12T13:11:08Z</time>
      </trkpt>
      <trkpt lat="46.62626" lon="5.88437">
        <ele>779.51</ele>
        <time>2019-11-12T13:11:25Z</time>
      </trkpt>
      <trkpt lat="46.62622" lon="5.88434">
        <ele>780.66</ele>
        <time>2019-11-12T13:11:42Z</time>
      </trkpt>
      <trkpt lat="46.62619" lon="5.88432">
        <ele>780.21</ele>
        <time>2019-11-12T13:11:44Z</time>
      </trkpt>
      <trkpt lat="46.62615" lon="5.8843">
        <ele>780.29</ele>
        <time>2019-11-12T13:11:50Z</time>
      </trkpt>
      <trkpt lat="46.6261" lon="5.88427">
        <ele>780.53</ele>
        <time>2019-11-12T13:12:01Z</time>
      </trkpt>
      <trkpt lat="46.62602" lon="5.88414">
        <ele>780.49</ele>
        <time>2019-11-12T13:12:20Z</time>
      </trkpt>
      <trkpt lat="46.62595" lon="5.88395">
        <ele>780.09</ele>
        <time>2019-11-12T13:12:39Z</time>
      </trkpt>
      <trkpt lat="46.62587" lon="5.88384">
        <ele>780.67</ele>
        <time>2019-11-12T13:12:55Z</time>
      </trkpt>
      <trkpt lat="46.62586" lon="5.88383">
        <ele>780.35</ele>
        <time>2019-11-12T13:13:11Z</time>
      </trkpt>
      <trkpt lat="46.62575" lon="5.88369">
        <ele>780.37</ele>
        <time>2019-11-12T13:13:14Z</time>
      </trkpt>
      <trkpt lat="46.62562" lon="5.88357">
        <ele>779.56</ele>
        <time>2019-11-12T13:13:31Z</time>
      </trkpt>
      <trkpt lat="46.62547" lon="5.8835">
        <ele>780.68</ele>
        <time>2019-11-12T13:13:51Z</time>
      </trkpt>
      <trkpt lat="46.6254" lon="5.88344">
        <ele>781.99</ele>
        <time>2019-11-12T13:13:58Z</time>
      </trkpt>
      <trkpt lat="46.62532" lon="5.88333">
        <ele>781.97</ele>
        <time>2019-11-12T13:14:14Z</time>
      </trkpt>
      <trkpt lat="46.6253" lon="5.88329">
        <ele>782.35</ele>
        <time>2019-11-12T13:14:27Z</time>
      </trkpt>
      <trkpt lat="46.62525" lon="5.88322">
        <ele>781.86</ele>
        <time>2019-11-12T13:14:49Z</time>
      </trkpt>
      <trkpt lat="46.62517" lon="5.88315">
        <ele>782.84</ele>
        <time>2019-11-12T13:15:04Z</time>
      </trkpt>
      <trkpt lat="46.6251" lon="5.88309">
        <ele>783.7</ele>
        <time>2019-11-12T13:15:09Z</time>
      </trkpt>
      <trkpt lat="46.625" lon="5.88298">
        <ele>784.64</ele>
        <time>2019-11-12T13:15:24Z</time>
      </trkpt>
      <trkpt lat="46.6249" lon="5.88285">
        <ele>784.58</ele>
        <time>2019-11-12T13:15:43Z</time>
      </trkpt>
      <trkpt lat="46.62488" lon="5.88283">
        <ele>784.52</ele>
        <time>2019-11-12T13:15:49Z</time>
      </trkpt>
      <trkpt lat="46.62474" lon="5.8827">
        <ele>784.64</ele>
        <time>2019-11-12T13:16:05Z</time>
      </trkpt>
      <trkpt lat="46.62464" lon="5.88253">
        <ele>786.02</ele>
        <time>2019-11-12T13:16:23Z</time>
      </trkpt>
      <trkpt lat="46.62452" lon="5.88239">
        <ele>787.05</ele>
        <time>2019-11-12T13:16:43Z</time>
      </trkpt>
      <trkpt lat="46.6244" lon="5.88217">
        <ele>787.05</ele>
        <time>2019-11-12T13:17:01Z</time>
      </trkpt>
      <trkpt lat="46.62424" lon="5.882">
        <ele>788.31</ele>
        <time>2019-11-12T13:17:15Z</time>
      </trkpt>
      <trkpt lat="46.62409" lon="5.88189">
        <ele>787.95</ele>
        <time>2019-11-12T13:17:33Z</time>
      </trkpt>
      <trkpt lat="46.62392" lon="5.88173">
        <ele>787.79</ele>
        <time>2019-11-12T13:18:04Z</time>
      </trkpt>
      <trkpt lat="46.62378" lon="5.88166">
        <ele>787.69</ele>
        <time>2019-11-12T13:20:47Z</time>
      </trkpt>
      <trkpt lat="46.62356" lon="5.88159">
        <ele>787.71</ele>
        <time>2019-11-12T13:20:56Z</time>
      </trkpt>
      <trkpt lat="46.62341" lon="5.88157">
        <ele>787.19</ele>
        <time>2019-11-12T13:21:06Z</time>
      </trkpt>
      <trkpt lat="46.62325" lon="5.88156">
        <ele>786.31</ele>
        <time>2019-11-12T13:21:52Z</time>
      </trkpt>
      <trkpt lat="46.62321" lon="5.88152">
        <ele>785.87</ele>
        <time>2019-11-12T13:21:58Z</time>
      </trkpt>
      <trkpt lat="46.62305" lon="5.88148">
        <ele>784.23</ele>
        <time>2019-11-12T13:22:14Z</time>
      </trkpt>
      <trkpt lat="46.62302" lon="5.88143">
        <ele>785.03</ele>
        <time>2019-11-12T13:22:27Z</time>
      </trkpt>
      <trkpt lat="46.62298" lon="5.88142">
        <ele>784.45</ele>
        <time>2019-11-12T13:22:42Z</time>
      </trkpt>
      <trkpt lat="46.62297" lon="5.88142">
        <ele>784.91</ele>
        <time>2019-11-12T13:23:19Z</time>
      </trkpt>
      <trkpt lat="46.62287" lon="5.88148">
        <ele>783.21</ele>
        <time>2019-11-12T13:24:49Z</time>
      </trkpt>
      <trkpt lat="46.62282" lon="5.8815">
        <ele>783.16</ele>
        <time>2019-11-12T13:25:02Z</time>
      </trkpt>
      <trkpt lat="46.62265" lon="5.88154">
        <ele>781.55</ele>
        <time>2019-11-12T13:25:08Z</time>
      </trkpt>
      <trkpt lat="46.62259" lon="5.88155">
        <ele>781.66</ele>
        <time>2019-11-12T13:25:30Z</time>
      </trkpt>
      <trkpt lat="46.62249" lon="5.88158">
        <ele>780.73</ele>
        <time>2019-11-12T13:25:45Z</time>
      </trkpt>
      <trkpt lat="46.62232" lon="5.88161">
        <ele>779.76</ele>
        <time>2019-11-12T13:25:54Z</time>
      </trkpt>
      <trkpt lat="46.62212" lon="5.88164">
        <ele>777.56</ele>
        <time>2019-11-12T13:26:00Z</time>
      </trkpt>
      <trkpt lat="46.62194" lon="5.88167">
        <ele>776.63</ele>
        <time>2019-11-12T13:26:03Z</time>
      </trkpt>
      <trkpt lat="46.62174" lon="5.88172">
        <ele>774.35</ele>
        <time>2019-11-12T13:26:19Z</time>
      </trkpt>
      <trkpt lat="46.62154" lon="5.88175">
        <ele>773.53</ele>
        <time>2019-11-12T13:26:33Z</time>
      </trkpt>
      <trkpt lat="46.62151" lon="5.88175">
        <ele>773.47</ele>
        <time>2019-11-12T13:26:47Z</time>
      </trkpt>
      <trkpt lat="46.62145" lon="5.88178">
        <ele>773.59</ele>
        <time>2019-11-12T13:26:54Z</time>
      </trkpt>
      <trkpt lat="46.62132" lon="5.88175">
        <ele>771.6</ele>
        <time>2019-11-12T13:27:10Z</time>
      </trkpt>
      <trkpt lat="46.62108" lon="5.88167">
        <ele>770.32</ele>
        <time>2019-11-12T13:27:16Z</time>
      </trkpt>
      <trkpt lat="46.62084" lon="5.88166">
        <ele>767.89</ele>
        <time>2019-11-12T13:27:31Z</time>
      </trkpt>
      <trkpt lat="46.62063" lon="5.88164">
        <ele>767.99</ele>
        <time>2019-11-12T13:27:44Z</time>
      </trkpt>
      <trkpt lat="46.62045" lon="5.88158">
        <ele>766.19</ele>
        <time>2019-11-12T13:28:00Z</time>
      </trkpt>
      <trkpt lat="46.62042" lon="5.88157">
        <ele>764.8</ele>
        <time>2019-11-12T13:28:18Z</time>
      </trkpt>
      <trkpt lat="46.6202" lon="5.88148">
        <ele>763.67</ele>
        <time>2019-11-12T13:28:36Z</time>
      </trkpt>
      <trkpt lat="46.61997" lon="5.88141">
        <ele>764.16</ele>
        <time>2019-11-12T13:28:47Z</time>
      </trkpt>
      <trkpt lat="46.6199" lon="5.88135">
        <ele>763.08</ele>
        <time>2019-11-12T13:29:06Z</time>
      </trkpt>
      <trkpt lat="46.61972" lon="5.8813">
        <ele>762.53</ele>
        <time>2019-11-12T13:29:23Z</time>
      </trkpt>
      <trkpt lat="46.61964" lon="5.88127">
        <ele>762.45</ele>
        <time>2019-11-12T13:29:39Z</time>
      </trkpt>
      <trkpt lat="46.6194" lon="5.88117">
        <ele>761.25</ele>
        <time>2019-11-12T13:29:55Z</time>
      </trkpt>
      <trkpt lat="46.61924" lon="5.88119">
        <ele>760.47</ele>
        <time>2019-11-12T13:30:11Z</time>
      </trkpt>
      <trkpt lat="46.61918" lon="5.8812">
        <ele>760.52</ele>
        <time>2019-11-12T13:30:30Z</time>
      </trkpt>
      <trkpt lat="46.61902" lon="5.88118">
        <ele>760.34</ele>
        <time>2019-11-12T13:30:35Z</time>
      </trkpt>
      <trkpt lat="46.6188" lon="5.88112">
        <ele>759.45</ele>
        <time>2019-11-12T13:30:52Z</time>
      </trkpt>
      <trkpt lat="46.61874" lon="5.88112">
        <ele>759.24</ele>
        <time>2019-11-12T13:31:10Z</time>
      </trkpt>
      <trkpt lat="46.61865" lon="5.88114">
        <ele>758.82</ele>
        <time>2019-11-12T13:31:18Z</time>
      </trkpt>
      <trkpt lat="46.61853" lon="5.88115">
        <ele>758.33</ele>
        <time>2019-11-12T13:31:20Z</time>
      </trkpt>
      <trkpt lat="46.6183" lon="5.88123">
        <ele>756.71</ele>
        <time>2019-11-12T13:31:40Z</time>
      </trkpt>
      <trkpt lat="46.61825" lon="5.8815">
        <ele>755.64</ele>
        <time>2019-11-12T13:31:58Z</time>
      </trkpt>
      <trkpt lat="46.61825" lon="5.88161">
        <ele>755.52</ele>
        <time>2019-11-12T13:32:17Z</time>
      </trkpt>
      <trkpt lat="46.61825" lon="5.88159">
        <ele>755.98</ele>
        <time>2019-11-12T13:32:35Z</time>
      </trkpt>
      <trkpt lat="46.61825" lon="5.88187">
        <ele>755.16</ele>
        <time>2019-11-12T13:32:52Z</time>
      </trkpt>
      <trkpt lat="46.61824" lon="5.88197">
        <ele>755.89</ele>
        <time>2019-11-12T13:32:53Z</time>
      </trkpt>
      <trkpt lat="46.61816" lon="5.88205">
        <ele>755.84</ele>
        <time>2019-11-12T13:33:00Z</time>
      </trkpt>
      <trkpt lat="46.61808" lon="5.88212">
        <ele>756.24</ele>
        <time>2019-11-12T13:33:03Z</time>
      </trkpt>
      <trkpt lat="46.61805" lon="5.88215">
        <ele>756.09</ele>
        <time>2019-11-12T13:33:13Z</time>
      </trkpt>
      <trkpt lat="46.61809" lon="5.88213">
        <ele>755.94</ele>
        <time>2019-11-12T13:33:25Z</time>
      </trkpt>
      <trkpt lat="46.61822" lon="5.88203">
        <ele>756.25</ele>
        <time>2019-11-12T13:33:54Z</time>
      </trkpt>
      <trkpt lat="46.61825" lon="5.88199">
        <ele>755.96</ele>
        <time>2019-11-12T13:33:55Z</time>
      </trkpt>
      <trkpt lat="46.61829" lon="5.88183">
        <ele>755.98</ele>
        <time>2019-11-12T13:33:57Z</time>
      </trkpt>
      <trkpt lat="46.61829" lon="5.88173">
        <ele>756.9</ele>
        <time>2019-11-12T13:34:02Z</time>
      </trkpt>
      <trkpt lat="46.61827" lon="5.88171">
        <ele>757.26</ele>
        <time>2019-11-12T13:34:16Z</time>
      </trkpt>
      <trkpt lat="46.61825" lon="5.88156">
        <ele>758.19</ele>
        <time>2019-11-12T13:34:45Z</time>
      </trkpt>
      <trkpt lat="46.61825" lon="5.88148">
        <ele>757.67</ele>
        <time>2019-11-12T13:34:57Z</time>
      </trkpt>
      <trkpt lat="46.61835" lon="5.88116">
        <ele>759.92</ele>
        <time>2019-11-12T13:35:06Z</time>
      </trkpt>
      <trkpt lat="46.61848" lon="5.88115">
        <ele>762.07</ele>
        <time>2019-11-12T13:35:15Z</time>
      </trkpt>
      <trkpt lat="46.61857" lon="5.88118">
        <ele>761.84</ele>
        <time>2019-11-12T13:35:22Z</time>
      </trkpt>
      <trkpt lat="46.61863" lon="5.88122">
        <ele>761.98</ele>
        <time>2019-11-12T13:35:43Z</time>
      </trkpt>
      <trkpt lat="46.61866" lon="5.88125">
        <ele>761.91</ele>
        <time>2019-11-12T13:35:57Z</time>
      </trkpt>
      <trkpt lat="46.61881" lon="5.88144">
        <ele>761.85</ele>
        <time>2019-11-12T13:36:13Z</time>
      </trkpt>
      <trkpt lat="46.61888" lon="5.88153">
        <ele>761.53</ele>
        <time>2019-11-12T13:36:29Z</time>
      </trkpt>
      <trkpt lat="46.61897" lon="5.88161">
        <ele>761.23</ele>
        <time>2019-11-12T13:36:46Z</time>
      </trkpt>
      <trkpt lat="46.61903" lon="5.88169">
        <ele>761.27</ele>
        <time>2019-11-12T13:37:04Z</time>
      </trkpt>
      <trkpt lat="46.61907" lon="5.88192">
        <ele>760.38</ele>
        <time>2019-11-12T13:37:20Z</time>
      </trkpt>
      <trkpt lat="46.61907" lon="5.88197">
        <ele>759.57</ele>
        <time>2019-11-12T13:37:38Z</time>
      </trkpt>
      <trkpt lat="46.6191" lon="5.88212">
        <ele>760.69</ele>
        <time>2019-11-12T13:37:53Z</time>
      </trkpt>
      <trkpt lat="46.61907" lon="5.88224">
        <ele>760.17</ele>
        <time>2019-11-12T13:38:08Z</time>
      </trkpt>
      <trkpt lat="46.61904" lon="5.8824">
        <ele>760.79</ele>
        <time>2019-11-12T13:38:21Z</time>
      </trkpt>
      <trkpt lat="46.619" lon="5.88262">
        <ele>761.92</ele>
        <time>2019-11-12T13:38:34Z</time>
      </trkpt>
      <trkpt lat="46.61897" lon="5.88275">
        <ele>763.09</ele>
        <time>2019-11-12T13:38:38Z</time>
      </trkpt>
      <trkpt lat="46.61891" lon="5.88288">
        <ele>763.95</ele>
        <time>2019-11-12T13:38:43Z</time>
      </trkpt>
      <trkpt lat="46.61881" lon="5.88307">
        <ele>766.02</ele>
        <time>2019-11-12T13:38:58Z</time>
      </trkpt>
      <trkpt lat="46.61874" lon="5.88325">
        <ele>767.58</ele>
        <time>2019-11-12T13:39:08Z</time>
      </trkpt>
      <trkpt lat="46.61862" lon="5.88344">
        <ele>770.04</ele>
        <time>2019-11-12T13:39:15Z</time>
      </trkpt>
      <trkpt lat="46.61848" lon="5.8836">
        <ele>771.54</ele>
        <time>2019-11-12T13:39:30Z</time>
      </trkpt>
      <trkpt lat="46.61833" lon="5.88371">
        <ele>774.18</ele>
        <time>2019-11-12T13:39:46Z</time>
      </trkpt>
      <trkpt lat="46.61818" lon="5.88387">
        <ele>775.73</ele>
        <time>2019-11-12T13:40:00Z</time>
      </trkpt>
      <trkpt lat="46.61815" lon="5.88396">
        <ele>775.72</ele>
        <time>2019-11-12T13:40:04Z</time>
      </trkpt>
      <trkpt lat="46.61816" lon="5.88415">
        <ele>774.13</ele>
        <time>2019-11-12T13:40:20Z</time>
      </trkpt>
      <trkpt lat="46.61818" lon="5.88435">
        <ele>772.7</ele>
        <time>2019-11-12T13:40:39Z</time>
      </trkpt>
      <trkpt lat="46.61817" lon="5.88442">
        <ele>771.96</ele>
        <time>2019-11-12T13:40:55Z</time>
      </trkpt>
      <trkpt lat="46.61816" lon="5.88445">
        <ele>773.17</ele>
        <time>2019-11-12T13:41:02Z</time>
      </trkpt>
      <trkpt lat="46.61813" lon="5.8846">
        <ele>772.12</ele>
        <time>2019-11-12T13:41:20Z</time>
      </trkpt>
      <trkpt lat="46.61815" lon="5.88485">
        <ele>771.74</ele>
        <time>2019-11-12T13:41:34Z</time>
      </trkpt>
      <trkpt lat="46.61814" lon="5.88515">
        <ele>771.71</ele>
        <time>2019-11-12T13:41:52Z</time>
      </trkpt>
      <trkpt lat="46.61817" lon="5.88543">
        <ele>770.55</ele>
        <time>2019-11-12T13:42:11Z</time>
      </trkpt>
      <trkpt lat="46.61815" lon="5.88574">
        <ele>767.15</ele>
        <time>2019-11-12T13:42:22Z</time>
      </trkpt>
      <trkpt lat="46.61815" lon="5.88576">
        <ele>767.13</ele>
        <time>2019-11-12T13:42:41Z</time>
      </trkpt>
      <trkpt lat="46.61812" lon="5.88594">
        <ele>769.48</ele>
        <time>2019-11-12T13:42:58Z</time>
      </trkpt>
      <trkpt lat="46.61812" lon="5.886">
        <ele>769.68</ele>
        <time>2019-11-12T13:43:07Z</time>
      </trkpt>
      <trkpt lat="46.61811" lon="5.8862">
        <ele>768.14</ele>
        <time>2019-11-12T13:43:15Z</time>
      </trkpt>
      <trkpt lat="46.61819" lon="5.88639">
        <ele>767.81</ele>
        <time>2019-11-12T13:43:31Z</time>
      </trkpt>
      <trkpt lat="46.61825" lon="5.88642">
        <ele>767.56</ele>
        <time>2019-11-12T13:43:35Z</time>
      </trkpt>
      <trkpt lat="46.61825" lon="5.88643">
        <ele>767</ele>
        <time>2019-11-12T13:43:45Z</time>
      </trkpt>
      <trkpt lat="46.61825" lon="5.88647">
        <ele>767</ele>
        <time>2019-11-12T13:43:55Z</time>
      </trkpt>
      <trkpt lat="46.61826" lon="5.88654">
        <ele>768.04</ele>
        <time>2019-11-12T13:44:01Z</time>
      </trkpt>
      <trkpt lat="46.61829" lon="5.88653">
        <ele>766.47</ele>
        <time>2019-11-12T13:44:24Z</time>
      </trkpt>
      <trkpt lat="46.61829" lon="5.88653">
        <ele>767.35</ele>
        <time>2019-11-12T13:44:38Z</time>
      </trkpt>
      <trkpt lat="46.61829" lon="5.88655">
        <ele>767.17</ele>
        <time>2019-11-12T13:44:56Z</time>
      </trkpt>
      <trkpt lat="46.61831" lon="5.8866">
        <ele>767.56</ele>
        <time>2019-11-12T13:45:10Z</time>
      </trkpt>
      <trkpt lat="46.61832" lon="5.88672">
        <ele>766.97</ele>
        <time>2019-11-12T13:45:27Z</time>
      </trkpt>
      <trkpt lat="46.61834" lon="5.88682">
        <ele>766.44</ele>
        <time>2019-11-12T13:45:44Z</time>
      </trkpt>
      <trkpt lat="46.61841" lon="5.88722">
        <ele>764.51</ele>
        <time>2019-11-12T13:45:45Z</time>
      </trkpt>
      <trkpt lat="46.61838" lon="5.88748">
        <ele>763.38</ele>
        <time>2019-11-12T13:45:49Z</time>
      </trkpt>
      <trkpt lat="46.61841" lon="5.88776">
        <ele>762.41</ele>
        <time>2019-11-12T13:46:01Z</time>
      </trkpt>
      <trkpt lat="46.61844" lon="5.88801">
        <ele>761.26</ele>
        <time>2019-11-12T13:46:13Z</time>
      </trkpt>
      <trkpt lat="46.61841" lon="5.88814">
        <ele>760.88</ele>
        <time>2019-11-12T13:46:33Z</time>
      </trkpt>
      <trkpt lat="46.6184" lon="5.88818">
        <ele>761.23</ele>
        <time>2019-11-12T13:46:36Z</time>
      </trkpt>
      <trkpt lat="46.61837" lon="5.88827">
        <ele>760.89</ele>
        <time>2019-11-12T13:46:44Z</time>
      </trkpt>
      <trkpt lat="46.61836" lon="5.88854">
        <ele>761.06</ele>
        <time>2019-11-12T13:46:51Z</time>
      </trkpt>
      <trkpt lat="46.61834" lon="5.8888">
        <ele>760.82</ele>
        <time>2019-11-12T13:47:06Z</time>
      </trkpt>
      <trkpt lat="46.61832" lon="5.889">
        <ele>761.24</ele>
        <time>2019-11-12T13:47:21Z</time>
      </trkpt>
      <trkpt lat="46.6183" lon="5.88913">
        <ele>761.76</ele>
        <time>2019-11-12T13:47:38Z</time>
      </trkpt>
      <trkpt lat="46.61828" lon="5.88925">
        <ele>761.72</ele>
        <time>2019-11-12T13:47:41Z</time>
      </trkpt>
      <trkpt lat="46.61827" lon="5.8893">
        <ele>762.07</ele>
        <time>2019-11-12T13:47:46Z</time>
      </trkpt>
      <trkpt lat="46.61825" lon="5.88936">
        <ele>761.13</ele>
        <time>2019-11-12T13:47:51Z</time>
      </trkpt>
      <trkpt lat="46.61818" lon="5.88951">
        <ele>761.8</ele>
        <time>2019-11-12T13:48:05Z</time>
      </trkpt>
      <trkpt lat="46.61812" lon="5.88957">
        <ele>759.28</ele>
        <time>2019-11-12T13:48:23Z</time>
      </trkpt>
      <trkpt lat="46.61807" lon="5.88965">
        <ele>761.28</ele>
        <time>2019-11-12T13:48:39Z</time>
      </trkpt>
      <trkpt lat="46.61796" lon="5.88976">
        <ele>761.47</ele>
        <time>2019-11-12T13:48:54Z</time>
      </trkpt>
      <trkpt lat="46.61787" lon="5.88988">
        <ele>762.11</ele>
        <time>2019-11-12T13:49:05Z</time>
      </trkpt>
      <trkpt lat="46.61778" lon="5.88994">
        <ele>761.49</ele>
        <time>2019-11-12T13:49:20Z</time>
      </trkpt>
      <trkpt lat="46.61773" lon="5.88994">
        <ele>761.82</ele>
        <time>2019-11-12T13:49:21Z</time>
      </trkpt>
      <trkpt lat="46.61761" lon="5.88986">
        <ele>761.22</ele>
        <time>2019-11-12T13:49:32Z</time>
      </trkpt>
      <trkpt lat="46.61741" lon="5.88971">
        <ele>761.82</ele>
        <time>2019-11-12T13:49:48Z</time>
      </trkpt>
      <trkpt lat="46.61723" lon="5.88965">
        <ele>761.9</ele>
        <time>2019-11-12T13:50:09Z</time>
      </trkpt>
      <trkpt lat="46.61714" lon="5.88958">
        <ele>762.04</ele>
        <time>2019-11-12T13:50:28Z</time>
      </trkpt>
      <trkpt lat="46.61696" lon="5.88958">
        <ele>761.41</ele>
        <time>2019-11-12T13:50:47Z</time>
      </trkpt>
      <trkpt lat="46.61681" lon="5.88961">
        <ele>760.97</ele>
        <time>2019-11-12T13:51:01Z</time>
      </trkpt>
      <trkpt lat="46.61662" lon="5.88971">
        <ele>761.15</ele>
        <time>2019-11-12T13:51:22Z</time>
      </trkpt>
      <trkpt lat="46.61646" lon="5.88991">
        <ele>760.97</ele>
        <time>2019-11-12T13:51:56Z</time>
      </trkpt>
      <trkpt lat="46.61642" lon="5.89011">
        <ele>761.25</ele>
        <time>2019-11-12T13:52:19Z</time>
      </trkpt>
      <trkpt lat="46.61642" lon="5.8904">
        <ele>760.99</ele>
        <time>2019-11-12T13:52:48Z</time>
      </trkpt>
      <trkpt lat="46.61641" lon="5.89066">
        <ele>761.08</ele>
        <time>2019-11-12T13:53:13Z</time>
      </trkpt>
      <trkpt lat="46.61636" lon="5.89084">
        <ele>761.12</ele>
        <time>2019-11-12T13:53:33Z</time>
      </trkpt>
      <trkpt lat="46.61628" lon="5.89097">
        <ele>761.52</ele>
        <time>2019-11-12T13:53:50Z</time>
      </trkpt>
      <trkpt lat="46.61692" lon="5.89154">
        <ele>762.23</ele>
        <time>2019-11-12T13:54:05Z</time>
      </trkpt>
      <trkpt lat="46.61785" lon="5.89279">
        <ele>763.03</ele>
        <time>2019-11-12T13:54:25Z</time>
      </trkpt>
      <trkpt lat="46.61878" lon="5.89432">
        <ele>763.69</ele>
        <time>2019-11-12T13:54:45Z</time>
      </trkpt>
      <trkpt lat="46.61923" lon="5.89635">
        <ele>764.34</ele>
        <time>2019-11-12T13:55:02Z</time>
      </trkpt>
      <trkpt lat="46.61987" lon="5.89772">
        <ele>763.87</ele>
        <time>2019-11-12T13:55:21Z</time>
      </trkpt>
      <trkpt lat="46.61904" lon="5.89909">
        <ele>764.35</ele>
        <time>2019-11-12T13:55:32Z</time>
      </trkpt>
      <trkpt lat="46.61927" lon="5.90026">
        <ele>763.95</ele>
        <time>2019-11-12T13:55:45Z</time>
      </trkpt>
      <trkpt lat="46.61967" lon="5.9011">
        <ele>764.12</ele>
        <time>2019-11-12T13:55:59Z</time>
      </trkpt>
      <trkpt lat="46.61972" lon="5.90154">
        <ele>763.79</ele>
        <time>2019-11-12T13:56:15Z</time>
      </trkpt>
      <trkpt lat="46.61989" lon="5.90269">
        <ele>763.84</ele>
        <time>2019-11-12T13:56:26Z</time>
      </trkpt>
      <trkpt lat="46.62043" lon="5.90367">
        <ele>764.49</ele>
        <time>2019-11-12T13:56:44Z</time>
      </trkpt>
      <trkpt lat="46.62118" lon="5.90453">
        <ele>764.24</ele>
        <time>2019-11-12T13:56:49Z</time>
      </trkpt>
      <trkpt lat="46.62221" lon="5.90636">
        <ele>765.68</ele>
        <time>2019-11-12T13:57:36Z</time>
      </trkpt>
    </trkseg>
  </trk>
  <trk>
    <name><![CDATA[J4 - Abbaye En Grandvaux_R]]></name>
    <trkseg>
      <trkpt lat="46.53491" lon="5.92132">
        <ele>877</ele>
        <time>2019-11-11T11:49:28Z</time>
      </trkpt>
      <trkpt lat="46.53491" lon="5.92133">
        <ele>877</ele>
        <time>2019-11-11T11:49:29Z</time>
      </trkpt>
      <trkpt lat="46.535" lon="5.92136">
        <ele>877</ele>
        <time>2019-11-11T11:50:02Z</time>
      </trkpt>
      <trkpt lat="46.53509" lon="5.92135">
        <ele>877</ele>
        <time>2019-11-11T11:50:09Z</time>
      </trkpt>
      <trkpt lat="46.53517" lon="5.92129">
        <ele>877</ele>
        <time>2019-11-11T11:50:18Z</time>
      </trkpt>
      <trkpt lat="46.53527" lon="5.92127">
        <ele>877</ele>
        <time>2019-11-11T11:50:28Z</time>
      </trkpt>
      <trkpt lat="46.53537" lon="5.9213">
        <ele>877</ele>
        <time>2019-11-11T11:50:40Z</time>
      </trkpt>
      <trkpt lat="46.53547" lon="5.9213">
        <ele>877</ele>
        <time>2019-11-11T11:50:49Z</time>
      </trkpt>
      <trkpt lat="46.53556" lon="5.92131">
        <ele>877</ele>
        <time>2019-11-11T11:50:56Z</time>
      </trkpt>
      <trkpt lat="46.53566" lon="5.9213">
        <ele>877</ele>
        <time>2019-11-11T11:51:05Z</time>
      </trkpt>
      <trkpt lat="46.53575" lon="5.92125">
        <ele>877</ele>
        <time>2019-11-11T11:51:21Z</time>
      </trkpt>
      <trkpt lat="46.53584" lon="5.92123">
        <ele>876</ele>
        <time>2019-11-11T11:51:29Z</time>
      </trkpt>
      <trkpt lat="46.53594" lon="5.92122">
        <ele>877</ele>
        <time>2019-11-11T11:51:43Z</time>
      </trkpt>
      <trkpt lat="46.53604" lon="5.9212">
        <ele>877</ele>
        <time>2019-11-11T11:51:48Z</time>
      </trkpt>
      <trkpt lat="46.53613" lon="5.92115">
        <ele>877</ele>
        <time>2019-11-11T11:51:56Z</time>
      </trkpt>
      <trkpt lat="46.53622" lon="5.92113">
        <ele>877</ele>
        <time>2019-11-11T11:52:02Z</time>
      </trkpt>
      <trkpt lat="46.53632" lon="5.92111">
        <ele>877</ele>
        <time>2019-11-11T11:52:07Z</time>
      </trkpt>
      <trkpt lat="46.53642" lon="5.92111">
        <ele>877</ele>
        <time>2019-11-11T11:52:13Z</time>
      </trkpt>
      <trkpt lat="46.53651" lon="5.92109">
        <ele>877</ele>
        <time>2019-11-11T11:52:22Z</time>
      </trkpt>
      <trkpt lat="46.53661" lon="5.92106">
        <ele>877</ele>
        <time>2019-11-11T11:52:31Z</time>
      </trkpt>
      <trkpt lat="46.5367" lon="5.92103">
        <ele>877</ele>
        <time>2019-11-11T11:52:39Z</time>
      </trkpt>
      <trkpt lat="46.53679" lon="5.92102">
        <ele>877</ele>
        <time>2019-11-11T11:52:49Z</time>
      </trkpt>
      <trkpt lat="46.53688" lon="5.921">
        <ele>877</ele>
        <time>2019-11-11T11:52:58Z</time>
      </trkpt>
      <trkpt lat="46.53697" lon="5.92095">
        <ele>878</ele>
        <time>2019-11-11T11:53:06Z</time>
      </trkpt>
      <trkpt lat="46.53705" lon="5.92089">
        <ele>878</ele>
        <time>2019-11-11T11:53:14Z</time>
      </trkpt>
      <trkpt lat="46.53714" lon="5.92081">
        <ele>878</ele>
        <time>2019-11-11T11:53:24Z</time>
      </trkpt>
      <trkpt lat="46.53723" lon="5.92074">
        <ele>878</ele>
        <time>2019-11-11T11:53:33Z</time>
      </trkpt>
      <trkpt lat="46.53729" lon="5.92063">
        <ele>878</ele>
        <time>2019-11-11T11:53:55Z</time>
      </trkpt>
      <trkpt lat="46.53736" lon="5.92055">
        <ele>877</ele>
        <time>2019-11-11T11:54:02Z</time>
      </trkpt>
      <trkpt lat="46.53745" lon="5.92049">
        <ele>878</ele>
        <time>2019-11-11T11:54:08Z</time>
      </trkpt>
      <trkpt lat="46.53753" lon="5.92043">
        <ele>878</ele>
        <time>2019-11-11T11:54:14Z</time>
      </trkpt>
      <trkpt lat="46.53761" lon="5.92036">
        <ele>878</ele>
        <time>2019-11-11T11:54:21Z</time>
      </trkpt>
      <trkpt lat="46.53768" lon="5.92026">
        <ele>878</ele>
        <time>2019-11-11T11:54:28Z</time>
      </trkpt>
      <trkpt lat="46.53775" lon="5.92018">
        <ele>878</ele>
        <time>2019-11-11T11:54:34Z</time>
      </trkpt>
      <trkpt lat="46.53781" lon="5.92007">
        <ele>878</ele>
        <time>2019-11-11T11:54:42Z</time>
      </trkpt>
      <trkpt lat="46.53788" lon="5.91998">
        <ele>878</ele>
        <time>2019-11-11T11:54:49Z</time>
      </trkpt>
      <trkpt lat="46.53791" lon="5.91984">
        <ele>878</ele>
        <time>2019-11-11T11:54:58Z</time>
      </trkpt>
      <trkpt lat="46.53799" lon="5.91976">
        <ele>879</ele>
        <time>2019-11-11T11:55:11Z</time>
      </trkpt>
      <trkpt lat="46.53806" lon="5.91968">
        <ele>879</ele>
        <time>2019-11-11T11:55:19Z</time>
      </trkpt>
      <trkpt lat="46.53812" lon="5.91957">
        <ele>879</ele>
        <time>2019-11-11T11:55:27Z</time>
      </trkpt>
      <trkpt lat="46.53818" lon="5.91946">
        <ele>879</ele>
        <time>2019-11-11T11:55:35Z</time>
      </trkpt>
      <trkpt lat="46.53828" lon="5.91942">
        <ele>880</ele>
        <time>2019-11-11T11:55:44Z</time>
      </trkpt>
      <trkpt lat="46.53829" lon="5.91928">
        <ele>880</ele>
        <time>2019-11-11T11:55:57Z</time>
      </trkpt>
      <trkpt lat="46.53824" lon="5.91915">
        <ele>880</ele>
        <time>2019-11-11T11:56:05Z</time>
      </trkpt>
      <trkpt lat="46.53819" lon="5.91904">
        <ele>879</ele>
        <time>2019-11-11T11:56:13Z</time>
      </trkpt>
      <trkpt lat="46.5381" lon="5.91899">
        <ele>879</ele>
        <time>2019-11-11T11:56:21Z</time>
      </trkpt>
      <trkpt lat="46.53802" lon="5.91894">
        <ele>879</ele>
        <time>2019-11-11T11:56:29Z</time>
      </trkpt>
      <trkpt lat="46.53795" lon="5.91886">
        <ele>879</ele>
        <time>2019-11-11T11:56:38Z</time>
      </trkpt>
      <trkpt lat="46.53792" lon="5.91873">
        <ele>879</ele>
        <time>2019-11-11T11:56:48Z</time>
      </trkpt>
      <trkpt lat="46.53785" lon="5.91863">
        <ele>878</ele>
        <time>2019-11-11T11:56:56Z</time>
      </trkpt>
      <trkpt lat="46.53777" lon="5.91857">
        <ele>878</ele>
        <time>2019-11-11T11:57:08Z</time>
      </trkpt>
      <trkpt lat="46.53767" lon="5.91855">
        <ele>878</ele>
        <time>2019-11-11T11:57:35Z</time>
      </trkpt>
      <trkpt lat="46.53758" lon="5.91851">
        <ele>877</ele>
        <time>2019-11-11T11:57:43Z</time>
      </trkpt>
      <trkpt lat="46.53749" lon="5.91846">
        <ele>877</ele>
        <time>2019-11-11T11:57:50Z</time>
      </trkpt>
      <trkpt lat="46.53739" lon="5.91842">
        <ele>876</ele>
        <time>2019-11-11T11:57:58Z</time>
      </trkpt>
      <trkpt lat="46.5373" lon="5.91839">
        <ele>876</ele>
        <time>2019-11-11T11:58:05Z</time>
      </trkpt>
      <trkpt lat="46.53721" lon="5.91831">
        <ele>876</ele>
        <time>2019-11-11T11:58:11Z</time>
      </trkpt>
      <trkpt lat="46.53712" lon="5.91824">
        <ele>876</ele>
        <time>2019-11-11T11:58:18Z</time>
      </trkpt>
      <trkpt lat="46.53706" lon="5.91814">
        <ele>875</ele>
        <time>2019-11-11T11:58:32Z</time>
      </trkpt>
      <trkpt lat="46.5371" lon="5.91802">
        <ele>876</ele>
        <time>2019-11-11T11:58:41Z</time>
      </trkpt>
      <trkpt lat="46.53715" lon="5.9179">
        <ele>876</ele>
        <time>2019-11-11T11:58:49Z</time>
      </trkpt>
      <trkpt lat="46.5372" lon="5.91778">
        <ele>876</ele>
        <time>2019-11-11T11:58:56Z</time>
      </trkpt>
      <trkpt lat="46.53725" lon="5.91766">
        <ele>876</ele>
        <time>2019-11-11T11:59:04Z</time>
      </trkpt>
      <trkpt lat="46.53731" lon="5.91757">
        <ele>876</ele>
        <time>2019-11-11T11:59:13Z</time>
      </trkpt>
      <trkpt lat="46.53738" lon="5.91747">
        <ele>876</ele>
        <time>2019-11-11T11:59:26Z</time>
      </trkpt>
      <trkpt lat="46.53748" lon="5.91741">
        <ele>876</ele>
        <time>2019-11-11T11:59:34Z</time>
      </trkpt>
      <trkpt lat="46.53756" lon="5.91736">
        <ele>877</ele>
        <time>2019-11-11T11:59:42Z</time>
      </trkpt>
      <trkpt lat="46.53766" lon="5.91731">
        <ele>877</ele>
        <time>2019-11-11T11:59:56Z</time>
      </trkpt>
      <trkpt lat="46.53775" lon="5.91731">
        <ele>877</ele>
        <time>2019-11-11T12:00:05Z</time>
      </trkpt>
      <trkpt lat="46.53785" lon="5.91729">
        <ele>877</ele>
        <time>2019-11-11T12:00:15Z</time>
      </trkpt>
      <trkpt lat="46.53794" lon="5.91726">
        <ele>878</ele>
        <time>2019-11-11T12:00:25Z</time>
      </trkpt>
      <trkpt lat="46.53804" lon="5.91722">
        <ele>878</ele>
        <time>2019-11-11T12:00:35Z</time>
      </trkpt>
      <trkpt lat="46.53812" lon="5.91717">
        <ele>878</ele>
        <time>2019-11-11T12:00:44Z</time>
      </trkpt>
      <trkpt lat="46.53821" lon="5.91714">
        <ele>878</ele>
        <time>2019-11-11T12:00:52Z</time>
      </trkpt>
      <trkpt lat="46.5383" lon="5.91711">
        <ele>878</ele>
        <time>2019-11-11T12:01:01Z</time>
      </trkpt>
      <trkpt lat="46.53841" lon="5.91708">
        <ele>878</ele>
        <time>2019-11-11T12:01:14Z</time>
      </trkpt>
      <trkpt lat="46.5385" lon="5.91705">
        <ele>879</ele>
        <time>2019-11-11T12:01:25Z</time>
      </trkpt>
      <trkpt lat="46.53858" lon="5.91701">
        <ele>879</ele>
        <time>2019-11-11T12:01:33Z</time>
      </trkpt>
      <trkpt lat="46.53867" lon="5.91697">
        <ele>879</ele>
        <time>2019-11-11T12:01:42Z</time>
      </trkpt>
      <trkpt lat="46.53875" lon="5.91692">
        <ele>879</ele>
        <time>2019-11-11T12:01:49Z</time>
      </trkpt>
      <trkpt lat="46.53885" lon="5.91686">
        <ele>879</ele>
        <time>2019-11-11T12:01:57Z</time>
      </trkpt>
      <trkpt lat="46.53893" lon="5.91684">
        <ele>879</ele>
        <time>2019-11-11T12:02:05Z</time>
      </trkpt>
      <trkpt lat="46.53903" lon="5.9168">
        <ele>880</ele>
        <time>2019-11-11T12:02:15Z</time>
      </trkpt>
      <trkpt lat="46.53913" lon="5.91675">
        <ele>880</ele>
        <time>2019-11-11T12:02:25Z</time>
      </trkpt>
      <trkpt lat="46.53922" lon="5.91676">
        <ele>880</ele>
        <time>2019-11-11T12:02:35Z</time>
      </trkpt>
      <trkpt lat="46.53932" lon="5.91678">
        <ele>880</ele>
        <time>2019-11-11T12:02:45Z</time>
      </trkpt>
      <trkpt lat="46.53941" lon="5.91675">
        <ele>881</ele>
        <time>2019-11-11T12:02:56Z</time>
      </trkpt>
      <trkpt lat="46.53951" lon="5.91675">
        <ele>881</ele>
        <time>2019-11-11T12:03:06Z</time>
      </trkpt>
      <trkpt lat="46.5396" lon="5.91674">
        <ele>881</ele>
        <time>2019-11-11T12:04:30Z</time>
      </trkpt>
      <trkpt lat="46.5397" lon="5.91671">
        <ele>882</ele>
        <time>2019-11-11T12:04:41Z</time>
      </trkpt>
      <trkpt lat="46.53979" lon="5.91668">
        <ele>882</ele>
        <time>2019-11-11T12:04:50Z</time>
      </trkpt>
      <trkpt lat="46.53989" lon="5.91668">
        <ele>882</ele>
        <time>2019-11-11T12:04:59Z</time>
      </trkpt>
      <trkpt lat="46.53998" lon="5.91667">
        <ele>882</ele>
        <time>2019-11-11T12:05:08Z</time>
      </trkpt>
      <trkpt lat="46.54008" lon="5.91663">
        <ele>882</ele>
        <time>2019-11-11T12:05:18Z</time>
      </trkpt>
      <trkpt lat="46.54017" lon="5.91659">
        <ele>883</ele>
        <time>2019-11-11T12:05:29Z</time>
      </trkpt>
      <trkpt lat="46.54026" lon="5.91659">
        <ele>883</ele>
        <time>2019-11-11T12:05:38Z</time>
      </trkpt>
      <trkpt lat="46.54036" lon="5.91658">
        <ele>883</ele>
        <time>2019-11-11T12:05:46Z</time>
      </trkpt>
      <trkpt lat="46.54045" lon="5.91655">
        <ele>883</ele>
        <time>2019-11-11T12:05:55Z</time>
      </trkpt>
      <trkpt lat="46.54055" lon="5.91653">
        <ele>883</ele>
        <time>2019-11-11T12:06:03Z</time>
      </trkpt>
      <trkpt lat="46.54064" lon="5.91653">
        <ele>883</ele>
        <time>2019-11-11T12:06:10Z</time>
      </trkpt>
      <trkpt lat="46.54073" lon="5.91651">
        <ele>883</ele>
        <time>2019-11-11T12:06:19Z</time>
      </trkpt>
      <trkpt lat="46.54082" lon="5.91648">
        <ele>883</ele>
        <time>2019-11-11T12:06:36Z</time>
      </trkpt>
      <trkpt lat="46.54089" lon="5.91639">
        <ele>883</ele>
        <time>2019-11-11T12:06:44Z</time>
      </trkpt>
      <trkpt lat="46.54094" lon="5.91627">
        <ele>882</ele>
        <time>2019-11-11T12:07:02Z</time>
      </trkpt>
      <trkpt lat="46.54097" lon="5.91614">
        <ele>881</ele>
        <time>2019-11-11T12:07:09Z</time>
      </trkpt>
      <trkpt lat="46.54099" lon="5.916">
        <ele>881</ele>
        <time>2019-11-11T12:07:16Z</time>
      </trkpt>
      <trkpt lat="46.54101" lon="5.91586">
        <ele>882</ele>
        <time>2019-11-11T12:07:23Z</time>
      </trkpt>
      <trkpt lat="46.54106" lon="5.91574">
        <ele>882</ele>
        <time>2019-11-11T12:07:30Z</time>
      </trkpt>
      <trkpt lat="46.54111" lon="5.91561">
        <ele>882</ele>
        <time>2019-11-11T12:07:37Z</time>
      </trkpt>
      <trkpt lat="46.54116" lon="5.9155">
        <ele>882</ele>
        <time>2019-11-11T12:07:44Z</time>
      </trkpt>
      <trkpt lat="46.54122" lon="5.91538">
        <ele>882</ele>
        <time>2019-11-11T12:07:51Z</time>
      </trkpt>
      <trkpt lat="46.54126" lon="5.91526">
        <ele>883</ele>
        <time>2019-11-11T12:07:57Z</time>
      </trkpt>
      <trkpt lat="46.54131" lon="5.91512">
        <ele>883</ele>
        <time>2019-11-11T12:08:04Z</time>
      </trkpt>
      <trkpt lat="46.54134" lon="5.91499">
        <ele>884</ele>
        <time>2019-11-11T12:08:11Z</time>
      </trkpt>
      <trkpt lat="46.54136" lon="5.91485">
        <ele>885</ele>
        <time>2019-11-11T12:08:22Z</time>
      </trkpt>
      <trkpt lat="46.54144" lon="5.91475">
        <ele>885</ele>
        <time>2019-11-11T12:08:30Z</time>
      </trkpt>
      <trkpt lat="46.54149" lon="5.91462">
        <ele>885</ele>
        <time>2019-11-11T12:08:38Z</time>
      </trkpt>
      <trkpt lat="46.54152" lon="5.91448">
        <ele>886</ele>
        <time>2019-11-11T12:08:46Z</time>
      </trkpt>
      <trkpt lat="46.54156" lon="5.91434">
        <ele>887</ele>
        <time>2019-11-11T12:09:01Z</time>
      </trkpt>
      <trkpt lat="46.54159" lon="5.91423">
        <ele>888</ele>
        <time>2019-11-11T12:09:08Z</time>
      </trkpt>
      <trkpt lat="46.54159" lon="5.91409">
        <ele>888</ele>
        <time>2019-11-11T12:09:15Z</time>
      </trkpt>
      <trkpt lat="46.54154" lon="5.91396">
        <ele>889</ele>
        <time>2019-11-11T12:09:22Z</time>
      </trkpt>
      <trkpt lat="46.5415" lon="5.91384">
        <ele>889</ele>
        <time>2019-11-11T12:09:29Z</time>
      </trkpt>
      <trkpt lat="46.54144" lon="5.91373">
        <ele>890</ele>
        <time>2019-11-11T12:09:36Z</time>
      </trkpt>
      <trkpt lat="46.54137" lon="5.91363">
        <ele>890</ele>
        <time>2019-11-11T12:09:45Z</time>
      </trkpt>
      <trkpt lat="46.54131" lon="5.91354">
        <ele>890</ele>
        <time>2019-11-11T12:10:12Z</time>
      </trkpt>
      <trkpt lat="46.54126" lon="5.91342">
        <ele>890</ele>
        <time>2019-11-11T12:10:21Z</time>
      </trkpt>
      <trkpt lat="46.5412" lon="5.91331">
        <ele>890</ele>
        <time>2019-11-11T12:10:29Z</time>
      </trkpt>
      <trkpt lat="46.54114" lon="5.9132">
        <ele>890</ele>
        <time>2019-11-11T12:10:37Z</time>
      </trkpt>
      <trkpt lat="46.54107" lon="5.9131">
        <ele>890</ele>
        <time>2019-11-11T12:10:46Z</time>
      </trkpt>
      <trkpt lat="46.54101" lon="5.91299">
        <ele>890</ele>
        <time>2019-11-11T12:10:58Z</time>
      </trkpt>
      <trkpt lat="46.54093" lon="5.9129">
        <ele>890</ele>
        <time>2019-11-11T12:11:06Z</time>
      </trkpt>
      <trkpt lat="46.54086" lon="5.9128">
        <ele>890</ele>
        <time>2019-11-11T12:11:15Z</time>
      </trkpt>
      <trkpt lat="46.54079" lon="5.91272">
        <ele>890</ele>
        <time>2019-11-11T12:11:22Z</time>
      </trkpt>
      <trkpt lat="46.54069" lon="5.91267">
        <ele>890</ele>
        <time>2019-11-11T12:11:30Z</time>
      </trkpt>
      <trkpt lat="46.5406" lon="5.91264">
        <ele>890</ele>
        <time>2019-11-11T12:11:37Z</time>
      </trkpt>
      <trkpt lat="46.54051" lon="5.91271">
        <ele>890</ele>
        <time>2019-11-11T12:11:46Z</time>
      </trkpt>
      <trkpt lat="46.54046" lon="5.91282">
        <ele>890</ele>
        <time>2019-11-11T12:11:54Z</time>
      </trkpt>
      <trkpt lat="46.54042" lon="5.91294">
        <ele>890</ele>
        <time>2019-11-11T12:12:02Z</time>
      </trkpt>
      <trkpt lat="46.54039" lon="5.91308">
        <ele>890</ele>
        <time>2019-11-11T12:12:10Z</time>
      </trkpt>
      <trkpt lat="46.54043" lon="5.91295">
        <ele>890</ele>
        <time>2019-11-11T12:13:17Z</time>
      </trkpt>
      <trkpt lat="46.54049" lon="5.91285">
        <ele>890</ele>
        <time>2019-11-11T12:13:26Z</time>
      </trkpt>
      <trkpt lat="46.54052" lon="5.91272">
        <ele>890</ele>
        <time>2019-11-11T12:13:57Z</time>
      </trkpt>
      <trkpt lat="46.5405" lon="5.91258">
        <ele>890</ele>
        <time>2019-11-11T12:14:06Z</time>
      </trkpt>
      <trkpt lat="46.54043" lon="5.9125">
        <ele>890</ele>
        <time>2019-11-11T12:14:15Z</time>
      </trkpt>
      <trkpt lat="46.54036" lon="5.9124">
        <ele>890</ele>
        <time>2019-11-11T12:14:24Z</time>
      </trkpt>
      <trkpt lat="46.54029" lon="5.9123">
        <ele>890</ele>
        <time>2019-11-11T12:14:34Z</time>
      </trkpt>
      <trkpt lat="46.54025" lon="5.91218">
        <ele>890</ele>
        <time>2019-11-11T12:14:42Z</time>
      </trkpt>
      <trkpt lat="46.54022" lon="5.91205">
        <ele>890</ele>
        <time>2019-11-11T12:14:50Z</time>
      </trkpt>
      <trkpt lat="46.54018" lon="5.91193">
        <ele>890</ele>
        <time>2019-11-11T12:14:58Z</time>
      </trkpt>
      <trkpt lat="46.54013" lon="5.9118">
        <ele>890</ele>
        <time>2019-11-11T12:15:06Z</time>
      </trkpt>
      <trkpt lat="46.54009" lon="5.91167">
        <ele>890</ele>
        <time>2019-11-11T12:15:16Z</time>
      </trkpt>
      <trkpt lat="46.54003" lon="5.91155">
        <ele>890</ele>
        <time>2019-11-11T12:15:24Z</time>
      </trkpt>
      <trkpt lat="46.53997" lon="5.91143">
        <ele>889</ele>
        <time>2019-11-11T12:15:32Z</time>
      </trkpt>
      <trkpt lat="46.53992" lon="5.91132">
        <ele>889</ele>
        <time>2019-11-11T12:15:39Z</time>
      </trkpt>
      <trkpt lat="46.53987" lon="5.91119">
        <ele>889</ele>
        <time>2019-11-11T12:15:47Z</time>
      </trkpt>
      <trkpt lat="46.53984" lon="5.91107">
        <ele>890</ele>
        <time>2019-11-11T12:15:54Z</time>
      </trkpt>
      <trkpt lat="46.53982" lon="5.91093">
        <ele>890</ele>
        <time>2019-11-11T12:16:02Z</time>
      </trkpt>
      <trkpt lat="46.53982" lon="5.91079">
        <ele>890</ele>
        <time>2019-11-11T12:16:10Z</time>
      </trkpt>
      <trkpt lat="46.53984" lon="5.91066">
        <ele>890</ele>
        <time>2019-11-11T12:16:18Z</time>
      </trkpt>
      <trkpt lat="46.53987" lon="5.91052">
        <ele>889</ele>
        <time>2019-11-11T12:16:27Z</time>
      </trkpt>
      <trkpt lat="46.5399" lon="5.91039">
        <ele>889</ele>
        <time>2019-11-11T12:16:35Z</time>
      </trkpt>
      <trkpt lat="46.53992" lon="5.91027">
        <ele>889</ele>
        <time>2019-11-11T12:16:43Z</time>
      </trkpt>
      <trkpt lat="46.53992" lon="5.91013">
        <ele>888</ele>
        <time>2019-11-11T12:16:50Z</time>
      </trkpt>
      <trkpt lat="46.5399" lon="5.91">
        <ele>888</ele>
        <time>2019-11-11T12:16:57Z</time>
      </trkpt>
      <trkpt lat="46.53988" lon="5.90986">
        <ele>888</ele>
        <time>2019-11-11T12:17:04Z</time>
      </trkpt>
      <trkpt lat="46.5398" lon="5.90979">
        <ele>890</ele>
        <time>2019-11-11T12:17:22Z</time>
      </trkpt>
      <trkpt lat="46.5397" lon="5.90976">
        <ele>891</ele>
        <time>2019-11-11T12:17:33Z</time>
      </trkpt>
      <trkpt lat="46.53961" lon="5.90976">
        <ele>892</ele>
        <time>2019-11-11T12:17:45Z</time>
      </trkpt>
      <trkpt lat="46.53955" lon="5.90967">
        <ele>894</ele>
        <time>2019-11-11T12:18:02Z</time>
      </trkpt>
      <trkpt lat="46.53946" lon="5.90963">
        <ele>895</ele>
        <time>2019-11-11T12:18:12Z</time>
      </trkpt>
      <trkpt lat="46.53937" lon="5.90963">
        <ele>896</ele>
        <time>2019-11-11T12:18:23Z</time>
      </trkpt>
      <trkpt lat="46.53928" lon="5.90965">
        <ele>897</ele>
        <time>2019-11-11T12:18:34Z</time>
      </trkpt>
      <trkpt lat="46.53919" lon="5.9096">
        <ele>898</ele>
        <time>2019-11-11T12:18:45Z</time>
      </trkpt>
      <trkpt lat="46.53911" lon="5.90953">
        <ele>899</ele>
        <time>2019-11-11T12:18:57Z</time>
      </trkpt>
      <trkpt lat="46.53904" lon="5.90945">
        <ele>899</ele>
        <time>2019-11-11T12:19:14Z</time>
      </trkpt>
      <trkpt lat="46.539" lon="5.90933">
        <ele>900</ele>
        <time>2019-11-11T12:19:27Z</time>
      </trkpt>
      <trkpt lat="46.53909" lon="5.90929">
        <ele>900</ele>
        <time>2019-11-11T12:19:39Z</time>
      </trkpt>
      <trkpt lat="46.53916" lon="5.90919">
        <ele>900</ele>
        <time>2019-11-11T12:19:52Z</time>
      </trkpt>
      <trkpt lat="46.53917" lon="5.90905">
        <ele>900</ele>
        <time>2019-11-11T12:21:37Z</time>
      </trkpt>
      <trkpt lat="46.53909" lon="5.90897">
        <ele>900</ele>
        <time>2019-11-11T12:23:11Z</time>
      </trkpt>
      <trkpt lat="46.539" lon="5.90891">
        <ele>900</ele>
        <time>2019-11-11T12:23:18Z</time>
      </trkpt>
      <trkpt lat="46.53892" lon="5.90884">
        <ele>900</ele>
        <time>2019-11-11T12:23:25Z</time>
      </trkpt>
      <trkpt lat="46.53883" lon="5.90881">
        <ele>900</ele>
        <time>2019-11-11T12:23:40Z</time>
      </trkpt>
      <trkpt lat="46.53874" lon="5.90881">
        <ele>900</ele>
        <time>2019-11-11T12:23:49Z</time>
      </trkpt>
      <trkpt lat="46.53867" lon="5.90871">
        <ele>900</ele>
        <time>2019-11-11T12:24:00Z</time>
      </trkpt>
      <trkpt lat="46.53862" lon="5.9086">
        <ele>900</ele>
        <time>2019-11-11T12:24:15Z</time>
      </trkpt>
      <trkpt lat="46.53858" lon="5.90847">
        <ele>899</ele>
        <time>2019-11-11T12:24:27Z</time>
      </trkpt>
      <trkpt lat="46.53856" lon="5.90834">
        <ele>899</ele>
        <time>2019-11-11T12:24:39Z</time>
      </trkpt>
      <trkpt lat="46.53853" lon="5.90822">
        <ele>897</ele>
        <time>2019-11-11T12:24:50Z</time>
      </trkpt>
      <trkpt lat="46.53848" lon="5.9081">
        <ele>895</ele>
        <time>2019-11-11T12:25:02Z</time>
      </trkpt>
      <trkpt lat="46.53843" lon="5.90798">
        <ele>894</ele>
        <time>2019-11-11T12:25:11Z</time>
      </trkpt>
      <trkpt lat="46.53838" lon="5.90787">
        <ele>893</ele>
        <time>2019-11-11T12:25:20Z</time>
      </trkpt>
      <trkpt lat="46.53832" lon="5.90776">
        <ele>893</ele>
        <time>2019-11-11T12:25:29Z</time>
      </trkpt>
      <trkpt lat="46.53826" lon="5.90766">
        <ele>893</ele>
        <time>2019-11-11T12:25:38Z</time>
      </trkpt>
      <trkpt lat="46.53818" lon="5.90756">
        <ele>892</ele>
        <time>2019-11-11T12:25:47Z</time>
      </trkpt>
      <trkpt lat="46.53812" lon="5.90746">
        <ele>892</ele>
        <time>2019-11-11T12:25:56Z</time>
      </trkpt>
      <trkpt lat="46.53805" lon="5.90736">
        <ele>893</ele>
        <time>2019-11-11T12:26:05Z</time>
      </trkpt>
      <trkpt lat="46.53799" lon="5.90725">
        <ele>893</ele>
        <time>2019-11-11T12:26:13Z</time>
      </trkpt>
      <trkpt lat="46.53793" lon="5.90715">
        <ele>894</ele>
        <time>2019-11-11T12:26:23Z</time>
      </trkpt>
      <trkpt lat="46.53785" lon="5.90707">
        <ele>895</ele>
        <time>2019-11-11T12:26:56Z</time>
      </trkpt>
      <trkpt lat="46.5378" lon="5.90696">
        <ele>896</ele>
        <time>2019-11-11T12:27:52Z</time>
      </trkpt>
      <trkpt lat="46.53773" lon="5.90686">
        <ele>896</ele>
        <time>2019-11-11T12:28:00Z</time>
      </trkpt>
      <trkpt lat="46.53765" lon="5.90678">
        <ele>896</ele>
        <time>2019-11-11T12:28:08Z</time>
      </trkpt>
      <trkpt lat="46.53757" lon="5.90668">
        <ele>896</ele>
        <time>2019-11-11T12:28:16Z</time>
      </trkpt>
      <trkpt lat="46.53749" lon="5.90661">
        <ele>896</ele>
        <time>2019-11-11T12:28:25Z</time>
      </trkpt>
      <trkpt lat="46.53742" lon="5.90653">
        <ele>896</ele>
        <time>2019-11-11T12:28:33Z</time>
      </trkpt>
      <trkpt lat="46.53734" lon="5.90644">
        <ele>895</ele>
        <time>2019-11-11T12:28:41Z</time>
      </trkpt>
      <trkpt lat="46.53726" lon="5.90635">
        <ele>895</ele>
        <time>2019-11-11T12:28:48Z</time>
      </trkpt>
      <trkpt lat="46.53718" lon="5.90626">
        <ele>894</ele>
        <time>2019-11-11T12:28:56Z</time>
      </trkpt>
      <trkpt lat="46.53711" lon="5.90618">
        <ele>893</ele>
        <time>2019-11-11T12:29:03Z</time>
      </trkpt>
      <trkpt lat="46.53704" lon="5.90609">
        <ele>893</ele>
        <time>2019-11-11T12:29:10Z</time>
      </trkpt>
      <trkpt lat="46.53697" lon="5.906">
        <ele>893</ele>
        <time>2019-11-11T12:29:19Z</time>
      </trkpt>
      <trkpt lat="46.53689" lon="5.90593">
        <ele>892</ele>
        <time>2019-11-11T12:29:28Z</time>
      </trkpt>
      <trkpt lat="46.53681" lon="5.90586">
        <ele>892</ele>
        <time>2019-11-11T12:29:43Z</time>
      </trkpt>
      <trkpt lat="46.53674" lon="5.90577">
        <ele>891</ele>
        <time>2019-11-11T12:29:52Z</time>
      </trkpt>
      <trkpt lat="46.53667" lon="5.90567">
        <ele>890</ele>
        <time>2019-11-11T12:30:00Z</time>
      </trkpt>
      <trkpt lat="46.53674" lon="5.90556">
        <ele>890</ele>
        <time>2019-11-11T12:30:12Z</time>
      </trkpt>
      <trkpt lat="46.53683" lon="5.90549">
        <ele>890</ele>
        <time>2019-11-11T12:30:20Z</time>
      </trkpt>
      <trkpt lat="46.53689" lon="5.9054">
        <ele>890</ele>
        <time>2019-11-11T12:30:29Z</time>
      </trkpt>
      <trkpt lat="46.53689" lon="5.90525">
        <ele>889</ele>
        <time>2019-11-11T12:30:39Z</time>
      </trkpt>
      <trkpt lat="46.53685" lon="5.90513">
        <ele>888</ele>
        <time>2019-11-11T12:30:47Z</time>
      </trkpt>
      <trkpt lat="46.53679" lon="5.90502">
        <ele>888</ele>
        <time>2019-11-11T12:30:56Z</time>
      </trkpt>
      <trkpt lat="46.53673" lon="5.90491">
        <ele>888</ele>
        <time>2019-11-11T12:31:05Z</time>
      </trkpt>
      <trkpt lat="46.53668" lon="5.9048">
        <ele>888</ele>
        <time>2019-11-11T12:31:14Z</time>
      </trkpt>
      <trkpt lat="46.53664" lon="5.90467">
        <ele>888</ele>
        <time>2019-11-11T12:31:24Z</time>
      </trkpt>
      <trkpt lat="46.53658" lon="5.90455">
        <ele>888</ele>
        <time>2019-11-11T12:31:35Z</time>
      </trkpt>
      <trkpt lat="46.53652" lon="5.90445">
        <ele>888</ele>
        <time>2019-11-11T12:31:42Z</time>
      </trkpt>
      <trkpt lat="46.53647" lon="5.90433">
        <ele>886</ele>
        <time>2019-11-11T12:31:51Z</time>
      </trkpt>
      <trkpt lat="46.53642" lon="5.90421">
        <ele>885</ele>
        <time>2019-11-11T12:32:00Z</time>
      </trkpt>
      <trkpt lat="46.53637" lon="5.90409">
        <ele>884</ele>
        <time>2019-11-11T12:32:09Z</time>
      </trkpt>
      <trkpt lat="46.53629" lon="5.90401">
        <ele>884</ele>
        <time>2019-11-11T12:32:22Z</time>
      </trkpt>
      <trkpt lat="46.5362" lon="5.90403">
        <ele>886</ele>
        <time>2019-11-11T12:32:42Z</time>
      </trkpt>
      <trkpt lat="46.5361" lon="5.90406">
        <ele>887</ele>
        <time>2019-11-11T12:32:53Z</time>
      </trkpt>
      <trkpt lat="46.53602" lon="5.90412">
        <ele>888</ele>
        <time>2019-11-11T12:33:04Z</time>
      </trkpt>
      <trkpt lat="46.53593" lon="5.90417">
        <ele>889</ele>
        <time>2019-11-11T12:33:13Z</time>
      </trkpt>
      <trkpt lat="46.53595" lon="5.90431">
        <ele>889</ele>
        <time>2019-11-11T12:34:17Z</time>
      </trkpt>
      <trkpt lat="46.53604" lon="5.90435">
        <ele>889</ele>
        <time>2019-11-11T12:34:29Z</time>
      </trkpt>
      <trkpt lat="46.53613" lon="5.90431">
        <ele>889</ele>
        <time>2019-11-11T12:34:39Z</time>
      </trkpt>
      <trkpt lat="46.53607" lon="5.90441">
        <ele>890</ele>
        <time>2019-11-11T12:35:09Z</time>
      </trkpt>
      <trkpt lat="46.53598" lon="5.9044">
        <ele>890</ele>
        <time>2019-11-11T12:35:27Z</time>
      </trkpt>
      <trkpt lat="46.53589" lon="5.90441">
        <ele>890</ele>
        <time>2019-11-11T12:35:40Z</time>
      </trkpt>
      <trkpt lat="46.53579" lon="5.90441">
        <ele>890</ele>
        <time>2019-11-11T12:35:52Z</time>
      </trkpt>
      <trkpt lat="46.5357" lon="5.90436">
        <ele>890</ele>
        <time>2019-11-11T12:36:10Z</time>
      </trkpt>
      <trkpt lat="46.53564" lon="5.90425">
        <ele>890</ele>
        <time>2019-11-11T12:36:18Z</time>
      </trkpt>
      <trkpt lat="46.53562" lon="5.90412">
        <ele>890</ele>
        <time>2019-11-11T12:36:28Z</time>
      </trkpt>
      <trkpt lat="46.53561" lon="5.90397">
        <ele>890</ele>
        <time>2019-11-11T12:36:38Z</time>
      </trkpt>
      <trkpt lat="46.53561" lon="5.90384">
        <ele>890</ele>
        <time>2019-11-11T12:36:49Z</time>
      </trkpt>
      <trkpt lat="46.53561" lon="5.90371">
        <ele>890</ele>
        <time>2019-11-11T12:36:58Z</time>
      </trkpt>
      <trkpt lat="46.53559" lon="5.90357">
        <ele>890</ele>
        <time>2019-11-11T12:37:10Z</time>
      </trkpt>
      <trkpt lat="46.53549" lon="5.90355">
        <ele>890</ele>
        <time>2019-11-11T12:37:17Z</time>
      </trkpt>
      <trkpt lat="46.5354" lon="5.90357">
        <ele>890</ele>
        <time>2019-11-11T12:37:23Z</time>
      </trkpt>
      <trkpt lat="46.5353" lon="5.90359">
        <ele>890</ele>
        <time>2019-11-11T12:37:31Z</time>
      </trkpt>
      <trkpt lat="46.5352" lon="5.90357">
        <ele>890</ele>
        <time>2019-11-11T12:37:40Z</time>
      </trkpt>
      <trkpt lat="46.53514" lon="5.90347">
        <ele>890</ele>
        <time>2019-11-11T12:37:48Z</time>
      </trkpt>
      <trkpt lat="46.53506" lon="5.90339">
        <ele>890</ele>
        <time>2019-11-11T12:38:07Z</time>
      </trkpt>
      <trkpt lat="46.53498" lon="5.90331">
        <ele>890</ele>
        <time>2019-11-11T12:38:15Z</time>
      </trkpt>
      <trkpt lat="46.53489" lon="5.90325">
        <ele>890</ele>
        <time>2019-11-11T12:38:24Z</time>
      </trkpt>
      <trkpt lat="46.53479" lon="5.90324">
        <ele>890</ele>
        <time>2019-11-11T12:38:33Z</time>
      </trkpt>
      <trkpt lat="46.53469" lon="5.90328">
        <ele>890</ele>
        <time>2019-11-11T12:38:41Z</time>
      </trkpt>
      <trkpt lat="46.53463" lon="5.90337">
        <ele>890</ele>
        <time>2019-11-11T12:38:48Z</time>
      </trkpt>
      <trkpt lat="46.53459" lon="5.90349">
        <ele>890</ele>
        <time>2019-11-11T12:38:56Z</time>
      </trkpt>
      <trkpt lat="46.53456" lon="5.90362">
        <ele>890</ele>
        <time>2019-11-11T12:39:04Z</time>
      </trkpt>
      <trkpt lat="46.53451" lon="5.90375">
        <ele>890</ele>
        <time>2019-11-11T12:39:13Z</time>
      </trkpt>
      <trkpt lat="46.53451" lon="5.9039">
        <ele>890</ele>
        <time>2019-11-11T12:39:21Z</time>
      </trkpt>
      <trkpt lat="46.53448" lon="5.90404">
        <ele>890</ele>
        <time>2019-11-11T12:39:29Z</time>
      </trkpt>
      <trkpt lat="46.5344" lon="5.90409">
        <ele>890</ele>
        <time>2019-11-11T12:39:41Z</time>
      </trkpt>
      <trkpt lat="46.53431" lon="5.90406">
        <ele>891</ele>
        <time>2019-11-11T12:39:52Z</time>
      </trkpt>
      <trkpt lat="46.53422" lon="5.904">
        <ele>892</ele>
        <time>2019-11-11T12:40:02Z</time>
      </trkpt>
      <trkpt lat="46.53415" lon="5.90391">
        <ele>892</ele>
        <time>2019-11-11T12:40:12Z</time>
      </trkpt>
      <trkpt lat="46.53409" lon="5.90381">
        <ele>893</ele>
        <time>2019-11-11T12:40:21Z</time>
      </trkpt>
      <trkpt lat="46.53405" lon="5.90367">
        <ele>894</ele>
        <time>2019-11-11T12:40:32Z</time>
      </trkpt>
      <trkpt lat="46.53403" lon="5.90354">
        <ele>894</ele>
        <time>2019-11-11T12:40:42Z</time>
      </trkpt>
      <trkpt lat="46.53402" lon="5.90341">
        <ele>894</ele>
        <time>2019-11-11T12:40:51Z</time>
      </trkpt>
      <trkpt lat="46.53402" lon="5.90328">
        <ele>894</ele>
        <time>2019-11-11T12:41:00Z</time>
      </trkpt>
      <trkpt lat="46.53401" lon="5.90315">
        <ele>894</ele>
        <time>2019-11-11T12:41:09Z</time>
      </trkpt>
      <trkpt lat="46.53397" lon="5.90302">
        <ele>895</ele>
        <time>2019-11-11T12:41:18Z</time>
      </trkpt>
      <trkpt lat="46.53391" lon="5.90291">
        <ele>896</ele>
        <time>2019-11-11T12:41:31Z</time>
      </trkpt>
      <trkpt lat="46.53384" lon="5.90282">
        <ele>897</ele>
        <time>2019-11-11T12:41:39Z</time>
      </trkpt>
      <trkpt lat="46.53377" lon="5.90274">
        <ele>898</ele>
        <time>2019-11-11T12:41:49Z</time>
      </trkpt>
      <trkpt lat="46.53369" lon="5.90265">
        <ele>899</ele>
        <time>2019-11-11T12:41:59Z</time>
      </trkpt>
      <trkpt lat="46.53361" lon="5.90256">
        <ele>900</ele>
        <time>2019-11-11T12:42:09Z</time>
      </trkpt>
      <trkpt lat="46.53353" lon="5.9025">
        <ele>900</ele>
        <time>2019-11-11T12:42:19Z</time>
      </trkpt>
      <trkpt lat="46.53345" lon="5.90243">
        <ele>901</ele>
        <time>2019-11-11T12:42:29Z</time>
      </trkpt>
      <trkpt lat="46.53337" lon="5.90236">
        <ele>901</ele>
        <time>2019-11-11T12:42:38Z</time>
      </trkpt>
      <trkpt lat="46.53328" lon="5.90229">
        <ele>902</ele>
        <time>2019-11-11T12:42:48Z</time>
      </trkpt>
      <trkpt lat="46.53319" lon="5.90223">
        <ele>903</ele>
        <time>2019-11-11T12:42:57Z</time>
      </trkpt>
      <trkpt lat="46.53311" lon="5.90216">
        <ele>904</ele>
        <time>2019-11-11T12:43:06Z</time>
      </trkpt>
      <trkpt lat="46.53304" lon="5.90207">
        <ele>905</ele>
        <time>2019-11-11T12:43:15Z</time>
      </trkpt>
      <trkpt lat="46.53296" lon="5.90197">
        <ele>906</ele>
        <time>2019-11-11T12:43:25Z</time>
      </trkpt>
      <trkpt lat="46.53289" lon="5.90189">
        <ele>907</ele>
        <time>2019-11-11T12:43:34Z</time>
      </trkpt>
      <trkpt lat="46.53281" lon="5.9018">
        <ele>908</ele>
        <time>2019-11-11T12:43:43Z</time>
      </trkpt>
      <trkpt lat="46.53273" lon="5.90173">
        <ele>909</ele>
        <time>2019-11-11T12:43:51Z</time>
      </trkpt>
      <trkpt lat="46.53265" lon="5.90166">
        <ele>909</ele>
        <time>2019-11-11T12:43:59Z</time>
      </trkpt>
      <trkpt lat="46.53257" lon="5.90157">
        <ele>909</ele>
        <time>2019-11-11T12:44:08Z</time>
      </trkpt>
      <trkpt lat="46.53248" lon="5.90149">
        <ele>909</ele>
        <time>2019-11-11T12:44:17Z</time>
      </trkpt>
      <trkpt lat="46.53241" lon="5.90142">
        <ele>909</ele>
        <time>2019-11-11T12:44:26Z</time>
      </trkpt>
      <trkpt lat="46.53232" lon="5.90135">
        <ele>909</ele>
        <time>2019-11-11T12:44:34Z</time>
      </trkpt>
      <trkpt lat="46.53224" lon="5.90129">
        <ele>908</ele>
        <time>2019-11-11T12:44:42Z</time>
      </trkpt>
      <trkpt lat="46.53217" lon="5.90121">
        <ele>907</ele>
        <time>2019-11-11T12:44:51Z</time>
      </trkpt>
      <trkpt lat="46.53209" lon="5.90114">
        <ele>906</ele>
        <time>2019-11-11T12:45:01Z</time>
      </trkpt>
      <trkpt lat="46.53201" lon="5.90107">
        <ele>905</ele>
        <time>2019-11-11T12:45:11Z</time>
      </trkpt>
      <trkpt lat="46.53195" lon="5.90097">
        <ele>904</ele>
        <time>2019-11-11T12:45:20Z</time>
      </trkpt>
      <trkpt lat="46.5319" lon="5.90086">
        <ele>903</ele>
        <time>2019-11-11T12:45:32Z</time>
      </trkpt>
      <trkpt lat="46.53184" lon="5.90075">
        <ele>902</ele>
        <time>2019-11-11T12:45:41Z</time>
      </trkpt>
      <trkpt lat="46.53176" lon="5.90069">
        <ele>902</ele>
        <time>2019-11-11T12:45:52Z</time>
      </trkpt>
      <trkpt lat="46.53168" lon="5.90061">
        <ele>902</ele>
        <time>2019-11-11T12:46:48Z</time>
      </trkpt>
      <trkpt lat="46.53161" lon="5.90052">
        <ele>901</ele>
        <time>2019-11-11T12:46:58Z</time>
      </trkpt>
      <trkpt lat="46.53154" lon="5.90043">
        <ele>901</ele>
        <time>2019-11-11T12:47:08Z</time>
      </trkpt>
      <trkpt lat="46.53148" lon="5.90032">
        <ele>900</ele>
        <time>2019-11-11T12:47:18Z</time>
      </trkpt>
      <trkpt lat="46.53143" lon="5.9002">
        <ele>900</ele>
        <time>2019-11-11T12:47:28Z</time>
      </trkpt>
      <trkpt lat="46.53138" lon="5.90008">
        <ele>900</ele>
        <time>2019-11-11T12:47:37Z</time>
      </trkpt>
      <trkpt lat="46.53134" lon="5.89995">
        <ele>900</ele>
        <time>2019-11-11T12:47:47Z</time>
      </trkpt>
      <trkpt lat="46.53133" lon="5.89982">
        <ele>900</ele>
        <time>2019-11-11T12:47:55Z</time>
      </trkpt>
      <trkpt lat="46.53131" lon="5.89967">
        <ele>900</ele>
        <time>2019-11-11T12:48:04Z</time>
      </trkpt>
      <trkpt lat="46.53125" lon="5.89956">
        <ele>900</ele>
        <time>2019-11-11T12:48:12Z</time>
      </trkpt>
      <trkpt lat="46.53118" lon="5.89947">
        <ele>900</ele>
        <time>2019-11-11T12:48:21Z</time>
      </trkpt>
      <trkpt lat="46.5311" lon="5.8994">
        <ele>900</ele>
        <time>2019-11-11T12:48:30Z</time>
      </trkpt>
      <trkpt lat="46.53101" lon="5.89932">
        <ele>900</ele>
        <time>2019-11-11T12:48:39Z</time>
      </trkpt>
      <trkpt lat="46.53093" lon="5.89925">
        <ele>900</ele>
        <time>2019-11-11T12:48:47Z</time>
      </trkpt>
      <trkpt lat="46.53085" lon="5.89918">
        <ele>900</ele>
        <time>2019-11-11T12:48:55Z</time>
      </trkpt>
      <trkpt lat="46.53077" lon="5.8991">
        <ele>900</ele>
        <time>2019-11-11T12:49:03Z</time>
      </trkpt>
      <trkpt lat="46.53069" lon="5.89902">
        <ele>900</ele>
        <time>2019-11-11T12:49:11Z</time>
      </trkpt>
      <trkpt lat="46.53062" lon="5.89893">
        <ele>900</ele>
        <time>2019-11-11T12:49:19Z</time>
      </trkpt>
      <trkpt lat="46.53056" lon="5.89883">
        <ele>900</ele>
        <time>2019-11-11T12:49:27Z</time>
      </trkpt>
      <trkpt lat="46.53049" lon="5.89873">
        <ele>900</ele>
        <time>2019-11-11T12:49:35Z</time>
      </trkpt>
      <trkpt lat="46.53041" lon="5.89864">
        <ele>900</ele>
        <time>2019-11-11T12:49:43Z</time>
      </trkpt>
      <trkpt lat="46.53034" lon="5.89855">
        <ele>899</ele>
        <time>2019-11-11T12:49:51Z</time>
      </trkpt>
      <trkpt lat="46.53026" lon="5.89848">
        <ele>899</ele>
        <time>2019-11-11T12:49:59Z</time>
      </trkpt>
      <trkpt lat="46.53018" lon="5.89841">
        <ele>899</ele>
        <time>2019-11-11T12:50:07Z</time>
      </trkpt>
      <trkpt lat="46.53009" lon="5.89836">
        <ele>898</ele>
        <time>2019-11-11T12:50:15Z</time>
      </trkpt>
      <trkpt lat="46.53" lon="5.89833">
        <ele>898</ele>
        <time>2019-11-11T12:50:23Z</time>
      </trkpt>
      <trkpt lat="46.52991" lon="5.89831">
        <ele>898</ele>
        <time>2019-11-11T12:50:31Z</time>
      </trkpt>
      <trkpt lat="46.52982" lon="5.89829">
        <ele>898</ele>
        <time>2019-11-11T12:50:39Z</time>
      </trkpt>
      <trkpt lat="46.52973" lon="5.89824">
        <ele>897</ele>
        <time>2019-11-11T12:50:57Z</time>
      </trkpt>
      <trkpt lat="46.52964" lon="5.8982">
        <ele>897</ele>
        <time>2019-11-11T12:51:04Z</time>
      </trkpt>
      <trkpt lat="46.52956" lon="5.89815">
        <ele>897</ele>
        <time>2019-11-11T12:51:13Z</time>
      </trkpt>
      <trkpt lat="46.52947" lon="5.89809">
        <ele>896</ele>
        <time>2019-11-11T12:51:35Z</time>
      </trkpt>
      <trkpt lat="46.52938" lon="5.89802">
        <ele>896</ele>
        <time>2019-11-11T12:51:43Z</time>
      </trkpt>
      <trkpt lat="46.5293" lon="5.89796">
        <ele>895</ele>
        <time>2019-11-11T12:51:52Z</time>
      </trkpt>
      <trkpt lat="46.52921" lon="5.89793">
        <ele>895</ele>
        <time>2019-11-11T12:52:00Z</time>
      </trkpt>
      <trkpt lat="46.52911" lon="5.89797">
        <ele>896</ele>
        <time>2019-11-11T12:52:10Z</time>
      </trkpt>
      <trkpt lat="46.52902" lon="5.89796">
        <ele>896</ele>
        <time>2019-11-11T12:52:19Z</time>
      </trkpt>
      <trkpt lat="46.52892" lon="5.89796">
        <ele>896</ele>
        <time>2019-11-11T12:52:28Z</time>
      </trkpt>
      <trkpt lat="46.52882" lon="5.89794">
        <ele>896</ele>
        <time>2019-11-11T12:52:36Z</time>
      </trkpt>
      <trkpt lat="46.52873" lon="5.89792">
        <ele>896</ele>
        <time>2019-11-11T12:52:45Z</time>
      </trkpt>
      <trkpt lat="46.52864" lon="5.89789">
        <ele>896</ele>
        <time>2019-11-11T12:52:54Z</time>
      </trkpt>
      <trkpt lat="46.52854" lon="5.89786">
        <ele>896</ele>
        <time>2019-11-11T12:53:04Z</time>
      </trkpt>
      <trkpt lat="46.52845" lon="5.89784">
        <ele>897</ele>
        <time>2019-11-11T12:53:12Z</time>
      </trkpt>
      <trkpt lat="46.52836" lon="5.89783">
        <ele>897</ele>
        <time>2019-11-11T12:53:20Z</time>
      </trkpt>
      <trkpt lat="46.52827" lon="5.89776">
        <ele>897</ele>
        <time>2019-11-11T12:53:28Z</time>
      </trkpt>
      <trkpt lat="46.52817" lon="5.89776">
        <ele>896</ele>
        <time>2019-11-11T12:53:38Z</time>
      </trkpt>
      <trkpt lat="46.52808" lon="5.89772">
        <ele>896</ele>
        <time>2019-11-11T12:53:46Z</time>
      </trkpt>
      <trkpt lat="46.528" lon="5.89765">
        <ele>895</ele>
        <time>2019-11-11T12:53:54Z</time>
      </trkpt>
      <trkpt lat="46.52792" lon="5.89758">
        <ele>895</ele>
        <time>2019-11-11T12:54:03Z</time>
      </trkpt>
      <trkpt lat="46.52782" lon="5.89755">
        <ele>895</ele>
        <time>2019-11-11T12:54:12Z</time>
      </trkpt>
      <trkpt lat="46.52773" lon="5.89758">
        <ele>895</ele>
        <time>2019-11-11T12:54:24Z</time>
      </trkpt>
      <trkpt lat="46.52764" lon="5.89759">
        <ele>895</ele>
        <time>2019-11-11T12:54:34Z</time>
      </trkpt>
      <trkpt lat="46.5276" lon="5.89772">
        <ele>894</ele>
        <time>2019-11-11T12:54:44Z</time>
      </trkpt>
      <trkpt lat="46.52757" lon="5.89785">
        <ele>893</ele>
        <time>2019-11-11T12:54:54Z</time>
      </trkpt>
      <trkpt lat="46.52749" lon="5.89792">
        <ele>892</ele>
        <time>2019-11-11T12:55:06Z</time>
      </trkpt>
      <trkpt lat="46.52739" lon="5.89792">
        <ele>892</ele>
        <time>2019-11-11T12:55:16Z</time>
      </trkpt>
      <trkpt lat="46.52729" lon="5.89791">
        <ele>892</ele>
        <time>2019-11-11T12:55:25Z</time>
      </trkpt>
      <trkpt lat="46.5272" lon="5.8979">
        <ele>892</ele>
        <time>2019-11-11T12:55:34Z</time>
      </trkpt>
      <trkpt lat="46.52711" lon="5.89793">
        <ele>891</ele>
        <time>2019-11-11T12:55:43Z</time>
      </trkpt>
      <trkpt lat="46.52703" lon="5.89801">
        <ele>890</ele>
        <time>2019-11-11T12:55:51Z</time>
      </trkpt>
      <trkpt lat="46.52695" lon="5.89808">
        <ele>890</ele>
        <time>2019-11-11T12:56:00Z</time>
      </trkpt>
      <trkpt lat="46.52686" lon="5.89815">
        <ele>890</ele>
        <time>2019-11-11T12:56:18Z</time>
      </trkpt>
      <trkpt lat="46.52676" lon="5.89815">
        <ele>890</ele>
        <time>2019-11-11T12:56:27Z</time>
      </trkpt>
      <trkpt lat="46.52667" lon="5.89812">
        <ele>890</ele>
        <time>2019-11-11T12:56:35Z</time>
      </trkpt>
      <trkpt lat="46.52657" lon="5.89809">
        <ele>890</ele>
        <time>2019-11-11T12:56:44Z</time>
      </trkpt>
      <trkpt lat="46.52648" lon="5.89805">
        <ele>890</ele>
        <time>2019-11-11T12:56:52Z</time>
      </trkpt>
      <trkpt lat="46.5264" lon="5.89799">
        <ele>890</ele>
        <time>2019-11-11T12:57:00Z</time>
      </trkpt>
      <trkpt lat="46.52632" lon="5.89792">
        <ele>890</ele>
        <time>2019-11-11T12:57:08Z</time>
      </trkpt>
      <trkpt lat="46.52624" lon="5.89783">
        <ele>890</ele>
        <time>2019-11-11T12:57:17Z</time>
      </trkpt>
      <trkpt lat="46.52617" lon="5.89775">
        <ele>890</ele>
        <time>2019-11-11T12:57:25Z</time>
      </trkpt>
      <trkpt lat="46.52611" lon="5.89765">
        <ele>890</ele>
        <time>2019-11-11T12:57:33Z</time>
      </trkpt>
      <trkpt lat="46.52603" lon="5.89756">
        <ele>890</ele>
        <time>2019-11-11T12:57:42Z</time>
      </trkpt>
      <trkpt lat="46.52596" lon="5.89746">
        <ele>891</ele>
        <time>2019-11-11T12:57:50Z</time>
      </trkpt>
      <trkpt lat="46.52589" lon="5.89737">
        <ele>891</ele>
        <time>2019-11-11T12:57:58Z</time>
      </trkpt>
      <trkpt lat="46.52581" lon="5.89727">
        <ele>890</ele>
        <time>2019-11-11T12:58:07Z</time>
      </trkpt>
      <trkpt lat="46.52574" lon="5.89719">
        <ele>890</ele>
        <time>2019-11-11T12:58:16Z</time>
      </trkpt>
      <trkpt lat="46.52566" lon="5.89711">
        <ele>890</ele>
        <time>2019-11-11T12:58:25Z</time>
      </trkpt>
      <trkpt lat="46.52558" lon="5.89705">
        <ele>890</ele>
        <time>2019-11-11T12:58:33Z</time>
      </trkpt>
      <trkpt lat="46.52549" lon="5.89698">
        <ele>889</ele>
        <time>2019-11-11T12:58:41Z</time>
      </trkpt>
      <trkpt lat="46.52541" lon="5.89693">
        <ele>890</ele>
        <time>2019-11-11T12:58:49Z</time>
      </trkpt>
      <trkpt lat="46.52532" lon="5.89688">
        <ele>889</ele>
        <time>2019-11-11T12:58:57Z</time>
      </trkpt>
      <trkpt lat="46.52522" lon="5.89684">
        <ele>889</ele>
        <time>2019-11-11T12:59:06Z</time>
      </trkpt>
      <trkpt lat="46.52514" lon="5.89678">
        <ele>889</ele>
        <time>2019-11-11T12:59:14Z</time>
      </trkpt>
      <trkpt lat="46.52505" lon="5.89672">
        <ele>889</ele>
        <time>2019-11-11T12:59:24Z</time>
      </trkpt>
      <trkpt lat="46.52497" lon="5.89665">
        <ele>889</ele>
        <time>2019-11-11T12:59:33Z</time>
      </trkpt>
      <trkpt lat="46.52491" lon="5.89655">
        <ele>889</ele>
        <time>2019-11-11T12:59:42Z</time>
      </trkpt>
      <trkpt lat="46.52486" lon="5.89644">
        <ele>889</ele>
        <time>2019-11-11T13:00:02Z</time>
      </trkpt>
      <trkpt lat="46.5248" lon="5.89633">
        <ele>890</ele>
        <time>2019-11-11T13:00:11Z</time>
      </trkpt>
      <trkpt lat="46.52475" lon="5.89621">
        <ele>890</ele>
        <time>2019-11-11T13:00:20Z</time>
      </trkpt>
      <trkpt lat="46.52468" lon="5.89611">
        <ele>890</ele>
        <time>2019-11-11T13:00:32Z</time>
      </trkpt>
      <trkpt lat="46.52463" lon="5.89599">
        <ele>890</ele>
        <time>2019-11-11T13:00:41Z</time>
      </trkpt>
      <trkpt lat="46.52457" lon="5.89589">
        <ele>890</ele>
        <time>2019-11-11T13:00:50Z</time>
      </trkpt>
      <trkpt lat="46.5245" lon="5.89579">
        <ele>889</ele>
        <time>2019-11-11T13:00:59Z</time>
      </trkpt>
      <trkpt lat="46.52445" lon="5.89568">
        <ele>889</ele>
        <time>2019-11-11T13:01:08Z</time>
      </trkpt>
      <trkpt lat="46.52439" lon="5.89558">
        <ele>889</ele>
        <time>2019-11-11T13:01:16Z</time>
      </trkpt>
      <trkpt lat="46.52432" lon="5.89548">
        <ele>889</ele>
        <time>2019-11-11T13:01:25Z</time>
      </trkpt>
      <trkpt lat="46.52425" lon="5.89539">
        <ele>889</ele>
        <time>2019-11-11T13:01:34Z</time>
      </trkpt>
      <trkpt lat="46.52417" lon="5.8953">
        <ele>888</ele>
        <time>2019-11-11T13:01:43Z</time>
      </trkpt>
      <trkpt lat="46.52409" lon="5.89523">
        <ele>887</ele>
        <time>2019-11-11T13:01:54Z</time>
      </trkpt>
      <trkpt lat="46.52401" lon="5.89528">
        <ele>887</ele>
        <time>2019-11-11T13:02:03Z</time>
      </trkpt>
      <trkpt lat="46.52394" lon="5.89538">
        <ele>887</ele>
        <time>2019-11-11T13:02:12Z</time>
      </trkpt>
      <trkpt lat="46.52387" lon="5.89548">
        <ele>886</ele>
        <time>2019-11-11T13:02:21Z</time>
      </trkpt>
      <trkpt lat="46.52381" lon="5.89558">
        <ele>886</ele>
        <time>2019-11-11T13:02:30Z</time>
      </trkpt>
      <trkpt lat="46.52375" lon="5.89569">
        <ele>885</ele>
        <time>2019-11-11T13:02:38Z</time>
      </trkpt>
      <trkpt lat="46.52369" lon="5.89579">
        <ele>884</ele>
        <time>2019-11-11T13:02:46Z</time>
      </trkpt>
      <trkpt lat="46.52364" lon="5.8959">
        <ele>884</ele>
        <time>2019-11-11T13:02:53Z</time>
      </trkpt>
      <trkpt lat="46.52359" lon="5.89602">
        <ele>883</ele>
        <time>2019-11-11T13:02:59Z</time>
      </trkpt>
      <trkpt lat="46.52354" lon="5.89614">
        <ele>883</ele>
        <time>2019-11-11T13:03:05Z</time>
      </trkpt>
      <trkpt lat="46.52349" lon="5.89626">
        <ele>883</ele>
        <time>2019-11-11T13:03:19Z</time>
      </trkpt>
      <trkpt lat="46.52344" lon="5.89637">
        <ele>883</ele>
        <time>2019-11-11T13:03:27Z</time>
      </trkpt>
      <trkpt lat="46.5234" lon="5.89649">
        <ele>882</ele>
        <time>2019-11-11T13:03:36Z</time>
      </trkpt>
      <trkpt lat="46.52337" lon="5.89662">
        <ele>882</ele>
        <time>2019-11-11T13:03:44Z</time>
      </trkpt>
      <trkpt lat="46.52334" lon="5.89675">
        <ele>881</ele>
        <time>2019-11-11T13:03:53Z</time>
      </trkpt>
      <trkpt lat="46.52328" lon="5.89685">
        <ele>881</ele>
        <time>2019-11-11T13:04:23Z</time>
      </trkpt>
      <trkpt lat="46.52322" lon="5.89696">
        <ele>880</ele>
        <time>2019-11-11T13:04:38Z</time>
      </trkpt>
      <trkpt lat="46.52316" lon="5.89705">
        <ele>880</ele>
        <time>2019-11-11T13:04:45Z</time>
      </trkpt>
      <trkpt lat="46.52307" lon="5.89714">
        <ele>879</ele>
        <time>2019-11-11T13:04:53Z</time>
      </trkpt>
      <trkpt lat="46.52298" lon="5.8972">
        <ele>879</ele>
        <time>2019-11-11T13:05:01Z</time>
      </trkpt>
      <trkpt lat="46.52289" lon="5.89724">
        <ele>878</ele>
        <time>2019-11-11T13:05:09Z</time>
      </trkpt>
      <trkpt lat="46.5228" lon="5.89732">
        <ele>878</ele>
        <time>2019-11-11T13:05:17Z</time>
      </trkpt>
      <trkpt lat="46.52272" lon="5.89741">
        <ele>878</ele>
        <time>2019-11-11T13:05:38Z</time>
      </trkpt>
      <trkpt lat="46.52265" lon="5.8975">
        <ele>879</ele>
        <time>2019-11-11T13:05:46Z</time>
      </trkpt>
      <trkpt lat="46.52259" lon="5.8976">
        <ele>879</ele>
        <time>2019-11-11T13:05:53Z</time>
      </trkpt>
      <trkpt lat="46.52253" lon="5.8977">
        <ele>880</ele>
        <time>2019-11-11T13:05:59Z</time>
      </trkpt>
      <trkpt lat="46.52247" lon="5.89782">
        <ele>880</ele>
        <time>2019-11-11T13:06:07Z</time>
      </trkpt>
      <trkpt lat="46.52241" lon="5.89792">
        <ele>880</ele>
        <time>2019-11-11T13:06:14Z</time>
      </trkpt>
      <trkpt lat="46.52235" lon="5.89803">
        <ele>880</ele>
        <time>2019-11-11T13:06:22Z</time>
      </trkpt>
      <trkpt lat="46.5223" lon="5.89814">
        <ele>880</ele>
        <time>2019-11-11T13:06:32Z</time>
      </trkpt>
      <trkpt lat="46.52227" lon="5.89827">
        <ele>880</ele>
        <time>2019-11-11T13:06:44Z</time>
      </trkpt>
      <trkpt lat="46.52221" lon="5.89837">
        <ele>880</ele>
        <time>2019-11-11T13:06:57Z</time>
      </trkpt>
      <trkpt lat="46.52219" lon="5.8985">
        <ele>880</ele>
        <time>2019-11-11T13:07:06Z</time>
      </trkpt>
      <trkpt lat="46.52218" lon="5.89864">
        <ele>880</ele>
        <time>2019-11-11T13:07:15Z</time>
      </trkpt>
      <trkpt lat="46.52216" lon="5.89878">
        <ele>880</ele>
        <time>2019-11-11T13:07:24Z</time>
      </trkpt>
      <trkpt lat="46.52216" lon="5.89892">
        <ele>880</ele>
        <time>2019-11-11T13:07:33Z</time>
      </trkpt>
      <trkpt lat="46.52212" lon="5.89905">
        <ele>880</ele>
        <time>2019-11-11T13:08:00Z</time>
      </trkpt>
      <trkpt lat="46.52211" lon="5.89918">
        <ele>880</ele>
        <time>2019-11-11T13:08:07Z</time>
      </trkpt>
      <trkpt lat="46.52208" lon="5.89932">
        <ele>880</ele>
        <time>2019-11-11T13:08:14Z</time>
      </trkpt>
      <trkpt lat="46.52205" lon="5.89946">
        <ele>880</ele>
        <time>2019-11-11T13:08:21Z</time>
      </trkpt>
      <trkpt lat="46.52202" lon="5.8996">
        <ele>880</ele>
        <time>2019-11-11T13:08:28Z</time>
      </trkpt>
      <trkpt lat="46.52199" lon="5.89974">
        <ele>880</ele>
        <time>2019-11-11T13:08:35Z</time>
      </trkpt>
      <trkpt lat="46.52196" lon="5.89987">
        <ele>880</ele>
        <time>2019-11-11T13:08:42Z</time>
      </trkpt>
      <trkpt lat="46.52192" lon="5.89999">
        <ele>880</ele>
        <time>2019-11-11T13:08:50Z</time>
      </trkpt>
      <trkpt lat="46.52189" lon="5.90012">
        <ele>880</ele>
        <time>2019-11-11T13:08:59Z</time>
      </trkpt>
      <trkpt lat="46.52186" lon="5.90027">
        <ele>880</ele>
        <time>2019-11-11T13:09:07Z</time>
      </trkpt>
      <trkpt lat="46.52184" lon="5.90041">
        <ele>880</ele>
        <time>2019-11-11T13:09:15Z</time>
      </trkpt>
      <trkpt lat="46.52185" lon="5.90055">
        <ele>880</ele>
        <time>2019-11-11T13:09:52Z</time>
      </trkpt>
      <trkpt lat="46.52187" lon="5.90067">
        <ele>880</ele>
        <time>2019-11-11T13:09:58Z</time>
      </trkpt>
      <trkpt lat="46.52189" lon="5.9008">
        <ele>880</ele>
        <time>2019-11-11T13:10:08Z</time>
      </trkpt>
      <trkpt lat="46.52192" lon="5.90093">
        <ele>880</ele>
        <time>2019-11-11T13:10:18Z</time>
      </trkpt>
      <trkpt lat="46.52192" lon="5.90107">
        <ele>880</ele>
        <time>2019-11-11T13:10:27Z</time>
      </trkpt>
      <trkpt lat="46.52193" lon="5.90121">
        <ele>880</ele>
        <time>2019-11-11T13:10:34Z</time>
      </trkpt>
      <trkpt lat="46.52195" lon="5.90135">
        <ele>880</ele>
        <time>2019-11-11T13:10:43Z</time>
      </trkpt>
      <trkpt lat="46.52199" lon="5.90148">
        <ele>880</ele>
        <time>2019-11-11T13:10:51Z</time>
      </trkpt>
      <trkpt lat="46.52201" lon="5.90162">
        <ele>880</ele>
        <time>2019-11-11T13:10:59Z</time>
      </trkpt>
      <trkpt lat="46.52204" lon="5.90175">
        <ele>880</ele>
        <time>2019-11-11T13:11:08Z</time>
      </trkpt>
      <trkpt lat="46.52208" lon="5.90189">
        <ele>880</ele>
        <time>2019-11-11T13:11:16Z</time>
      </trkpt>
      <trkpt lat="46.52209" lon="5.90202">
        <ele>880</ele>
        <time>2019-11-11T13:11:24Z</time>
      </trkpt>
      <trkpt lat="46.52211" lon="5.90215">
        <ele>880</ele>
        <time>2019-11-11T13:11:31Z</time>
      </trkpt>
      <trkpt lat="46.52215" lon="5.90228">
        <ele>880</ele>
        <time>2019-11-11T13:11:39Z</time>
      </trkpt>
      <trkpt lat="46.5222" lon="5.90241">
        <ele>879</ele>
        <time>2019-11-11T13:11:47Z</time>
      </trkpt>
      <trkpt lat="46.52225" lon="5.90252">
        <ele>878</ele>
        <time>2019-11-11T13:11:55Z</time>
      </trkpt>
      <trkpt lat="46.52229" lon="5.90264">
        <ele>878</ele>
        <time>2019-11-11T13:12:03Z</time>
      </trkpt>
      <trkpt lat="46.52235" lon="5.90277">
        <ele>878</ele>
        <time>2019-11-11T13:12:12Z</time>
      </trkpt>
      <trkpt lat="46.52241" lon="5.90288">
        <ele>878</ele>
        <time>2019-11-11T13:12:21Z</time>
      </trkpt>
      <trkpt lat="46.52247" lon="5.903">
        <ele>878</ele>
        <time>2019-11-11T13:12:29Z</time>
      </trkpt>
      <trkpt lat="46.52252" lon="5.90311">
        <ele>878</ele>
        <time>2019-11-11T13:12:37Z</time>
      </trkpt>
      <trkpt lat="46.52257" lon="5.90325">
        <ele>878</ele>
        <time>2019-11-11T13:12:45Z</time>
      </trkpt>
      <trkpt lat="46.52261" lon="5.90337">
        <ele>877</ele>
        <time>2019-11-11T13:12:51Z</time>
      </trkpt>
      <trkpt lat="46.52266" lon="5.90348">
        <ele>878</ele>
        <time>2019-11-11T13:12:59Z</time>
      </trkpt>
      <trkpt lat="46.52272" lon="5.90359">
        <ele>878</ele>
        <time>2019-11-11T13:13:06Z</time>
      </trkpt>
      <trkpt lat="46.52277" lon="5.9037">
        <ele>877</ele>
        <time>2019-11-11T13:13:14Z</time>
      </trkpt>
      <trkpt lat="46.52283" lon="5.90381">
        <ele>877</ele>
        <time>2019-11-11T13:13:22Z</time>
      </trkpt>
      <trkpt lat="46.52289" lon="5.90392">
        <ele>877</ele>
        <time>2019-11-11T13:13:30Z</time>
      </trkpt>
      <trkpt lat="46.52295" lon="5.90403">
        <ele>878</ele>
        <time>2019-11-11T13:13:37Z</time>
      </trkpt>
      <trkpt lat="46.523" lon="5.90416">
        <ele>878</ele>
        <time>2019-11-11T13:13:45Z</time>
      </trkpt>
      <trkpt lat="46.52305" lon="5.90427">
        <ele>877</ele>
        <time>2019-11-11T13:13:54Z</time>
      </trkpt>
      <trkpt lat="46.52312" lon="5.90437">
        <ele>877</ele>
        <time>2019-11-11T13:14:00Z</time>
      </trkpt>
      <trkpt lat="46.52317" lon="5.90448">
        <ele>877</ele>
        <time>2019-11-11T13:14:09Z</time>
      </trkpt>
      <trkpt lat="46.52327" lon="5.90445">
        <ele>876</ele>
        <time>2019-11-11T13:14:35Z</time>
      </trkpt>
      <trkpt lat="46.5232" lon="5.90454">
        <ele>877</ele>
        <time>2019-11-11T13:15:31Z</time>
      </trkpt>
      <trkpt lat="46.52325" lon="5.90467">
        <ele>877</ele>
        <time>2019-11-11T13:15:39Z</time>
      </trkpt>
      <trkpt lat="46.5233" lon="5.90479">
        <ele>877</ele>
        <time>2019-11-11T13:15:47Z</time>
      </trkpt>
      <trkpt lat="46.52334" lon="5.90492">
        <ele>877</ele>
        <time>2019-11-11T13:15:56Z</time>
      </trkpt>
      <trkpt lat="46.5234" lon="5.90503">
        <ele>878</ele>
        <time>2019-11-11T13:16:01Z</time>
      </trkpt>
      <trkpt lat="46.52345" lon="5.90515">
        <ele>878</ele>
        <time>2019-11-11T13:16:10Z</time>
      </trkpt>
      <trkpt lat="46.52352" lon="5.90526">
        <ele>878</ele>
        <time>2019-11-11T13:16:15Z</time>
      </trkpt>
      <trkpt lat="46.52357" lon="5.90538">
        <ele>878</ele>
        <time>2019-11-11T13:16:24Z</time>
      </trkpt>
      <trkpt lat="46.52364" lon="5.9055">
        <ele>877</ele>
        <time>2019-11-11T13:16:31Z</time>
      </trkpt>
      <trkpt lat="46.5237" lon="5.90561">
        <ele>878</ele>
        <time>2019-11-11T13:16:39Z</time>
      </trkpt>
      <trkpt lat="46.52374" lon="5.90574">
        <ele>878</ele>
        <time>2019-11-11T13:16:47Z</time>
      </trkpt>
      <trkpt lat="46.52366" lon="5.9057">
        <ele>879</ele>
        <time>2019-11-11T13:17:40Z</time>
      </trkpt>
      <trkpt lat="46.52359" lon="5.90559">
        <ele>879</ele>
        <time>2019-11-11T13:17:49Z</time>
      </trkpt>
      <trkpt lat="46.52352" lon="5.90549">
        <ele>880</ele>
        <time>2019-11-11T13:17:58Z</time>
      </trkpt>
      <trkpt lat="46.52345" lon="5.90538">
        <ele>880</ele>
        <time>2019-11-11T13:18:06Z</time>
      </trkpt>
      <trkpt lat="46.5234" lon="5.90527">
        <ele>880</ele>
        <time>2019-11-11T13:18:14Z</time>
      </trkpt>
      <trkpt lat="46.52334" lon="5.90515">
        <ele>880</ele>
        <time>2019-11-11T13:18:22Z</time>
      </trkpt>
      <trkpt lat="46.52328" lon="5.90505">
        <ele>880</ele>
        <time>2019-11-11T13:18:30Z</time>
      </trkpt>
      <trkpt lat="46.52323" lon="5.90492">
        <ele>879</ele>
        <time>2019-11-11T13:18:39Z</time>
      </trkpt>
      <trkpt lat="46.52317" lon="5.90481">
        <ele>879</ele>
        <time>2019-11-11T13:18:48Z</time>
      </trkpt>
      <trkpt lat="46.52311" lon="5.9047">
        <ele>879</ele>
        <time>2019-11-11T13:18:56Z</time>
      </trkpt>
      <trkpt lat="46.52305" lon="5.90459">
        <ele>879</ele>
        <time>2019-11-11T13:19:04Z</time>
      </trkpt>
      <trkpt lat="46.52298" lon="5.90449">
        <ele>880</ele>
        <time>2019-11-11T13:19:12Z</time>
      </trkpt>
      <trkpt lat="46.52292" lon="5.90439">
        <ele>881</ele>
        <time>2019-11-11T13:19:20Z</time>
      </trkpt>
      <trkpt lat="46.52287" lon="5.90428">
        <ele>881</ele>
        <time>2019-11-11T13:19:28Z</time>
      </trkpt>
      <trkpt lat="46.52281" lon="5.90416">
        <ele>880</ele>
        <time>2019-11-11T13:19:37Z</time>
      </trkpt>
      <trkpt lat="46.52276" lon="5.90405">
        <ele>880</ele>
        <time>2019-11-11T13:19:45Z</time>
      </trkpt>
      <trkpt lat="46.5227" lon="5.90394">
        <ele>880</ele>
        <time>2019-11-11T13:19:53Z</time>
      </trkpt>
      <trkpt lat="46.52264" lon="5.90384">
        <ele>881</ele>
        <time>2019-11-11T13:20:01Z</time>
      </trkpt>
      <trkpt lat="46.52261" lon="5.90371">
        <ele>880</ele>
        <time>2019-11-11T13:20:11Z</time>
      </trkpt>
      <trkpt lat="46.52255" lon="5.9036">
        <ele>879</ele>
        <time>2019-11-11T13:20:19Z</time>
      </trkpt>
      <trkpt lat="46.52246" lon="5.90353">
        <ele>881</ele>
        <time>2019-11-11T13:20:26Z</time>
      </trkpt>
      <trkpt lat="46.52239" lon="5.90344">
        <ele>882</ele>
        <time>2019-11-11T13:20:33Z</time>
      </trkpt>
      <trkpt lat="46.52234" lon="5.90332">
        <ele>882</ele>
        <time>2019-11-11T13:20:41Z</time>
      </trkpt>
      <trkpt lat="46.52228" lon="5.90321">
        <ele>883</ele>
        <time>2019-11-11T13:20:49Z</time>
      </trkpt>
      <trkpt lat="46.52221" lon="5.90312">
        <ele>883</ele>
        <time>2019-11-11T13:20:58Z</time>
      </trkpt>
      <trkpt lat="46.52215" lon="5.90302">
        <ele>885</ele>
        <time>2019-11-11T13:21:04Z</time>
      </trkpt>
      <trkpt lat="46.52209" lon="5.90292">
        <ele>885</ele>
        <time>2019-11-11T13:21:12Z</time>
      </trkpt>
      <trkpt lat="46.52201" lon="5.90282">
        <ele>886</ele>
        <time>2019-11-11T13:21:19Z</time>
      </trkpt>
      <trkpt lat="46.52195" lon="5.90271">
        <ele>886</ele>
        <time>2019-11-11T13:21:27Z</time>
      </trkpt>
      <trkpt lat="46.52188" lon="5.90262">
        <ele>887</ele>
        <time>2019-11-11T13:21:37Z</time>
      </trkpt>
      <trkpt lat="46.52183" lon="5.9025">
        <ele>887</ele>
        <time>2019-11-11T13:21:47Z</time>
      </trkpt>
      <trkpt lat="46.52176" lon="5.9024">
        <ele>888</ele>
        <time>2019-11-11T13:22:33Z</time>
      </trkpt>
      <trkpt lat="46.52169" lon="5.90229">
        <ele>889</ele>
        <time>2019-11-11T13:22:40Z</time>
      </trkpt>
      <trkpt lat="46.52162" lon="5.90221">
        <ele>890</ele>
        <time>2019-11-11T13:22:51Z</time>
      </trkpt>
      <trkpt lat="46.52154" lon="5.90216">
        <ele>892</ele>
        <time>2019-11-11T13:23:00Z</time>
      </trkpt>
      <trkpt lat="46.52147" lon="5.90206">
        <ele>893</ele>
        <time>2019-11-11T13:23:21Z</time>
      </trkpt>
      <trkpt lat="46.52142" lon="5.90195">
        <ele>892</ele>
        <time>2019-11-11T13:23:32Z</time>
      </trkpt>
      <trkpt lat="46.52137" lon="5.90183">
        <ele>892</ele>
        <time>2019-11-11T13:23:43Z</time>
      </trkpt>
      <trkpt lat="46.5213" lon="5.90174">
        <ele>892</ele>
        <time>2019-11-11T13:23:52Z</time>
      </trkpt>
      <trkpt lat="46.52122" lon="5.90166">
        <ele>892</ele>
        <time>2019-11-11T13:24:03Z</time>
      </trkpt>
      <trkpt lat="46.52114" lon="5.9016">
        <ele>893</ele>
        <time>2019-11-11T13:24:13Z</time>
      </trkpt>
      <trkpt lat="46.52105" lon="5.90156">
        <ele>893</ele>
        <time>2019-11-11T13:24:22Z</time>
      </trkpt>
      <trkpt lat="46.52096" lon="5.90154">
        <ele>894</ele>
        <time>2019-11-11T13:24:32Z</time>
      </trkpt>
      <trkpt lat="46.52087" lon="5.90156">
        <ele>895</ele>
        <time>2019-11-11T13:24:42Z</time>
      </trkpt>
      <trkpt lat="46.52078" lon="5.9016">
        <ele>897</ele>
        <time>2019-11-11T13:24:51Z</time>
      </trkpt>
      <trkpt lat="46.52069" lon="5.90166">
        <ele>899</ele>
        <time>2019-11-11T13:25:01Z</time>
      </trkpt>
      <trkpt lat="46.5206" lon="5.90169">
        <ele>900</ele>
        <time>2019-11-11T13:25:10Z</time>
      </trkpt>
      <trkpt lat="46.5205" lon="5.90172">
        <ele>901</ele>
        <time>2019-11-11T13:25:19Z</time>
      </trkpt>
      <trkpt lat="46.52042" lon="5.90179">
        <ele>902</ele>
        <time>2019-11-11T13:25:27Z</time>
      </trkpt>
      <trkpt lat="46.52033" lon="5.90186">
        <ele>902</ele>
        <time>2019-11-11T13:25:37Z</time>
      </trkpt>
      <trkpt lat="46.52025" lon="5.90191">
        <ele>902</ele>
        <time>2019-11-11T13:25:56Z</time>
      </trkpt>
      <trkpt lat="46.52022" lon="5.90205">
        <ele>903</ele>
        <time>2019-11-11T13:26:33Z</time>
      </trkpt>
      <trkpt lat="46.52027" lon="5.90217">
        <ele>904</ele>
        <time>2019-11-11T13:26:41Z</time>
      </trkpt>
      <trkpt lat="46.5203" lon="5.9023">
        <ele>905</ele>
        <time>2019-11-11T13:26:48Z</time>
      </trkpt>
      <trkpt lat="46.52035" lon="5.90243">
        <ele>905</ele>
        <time>2019-11-11T13:26:56Z</time>
      </trkpt>
      <trkpt lat="46.52037" lon="5.90257">
        <ele>906</ele>
        <time>2019-11-11T13:27:04Z</time>
      </trkpt>
      <trkpt lat="46.52041" lon="5.9027">
        <ele>907</ele>
        <time>2019-11-11T13:27:11Z</time>
      </trkpt>
      <trkpt lat="46.52046" lon="5.90282">
        <ele>908</ele>
        <time>2019-11-11T13:27:19Z</time>
      </trkpt>
      <trkpt lat="46.52052" lon="5.90294">
        <ele>909</ele>
        <time>2019-11-11T13:27:29Z</time>
      </trkpt>
      <trkpt lat="46.5206" lon="5.90303">
        <ele>909</ele>
        <time>2019-11-11T13:27:37Z</time>
      </trkpt>
      <trkpt lat="46.52069" lon="5.90309">
        <ele>909</ele>
        <time>2019-11-11T13:27:45Z</time>
      </trkpt>
      <trkpt lat="46.52078" lon="5.90312">
        <ele>910</ele>
        <time>2019-11-11T13:27:57Z</time>
      </trkpt>
      <trkpt lat="46.52087" lon="5.90315">
        <ele>910</ele>
        <time>2019-11-11T13:28:08Z</time>
      </trkpt>
      <trkpt lat="46.52096" lon="5.90319">
        <ele>910</ele>
        <time>2019-11-11T13:28:15Z</time>
      </trkpt>
      <trkpt lat="46.52106" lon="5.90324">
        <ele>910</ele>
        <time>2019-11-11T13:28:22Z</time>
      </trkpt>
      <trkpt lat="46.52115" lon="5.90329">
        <ele>910</ele>
        <time>2019-11-11T13:28:29Z</time>
      </trkpt>
      <trkpt lat="46.52122" lon="5.90337">
        <ele>910</ele>
        <time>2019-11-11T13:28:39Z</time>
      </trkpt>
      <trkpt lat="46.52129" lon="5.90344">
        <ele>910</ele>
        <time>2019-11-11T13:28:47Z</time>
      </trkpt>
      <trkpt lat="46.52137" lon="5.90354">
        <ele>910</ele>
        <time>2019-11-11T13:28:57Z</time>
      </trkpt>
      <trkpt lat="46.52144" lon="5.90363">
        <ele>909</ele>
        <time>2019-11-11T13:29:05Z</time>
      </trkpt>
      <trkpt lat="46.5215" lon="5.90374">
        <ele>909</ele>
        <time>2019-11-11T13:29:20Z</time>
      </trkpt>
      <trkpt lat="46.52156" lon="5.90386">
        <ele>909</ele>
        <time>2019-11-11T13:29:29Z</time>
      </trkpt>
      <trkpt lat="46.52163" lon="5.90396">
        <ele>909</ele>
        <time>2019-11-11T13:29:37Z</time>
      </trkpt>
      <trkpt lat="46.52169" lon="5.90407">
        <ele>909</ele>
        <time>2019-11-11T13:29:46Z</time>
      </trkpt>
      <trkpt lat="46.52175" lon="5.90418">
        <ele>909</ele>
        <time>2019-11-11T13:29:55Z</time>
      </trkpt>
      <trkpt lat="46.52182" lon="5.90427">
        <ele>909</ele>
        <time>2019-11-11T13:30:04Z</time>
      </trkpt>
      <trkpt lat="46.52186" lon="5.90439">
        <ele>909</ele>
        <time>2019-11-11T13:30:13Z</time>
      </trkpt>
      <trkpt lat="46.52193" lon="5.90451">
        <ele>909</ele>
        <time>2019-11-11T13:30:21Z</time>
      </trkpt>
      <trkpt lat="46.52198" lon="5.90463">
        <ele>909</ele>
        <time>2019-11-11T13:30:30Z</time>
      </trkpt>
      <trkpt lat="46.52203" lon="5.90475">
        <ele>909</ele>
        <time>2019-11-11T13:30:38Z</time>
      </trkpt>
      <trkpt lat="46.52208" lon="5.90488">
        <ele>909</ele>
        <time>2019-11-11T13:30:47Z</time>
      </trkpt>
      <trkpt lat="46.52214" lon="5.905">
        <ele>909</ele>
        <time>2019-11-11T13:30:56Z</time>
      </trkpt>
      <trkpt lat="46.5222" lon="5.90511">
        <ele>909</ele>
        <time>2019-11-11T13:31:05Z</time>
      </trkpt>
      <trkpt lat="46.52225" lon="5.90523">
        <ele>909</ele>
        <time>2019-11-11T13:31:13Z</time>
      </trkpt>
      <trkpt lat="46.5223" lon="5.90534">
        <ele>909</ele>
        <time>2019-11-11T13:31:21Z</time>
      </trkpt>
      <trkpt lat="46.52237" lon="5.90545">
        <ele>909</ele>
        <time>2019-11-11T13:31:29Z</time>
      </trkpt>
      <trkpt lat="46.52243" lon="5.90556">
        <ele>909</ele>
        <time>2019-11-11T13:31:37Z</time>
      </trkpt>
      <trkpt lat="46.52247" lon="5.90567">
        <ele>909</ele>
        <time>2019-11-11T13:31:45Z</time>
      </trkpt>
      <trkpt lat="46.52253" lon="5.9058">
        <ele>909</ele>
        <time>2019-11-11T13:31:54Z</time>
      </trkpt>
      <trkpt lat="46.52259" lon="5.90592">
        <ele>909</ele>
        <time>2019-11-11T13:32:03Z</time>
      </trkpt>
      <trkpt lat="46.52264" lon="5.90603">
        <ele>909</ele>
        <time>2019-11-11T13:32:12Z</time>
      </trkpt>
      <trkpt lat="46.5227" lon="5.90615">
        <ele>909</ele>
        <time>2019-11-11T13:32:21Z</time>
      </trkpt>
      <trkpt lat="46.52277" lon="5.90624">
        <ele>909</ele>
        <time>2019-11-11T13:32:28Z</time>
      </trkpt>
      <trkpt lat="46.52284" lon="5.90633">
        <ele>909</ele>
        <time>2019-11-11T13:32:37Z</time>
      </trkpt>
      <trkpt lat="46.52291" lon="5.90644">
        <ele>909</ele>
        <time>2019-11-11T13:32:45Z</time>
      </trkpt>
      <trkpt lat="46.52298" lon="5.90655">
        <ele>909</ele>
        <time>2019-11-11T13:32:54Z</time>
      </trkpt>
      <trkpt lat="46.52304" lon="5.90665">
        <ele>909</ele>
        <time>2019-11-11T13:33:02Z</time>
      </trkpt>
      <trkpt lat="46.52306" lon="5.90678">
        <ele>909</ele>
        <time>2019-11-11T13:33:11Z</time>
      </trkpt>
      <trkpt lat="46.52302" lon="5.90691">
        <ele>910</ele>
        <time>2019-11-11T13:33:19Z</time>
      </trkpt>
      <trkpt lat="46.52296" lon="5.907">
        <ele>911</ele>
        <time>2019-11-11T13:33:27Z</time>
      </trkpt>
      <trkpt lat="46.5229" lon="5.90711">
        <ele>912</ele>
        <time>2019-11-11T13:33:38Z</time>
      </trkpt>
      <trkpt lat="46.52284" lon="5.90723">
        <ele>913</ele>
        <time>2019-11-11T13:33:49Z</time>
      </trkpt>
      <trkpt lat="46.52279" lon="5.90735">
        <ele>913</ele>
        <time>2019-11-11T13:33:58Z</time>
      </trkpt>
      <trkpt lat="46.52273" lon="5.90744">
        <ele>914</ele>
        <time>2019-11-11T13:34:05Z</time>
      </trkpt>
      <trkpt lat="46.52266" lon="5.90753">
        <ele>915</ele>
        <time>2019-11-11T13:34:49Z</time>
      </trkpt>
      <trkpt lat="46.52261" lon="5.90765">
        <ele>916</ele>
        <time>2019-11-11T13:35:01Z</time>
      </trkpt>
      <trkpt lat="46.52256" lon="5.90776">
        <ele>917</ele>
        <time>2019-11-11T13:35:14Z</time>
      </trkpt>
      <trkpt lat="46.52251" lon="5.90787">
        <ele>918</ele>
        <time>2019-11-11T13:35:31Z</time>
      </trkpt>
      <trkpt lat="46.52244" lon="5.90797">
        <ele>919</ele>
        <time>2019-11-11T13:35:43Z</time>
      </trkpt>
      <trkpt lat="46.52238" lon="5.90807">
        <ele>920</ele>
        <time>2019-11-11T13:35:57Z</time>
      </trkpt>
      <trkpt lat="46.52231" lon="5.90817">
        <ele>921</ele>
        <time>2019-11-11T13:36:11Z</time>
      </trkpt>
      <trkpt lat="46.52225" lon="5.90827">
        <ele>921</ele>
        <time>2019-11-11T13:36:27Z</time>
      </trkpt>
      <trkpt lat="46.52218" lon="5.90837">
        <ele>922</ele>
        <time>2019-11-11T13:36:41Z</time>
      </trkpt>
      <trkpt lat="46.52212" lon="5.90848">
        <ele>923</ele>
        <time>2019-11-11T13:37:02Z</time>
      </trkpt>
      <trkpt lat="46.52206" lon="5.90857">
        <ele>924</ele>
        <time>2019-11-11T13:37:14Z</time>
      </trkpt>
      <trkpt lat="46.52201" lon="5.90869">
        <ele>925</ele>
        <time>2019-11-11T13:37:31Z</time>
      </trkpt>
      <trkpt lat="46.52197" lon="5.90881">
        <ele>926</ele>
        <time>2019-11-11T13:37:53Z</time>
      </trkpt>
      <trkpt lat="46.52188" lon="5.90882">
        <ele>927</ele>
        <time>2019-11-11T13:41:57Z</time>
      </trkpt>
      <trkpt lat="46.52182" lon="5.90894">
        <ele>928</ele>
        <time>2019-11-11T13:42:43Z</time>
      </trkpt>
      <trkpt lat="46.52174" lon="5.90898">
        <ele>929</ele>
        <time>2019-11-11T13:43:00Z</time>
      </trkpt>
      <trkpt lat="46.52169" lon="5.9091">
        <ele>930</ele>
        <time>2019-11-11T13:43:09Z</time>
      </trkpt>
      <trkpt lat="46.52164" lon="5.90921">
        <ele>932</ele>
        <time>2019-11-11T13:43:18Z</time>
      </trkpt>
      <trkpt lat="46.52163" lon="5.90935">
        <ele>934</ele>
        <time>2019-11-11T13:43:40Z</time>
      </trkpt>
      <trkpt lat="46.52162" lon="5.90948">
        <ele>936</ele>
        <time>2019-11-11T13:43:57Z</time>
      </trkpt>
      <trkpt lat="46.52162" lon="5.90962">
        <ele>937</ele>
        <time>2019-11-11T13:44:08Z</time>
      </trkpt>
      <trkpt lat="46.52168" lon="5.90973">
        <ele>937</ele>
        <time>2019-11-11T13:44:41Z</time>
      </trkpt>
      <trkpt lat="46.52167" lon="5.90986">
        <ele>939</ele>
        <time>2019-11-11T13:45:04Z</time>
      </trkpt>
      <trkpt lat="46.52165" lon="5.91">
        <ele>942</ele>
        <time>2019-11-11T13:45:19Z</time>
      </trkpt>
      <trkpt lat="46.52163" lon="5.91012">
        <ele>943</ele>
        <time>2019-11-11T13:45:33Z</time>
      </trkpt>
      <trkpt lat="46.52161" lon="5.91027">
        <ele>945</ele>
        <time>2019-11-11T13:45:45Z</time>
      </trkpt>
      <trkpt lat="46.52169" lon="5.91034">
        <ele>944</ele>
        <time>2019-11-11T13:46:09Z</time>
      </trkpt>
      <trkpt lat="46.52179" lon="5.9103">
        <ele>942</ele>
        <time>2019-11-11T13:46:46Z</time>
      </trkpt>
      <trkpt lat="46.52176" lon="5.91042">
        <ele>944</ele>
        <time>2019-11-11T13:47:07Z</time>
      </trkpt>
      <trkpt lat="46.52169" lon="5.91051">
        <ele>947</ele>
        <time>2019-11-11T13:47:18Z</time>
      </trkpt>
      <trkpt lat="46.52167" lon="5.91064">
        <ele>949</ele>
        <time>2019-11-11T13:47:37Z</time>
      </trkpt>
      <trkpt lat="46.52165" lon="5.91078">
        <ele>950</ele>
        <time>2019-11-11T13:47:58Z</time>
      </trkpt>
      <trkpt lat="46.52163" lon="5.91091">
        <ele>952</ele>
        <time>2019-11-11T13:48:09Z</time>
      </trkpt>
      <trkpt lat="46.52168" lon="5.91103">
        <ele>952</ele>
        <time>2019-11-11T13:48:19Z</time>
      </trkpt>
      <trkpt lat="46.52162" lon="5.91112">
        <ele>954</ele>
        <time>2019-11-11T13:48:29Z</time>
      </trkpt>
      <trkpt lat="46.52168" lon="5.9112">
        <ele>953</ele>
        <time>2019-11-11T13:50:33Z</time>
      </trkpt>
      <trkpt lat="46.52177" lon="5.91128">
        <ele>952</ele>
        <time>2019-11-11T13:50:42Z</time>
      </trkpt>
      <trkpt lat="46.52185" lon="5.91136">
        <ele>950</ele>
        <time>2019-11-11T13:50:49Z</time>
      </trkpt>
      <trkpt lat="46.52182" lon="5.91149">
        <ele>952</ele>
        <time>2019-11-11T13:51:01Z</time>
      </trkpt>
      <trkpt lat="46.52175" lon="5.91141">
        <ele>953</ele>
        <time>2019-11-11T13:51:36Z</time>
      </trkpt>
      <trkpt lat="46.52167" lon="5.91132">
        <ele>954</ele>
        <time>2019-11-11T13:51:47Z</time>
      </trkpt>
      <trkpt lat="46.52159" lon="5.91125">
        <ele>955</ele>
        <time>2019-11-11T13:52:02Z</time>
      </trkpt>
      <trkpt lat="46.5215" lon="5.91131">
        <ele>958</ele>
        <time>2019-11-11T13:52:26Z</time>
      </trkpt>
      <trkpt lat="46.52144" lon="5.9114">
        <ele>960</ele>
        <time>2019-11-11T13:52:48Z</time>
      </trkpt>
      <trkpt lat="46.52137" lon="5.91148">
        <ele>963</ele>
        <time>2019-11-11T13:53:15Z</time>
      </trkpt>
      <trkpt lat="46.52132" lon="5.91159">
        <ele>966</ele>
        <time>2019-11-11T13:53:58Z</time>
      </trkpt>
      <trkpt lat="46.52126" lon="5.91169">
        <ele>969</ele>
        <time>2019-11-11T13:54:25Z</time>
      </trkpt>
      <trkpt lat="46.52129" lon="5.91182">
        <ele>970</ele>
        <time>2019-11-11T13:55:05Z</time>
      </trkpt>
      <trkpt lat="46.5212" lon="5.91185">
        <ele>973</ele>
        <time>2019-11-11T13:55:50Z</time>
      </trkpt>
      <trkpt lat="46.52112" lon="5.91193">
        <ele>975</ele>
        <time>2019-11-11T13:56:10Z</time>
      </trkpt>
      <trkpt lat="46.52106" lon="5.91204">
        <ele>979</ele>
        <time>2019-11-11T13:56:57Z</time>
      </trkpt>
      <trkpt lat="46.52099" lon="5.9121">
        <ele>982</ele>
        <time>2019-11-11T13:57:25Z</time>
      </trkpt>
      <trkpt lat="46.52093" lon="5.91222">
        <ele>985</ele>
        <time>2019-11-11T13:57:56Z</time>
      </trkpt>
      <trkpt lat="46.52089" lon="5.91234">
        <ele>987</ele>
        <time>2019-11-11T13:58:22Z</time>
      </trkpt>
      <trkpt lat="46.52084" lon="5.91246">
        <ele>989</ele>
        <time>2019-11-11T13:58:41Z</time>
      </trkpt>
      <trkpt lat="46.5208" lon="5.91258">
        <ele>992</ele>
        <time>2019-11-11T13:59:01Z</time>
      </trkpt>
      <trkpt lat="46.52073" lon="5.91266">
        <ele>994</ele>
        <time>2019-11-11T13:59:13Z</time>
      </trkpt>
      <trkpt lat="46.52071" lon="5.91279">
        <ele>996</ele>
        <time>2019-11-11T13:59:19Z</time>
      </trkpt>
      <trkpt lat="46.52074" lon="5.91292">
        <ele>996</ele>
        <time>2019-11-11T13:59:36Z</time>
      </trkpt>
      <trkpt lat="46.52078" lon="5.9128">
        <ele>994</ele>
        <time>2019-11-11T14:00:50Z</time>
      </trkpt>
      <trkpt lat="46.52073" lon="5.9129">
        <ele>996</ele>
        <time>2019-11-11T14:02:11Z</time>
      </trkpt>
      <trkpt lat="46.52066" lon="5.913">
        <ele>998</ele>
        <time>2019-11-11T14:02:22Z</time>
      </trkpt>
      <trkpt lat="46.52062" lon="5.91312">
        <ele>1000</ele>
        <time>2019-11-11T14:02:39Z</time>
      </trkpt>
      <trkpt lat="46.52059" lon="5.91325">
        <ele>1002</ele>
        <time>2019-11-11T14:03:13Z</time>
      </trkpt>
      <trkpt lat="46.52056" lon="5.91338">
        <ele>1003</ele>
        <time>2019-11-11T14:03:29Z</time>
      </trkpt>
      <trkpt lat="46.52052" lon="5.9135">
        <ele>1005</ele>
        <time>2019-11-11T14:03:38Z</time>
      </trkpt>
      <trkpt lat="46.5205" lon="5.91364">
        <ele>1006</ele>
        <time>2019-11-11T14:03:49Z</time>
      </trkpt>
      <trkpt lat="46.52047" lon="5.91378">
        <ele>1007</ele>
        <time>2019-11-11T14:03:57Z</time>
      </trkpt>
      <trkpt lat="46.52044" lon="5.91391">
        <ele>1007</ele>
        <time>2019-11-11T14:04:05Z</time>
      </trkpt>
      <trkpt lat="46.52043" lon="5.91404">
        <ele>1008</ele>
        <time>2019-11-11T14:04:16Z</time>
      </trkpt>
      <trkpt lat="46.52048" lon="5.91416">
        <ele>1009</ele>
        <time>2019-11-11T14:04:26Z</time>
      </trkpt>
      <trkpt lat="46.52049" lon="5.91429">
        <ele>1010</ele>
        <time>2019-11-11T14:04:34Z</time>
      </trkpt>
      <trkpt lat="46.52047" lon="5.91416">
        <ele>1009</ele>
        <time>2019-11-11T14:04:54Z</time>
      </trkpt>
      <trkpt lat="46.5205" lon="5.91403">
        <ele>1009</ele>
        <time>2019-11-11T14:05:03Z</time>
      </trkpt>
      <trkpt lat="46.52054" lon="5.91391">
        <ele>1008</ele>
        <time>2019-11-11T14:05:12Z</time>
      </trkpt>
      <trkpt lat="46.52059" lon="5.91378">
        <ele>1007</ele>
        <time>2019-11-11T14:05:19Z</time>
      </trkpt>
      <trkpt lat="46.52062" lon="5.91365">
        <ele>1005</ele>
        <time>2019-11-11T14:05:25Z</time>
      </trkpt>
      <trkpt lat="46.52069" lon="5.91357">
        <ele>1003</ele>
        <time>2019-11-11T14:05:34Z</time>
      </trkpt>
      <trkpt lat="46.52079" lon="5.9136">
        <ele>1001</ele>
        <time>2019-11-11T14:05:46Z</time>
      </trkpt>
      <trkpt lat="46.52087" lon="5.91365">
        <ele>1000</ele>
        <time>2019-11-11T14:06:05Z</time>
      </trkpt>
      <trkpt lat="46.52095" lon="5.91373">
        <ele>998</ele>
        <time>2019-11-11T14:06:15Z</time>
      </trkpt>
      <trkpt lat="46.52103" lon="5.91381">
        <ele>997</ele>
        <time>2019-11-11T14:06:27Z</time>
      </trkpt>
      <trkpt lat="46.52112" lon="5.91385">
        <ele>995</ele>
        <time>2019-11-11T14:06:43Z</time>
      </trkpt>
      <trkpt lat="46.52119" lon="5.91394">
        <ele>994</ele>
        <time>2019-11-11T14:06:56Z</time>
      </trkpt>
      <trkpt lat="46.52123" lon="5.91406">
        <ele>993</ele>
        <time>2019-11-11T14:07:08Z</time>
      </trkpt>
      <trkpt lat="46.5213" lon="5.91415">
        <ele>992</ele>
        <time>2019-11-11T14:07:18Z</time>
      </trkpt>
      <trkpt lat="46.52135" lon="5.91426">
        <ele>991</ele>
        <time>2019-11-11T14:07:28Z</time>
      </trkpt>
      <trkpt lat="46.52139" lon="5.91438">
        <ele>992</ele>
        <time>2019-11-11T14:07:38Z</time>
      </trkpt>
      <trkpt lat="46.52141" lon="5.91452">
        <ele>994</ele>
        <time>2019-11-11T14:07:49Z</time>
      </trkpt>
      <trkpt lat="46.52147" lon="5.91463">
        <ele>994</ele>
        <time>2019-11-11T14:08:04Z</time>
      </trkpt>
      <trkpt lat="46.52152" lon="5.91474">
        <ele>994</ele>
        <time>2019-11-11T14:08:17Z</time>
      </trkpt>
      <trkpt lat="46.5216" lon="5.91483">
        <ele>994</ele>
        <time>2019-11-11T14:08:28Z</time>
      </trkpt>
      <trkpt lat="46.52169" lon="5.91489">
        <ele>993</ele>
        <time>2019-11-11T14:08:38Z</time>
      </trkpt>
      <trkpt lat="46.52178" lon="5.91495">
        <ele>993</ele>
        <time>2019-11-11T14:08:53Z</time>
      </trkpt>
      <trkpt lat="46.52184" lon="5.91505">
        <ele>993</ele>
        <time>2019-11-11T14:09:03Z</time>
      </trkpt>
      <trkpt lat="46.52189" lon="5.91516">
        <ele>994</ele>
        <time>2019-11-11T14:09:10Z</time>
      </trkpt>
      <trkpt lat="46.52195" lon="5.91525">
        <ele>995</ele>
        <time>2019-11-11T14:09:18Z</time>
      </trkpt>
      <trkpt lat="46.52203" lon="5.91534">
        <ele>996</ele>
        <time>2019-11-11T14:09:27Z</time>
      </trkpt>
      <trkpt lat="46.52208" lon="5.91545">
        <ele>997</ele>
        <time>2019-11-11T14:09:37Z</time>
      </trkpt>
      <trkpt lat="46.52213" lon="5.91558">
        <ele>1000</ele>
        <time>2019-11-11T14:09:48Z</time>
      </trkpt>
      <trkpt lat="46.52219" lon="5.91567">
        <ele>1000</ele>
        <time>2019-11-11T14:10:01Z</time>
      </trkpt>
      <trkpt lat="46.52227" lon="5.91572">
        <ele>1000</ele>
        <time>2019-11-11T14:10:17Z</time>
      </trkpt>
      <trkpt lat="46.52234" lon="5.91582">
        <ele>1001</ele>
        <time>2019-11-11T14:10:28Z</time>
      </trkpt>
      <trkpt lat="46.52242" lon="5.9159">
        <ele>1001</ele>
        <time>2019-11-11T14:10:39Z</time>
      </trkpt>
      <trkpt lat="46.5225" lon="5.91599">
        <ele>1003</ele>
        <time>2019-11-11T14:10:54Z</time>
      </trkpt>
      <trkpt lat="46.52255" lon="5.91611">
        <ele>1005</ele>
        <time>2019-11-11T14:11:09Z</time>
      </trkpt>
      <trkpt lat="46.52261" lon="5.91622">
        <ele>1007</ele>
        <time>2019-11-11T14:11:22Z</time>
      </trkpt>
      <trkpt lat="46.5227" lon="5.91628">
        <ele>1008</ele>
        <time>2019-11-11T14:11:44Z</time>
      </trkpt>
      <trkpt lat="46.52276" lon="5.91638">
        <ele>1010</ele>
        <time>2019-11-11T14:12:03Z</time>
      </trkpt>
      <trkpt lat="46.52283" lon="5.91647">
        <ele>1010</ele>
        <time>2019-11-11T14:12:19Z</time>
      </trkpt>
      <trkpt lat="46.52289" lon="5.91657">
        <ele>1011</ele>
        <time>2019-11-11T14:12:32Z</time>
      </trkpt>
      <trkpt lat="46.52296" lon="5.91665">
        <ele>1012</ele>
        <time>2019-11-11T14:12:43Z</time>
      </trkpt>
      <trkpt lat="46.52303" lon="5.91675">
        <ele>1012</ele>
        <time>2019-11-11T14:12:57Z</time>
      </trkpt>
      <trkpt lat="46.52311" lon="5.91683">
        <ele>1012</ele>
        <time>2019-11-11T14:13:11Z</time>
      </trkpt>
      <trkpt lat="46.52318" lon="5.91693">
        <ele>1013</ele>
        <time>2019-11-11T14:13:24Z</time>
      </trkpt>
      <trkpt lat="46.52326" lon="5.917">
        <ele>1013</ele>
        <time>2019-11-11T14:13:31Z</time>
      </trkpt>
      <trkpt lat="46.52331" lon="5.91712">
        <ele>1014</ele>
        <time>2019-11-11T14:13:42Z</time>
      </trkpt>
      <trkpt lat="46.52338" lon="5.91723">
        <ele>1014</ele>
        <time>2019-11-11T14:13:54Z</time>
      </trkpt>
      <trkpt lat="46.52346" lon="5.91729">
        <ele>1014</ele>
        <time>2019-11-11T14:14:06Z</time>
      </trkpt>
      <trkpt lat="46.52355" lon="5.91734">
        <ele>1013</ele>
        <time>2019-11-11T14:14:18Z</time>
      </trkpt>
      <trkpt lat="46.52362" lon="5.91744">
        <ele>1012</ele>
        <time>2019-11-11T14:14:32Z</time>
      </trkpt>
      <trkpt lat="46.52368" lon="5.91754">
        <ele>1012</ele>
        <time>2019-11-11T14:14:41Z</time>
      </trkpt>
      <trkpt lat="46.52375" lon="5.91761">
        <ele>1012</ele>
        <time>2019-11-11T14:14:52Z</time>
      </trkpt>
      <trkpt lat="46.5238" lon="5.91772">
        <ele>1013</ele>
        <time>2019-11-11T14:15:00Z</time>
      </trkpt>
      <trkpt lat="46.52387" lon="5.91782">
        <ele>1013</ele>
        <time>2019-11-11T14:15:08Z</time>
      </trkpt>
      <trkpt lat="46.52394" lon="5.9179">
        <ele>1012</ele>
        <time>2019-11-11T14:15:19Z</time>
      </trkpt>
      <trkpt lat="46.52401" lon="5.91799">
        <ele>1011</ele>
        <time>2019-11-11T14:15:30Z</time>
      </trkpt>
      <trkpt lat="46.52409" lon="5.91809">
        <ele>1011</ele>
        <time>2019-11-11T14:15:39Z</time>
      </trkpt>
      <trkpt lat="46.52416" lon="5.91818">
        <ele>1011</ele>
        <time>2019-11-11T14:15:48Z</time>
      </trkpt>
      <trkpt lat="46.52422" lon="5.91828">
        <ele>1011</ele>
        <time>2019-11-11T14:16:00Z</time>
      </trkpt>
      <trkpt lat="46.52427" lon="5.91839">
        <ele>1012</ele>
        <time>2019-11-11T14:16:13Z</time>
      </trkpt>
      <trkpt lat="46.52436" lon="5.91843">
        <ele>1011</ele>
        <time>2019-11-11T14:16:24Z</time>
      </trkpt>
      <trkpt lat="46.52443" lon="5.91854">
        <ele>1011</ele>
        <time>2019-11-11T14:16:35Z</time>
      </trkpt>
      <trkpt lat="46.52448" lon="5.91865">
        <ele>1012</ele>
        <time>2019-11-11T14:16:45Z</time>
      </trkpt>
      <trkpt lat="46.52454" lon="5.91876">
        <ele>1012</ele>
        <time>2019-11-11T14:16:55Z</time>
      </trkpt>
      <trkpt lat="46.52459" lon="5.91889">
        <ele>1013</ele>
        <time>2019-11-11T14:17:06Z</time>
      </trkpt>
      <trkpt lat="46.52464" lon="5.919">
        <ele>1013</ele>
        <time>2019-11-11T14:17:23Z</time>
      </trkpt>
      <trkpt lat="46.52472" lon="5.91908">
        <ele>1013</ele>
        <time>2019-11-11T14:17:41Z</time>
      </trkpt>
      <trkpt lat="46.52477" lon="5.91919">
        <ele>1014</ele>
        <time>2019-11-11T14:17:58Z</time>
      </trkpt>
      <trkpt lat="46.52481" lon="5.91932">
        <ele>1015</ele>
        <time>2019-11-11T14:18:14Z</time>
      </trkpt>
      <trkpt lat="46.52485" lon="5.91944">
        <ele>1016</ele>
        <time>2019-11-11T14:18:27Z</time>
      </trkpt>
      <trkpt lat="46.52494" lon="5.91953">
        <ele>1015</ele>
        <time>2019-11-11T14:18:36Z</time>
      </trkpt>
      <trkpt lat="46.52502" lon="5.91962">
        <ele>1015</ele>
        <time>2019-11-11T14:18:44Z</time>
      </trkpt>
      <trkpt lat="46.52507" lon="5.91973">
        <ele>1015</ele>
        <time>2019-11-11T14:18:55Z</time>
      </trkpt>
      <trkpt lat="46.52514" lon="5.91981">
        <ele>1014</ele>
        <time>2019-11-11T14:19:03Z</time>
      </trkpt>
      <trkpt lat="46.52519" lon="5.91992">
        <ele>1014</ele>
        <time>2019-11-11T14:19:13Z</time>
      </trkpt>
      <trkpt lat="46.52526" lon="5.92001">
        <ele>1013</ele>
        <time>2019-11-11T14:19:23Z</time>
      </trkpt>
      <trkpt lat="46.52531" lon="5.92013">
        <ele>1014</ele>
        <time>2019-11-11T14:19:33Z</time>
      </trkpt>
      <trkpt lat="46.52537" lon="5.92025">
        <ele>1014</ele>
        <time>2019-11-11T14:19:44Z</time>
      </trkpt>
      <trkpt lat="46.52544" lon="5.92035">
        <ele>1015</ele>
        <time>2019-11-11T14:19:52Z</time>
      </trkpt>
      <trkpt lat="46.52547" lon="5.92048">
        <ele>1016</ele>
        <time>2019-11-11T14:20:06Z</time>
      </trkpt>
      <trkpt lat="46.52541" lon="5.92059">
        <ele>1017</ele>
        <time>2019-11-11T14:20:31Z</time>
      </trkpt>
      <trkpt lat="46.52532" lon="5.92067">
        <ele>1018</ele>
        <time>2019-11-11T14:20:44Z</time>
      </trkpt>
      <trkpt lat="46.52541" lon="5.92064">
        <ele>1017</ele>
        <time>2019-11-11T14:21:20Z</time>
      </trkpt>
      <trkpt lat="46.52548" lon="5.92054">
        <ele>1016</ele>
        <time>2019-11-11T14:21:29Z</time>
      </trkpt>
      <trkpt lat="46.52557" lon="5.92053">
        <ele>1016</ele>
        <time>2019-11-11T14:21:41Z</time>
      </trkpt>
      <trkpt lat="46.52566" lon="5.92052">
        <ele>1014</ele>
        <time>2019-11-11T14:23:13Z</time>
      </trkpt>
      <trkpt lat="46.52557" lon="5.9205">
        <ele>1015</ele>
        <time>2019-11-11T14:23:26Z</time>
      </trkpt>
      <trkpt lat="46.5256" lon="5.92063">
        <ele>1016</ele>
        <time>2019-11-11T14:24:19Z</time>
      </trkpt>
      <trkpt lat="46.52565" lon="5.92074">
        <ele>1017</ele>
        <time>2019-11-11T14:24:30Z</time>
      </trkpt>
      <trkpt lat="46.52569" lon="5.92087">
        <ele>1018</ele>
        <time>2019-11-11T14:24:41Z</time>
      </trkpt>
      <trkpt lat="46.52575" lon="5.92097">
        <ele>1019</ele>
        <time>2019-11-11T14:24:50Z</time>
      </trkpt>
      <trkpt lat="46.52579" lon="5.92109">
        <ele>1020</ele>
        <time>2019-11-11T14:25:01Z</time>
      </trkpt>
      <trkpt lat="46.52585" lon="5.9212">
        <ele>1020</ele>
        <time>2019-11-11T14:25:16Z</time>
      </trkpt>
      <trkpt lat="46.52589" lon="5.92132">
        <ele>1021</ele>
        <time>2019-11-11T14:25:39Z</time>
      </trkpt>
      <trkpt lat="46.52594" lon="5.92143">
        <ele>1022</ele>
        <time>2019-11-11T14:25:56Z</time>
      </trkpt>
      <trkpt lat="46.52598" lon="5.92156">
        <ele>1022</ele>
        <time>2019-11-11T14:26:06Z</time>
      </trkpt>
      <trkpt lat="46.52601" lon="5.92168">
        <ele>1023</ele>
        <time>2019-11-11T14:26:19Z</time>
      </trkpt>
      <trkpt lat="46.52607" lon="5.92179">
        <ele>1024</ele>
        <time>2019-11-11T14:26:29Z</time>
      </trkpt>
      <trkpt lat="46.52613" lon="5.92192">
        <ele>1025</ele>
        <time>2019-11-11T14:26:43Z</time>
      </trkpt>
      <trkpt lat="46.52617" lon="5.92204">
        <ele>1025</ele>
        <time>2019-11-11T14:26:56Z</time>
      </trkpt>
      <trkpt lat="46.52624" lon="5.92213">
        <ele>1025</ele>
        <time>2019-11-11T14:27:07Z</time>
      </trkpt>
      <trkpt lat="46.5263" lon="5.92224">
        <ele>1025</ele>
        <time>2019-11-11T14:27:18Z</time>
      </trkpt>
      <trkpt lat="46.52632" lon="5.92238">
        <ele>1026</ele>
        <time>2019-11-11T14:27:29Z</time>
      </trkpt>
      <trkpt lat="46.52639" lon="5.92248">
        <ele>1026</ele>
        <time>2019-11-11T14:27:39Z</time>
      </trkpt>
      <trkpt lat="46.52645" lon="5.92258">
        <ele>1026</ele>
        <time>2019-11-11T14:27:53Z</time>
      </trkpt>
      <trkpt lat="46.52646" lon="5.92271">
        <ele>1027</ele>
        <time>2019-11-11T14:28:05Z</time>
      </trkpt>
      <trkpt lat="46.52644" lon="5.92285">
        <ele>1028</ele>
        <time>2019-11-11T14:28:20Z</time>
      </trkpt>
      <trkpt lat="46.52642" lon="5.92298">
        <ele>1029</ele>
        <time>2019-11-11T14:28:36Z</time>
      </trkpt>
      <trkpt lat="46.52643" lon="5.92311">
        <ele>1030</ele>
        <time>2019-11-11T14:29:01Z</time>
      </trkpt>
      <trkpt lat="46.52647" lon="5.92323">
        <ele>1030</ele>
        <time>2019-11-11T14:29:12Z</time>
      </trkpt>
      <trkpt lat="46.52649" lon="5.92336">
        <ele>1030</ele>
        <time>2019-11-11T14:29:24Z</time>
      </trkpt>
      <trkpt lat="46.52653" lon="5.9235">
        <ele>1030</ele>
        <time>2019-11-11T14:29:37Z</time>
      </trkpt>
      <trkpt lat="46.52659" lon="5.92359">
        <ele>1030</ele>
        <time>2019-11-11T14:29:55Z</time>
      </trkpt>
      <trkpt lat="46.52665" lon="5.92371">
        <ele>1030</ele>
        <time>2019-11-11T14:30:06Z</time>
      </trkpt>
      <trkpt lat="46.52673" lon="5.92378">
        <ele>1030</ele>
        <time>2019-11-11T14:30:18Z</time>
      </trkpt>
      <trkpt lat="46.52682" lon="5.92384">
        <ele>1030</ele>
        <time>2019-11-11T14:30:28Z</time>
      </trkpt>
      <trkpt lat="46.52689" lon="5.92376">
        <ele>1030</ele>
        <time>2019-11-11T14:31:24Z</time>
      </trkpt>
      <trkpt lat="46.52693" lon="5.92364">
        <ele>1029</ele>
        <time>2019-11-11T14:31:38Z</time>
      </trkpt>
      <trkpt lat="46.52699" lon="5.92353">
        <ele>1027</ele>
        <time>2019-11-11T14:31:50Z</time>
      </trkpt>
      <trkpt lat="46.52706" lon="5.92345">
        <ele>1026</ele>
        <time>2019-11-11T14:32:00Z</time>
      </trkpt>
      <trkpt lat="46.52716" lon="5.92339">
        <ele>1024</ele>
        <time>2019-11-11T14:32:12Z</time>
      </trkpt>
      <trkpt lat="46.52724" lon="5.92332">
        <ele>1023</ele>
        <time>2019-11-11T14:32:23Z</time>
      </trkpt>
      <trkpt lat="46.52733" lon="5.92328">
        <ele>1021</ele>
        <time>2019-11-11T14:32:44Z</time>
      </trkpt>
      <trkpt lat="46.52742" lon="5.92324">
        <ele>1020</ele>
        <time>2019-11-11T14:32:55Z</time>
      </trkpt>
      <trkpt lat="46.52752" lon="5.92317">
        <ele>1018</ele>
        <time>2019-11-11T14:33:08Z</time>
      </trkpt>
      <trkpt lat="46.52761" lon="5.92314">
        <ele>1017</ele>
        <time>2019-11-11T14:33:17Z</time>
      </trkpt>
      <trkpt lat="46.52771" lon="5.92312">
        <ele>1015</ele>
        <time>2019-11-11T14:33:26Z</time>
      </trkpt>
      <trkpt lat="46.5278" lon="5.92312">
        <ele>1015</ele>
        <time>2019-11-11T14:33:34Z</time>
      </trkpt>
      <trkpt lat="46.52789" lon="5.92311">
        <ele>1014</ele>
        <time>2019-11-11T14:33:44Z</time>
      </trkpt>
      <trkpt lat="46.52799" lon="5.92307">
        <ele>1013</ele>
        <time>2019-11-11T14:33:54Z</time>
      </trkpt>
      <trkpt lat="46.52809" lon="5.92299">
        <ele>1011</ele>
        <time>2019-11-11T14:34:05Z</time>
      </trkpt>
      <trkpt lat="46.52816" lon="5.92292">
        <ele>1009</ele>
        <time>2019-11-11T14:34:15Z</time>
      </trkpt>
      <trkpt lat="46.52822" lon="5.92281">
        <ele>1006</ele>
        <time>2019-11-11T14:34:23Z</time>
      </trkpt>
      <trkpt lat="46.52823" lon="5.92267">
        <ele>1004</ele>
        <time>2019-11-11T14:34:32Z</time>
      </trkpt>
      <trkpt lat="46.52819" lon="5.92255">
        <ele>1002</ele>
        <time>2019-11-11T14:34:40Z</time>
      </trkpt>
      <trkpt lat="46.52811" lon="5.92246">
        <ele>1001</ele>
        <time>2019-11-11T14:34:49Z</time>
      </trkpt>
      <trkpt lat="46.52802" lon="5.92241">
        <ele>1001</ele>
        <time>2019-11-11T14:34:57Z</time>
      </trkpt>
      <trkpt lat="46.52793" lon="5.92235">
        <ele>1001</ele>
        <time>2019-11-11T14:35:06Z</time>
      </trkpt>
      <trkpt lat="46.52785" lon="5.92232">
        <ele>1001</ele>
        <time>2019-11-11T14:35:15Z</time>
      </trkpt>
      <trkpt lat="46.52775" lon="5.92228">
        <ele>1002</ele>
        <time>2019-11-11T14:35:24Z</time>
      </trkpt>
      <trkpt lat="46.52784" lon="5.92223">
        <ele>999</ele>
        <time>2019-11-11T14:36:32Z</time>
      </trkpt>
      <trkpt lat="46.52794" lon="5.92219">
        <ele>998</ele>
        <time>2019-11-11T14:36:43Z</time>
      </trkpt>
      <trkpt lat="46.52803" lon="5.92214">
        <ele>996</ele>
        <time>2019-11-11T14:36:52Z</time>
      </trkpt>
      <trkpt lat="46.52811" lon="5.92207">
        <ele>994</ele>
        <time>2019-11-11T14:37:03Z</time>
      </trkpt>
      <trkpt lat="46.5282" lon="5.92202">
        <ele>993</ele>
        <time>2019-11-11T14:37:12Z</time>
      </trkpt>
      <trkpt lat="46.5283" lon="5.92203">
        <ele>992</ele>
        <time>2019-11-11T14:37:21Z</time>
      </trkpt>
      <trkpt lat="46.52833" lon="5.9219">
        <ele>990</ele>
        <time>2019-11-11T14:37:53Z</time>
      </trkpt>
      <trkpt lat="46.52836" lon="5.92178">
        <ele>985</ele>
        <time>2019-11-11T14:38:06Z</time>
      </trkpt>
      <trkpt lat="46.5283" lon="5.92187">
        <ele>989</ele>
        <time>2019-11-11T14:38:46Z</time>
      </trkpt>
      <trkpt lat="46.52838" lon="5.92193">
        <ele>990</ele>
        <time>2019-11-11T14:39:24Z</time>
      </trkpt>
      <trkpt lat="46.52847" lon="5.92189">
        <ele>987</ele>
        <time>2019-11-11T14:39:42Z</time>
      </trkpt>
      <trkpt lat="46.52857" lon="5.92188">
        <ele>985</ele>
        <time>2019-11-11T14:39:49Z</time>
      </trkpt>
      <trkpt lat="46.52867" lon="5.92187">
        <ele>983</ele>
        <time>2019-11-11T14:39:56Z</time>
      </trkpt>
      <trkpt lat="46.52876" lon="5.92188">
        <ele>981</ele>
        <time>2019-11-11T14:40:03Z</time>
      </trkpt>
      <trkpt lat="46.52886" lon="5.92188">
        <ele>979</ele>
        <time>2019-11-11T14:40:11Z</time>
      </trkpt>
      <trkpt lat="46.52895" lon="5.9219">
        <ele>978</ele>
        <time>2019-11-11T14:40:17Z</time>
      </trkpt>
      <trkpt lat="46.52904" lon="5.92193">
        <ele>976</ele>
        <time>2019-11-11T14:40:25Z</time>
      </trkpt>
      <trkpt lat="46.52913" lon="5.92194">
        <ele>974</ele>
        <time>2019-11-11T14:40:33Z</time>
      </trkpt>
      <trkpt lat="46.52923" lon="5.92197">
        <ele>972</ele>
        <time>2019-11-11T14:40:43Z</time>
      </trkpt>
      <trkpt lat="46.52933" lon="5.922">
        <ele>970</ele>
        <time>2019-11-11T14:40:51Z</time>
      </trkpt>
      <trkpt lat="46.52942" lon="5.92201">
        <ele>968</ele>
        <time>2019-11-11T14:40:58Z</time>
      </trkpt>
      <trkpt lat="46.52952" lon="5.92201">
        <ele>967</ele>
        <time>2019-11-11T14:41:04Z</time>
      </trkpt>
      <trkpt lat="46.52961" lon="5.92205">
        <ele>966</ele>
        <time>2019-11-11T14:41:13Z</time>
      </trkpt>
      <trkpt lat="46.5297" lon="5.92206">
        <ele>965</ele>
        <time>2019-11-11T14:41:21Z</time>
      </trkpt>
      <trkpt lat="46.52981" lon="5.92208">
        <ele>964</ele>
        <time>2019-11-11T14:41:29Z</time>
      </trkpt>
      <trkpt lat="46.5299" lon="5.9221">
        <ele>963</ele>
        <time>2019-11-11T14:41:37Z</time>
      </trkpt>
      <trkpt lat="46.52998" lon="5.92216">
        <ele>962</ele>
        <time>2019-11-11T14:41:53Z</time>
      </trkpt>
      <trkpt lat="46.53008" lon="5.9222">
        <ele>962</ele>
        <time>2019-11-11T14:42:01Z</time>
      </trkpt>
      <trkpt lat="46.53017" lon="5.92218">
        <ele>960</ele>
        <time>2019-11-11T14:42:15Z</time>
      </trkpt>
      <trkpt lat="46.53027" lon="5.92218">
        <ele>959</ele>
        <time>2019-11-11T14:42:30Z</time>
      </trkpt>
      <trkpt lat="46.53035" lon="5.92213">
        <ele>957</ele>
        <time>2019-11-11T14:42:41Z</time>
      </trkpt>
      <trkpt lat="46.53044" lon="5.9221">
        <ele>955</ele>
        <time>2019-11-11T14:42:59Z</time>
      </trkpt>
      <trkpt lat="46.53054" lon="5.92206">
        <ele>953</ele>
        <time>2019-11-11T14:43:15Z</time>
      </trkpt>
      <trkpt lat="46.53064" lon="5.92205">
        <ele>951</ele>
        <time>2019-11-11T14:43:30Z</time>
      </trkpt>
      <trkpt lat="46.53073" lon="5.92204">
        <ele>949</ele>
        <time>2019-11-11T14:43:49Z</time>
      </trkpt>
      <trkpt lat="46.53082" lon="5.92202">
        <ele>948</ele>
        <time>2019-11-11T14:44:01Z</time>
      </trkpt>
      <trkpt lat="46.53091" lon="5.92204">
        <ele>946</ele>
        <time>2019-11-11T14:44:13Z</time>
      </trkpt>
      <trkpt lat="46.53101" lon="5.92202">
        <ele>944</ele>
        <time>2019-11-11T14:44:27Z</time>
      </trkpt>
      <trkpt lat="46.53109" lon="5.92194">
        <ele>941</ele>
        <time>2019-11-11T14:44:51Z</time>
      </trkpt>
      <trkpt lat="46.53117" lon="5.9219">
        <ele>939</ele>
        <time>2019-11-11T14:45:02Z</time>
      </trkpt>
      <trkpt lat="46.53126" lon="5.92188">
        <ele>937</ele>
        <time>2019-11-11T14:45:13Z</time>
      </trkpt>
      <trkpt lat="46.53136" lon="5.92184">
        <ele>935</ele>
        <time>2019-11-11T14:45:28Z</time>
      </trkpt>
      <trkpt lat="46.53146" lon="5.92183">
        <ele>934</ele>
        <time>2019-11-11T14:45:38Z</time>
      </trkpt>
      <trkpt lat="46.53154" lon="5.9219">
        <ele>933</ele>
        <time>2019-11-11T14:45:59Z</time>
      </trkpt>
      <trkpt lat="46.53164" lon="5.92188">
        <ele>932</ele>
        <time>2019-11-11T14:46:19Z</time>
      </trkpt>
      <trkpt lat="46.53173" lon="5.92194">
        <ele>931</ele>
        <time>2019-11-11T14:47:09Z</time>
      </trkpt>
      <trkpt lat="46.53182" lon="5.92196">
        <ele>930</ele>
        <time>2019-11-11T14:47:25Z</time>
      </trkpt>
      <trkpt lat="46.53192" lon="5.922">
        <ele>928</ele>
        <time>2019-11-11T14:47:35Z</time>
      </trkpt>
      <trkpt lat="46.53201" lon="5.92205">
        <ele>927</ele>
        <time>2019-11-11T14:47:43Z</time>
      </trkpt>
      <trkpt lat="46.53211" lon="5.92209">
        <ele>924</ele>
        <time>2019-11-11T14:47:50Z</time>
      </trkpt>
      <trkpt lat="46.5322" lon="5.92215">
        <ele>922</ele>
        <time>2019-11-11T14:48:01Z</time>
      </trkpt>
      <trkpt lat="46.53229" lon="5.92218">
        <ele>921</ele>
        <time>2019-11-11T14:48:11Z</time>
      </trkpt>
      <trkpt lat="46.53238" lon="5.92215">
        <ele>919</ele>
        <time>2019-11-11T14:48:23Z</time>
      </trkpt>
      <trkpt lat="46.53247" lon="5.92213">
        <ele>918</ele>
        <time>2019-11-11T14:48:38Z</time>
      </trkpt>
      <trkpt lat="46.53256" lon="5.92216">
        <ele>916</ele>
        <time>2019-11-11T14:48:51Z</time>
      </trkpt>
      <trkpt lat="46.53264" lon="5.92222">
        <ele>914</ele>
        <time>2019-11-11T14:49:01Z</time>
      </trkpt>
      <trkpt lat="46.5327" lon="5.92233">
        <ele>913</ele>
        <time>2019-11-11T14:49:19Z</time>
      </trkpt>
      <trkpt lat="46.53275" lon="5.92244">
        <ele>912</ele>
        <time>2019-11-11T14:49:32Z</time>
      </trkpt>
      <trkpt lat="46.53279" lon="5.92256">
        <ele>911</ele>
        <time>2019-11-11T14:49:45Z</time>
      </trkpt>
      <trkpt lat="46.53283" lon="5.92268">
        <ele>912</ele>
        <time>2019-11-11T14:49:56Z</time>
      </trkpt>
      <trkpt lat="46.53289" lon="5.92278">
        <ele>913</ele>
        <time>2019-11-11T14:50:06Z</time>
      </trkpt>
      <trkpt lat="46.53299" lon="5.92278">
        <ele>912</ele>
        <time>2019-11-11T14:50:30Z</time>
      </trkpt>
      <trkpt lat="46.53309" lon="5.92278">
        <ele>911</ele>
        <time>2019-11-11T14:50:40Z</time>
      </trkpt>
      <trkpt lat="46.53319" lon="5.92273">
        <ele>908</ele>
        <time>2019-11-11T14:50:51Z</time>
      </trkpt>
      <trkpt lat="46.53324" lon="5.92262">
        <ele>905</ele>
        <time>2019-11-11T14:51:00Z</time>
      </trkpt>
      <trkpt lat="46.53329" lon="5.92251">
        <ele>901</ele>
        <time>2019-11-11T14:51:29Z</time>
      </trkpt>
      <trkpt lat="46.53337" lon="5.92249">
        <ele>899</ele>
        <time>2019-11-11T14:52:02Z</time>
      </trkpt>
      <trkpt lat="46.53347" lon="5.92248">
        <ele>898</ele>
        <time>2019-11-11T14:52:35Z</time>
      </trkpt>
      <trkpt lat="46.53356" lon="5.92246">
        <ele>896</ele>
        <time>2019-11-11T14:52:55Z</time>
      </trkpt>
      <trkpt lat="46.53365" lon="5.92248">
        <ele>895</ele>
        <time>2019-11-11T14:53:12Z</time>
      </trkpt>
      <trkpt lat="46.53375" lon="5.92252">
        <ele>894</ele>
        <time>2019-11-11T14:53:34Z</time>
      </trkpt>
      <trkpt lat="46.53384" lon="5.92253">
        <ele>893</ele>
        <time>2019-11-11T14:53:44Z</time>
      </trkpt>
      <trkpt lat="46.53392" lon="5.9225">
        <ele>891</ele>
        <time>2019-11-11T14:53:59Z</time>
      </trkpt>
      <trkpt lat="46.53402" lon="5.92254">
        <ele>891</ele>
        <time>2019-11-11T14:54:10Z</time>
      </trkpt>
      <trkpt lat="46.53412" lon="5.92255">
        <ele>889</ele>
        <time>2019-11-11T14:54:21Z</time>
      </trkpt>
      <trkpt lat="46.5342" lon="5.92251">
        <ele>888</ele>
        <time>2019-11-11T14:54:36Z</time>
      </trkpt>
      <trkpt lat="46.53429" lon="5.92248">
        <ele>886</ele>
        <time>2019-11-11T14:55:02Z</time>
      </trkpt>
      <trkpt lat="46.53436" lon="5.9224">
        <ele>885</ele>
        <time>2019-11-11T14:55:15Z</time>
      </trkpt>
      <trkpt lat="46.53443" lon="5.92231">
        <ele>884</ele>
        <time>2019-11-11T14:55:25Z</time>
      </trkpt>
      <trkpt lat="46.53449" lon="5.9222">
        <ele>882</ele>
        <time>2019-11-11T14:55:37Z</time>
      </trkpt>
      <trkpt lat="46.53454" lon="5.92207">
        <ele>881</ele>
        <time>2019-11-11T14:56:10Z</time>
      </trkpt>
      <trkpt lat="46.5346" lon="5.92196">
        <ele>880</ele>
        <time>2019-11-11T14:56:20Z</time>
      </trkpt>
      <trkpt lat="46.53465" lon="5.92184">
        <ele>879</ele>
        <time>2019-11-11T14:56:29Z</time>
      </trkpt>
      <trkpt lat="46.53471" lon="5.92174">
        <ele>878</ele>
        <time>2019-11-11T14:56:44Z</time>
      </trkpt>
      <trkpt lat="46.53468" lon="5.9216">
        <ele>878</ele>
        <time>2019-11-11T14:57:12Z</time>
      </trkpt>
      <trkpt lat="46.53476" lon="5.92169">
        <ele>878</ele>
        <time>2019-11-11T14:57:19Z</time>
      </trkpt>
      <trkpt lat="46.53481" lon="5.92157">
        <ele>878</ele>
        <time>2019-11-11T14:57:29Z</time>
      </trkpt>
      <trkpt lat="46.53484" lon="5.92143">
        <ele>877</ele>
        <time>2019-11-11T14:57:41Z</time>
      </trkpt>
      <trkpt lat="46.53488" lon="5.9213">
        <ele>877</ele>
        <time>2019-11-11T14:57:54Z</time>
      </trkpt>
      <trkpt lat="46.53487" lon="5.92116">
        <ele>876</ele>
        <time>2019-11-11T14:58:27Z</time>
      </trkpt>
      <trkpt lat="46.5349" lon="5.92103">
        <ele>876</ele>
        <time>2019-11-11T14:58:36Z</time>
      </trkpt>
      <trkpt lat="46.53495" lon="5.92091">
        <ele>876</ele>
        <time>2019-11-11T14:58:43Z</time>
      </trkpt>
      <trkpt lat="46.53497" lon="5.92077">
        <ele>876</ele>
        <time>2019-11-11T14:58:52Z</time>
      </trkpt>
      <trkpt lat="46.53502" lon="5.92065">
        <ele>875</ele>
        <time>2019-11-11T14:58:59Z</time>
      </trkpt>
      <trkpt lat="46.53504" lon="5.92049">
        <ele>875</ele>
        <time>2019-11-11T14:59:09Z</time>
      </trkpt>
      <trkpt lat="46.53506" lon="5.92034">
        <ele>875</ele>
        <time>2019-11-11T14:59:20Z</time>
      </trkpt>
      <trkpt lat="46.53507" lon="5.9202">
        <ele>875</ele>
        <time>2019-11-11T14:59:32Z</time>
      </trkpt>
      <trkpt lat="46.53499" lon="5.92013">
        <ele>875</ele>
        <time>2019-11-11T14:59:45Z</time>
      </trkpt>
      <trkpt lat="46.5349" lon="5.92009">
        <ele>875</ele>
        <time>2019-11-11T14:59:59Z</time>
      </trkpt>
      <trkpt lat="46.53481" lon="5.92015">
        <ele>875</ele>
        <time>2019-11-11T15:00:09Z</time>
      </trkpt>
      <trkpt lat="46.5347" lon="5.92016">
        <ele>875</ele>
        <time>2019-11-11T15:00:18Z</time>
      </trkpt>
      <trkpt lat="46.53462" lon="5.92007">
        <ele>875</ele>
        <time>2019-11-11T15:00:28Z</time>
      </trkpt>
      <trkpt lat="46.53457" lon="5.91997">
        <ele>875</ele>
        <time>2019-11-11T15:00:40Z</time>
      </trkpt>
      <trkpt lat="46.53466" lon="5.92004">
        <ele>875</ele>
        <time>2019-11-11T15:01:13Z</time>
      </trkpt>
      <trkpt lat="46.53475" lon="5.92007">
        <ele>875</ele>
        <time>2019-11-11T15:01:25Z</time>
      </trkpt>
      <trkpt lat="46.53474" lon="5.92022">
        <ele>875</ele>
        <time>2019-11-11T15:02:06Z</time>
      </trkpt>
      <trkpt lat="46.53471" lon="5.92036">
        <ele>875</ele>
        <time>2019-11-11T15:02:14Z</time>
      </trkpt>
      <trkpt lat="46.53471" lon="5.9205">
        <ele>875</ele>
        <time>2019-11-11T15:02:24Z</time>
      </trkpt>
      <trkpt lat="46.53469" lon="5.92063">
        <ele>875</ele>
        <time>2019-11-11T15:02:36Z</time>
      </trkpt>
      <trkpt lat="46.53467" lon="5.92076">
        <ele>875</ele>
        <time>2019-11-11T15:02:49Z</time>
      </trkpt>
      <trkpt lat="46.53474" lon="5.92082">
        <ele>875</ele>
        <time>2019-11-11T15:03:16Z</time>
      </trkpt>
      <trkpt lat="46.53467" lon="5.92088">
        <ele>875</ele>
        <time>2019-11-11T15:03:38Z</time>
      </trkpt>
      <trkpt lat="46.53458" lon="5.92092">
        <ele>875</ele>
        <time>2019-11-11T15:04:27Z</time>
      </trkpt>
      <trkpt lat="46.53454" lon="5.92104">
        <ele>876</ele>
        <time>2019-11-11T15:04:40Z</time>
      </trkpt>
      <trkpt lat="46.53462" lon="5.9211">
        <ele>876</ele>
        <time>2019-11-11T15:04:54Z</time>
      </trkpt>
      <trkpt lat="46.53469" lon="5.92112">
        <ele>876</ele>
        <time>2019-11-11T15:05:12Z</time>
      </trkpt>
    </trkseg>
  </trk>
</gpx>